<?xml version="1.0" encoding="UTF-8" standalone="no" ?>
<gpx xmlns="http://www.topografix.com/GPX/1/1" xmlns:xsi="http://www.w3.org/2001/XMLSchema-instance" xsi:schemaLocation="http://www.topografix.com/GPX/1/1 http://www.topografix.com/GPX/1/1/gpx.xsd" version="1.1" creator="VisuGPX - https://www.visugpx.com">
  <metadata>
    <name>VarianteVenellesMaison</name>
  </metadata>
  <trk>
    <name><![CDATA[VarianteVenellesMaison_1]]></name>
    <extensions>
      <line xmlns="http://www.topografix.com/GPX/gpx_style/0/2">
        <color>0000FF</color>
        <width>4</width>
      </line>
    </extensions>
    <trkseg>
      <trkpt lat="43.53743" lon="5.47253">
        <ele>241.5</ele>
      </trkpt>
      <trkpt lat="43.538" lon="5.47344">
        <ele>248.5</ele>
      </trkpt>
      <trkpt lat="43.53851" lon="5.47411">
        <ele>250.4</ele>
      </trkpt>
      <trkpt lat="43.53906" lon="5.47559">
        <ele>259.5</ele>
      </trkpt>
      <trkpt lat="43.53996" lon="5.4766">
        <ele>269.9</ele>
      </trkpt>
      <trkpt lat="43.54071" lon="5.47799">
        <ele>276.1</ele>
      </trkpt>
      <trkpt lat="43.54033" lon="5.47854">
        <ele>280.5</ele>
      </trkpt>
      <trkpt lat="43.54119" lon="5.47984">
        <ele>286.7</ele>
      </trkpt>
      <trkpt lat="43.54181" lon="5.48103">
        <ele>298.1</ele>
      </trkpt>
      <trkpt lat="43.54251" lon="5.48121">
        <ele>296.2</ele>
      </trkpt>
      <trkpt lat="43.54266" lon="5.4816">
        <ele>299.2</ele>
      </trkpt>
      <trkpt lat="43.54383" lon="5.48209">
        <ele>305.6</ele>
      </trkpt>
      <trkpt lat="43.54427" lon="5.48452">
        <ele>323.6</ele>
      </trkpt>
      <trkpt lat="43.54484" lon="5.48528">
        <ele>335.2</ele>
      </trkpt>
      <trkpt lat="43.54387" lon="5.48616">
        <ele>350.9</ele>
      </trkpt>
      <trkpt lat="43.54418" lon="5.48725">
        <ele>362.5</ele>
      </trkpt>
      <trkpt lat="43.54508" lon="5.48676">
        <ele>359.5</ele>
      </trkpt>
      <trkpt lat="43.54535" lon="5.48873">
        <ele>379.9</ele>
      </trkpt>
      <trkpt lat="43.54553" lon="5.48958">
        <ele>387</ele>
      </trkpt>
      <trkpt lat="43.54553" lon="5.49012">
        <ele>388</ele>
      </trkpt>
      <trkpt lat="43.54676" lon="5.49149">
        <ele>394.3</ele>
      </trkpt>
      <trkpt lat="43.54729" lon="5.49286">
        <ele>398.5</ele>
      </trkpt>
      <trkpt lat="43.54766" lon="5.49507">
        <ele>409.2</ele>
      </trkpt>
      <trkpt lat="43.54921" lon="5.49605">
        <ele>417.7</ele>
      </trkpt>
      <trkpt lat="43.54926" lon="5.49733">
        <ele>417.3</ele>
      </trkpt>
      <trkpt lat="43.54983" lon="5.49963">
        <ele>418.1</ele>
      </trkpt>
      <trkpt lat="43.55034" lon="5.50151">
        <ele>415.8</ele>
      </trkpt>
      <trkpt lat="43.55139" lon="5.50437">
        <ele>417.3</ele>
      </trkpt>
      <trkpt lat="43.55212" lon="5.50631">
        <ele>425.3</ele>
      </trkpt>
      <trkpt lat="43.55298" lon="5.5081">
        <ele>430.4</ele>
      </trkpt>
      <trkpt lat="43.55353" lon="5.51039">
        <ele>435.5</ele>
      </trkpt>
      <trkpt lat="43.55257" lon="5.51108">
        <ele>432.2</ele>
      </trkpt>
      <trkpt lat="43.55296" lon="5.51357">
        <ele>434.2</ele>
      </trkpt>
      <trkpt lat="43.55296" lon="5.5159">
        <ele>433.8</ele>
      </trkpt>
      <trkpt lat="43.55325" lon="5.51785">
        <ele>440.9</ele>
      </trkpt>
      <trkpt lat="43.55356" lon="5.51939">
        <ele>443.3</ele>
      </trkpt>
      <trkpt lat="43.55345" lon="5.52002">
        <ele>441.4</ele>
      </trkpt>
      <trkpt lat="43.55296" lon="5.51981">
        <ele>437.9</ele>
      </trkpt>
      <trkpt lat="43.5526" lon="5.51976">
        <ele>434.5</ele>
      </trkpt>
      <trkpt lat="43.55291" lon="5.52067">
        <ele>432.9</ele>
      </trkpt>
      <trkpt lat="43.55209" lon="5.52097">
        <ele>424.8</ele>
      </trkpt>
      <trkpt lat="43.55139" lon="5.52119">
        <ele>419</ele>
      </trkpt>
      <trkpt lat="43.55159" lon="5.52179">
        <ele>418.3</ele>
      </trkpt>
      <trkpt lat="43.55317" lon="5.52425">
        <ele>430</ele>
      </trkpt>
      <trkpt lat="43.55374" lon="5.52531">
        <ele>438.6</ele>
      </trkpt>
      <trkpt lat="43.55385" lon="5.52598">
        <ele>439.9</ele>
      </trkpt>
      <trkpt lat="43.55414" lon="5.52716">
        <ele>441.3</ele>
      </trkpt>
      <trkpt lat="43.55453" lon="5.52889">
        <ele>451.4</ele>
      </trkpt>
      <trkpt lat="43.55486" lon="5.53065">
        <ele>455</ele>
      </trkpt>
      <trkpt lat="43.55499" lon="5.53208">
        <ele>456.9</ele>
      </trkpt>
      <trkpt lat="43.55496" lon="5.53285">
        <ele>453</ele>
      </trkpt>
      <trkpt lat="43.55459" lon="5.53315">
        <ele>446.9</ele>
      </trkpt>
      <trkpt lat="43.55494" lon="5.53336">
        <ele>449.3</ele>
      </trkpt>
      <trkpt lat="43.55507" lon="5.53418">
        <ele>447.8</ele>
      </trkpt>
      <trkpt lat="43.5554" lon="5.53467">
        <ele>450.3</ele>
      </trkpt>
      <trkpt lat="43.5565" lon="5.53774">
        <ele>452.5</ele>
      </trkpt>
      <trkpt lat="43.55907" lon="5.54093">
        <ele>464.2</ele>
      </trkpt>
      <trkpt lat="43.56243" lon="5.54492">
        <ele>472.8</ele>
      </trkpt>
      <trkpt lat="43.56225" lon="5.54896">
        <ele>469.4</ele>
      </trkpt>
      <trkpt lat="43.56343" lon="5.55286">
        <ele>483.2</ele>
      </trkpt>
      <trkpt lat="43.56293" lon="5.55695">
        <ele>484.8</ele>
      </trkpt>
      <trkpt lat="43.56354" lon="5.55853">
        <ele>493</ele>
      </trkpt>
      <trkpt lat="43.56361" lon="5.5597">
        <ele>495.2</ele>
      </trkpt>
      <trkpt lat="43.56373" lon="5.56006">
        <ele>495.3</ele>
      </trkpt>
      <trkpt lat="43.56384" lon="5.56061">
        <ele>496</ele>
      </trkpt>
      <trkpt lat="43.56404" lon="5.56065">
        <ele>494.3</ele>
        <time>1970-01-01T00:44:25.000Z</time>
      </trkpt>
      <trkpt lat="43.56404" lon="5.56069">
        <ele>494.3</ele>
        <time>1970-01-01T00:44:26.000Z</time>
      </trkpt>
      <trkpt lat="43.56405" lon="5.56072">
        <ele>494.4</ele>
        <time>1970-01-01T00:44:27.000Z</time>
      </trkpt>
      <trkpt lat="43.56407" lon="5.56074">
        <ele>494.5</ele>
        <time>1970-01-01T00:44:29.000Z</time>
      </trkpt>
      <trkpt lat="43.56409" lon="5.5608">
        <ele>494.6</ele>
        <time>1970-01-01T00:44:31.000Z</time>
      </trkpt>
      <trkpt lat="43.5641" lon="5.56083">
        <ele>494.7</ele>
        <time>1970-01-01T00:44:32.000Z</time>
      </trkpt>
      <trkpt lat="43.56412" lon="5.56089">
        <ele>494.9</ele>
        <time>1970-01-01T00:44:34.000Z</time>
      </trkpt>
      <trkpt lat="43.56413" lon="5.56092">
        <ele>495</ele>
        <time>1970-01-01T00:44:35.000Z</time>
      </trkpt>
      <trkpt lat="43.56414" lon="5.56097">
        <ele>495.2</ele>
        <time>1970-01-01T00:44:37.000Z</time>
      </trkpt>
      <trkpt lat="43.56415" lon="5.561">
        <ele>495.3</ele>
        <time>1970-01-01T00:44:38.000Z</time>
      </trkpt>
      <trkpt lat="43.56417" lon="5.56104">
        <ele>495.5</ele>
        <time>1970-01-01T00:44:40.000Z</time>
      </trkpt>
      <trkpt lat="43.5642" lon="5.56109">
        <ele>495.7</ele>
        <time>1970-01-01T00:44:42.000Z</time>
      </trkpt>
      <trkpt lat="43.56424" lon="5.56112">
        <ele>495.8</ele>
        <time>1970-01-01T00:44:44.000Z</time>
      </trkpt>
      <trkpt lat="43.56425" lon="5.56115">
        <ele>495.9</ele>
        <time>1970-01-01T00:44:45.000Z</time>
      </trkpt>
      <trkpt lat="43.56427" lon="5.56118">
        <ele>496.1</ele>
        <time>1970-01-01T00:44:47.000Z</time>
      </trkpt>
      <trkpt lat="43.56429" lon="5.56122">
        <ele>496.3</ele>
        <time>1970-01-01T00:44:48.000Z</time>
      </trkpt>
      <trkpt lat="43.5643" lon="5.56123">
        <ele>496.3</ele>
        <time>1970-01-01T00:44:49.000Z</time>
      </trkpt>
      <trkpt lat="43.56432" lon="5.56128">
        <ele>496.5</ele>
        <time>1970-01-01T00:44:51.000Z</time>
      </trkpt>
      <trkpt lat="43.56434" lon="5.56129">
        <ele>496.6</ele>
        <time>1970-01-01T00:44:52.000Z</time>
      </trkpt>
      <trkpt lat="43.56437" lon="5.56134">
        <ele>496.8</ele>
        <time>1970-01-01T00:44:54.000Z</time>
      </trkpt>
      <trkpt lat="43.56438" lon="5.56136">
        <ele>496.9</ele>
        <time>1970-01-01T00:44:55.000Z</time>
      </trkpt>
      <trkpt lat="43.56441" lon="5.56141">
        <ele>497.1</ele>
        <time>1970-01-01T00:44:57.000Z</time>
      </trkpt>
      <trkpt lat="43.56441" lon="5.56142">
        <ele>497.2</ele>
        <time>1970-01-01T00:44:58.000Z</time>
      </trkpt>
      <trkpt lat="43.56443" lon="5.56148">
        <ele>497.5</ele>
        <time>1970-01-01T00:45:00.000Z</time>
      </trkpt>
      <trkpt lat="43.56446" lon="5.56153">
        <ele>497.7</ele>
        <time>1970-01-01T00:45:02.000Z</time>
      </trkpt>
      <trkpt lat="43.56447" lon="5.56155">
        <ele>497.8</ele>
        <time>1970-01-01T00:45:03.000Z</time>
      </trkpt>
      <trkpt lat="43.56448" lon="5.56156">
        <ele>497.9</ele>
        <time>1970-01-01T00:45:04.000Z</time>
      </trkpt>
      <trkpt lat="43.56449" lon="5.56159">
        <ele>498</ele>
        <time>1970-01-01T00:45:05.000Z</time>
      </trkpt>
      <trkpt lat="43.56452" lon="5.56162">
        <ele>498.2</ele>
        <time>1970-01-01T00:45:07.000Z</time>
      </trkpt>
      <trkpt lat="43.56455" lon="5.56167">
        <ele>498.4</ele>
        <time>1970-01-01T00:45:09.000Z</time>
      </trkpt>
      <trkpt lat="43.56455" lon="5.56171">
        <ele>498.5</ele>
        <time>1970-01-01T00:45:10.000Z</time>
      </trkpt>
      <trkpt lat="43.56457" lon="5.56176">
        <ele>498.8</ele>
        <time>1970-01-01T00:45:12.000Z</time>
      </trkpt>
      <trkpt lat="43.56459" lon="5.5618">
        <ele>498.9</ele>
        <time>1970-01-01T00:45:13.000Z</time>
      </trkpt>
      <trkpt lat="43.56459" lon="5.56182">
        <ele>499</ele>
        <time>1970-01-01T00:45:14.000Z</time>
      </trkpt>
      <trkpt lat="43.5646" lon="5.56184">
        <ele>499.1</ele>
        <time>1970-01-01T00:45:15.000Z</time>
      </trkpt>
      <trkpt lat="43.56462" lon="5.56188">
        <ele>499.3</ele>
        <time>1970-01-01T00:45:17.000Z</time>
      </trkpt>
      <trkpt lat="43.56462" lon="5.56194">
        <ele>499.5</ele>
        <time>1970-01-01T00:45:18.000Z</time>
      </trkpt>
      <trkpt lat="43.56462" lon="5.56195">
        <ele>499.6</ele>
        <time>1970-01-01T00:45:19.000Z</time>
      </trkpt>
      <trkpt lat="43.56461" lon="5.562">
        <ele>499.8</ele>
        <time>1970-01-01T00:45:21.000Z</time>
      </trkpt>
      <trkpt lat="43.56461" lon="5.56207">
        <ele>500</ele>
        <time>1970-01-01T00:45:23.000Z</time>
      </trkpt>
      <trkpt lat="43.56462" lon="5.56211">
        <ele>500.2</ele>
        <time>1970-01-01T00:45:25.000Z</time>
      </trkpt>
      <trkpt lat="43.56462" lon="5.56215">
        <ele>500.3</ele>
        <time>1970-01-01T00:45:26.000Z</time>
      </trkpt>
      <trkpt lat="43.56462" lon="5.5622">
        <ele>500.5</ele>
        <time>1970-01-01T00:45:28.000Z</time>
      </trkpt>
      <trkpt lat="43.56463" lon="5.56225">
        <ele>500.7</ele>
        <time>1970-01-01T00:45:30.000Z</time>
      </trkpt>
      <trkpt lat="43.56464" lon="5.56231">
        <ele>500.8</ele>
        <time>1970-01-01T00:45:32.000Z</time>
      </trkpt>
      <trkpt lat="43.56464" lon="5.56236">
        <ele>501</ele>
        <time>1970-01-01T00:45:34.000Z</time>
      </trkpt>
      <trkpt lat="43.56465" lon="5.56242">
        <ele>501.2</ele>
        <time>1970-01-01T00:45:36.000Z</time>
      </trkpt>
      <trkpt lat="43.56465" lon="5.56248">
        <ele>501.4</ele>
        <time>1970-01-01T00:45:38.000Z</time>
      </trkpt>
      <trkpt lat="43.56466" lon="5.56253">
        <ele>501.6</ele>
        <time>1970-01-01T00:45:40.000Z</time>
      </trkpt>
      <trkpt lat="43.56466" lon="5.56259">
        <ele>501.8</ele>
        <time>1970-01-01T00:45:42.000Z</time>
      </trkpt>
      <trkpt lat="43.56468" lon="5.56268">
        <ele>502.1</ele>
        <time>1970-01-01T00:45:45.000Z</time>
      </trkpt>
      <trkpt lat="43.5647" lon="5.56272">
        <ele>502.2</ele>
        <time>1970-01-01T00:45:48.000Z</time>
      </trkpt>
      <trkpt lat="43.56472" lon="5.56278">
        <ele>502.5</ele>
        <time>1970-01-01T00:45:50.000Z</time>
      </trkpt>
      <trkpt lat="43.56473" lon="5.56283">
        <ele>502.6</ele>
        <time>1970-01-01T00:45:51.000Z</time>
      </trkpt>
      <trkpt lat="43.56475" lon="5.56285">
        <ele>502.7</ele>
        <time>1970-01-01T00:45:52.000Z</time>
      </trkpt>
      <trkpt lat="43.56475" lon="5.56287">
        <ele>502.8</ele>
        <time>1970-01-01T00:45:53.000Z</time>
      </trkpt>
      <trkpt lat="43.56478" lon="5.56292">
        <ele>503</ele>
        <time>1970-01-01T00:45:55.000Z</time>
      </trkpt>
      <trkpt lat="43.56479" lon="5.56296">
        <ele>503.1</ele>
        <time>1970-01-01T00:45:56.000Z</time>
      </trkpt>
      <trkpt lat="43.56479" lon="5.56298">
        <ele>503.2</ele>
        <time>1970-01-01T00:45:57.000Z</time>
      </trkpt>
      <trkpt lat="43.56481" lon="5.56304">
        <ele>503.5</ele>
        <time>1970-01-01T00:45:59.000Z</time>
      </trkpt>
      <trkpt lat="43.56482" lon="5.56308">
        <ele>503.6</ele>
        <time>1970-01-01T00:46:00.000Z</time>
      </trkpt>
      <trkpt lat="43.56482" lon="5.5631">
        <ele>503.7</ele>
        <time>1970-01-01T00:46:01.000Z</time>
      </trkpt>
      <trkpt lat="43.56484" lon="5.56315">
        <ele>504</ele>
        <time>1970-01-01T00:46:03.000Z</time>
      </trkpt>
      <trkpt lat="43.56483" lon="5.56321">
        <ele>504.3</ele>
        <time>1970-01-01T00:46:05.000Z</time>
      </trkpt>
      <trkpt lat="43.56483" lon="5.56325">
        <ele>504.5</ele>
        <time>1970-01-01T00:46:07.000Z</time>
      </trkpt>
      <trkpt lat="43.56483" lon="5.56329">
        <ele>504.7</ele>
        <time>1970-01-01T00:46:09.000Z</time>
      </trkpt>
      <trkpt lat="43.56483" lon="5.56332">
        <ele>504.8</ele>
        <time>1970-01-01T00:46:10.000Z</time>
      </trkpt>
      <trkpt lat="43.56482" lon="5.56336">
        <ele>505.1</ele>
        <time>1970-01-01T00:46:12.000Z</time>
      </trkpt>
      <trkpt lat="43.56482" lon="5.56339">
        <ele>505.3</ele>
        <time>1970-01-01T00:46:13.000Z</time>
      </trkpt>
      <trkpt lat="43.56481" lon="5.56343">
        <ele>505.5</ele>
        <time>1970-01-01T00:46:15.000Z</time>
      </trkpt>
      <trkpt lat="43.56481" lon="5.56345">
        <ele>505.6</ele>
        <time>1970-01-01T00:46:16.000Z</time>
      </trkpt>
      <trkpt lat="43.56479" lon="5.5635">
        <ele>505.9</ele>
        <time>1970-01-01T00:46:18.000Z</time>
      </trkpt>
      <trkpt lat="43.56479" lon="5.56353">
        <ele>506.1</ele>
        <time>1970-01-01T00:46:19.000Z</time>
      </trkpt>
      <trkpt lat="43.56479" lon="5.56358">
        <ele>506.5</ele>
        <time>1970-01-01T00:46:21.000Z</time>
      </trkpt>
      <trkpt lat="43.56479" lon="5.5636">
        <ele>506.6</ele>
        <time>1970-01-01T00:46:22.000Z</time>
      </trkpt>
      <trkpt lat="43.56479" lon="5.56364">
        <ele>506.9</ele>
        <time>1970-01-01T00:46:24.000Z</time>
      </trkpt>
      <trkpt lat="43.56479" lon="5.56366">
        <ele>507</ele>
        <time>1970-01-01T00:46:25.000Z</time>
      </trkpt>
      <trkpt lat="43.5648" lon="5.5637">
        <ele>507.3</ele>
        <time>1970-01-01T00:46:27.000Z</time>
      </trkpt>
      <trkpt lat="43.5648" lon="5.56373">
        <ele>507.5</ele>
        <time>1970-01-01T00:46:29.000Z</time>
      </trkpt>
      <trkpt lat="43.5648" lon="5.56374">
        <ele>507.6</ele>
        <time>1970-01-01T00:46:30.000Z</time>
      </trkpt>
      <trkpt lat="43.56481" lon="5.56376">
        <ele>507.7</ele>
        <time>1970-01-01T00:46:31.000Z</time>
      </trkpt>
      <trkpt lat="43.56481" lon="5.56377">
        <ele>507.8</ele>
        <time>1970-01-01T00:46:32.000Z</time>
      </trkpt>
      <trkpt lat="43.56482" lon="5.56379">
        <ele>508</ele>
        <time>1970-01-01T00:46:34.000Z</time>
      </trkpt>
      <trkpt lat="43.56483" lon="5.56381">
        <ele>508.2</ele>
        <time>1970-01-01T00:46:35.000Z</time>
      </trkpt>
      <trkpt lat="43.56483" lon="5.56384">
        <ele>508.4</ele>
        <time>1970-01-01T00:46:37.000Z</time>
      </trkpt>
      <trkpt lat="43.56483" lon="5.56386">
        <ele>508.5</ele>
        <time>1970-01-01T00:46:38.000Z</time>
      </trkpt>
      <trkpt lat="43.56483" lon="5.56388">
        <ele>508.7</ele>
        <time>1970-01-01T00:46:40.000Z</time>
      </trkpt>
      <trkpt lat="43.56483" lon="5.56388">
        <ele>508.7</ele>
        <time>1970-01-01T00:46:41.000Z</time>
      </trkpt>
      <trkpt lat="43.56484" lon="5.56392">
        <ele>509</ele>
        <time>1970-01-01T00:46:43.000Z</time>
      </trkpt>
      <trkpt lat="43.56484" lon="5.56396">
        <ele>509.3</ele>
        <time>1970-01-01T00:46:45.000Z</time>
      </trkpt>
      <trkpt lat="43.56484" lon="5.56398">
        <ele>509.5</ele>
        <time>1970-01-01T00:46:46.000Z</time>
      </trkpt>
      <trkpt lat="43.56485" lon="5.564">
        <ele>509.7</ele>
        <time>1970-01-01T00:46:48.000Z</time>
      </trkpt>
      <trkpt lat="43.56485" lon="5.56401">
        <ele>509.7</ele>
        <time>1970-01-01T00:46:49.000Z</time>
      </trkpt>
      <trkpt lat="43.56485" lon="5.56402">
        <ele>509.8</ele>
        <time>1970-01-01T00:46:50.000Z</time>
      </trkpt>
      <trkpt lat="43.56487" lon="5.56405">
        <ele>510.1</ele>
        <time>1970-01-01T00:46:52.000Z</time>
      </trkpt>
      <trkpt lat="43.5649" lon="5.56407">
        <ele>510.4</ele>
        <time>1970-01-01T00:46:54.000Z</time>
      </trkpt>
      <trkpt lat="43.56492" lon="5.5641">
        <ele>510.7</ele>
        <time>1970-01-01T00:46:56.000Z</time>
      </trkpt>
      <trkpt lat="43.56494" lon="5.56414">
        <ele>511</ele>
        <time>1970-01-01T00:46:58.000Z</time>
      </trkpt>
      <trkpt lat="43.56495" lon="5.56417">
        <ele>511.3</ele>
        <time>1970-01-01T00:47:00.000Z</time>
      </trkpt>
      <trkpt lat="43.56495" lon="5.56419">
        <ele>511.4</ele>
        <time>1970-01-01T00:47:01.000Z</time>
      </trkpt>
      <trkpt lat="43.56495" lon="5.5642">
        <ele>511.5</ele>
        <time>1970-01-01T00:47:02.000Z</time>
      </trkpt>
      <trkpt lat="43.56496" lon="5.56421">
        <ele>511.7</ele>
        <time>1970-01-01T00:47:03.000Z</time>
      </trkpt>
      <trkpt lat="43.56497" lon="5.56422">
        <ele>511.8</ele>
        <time>1970-01-01T00:47:04.000Z</time>
      </trkpt>
      <trkpt lat="43.56498" lon="5.56424">
        <ele>512</ele>
        <time>1970-01-01T00:47:06.000Z</time>
      </trkpt>
      <trkpt lat="43.565" lon="5.56426">
        <ele>512.2</ele>
        <time>1970-01-01T00:47:08.000Z</time>
      </trkpt>
      <trkpt lat="43.56501" lon="5.56427">
        <ele>512.3</ele>
        <time>1970-01-01T00:47:09.000Z</time>
      </trkpt>
      <trkpt lat="43.56502" lon="5.56429">
        <ele>512.5</ele>
        <time>1970-01-01T00:47:11.000Z</time>
      </trkpt>
      <trkpt lat="43.56503" lon="5.56431">
        <ele>512.7</ele>
        <time>1970-01-01T00:47:13.000Z</time>
      </trkpt>
      <trkpt lat="43.56504" lon="5.56433">
        <ele>512.9</ele>
        <time>1970-01-01T00:47:15.000Z</time>
      </trkpt>
      <trkpt lat="43.56505" lon="5.56435">
        <ele>513.1</ele>
        <time>1970-01-01T00:47:16.000Z</time>
      </trkpt>
      <trkpt lat="43.56507" lon="5.56437">
        <ele>513.3</ele>
        <time>1970-01-01T00:47:18.000Z</time>
      </trkpt>
      <trkpt lat="43.56507" lon="5.56438">
        <ele>513.4</ele>
        <time>1970-01-01T00:47:19.000Z</time>
      </trkpt>
      <trkpt lat="43.56508" lon="5.56441">
        <ele>513.7</ele>
        <time>1970-01-01T00:47:21.000Z</time>
      </trkpt>
      <trkpt lat="43.56508" lon="5.56443">
        <ele>513.8</ele>
        <time>1970-01-01T00:47:22.000Z</time>
      </trkpt>
      <trkpt lat="43.56509" lon="5.56446">
        <ele>514.1</ele>
        <time>1970-01-01T00:47:24.000Z</time>
      </trkpt>
      <trkpt lat="43.56509" lon="5.56449">
        <ele>514.4</ele>
        <time>1970-01-01T00:47:26.000Z</time>
      </trkpt>
      <trkpt lat="43.5651" lon="5.56453">
        <ele>514.6</ele>
        <time>1970-01-01T00:47:28.000Z</time>
      </trkpt>
      <trkpt lat="43.56511" lon="5.56455">
        <ele>514.9</ele>
        <time>1970-01-01T00:47:30.000Z</time>
      </trkpt>
      <trkpt lat="43.56511" lon="5.56458">
        <ele>515.1</ele>
        <time>1970-01-01T00:47:32.000Z</time>
      </trkpt>
      <trkpt lat="43.56511" lon="5.56459">
        <ele>515.2</ele>
        <time>1970-01-01T00:47:33.000Z</time>
      </trkpt>
      <trkpt lat="43.56511" lon="5.56462">
        <ele>515.4</ele>
        <time>1970-01-01T00:47:35.000Z</time>
      </trkpt>
      <trkpt lat="43.56511" lon="5.56465">
        <ele>515.6</ele>
        <time>1970-01-01T00:47:37.000Z</time>
      </trkpt>
      <trkpt lat="43.56512" lon="5.56466">
        <ele>515.8</ele>
        <time>1970-01-01T00:47:38.000Z</time>
      </trkpt>
      <trkpt lat="43.56513" lon="5.56468">
        <ele>515.9</ele>
        <time>1970-01-01T00:47:39.000Z</time>
      </trkpt>
      <trkpt lat="43.56514" lon="5.5647">
        <ele>516.1</ele>
        <time>1970-01-01T00:47:41.000Z</time>
      </trkpt>
      <trkpt lat="43.56514" lon="5.56472">
        <ele>516.3</ele>
        <time>1970-01-01T00:47:42.000Z</time>
      </trkpt>
      <trkpt lat="43.56514" lon="5.56475">
        <ele>516.6</ele>
        <time>1970-01-01T00:47:44.000Z</time>
      </trkpt>
      <trkpt lat="43.56514" lon="5.56477">
        <ele>516.7</ele>
        <time>1970-01-01T00:47:45.000Z</time>
      </trkpt>
      <trkpt lat="43.56515" lon="5.5648">
        <ele>516.9</ele>
        <time>1970-01-01T00:47:46.000Z</time>
      </trkpt>
      <trkpt lat="43.56516" lon="5.56486">
        <ele>517.4</ele>
        <time>1970-01-01T00:47:48.000Z</time>
      </trkpt>
      <trkpt lat="43.56517" lon="5.56488">
        <ele>517.6</ele>
        <time>1970-01-01T00:47:50.000Z</time>
      </trkpt>
      <trkpt lat="43.56517" lon="5.56489">
        <ele>517.7</ele>
        <time>1970-01-01T00:47:51.000Z</time>
      </trkpt>
      <trkpt lat="43.56517" lon="5.56493">
        <ele>518</ele>
        <time>1970-01-01T00:47:53.000Z</time>
      </trkpt>
      <trkpt lat="43.56517" lon="5.56495">
        <ele>518.1</ele>
        <time>1970-01-01T00:47:54.000Z</time>
      </trkpt>
      <trkpt lat="43.56517" lon="5.56497">
        <ele>518.3</ele>
        <time>1970-01-01T00:47:55.000Z</time>
      </trkpt>
      <trkpt lat="43.56517" lon="5.56499">
        <ele>518.4</ele>
        <time>1970-01-01T00:47:57.000Z</time>
      </trkpt>
      <trkpt lat="43.56518" lon="5.56502">
        <ele>518.7</ele>
        <time>1970-01-01T00:47:59.000Z</time>
      </trkpt>
      <trkpt lat="43.56518" lon="5.56504">
        <ele>518.8</ele>
        <time>1970-01-01T00:48:00.000Z</time>
      </trkpt>
      <trkpt lat="43.56519" lon="5.56506">
        <ele>518.9</ele>
        <time>1970-01-01T00:48:01.000Z</time>
      </trkpt>
      <trkpt lat="43.56519" lon="5.5651">
        <ele>519.1</ele>
        <time>1970-01-01T00:48:03.000Z</time>
      </trkpt>
      <trkpt lat="43.5652" lon="5.56514">
        <ele>519.4</ele>
        <time>1970-01-01T00:48:05.000Z</time>
      </trkpt>
      <trkpt lat="43.5652" lon="5.56515">
        <ele>519.5</ele>
        <time>1970-01-01T00:48:06.000Z</time>
      </trkpt>
      <trkpt lat="43.5652" lon="5.56518">
        <ele>519.7</ele>
        <time>1970-01-01T00:48:08.000Z</time>
      </trkpt>
      <trkpt lat="43.5652" lon="5.5652">
        <ele>519.8</ele>
        <time>1970-01-01T00:48:09.000Z</time>
      </trkpt>
      <trkpt lat="43.56521" lon="5.56524">
        <ele>520</ele>
        <time>1970-01-01T00:48:11.000Z</time>
      </trkpt>
      <trkpt lat="43.56522" lon="5.56528">
        <ele>520.3</ele>
        <time>1970-01-01T00:48:13.000Z</time>
      </trkpt>
      <trkpt lat="43.56523" lon="5.56532">
        <ele>520.5</ele>
        <time>1970-01-01T00:48:15.000Z</time>
      </trkpt>
      <trkpt lat="43.56523" lon="5.56536">
        <ele>520.7</ele>
        <time>1970-01-01T00:48:17.000Z</time>
      </trkpt>
      <trkpt lat="43.56524" lon="5.56538">
        <ele>520.8</ele>
        <time>1970-01-01T00:48:18.000Z</time>
      </trkpt>
      <trkpt lat="43.56525" lon="5.56541">
        <ele>521</ele>
        <time>1970-01-01T00:48:20.000Z</time>
      </trkpt>
      <trkpt lat="43.56526" lon="5.56542">
        <ele>521.1</ele>
        <time>1970-01-01T00:48:21.000Z</time>
      </trkpt>
      <trkpt lat="43.56527" lon="5.56545">
        <ele>521.2</ele>
        <time>1970-01-01T00:48:23.000Z</time>
      </trkpt>
      <trkpt lat="43.56528" lon="5.56546">
        <ele>521.3</ele>
        <time>1970-01-01T00:48:24.000Z</time>
      </trkpt>
      <trkpt lat="43.56529" lon="5.56546">
        <ele>521.4</ele>
        <time>1970-01-01T00:48:25.000Z</time>
      </trkpt>
      <trkpt lat="43.56531" lon="5.56548">
        <ele>521.6</ele>
        <time>1970-01-01T00:48:27.000Z</time>
      </trkpt>
      <trkpt lat="43.56532" lon="5.5655">
        <ele>521.7</ele>
        <time>1970-01-01T00:48:28.000Z</time>
      </trkpt>
      <trkpt lat="43.56532" lon="5.56551">
        <ele>521.8</ele>
        <time>1970-01-01T00:48:29.000Z</time>
      </trkpt>
      <trkpt lat="43.56533" lon="5.56554">
        <ele>521.9</ele>
        <time>1970-01-01T00:48:31.000Z</time>
      </trkpt>
      <trkpt lat="43.56533" lon="5.56556">
        <ele>522</ele>
        <time>1970-01-01T00:48:32.000Z</time>
      </trkpt>
      <trkpt lat="43.56533" lon="5.56558">
        <ele>522.1</ele>
        <time>1970-01-01T00:48:34.000Z</time>
      </trkpt>
      <trkpt lat="43.56534" lon="5.56559">
        <ele>522.2</ele>
        <time>1970-01-01T00:48:35.000Z</time>
      </trkpt>
      <trkpt lat="43.56536" lon="5.56563">
        <ele>522.4</ele>
        <time>1970-01-01T00:48:37.000Z</time>
      </trkpt>
      <trkpt lat="43.56536" lon="5.56565">
        <ele>522.6</ele>
        <time>1970-01-01T00:48:38.000Z</time>
      </trkpt>
      <trkpt lat="43.56536" lon="5.56567">
        <ele>522.7</ele>
        <time>1970-01-01T00:48:39.000Z</time>
      </trkpt>
      <trkpt lat="43.56538" lon="5.5657">
        <ele>522.9</ele>
        <time>1970-01-01T00:48:41.000Z</time>
      </trkpt>
      <trkpt lat="43.56538" lon="5.56572">
        <ele>523</ele>
        <time>1970-01-01T00:48:43.000Z</time>
      </trkpt>
      <trkpt lat="43.5654" lon="5.56576">
        <ele>523.2</ele>
        <time>1970-01-01T00:48:45.000Z</time>
      </trkpt>
      <trkpt lat="43.56541" lon="5.56577">
        <ele>523.3</ele>
        <time>1970-01-01T00:48:46.000Z</time>
      </trkpt>
      <trkpt lat="43.56542" lon="5.56581">
        <ele>523.5</ele>
        <time>1970-01-01T00:48:48.000Z</time>
      </trkpt>
      <trkpt lat="43.56542" lon="5.56584">
        <ele>523.6</ele>
        <time>1970-01-01T00:48:49.000Z</time>
      </trkpt>
      <trkpt lat="43.56542" lon="5.56586">
        <ele>523.7</ele>
        <time>1970-01-01T00:48:50.000Z</time>
      </trkpt>
      <trkpt lat="43.56543" lon="5.56588">
        <ele>523.8</ele>
        <time>1970-01-01T00:48:51.000Z</time>
      </trkpt>
      <trkpt lat="43.56543" lon="5.56595">
        <ele>524.1</ele>
        <time>1970-01-01T00:48:53.000Z</time>
      </trkpt>
      <trkpt lat="43.56544" lon="5.56601">
        <ele>524.4</ele>
        <time>1970-01-01T00:48:55.000Z</time>
      </trkpt>
      <trkpt lat="43.56545" lon="5.56603">
        <ele>524.5</ele>
        <time>1970-01-01T00:48:56.000Z</time>
      </trkpt>
      <trkpt lat="43.56545" lon="5.56604">
        <ele>524.5</ele>
        <time>1970-01-01T00:48:57.000Z</time>
      </trkpt>
      <trkpt lat="43.56548" lon="5.56607">
        <ele>524.7</ele>
        <time>1970-01-01T00:48:59.000Z</time>
      </trkpt>
      <trkpt lat="43.56549" lon="5.56609">
        <ele>524.8</ele>
        <time>1970-01-01T00:49:00.000Z</time>
      </trkpt>
      <trkpt lat="43.56551" lon="5.56613">
        <ele>525</ele>
        <time>1970-01-01T00:49:02.000Z</time>
      </trkpt>
      <trkpt lat="43.56551" lon="5.56614">
        <ele>525</ele>
        <time>1970-01-01T00:49:03.000Z</time>
      </trkpt>
      <trkpt lat="43.56553" lon="5.56618">
        <ele>525.2</ele>
        <time>1970-01-01T00:49:05.000Z</time>
      </trkpt>
      <trkpt lat="43.56554" lon="5.56621">
        <ele>525.3</ele>
        <time>1970-01-01T00:49:06.000Z</time>
      </trkpt>
      <trkpt lat="43.56556" lon="5.56624">
        <ele>525.5</ele>
        <time>1970-01-01T00:49:08.000Z</time>
      </trkpt>
      <trkpt lat="43.56558" lon="5.56628">
        <ele>525.6</ele>
        <time>1970-01-01T00:49:10.000Z</time>
      </trkpt>
      <trkpt lat="43.56559" lon="5.5663">
        <ele>525.7</ele>
        <time>1970-01-01T00:49:11.000Z</time>
      </trkpt>
      <trkpt lat="43.5656" lon="5.56633">
        <ele>525.8</ele>
        <time>1970-01-01T00:49:13.000Z</time>
      </trkpt>
      <trkpt lat="43.56561" lon="5.56635">
        <ele>526</ele>
        <time>1970-01-01T00:49:14.000Z</time>
      </trkpt>
      <trkpt lat="43.56561" lon="5.56636">
        <ele>526</ele>
        <time>1970-01-01T00:49:15.000Z</time>
      </trkpt>
      <trkpt lat="43.56562" lon="5.56638">
        <ele>526</ele>
        <time>1970-01-01T00:49:16.000Z</time>
      </trkpt>
      <trkpt lat="43.56562" lon="5.56642">
        <ele>526.2</ele>
        <time>1970-01-01T00:49:18.000Z</time>
      </trkpt>
      <trkpt lat="43.56562" lon="5.56644">
        <ele>526.3</ele>
        <time>1970-01-01T00:49:19.000Z</time>
      </trkpt>
      <trkpt lat="43.56562" lon="5.56646">
        <ele>526.4</ele>
        <time>1970-01-01T00:49:20.000Z</time>
      </trkpt>
      <trkpt lat="43.56563" lon="5.56651">
        <ele>526.6</ele>
        <time>1970-01-01T00:49:22.000Z</time>
      </trkpt>
      <trkpt lat="43.56563" lon="5.56654">
        <ele>526.7</ele>
        <time>1970-01-01T00:49:23.000Z</time>
      </trkpt>
      <trkpt lat="43.56565" lon="5.56658">
        <ele>526.8</ele>
        <time>1970-01-01T00:49:25.000Z</time>
      </trkpt>
      <trkpt lat="43.56566" lon="5.56661">
        <ele>527</ele>
        <time>1970-01-01T00:49:26.000Z</time>
      </trkpt>
      <trkpt lat="43.56566" lon="5.56662">
        <ele>527</ele>
        <time>1970-01-01T00:49:27.000Z</time>
      </trkpt>
      <trkpt lat="43.56567" lon="5.56665">
        <ele>527.1</ele>
        <time>1970-01-01T00:49:28.000Z</time>
      </trkpt>
      <trkpt lat="43.56567" lon="5.56669">
        <ele>527.3</ele>
        <time>1970-01-01T00:49:30.000Z</time>
      </trkpt>
      <trkpt lat="43.56568" lon="5.56671">
        <ele>527.4</ele>
        <time>1970-01-01T00:49:31.000Z</time>
      </trkpt>
      <trkpt lat="43.56568" lon="5.56676">
        <ele>527.5</ele>
        <time>1970-01-01T00:49:33.000Z</time>
      </trkpt>
      <trkpt lat="43.56568" lon="5.56678">
        <ele>527.6</ele>
        <time>1970-01-01T00:49:34.000Z</time>
      </trkpt>
      <trkpt lat="43.56569" lon="5.56682">
        <ele>527.7</ele>
        <time>1970-01-01T00:49:36.000Z</time>
      </trkpt>
      <trkpt lat="43.5657" lon="5.56687">
        <ele>527.8</ele>
        <time>1970-01-01T00:49:38.000Z</time>
      </trkpt>
      <trkpt lat="43.56571" lon="5.5669">
        <ele>527.9</ele>
        <time>1970-01-01T00:49:40.000Z</time>
      </trkpt>
      <trkpt lat="43.56574" lon="5.56694">
        <ele>528.1</ele>
        <time>1970-01-01T00:49:42.000Z</time>
      </trkpt>
      <trkpt lat="43.56575" lon="5.56696">
        <ele>528.2</ele>
        <time>1970-01-01T00:49:43.000Z</time>
      </trkpt>
      <trkpt lat="43.56575" lon="5.56699">
        <ele>528.3</ele>
        <time>1970-01-01T00:49:45.000Z</time>
      </trkpt>
      <trkpt lat="43.56576" lon="5.56701">
        <ele>528.3</ele>
        <time>1970-01-01T00:49:46.000Z</time>
      </trkpt>
      <trkpt lat="43.56577" lon="5.56705">
        <ele>528.5</ele>
        <time>1970-01-01T00:49:48.000Z</time>
      </trkpt>
      <trkpt lat="43.56577" lon="5.56706">
        <ele>528.5</ele>
        <time>1970-01-01T00:49:49.000Z</time>
      </trkpt>
      <trkpt lat="43.56577" lon="5.5671">
        <ele>528.7</ele>
        <time>1970-01-01T00:49:51.000Z</time>
      </trkpt>
      <trkpt lat="43.56578" lon="5.56712">
        <ele>528.7</ele>
        <time>1970-01-01T00:49:52.000Z</time>
      </trkpt>
      <trkpt lat="43.56581" lon="5.56716">
        <ele>529</ele>
        <time>1970-01-01T00:49:54.000Z</time>
      </trkpt>
      <trkpt lat="43.56581" lon="5.56718">
        <ele>529</ele>
        <time>1970-01-01T00:49:55.000Z</time>
      </trkpt>
      <trkpt lat="43.56582" lon="5.56723">
        <ele>529.3</ele>
        <time>1970-01-01T00:49:57.000Z</time>
      </trkpt>
      <trkpt lat="43.56583" lon="5.56727">
        <ele>529.4</ele>
        <time>1970-01-01T00:49:59.000Z</time>
      </trkpt>
      <trkpt lat="43.56584" lon="5.56731">
        <ele>529.6</ele>
        <time>1970-01-01T00:50:01.000Z</time>
      </trkpt>
      <trkpt lat="43.56584" lon="5.56737">
        <ele>529.9</ele>
        <time>1970-01-01T00:50:03.000Z</time>
      </trkpt>
      <trkpt lat="43.56584" lon="5.56741">
        <ele>530.1</ele>
        <time>1970-01-01T00:50:05.000Z</time>
      </trkpt>
      <trkpt lat="43.56584" lon="5.56743">
        <ele>530.2</ele>
        <time>1970-01-01T00:50:06.000Z</time>
      </trkpt>
      <trkpt lat="43.56584" lon="5.56748">
        <ele>530.4</ele>
        <time>1970-01-01T00:50:08.000Z</time>
      </trkpt>
      <trkpt lat="43.56584" lon="5.5675">
        <ele>530.5</ele>
        <time>1970-01-01T00:50:09.000Z</time>
      </trkpt>
      <trkpt lat="43.56585" lon="5.56752">
        <ele>530.6</ele>
        <time>1970-01-01T00:50:10.000Z</time>
      </trkpt>
      <trkpt lat="43.56588" lon="5.56755">
        <ele>530.9</ele>
        <time>1970-01-01T00:50:12.000Z</time>
      </trkpt>
      <trkpt lat="43.56589" lon="5.56757">
        <ele>531</ele>
        <time>1970-01-01T00:50:13.000Z</time>
      </trkpt>
      <trkpt lat="43.5659" lon="5.56759">
        <ele>531.1</ele>
        <time>1970-01-01T00:50:14.000Z</time>
      </trkpt>
      <trkpt lat="43.5659" lon="5.56761">
        <ele>531.2</ele>
        <time>1970-01-01T00:50:15.000Z</time>
      </trkpt>
      <trkpt lat="43.5659" lon="5.56763">
        <ele>531.3</ele>
        <time>1970-01-01T00:50:16.000Z</time>
      </trkpt>
      <trkpt lat="43.56591" lon="5.56767">
        <ele>531.5</ele>
        <time>1970-01-01T00:50:18.000Z</time>
      </trkpt>
      <trkpt lat="43.56592" lon="5.5677">
        <ele>531.6</ele>
        <time>1970-01-01T00:50:19.000Z</time>
      </trkpt>
      <trkpt lat="43.56593" lon="5.56771">
        <ele>531.7</ele>
        <time>1970-01-01T00:50:20.000Z</time>
      </trkpt>
      <trkpt lat="43.56595" lon="5.56773">
        <ele>531.9</ele>
        <time>1970-01-01T00:50:22.000Z</time>
      </trkpt>
      <trkpt lat="43.56597" lon="5.56775">
        <ele>532.1</ele>
        <time>1970-01-01T00:50:24.000Z</time>
      </trkpt>
      <trkpt lat="43.56597" lon="5.56776">
        <ele>532.2</ele>
        <time>1970-01-01T00:50:25.000Z</time>
      </trkpt>
      <trkpt lat="43.566" lon="5.5678">
        <ele>532.4</ele>
        <time>1970-01-01T00:50:27.000Z</time>
      </trkpt>
      <trkpt lat="43.56603" lon="5.56783">
        <ele>532.7</ele>
        <time>1970-01-01T00:50:29.000Z</time>
      </trkpt>
      <trkpt lat="43.56605" lon="5.56786">
        <ele>532.9</ele>
        <time>1970-01-01T00:50:31.000Z</time>
      </trkpt>
      <trkpt lat="43.56606" lon="5.56788">
        <ele>533</ele>
        <time>1970-01-01T00:50:33.000Z</time>
      </trkpt>
      <trkpt lat="43.56608" lon="5.56791">
        <ele>533.2</ele>
        <time>1970-01-01T00:50:35.000Z</time>
      </trkpt>
      <trkpt lat="43.56609" lon="5.56793">
        <ele>533.4</ele>
        <time>1970-01-01T00:50:37.000Z</time>
      </trkpt>
      <trkpt lat="43.5661" lon="5.56796">
        <ele>533.6</ele>
        <time>1970-01-01T00:50:39.000Z</time>
      </trkpt>
      <trkpt lat="43.5661" lon="5.568">
        <ele>533.8</ele>
        <time>1970-01-01T00:50:41.000Z</time>
      </trkpt>
      <trkpt lat="43.5661" lon="5.56801">
        <ele>533.9</ele>
        <time>1970-01-01T00:50:42.000Z</time>
      </trkpt>
      <trkpt lat="43.56611" lon="5.56803">
        <ele>534</ele>
        <time>1970-01-01T00:50:44.000Z</time>
      </trkpt>
      <trkpt lat="43.56613" lon="5.56807">
        <ele>534.3</ele>
        <time>1970-01-01T00:50:45.000Z</time>
      </trkpt>
      <trkpt lat="43.56614" lon="5.56809">
        <ele>534.4</ele>
        <time>1970-01-01T00:50:46.000Z</time>
      </trkpt>
      <trkpt lat="43.56615" lon="5.56813">
        <ele>534.7</ele>
        <time>1970-01-01T00:50:48.000Z</time>
      </trkpt>
      <trkpt lat="43.56615" lon="5.56814">
        <ele>534.8</ele>
        <time>1970-01-01T00:50:49.000Z</time>
      </trkpt>
      <trkpt lat="43.56616" lon="5.56819">
        <ele>535.1</ele>
        <time>1970-01-01T00:50:51.000Z</time>
      </trkpt>
      <trkpt lat="43.56617" lon="5.56824">
        <ele>535.4</ele>
        <time>1970-01-01T00:50:53.000Z</time>
      </trkpt>
      <trkpt lat="43.56618" lon="5.56828">
        <ele>535.6</ele>
        <time>1970-01-01T00:50:55.000Z</time>
      </trkpt>
      <trkpt lat="43.56619" lon="5.56831">
        <ele>535.9</ele>
        <time>1970-01-01T00:50:57.000Z</time>
      </trkpt>
      <trkpt lat="43.56619" lon="5.56833">
        <ele>536</ele>
        <time>1970-01-01T00:50:58.000Z</time>
      </trkpt>
      <trkpt lat="43.56619" lon="5.56835">
        <ele>536.1</ele>
        <time>1970-01-01T00:50:59.000Z</time>
      </trkpt>
      <trkpt lat="43.56621" lon="5.56843">
        <ele>536.7</ele>
        <time>1970-01-01T00:51:03.000Z</time>
      </trkpt>
      <trkpt lat="43.56621" lon="5.56847">
        <ele>536.9</ele>
        <time>1970-01-01T00:51:05.000Z</time>
      </trkpt>
      <trkpt lat="43.56621" lon="5.5685">
        <ele>537.2</ele>
        <time>1970-01-01T00:51:07.000Z</time>
      </trkpt>
      <trkpt lat="43.56621" lon="5.56853">
        <ele>537.4</ele>
        <time>1970-01-01T00:51:09.000Z</time>
      </trkpt>
      <trkpt lat="43.56622" lon="5.56858">
        <ele>537.7</ele>
        <time>1970-01-01T00:51:11.000Z</time>
      </trkpt>
      <trkpt lat="43.56622" lon="5.5686">
        <ele>537.8</ele>
        <time>1970-01-01T00:51:12.000Z</time>
      </trkpt>
      <trkpt lat="43.56623" lon="5.56863">
        <ele>538.1</ele>
        <time>1970-01-01T00:51:14.000Z</time>
      </trkpt>
      <trkpt lat="43.56623" lon="5.56867">
        <ele>538.4</ele>
        <time>1970-01-01T00:51:16.000Z</time>
      </trkpt>
      <trkpt lat="43.56623" lon="5.56868">
        <ele>538.4</ele>
        <time>1970-01-01T00:51:17.000Z</time>
      </trkpt>
      <trkpt lat="43.56624" lon="5.56871">
        <ele>538.6</ele>
        <time>1970-01-01T00:51:19.000Z</time>
      </trkpt>
      <trkpt lat="43.56624" lon="5.56874">
        <ele>538.8</ele>
        <time>1970-01-01T00:51:21.000Z</time>
      </trkpt>
      <trkpt lat="43.56624" lon="5.56875">
        <ele>538.9</ele>
        <time>1970-01-01T00:51:22.000Z</time>
      </trkpt>
      <trkpt lat="43.56625" lon="5.56876">
        <ele>539</ele>
        <time>1970-01-01T00:51:23.000Z</time>
      </trkpt>
      <trkpt lat="43.56628" lon="5.56878">
        <ele>539.2</ele>
        <time>1970-01-01T00:51:25.000Z</time>
      </trkpt>
      <trkpt lat="43.56629" lon="5.56879">
        <ele>539.3</ele>
        <time>1970-01-01T00:51:26.000Z</time>
      </trkpt>
      <trkpt lat="43.56629" lon="5.56883">
        <ele>539.6</ele>
        <time>1970-01-01T00:51:28.000Z</time>
      </trkpt>
      <trkpt lat="43.56629" lon="5.56887">
        <ele>539.9</ele>
        <time>1970-01-01T00:51:30.000Z</time>
      </trkpt>
      <trkpt lat="43.56629" lon="5.56889">
        <ele>540</ele>
        <time>1970-01-01T00:51:31.000Z</time>
      </trkpt>
      <trkpt lat="43.5663" lon="5.56891">
        <ele>540.1</ele>
        <time>1970-01-01T00:51:32.000Z</time>
      </trkpt>
      <trkpt lat="43.56629" lon="5.56896">
        <ele>540.4</ele>
        <time>1970-01-01T00:51:34.000Z</time>
      </trkpt>
      <trkpt lat="43.56628" lon="5.569">
        <ele>540.7</ele>
        <time>1970-01-01T00:51:36.000Z</time>
      </trkpt>
      <trkpt lat="43.56628" lon="5.56902">
        <ele>540.8</ele>
        <time>1970-01-01T00:51:37.000Z</time>
      </trkpt>
      <trkpt lat="43.56628" lon="5.56904">
        <ele>540.9</ele>
        <time>1970-01-01T00:51:38.000Z</time>
      </trkpt>
      <trkpt lat="43.56628" lon="5.56907">
        <ele>541.1</ele>
        <time>1970-01-01T00:51:40.000Z</time>
      </trkpt>
      <trkpt lat="43.56629" lon="5.56908">
        <ele>541.2</ele>
        <time>1970-01-01T00:51:41.000Z</time>
      </trkpt>
      <trkpt lat="43.56629" lon="5.5691">
        <ele>541.3</ele>
        <time>1970-01-01T00:51:42.000Z</time>
      </trkpt>
      <trkpt lat="43.5663" lon="5.56911">
        <ele>541.4</ele>
        <time>1970-01-01T00:51:43.000Z</time>
      </trkpt>
      <trkpt lat="43.5663" lon="5.56914">
        <ele>541.6</ele>
        <time>1970-01-01T00:51:45.000Z</time>
      </trkpt>
      <trkpt lat="43.56629" lon="5.56918">
        <ele>541.9</ele>
        <time>1970-01-01T00:51:47.000Z</time>
      </trkpt>
      <trkpt lat="43.56628" lon="5.5692">
        <ele>542</ele>
        <time>1970-01-01T00:51:48.000Z</time>
      </trkpt>
      <trkpt lat="43.56627" lon="5.56925">
        <ele>542.3</ele>
        <time>1970-01-01T00:51:50.000Z</time>
      </trkpt>
      <trkpt lat="43.56627" lon="5.56929">
        <ele>542.6</ele>
        <time>1970-01-01T00:51:52.000Z</time>
      </trkpt>
      <trkpt lat="43.56628" lon="5.56933">
        <ele>542.8</ele>
        <time>1970-01-01T00:51:54.000Z</time>
      </trkpt>
      <trkpt lat="43.56628" lon="5.56937">
        <ele>543.1</ele>
        <time>1970-01-01T00:51:56.000Z</time>
      </trkpt>
      <trkpt lat="43.56629" lon="5.56939">
        <ele>543.2</ele>
        <time>1970-01-01T00:51:57.000Z</time>
      </trkpt>
      <trkpt lat="43.56629" lon="5.56941">
        <ele>543.4</ele>
        <time>1970-01-01T00:51:58.000Z</time>
      </trkpt>
      <trkpt lat="43.56629" lon="5.56943">
        <ele>543.5</ele>
        <time>1970-01-01T00:51:59.000Z</time>
      </trkpt>
      <trkpt lat="43.5663" lon="5.56946">
        <ele>543.7</ele>
        <time>1970-01-01T00:52:01.000Z</time>
      </trkpt>
      <trkpt lat="43.56631" lon="5.56948">
        <ele>543.8</ele>
        <time>1970-01-01T00:52:02.000Z</time>
      </trkpt>
      <trkpt lat="43.56632" lon="5.56952">
        <ele>544.1</ele>
        <time>1970-01-01T00:52:04.000Z</time>
      </trkpt>
      <trkpt lat="43.56633" lon="5.56954">
        <ele>544.2</ele>
        <time>1970-01-01T00:52:05.000Z</time>
      </trkpt>
      <trkpt lat="43.56634" lon="5.56956">
        <ele>544.3</ele>
        <time>1970-01-01T00:52:06.000Z</time>
      </trkpt>
      <trkpt lat="43.56635" lon="5.56958">
        <ele>544.5</ele>
        <time>1970-01-01T00:52:07.000Z</time>
      </trkpt>
      <trkpt lat="43.56636" lon="5.56962">
        <ele>544.8</ele>
        <time>1970-01-01T00:52:09.000Z</time>
      </trkpt>
      <trkpt lat="43.56639" lon="5.56964">
        <ele>545</ele>
        <time>1970-01-01T00:52:11.000Z</time>
      </trkpt>
      <trkpt lat="43.5664" lon="5.56966">
        <ele>545.2</ele>
        <time>1970-01-01T00:52:13.000Z</time>
      </trkpt>
      <trkpt lat="43.56641" lon="5.56966">
        <ele>545.2</ele>
        <time>1970-01-01T00:52:14.000Z</time>
      </trkpt>
      <trkpt lat="43.56643" lon="5.56968">
        <ele>545.4</ele>
        <time>1970-01-01T00:52:16.000Z</time>
      </trkpt>
      <trkpt lat="43.56644" lon="5.56971">
        <ele>545.6</ele>
        <time>1970-01-01T00:52:18.000Z</time>
      </trkpt>
      <trkpt lat="43.56645" lon="5.56973">
        <ele>545.8</ele>
        <time>1970-01-01T00:52:20.000Z</time>
      </trkpt>
      <trkpt lat="43.56646" lon="5.56976">
        <ele>546</ele>
        <time>1970-01-01T00:52:22.000Z</time>
      </trkpt>
      <trkpt lat="43.56646" lon="5.56978">
        <ele>546.1</ele>
        <time>1970-01-01T00:52:23.000Z</time>
      </trkpt>
      <trkpt lat="43.56648" lon="5.56981">
        <ele>546.3</ele>
        <time>1970-01-01T00:52:25.000Z</time>
      </trkpt>
      <trkpt lat="43.56649" lon="5.56982">
        <ele>546.5</ele>
        <time>1970-01-01T00:52:26.000Z</time>
      </trkpt>
      <trkpt lat="43.5665" lon="5.56985">
        <ele>546.7</ele>
        <time>1970-01-01T00:52:28.000Z</time>
      </trkpt>
      <trkpt lat="43.56651" lon="5.56987">
        <ele>546.8</ele>
        <time>1970-01-01T00:52:29.000Z</time>
      </trkpt>
      <trkpt lat="43.56651" lon="5.56989">
        <ele>546.9</ele>
        <time>1970-01-01T00:52:30.000Z</time>
      </trkpt>
      <trkpt lat="43.56652" lon="5.56993">
        <ele>547.2</ele>
        <time>1970-01-01T00:52:32.000Z</time>
      </trkpt>
      <trkpt lat="43.56652" lon="5.56994">
        <ele>547.3</ele>
        <time>1970-01-01T00:52:33.000Z</time>
      </trkpt>
      <trkpt lat="43.56653" lon="5.56995">
        <ele>547.4</ele>
        <time>1970-01-01T00:52:34.000Z</time>
      </trkpt>
      <trkpt lat="43.56653" lon="5.56998">
        <ele>547.5</ele>
        <time>1970-01-01T00:52:36.000Z</time>
      </trkpt>
      <trkpt lat="43.56653" lon="5.57">
        <ele>547.7</ele>
        <time>1970-01-01T00:52:37.000Z</time>
      </trkpt>
      <trkpt lat="43.56654" lon="5.57003">
        <ele>547.9</ele>
        <time>1970-01-01T00:52:39.000Z</time>
      </trkpt>
      <trkpt lat="43.56656" lon="5.57007">
        <ele>548.2</ele>
        <time>1970-01-01T00:52:41.000Z</time>
      </trkpt>
      <trkpt lat="43.56657" lon="5.57013">
        <ele>548.6</ele>
        <time>1970-01-01T00:52:43.000Z</time>
      </trkpt>
      <trkpt lat="43.56658" lon="5.57014">
        <ele>548.8</ele>
        <time>1970-01-01T00:52:45.000Z</time>
      </trkpt>
      <trkpt lat="43.56658" lon="5.57016">
        <ele>548.9</ele>
        <time>1970-01-01T00:52:46.000Z</time>
      </trkpt>
      <trkpt lat="43.56659" lon="5.5702">
        <ele>549.2</ele>
        <time>1970-01-01T00:52:48.000Z</time>
      </trkpt>
      <trkpt lat="43.5666" lon="5.57021">
        <ele>549.3</ele>
        <time>1970-01-01T00:52:49.000Z</time>
      </trkpt>
      <trkpt lat="43.5666" lon="5.57025">
        <ele>549.5</ele>
        <time>1970-01-01T00:52:51.000Z</time>
      </trkpt>
      <trkpt lat="43.5666" lon="5.57027">
        <ele>549.7</ele>
        <time>1970-01-01T00:52:52.000Z</time>
      </trkpt>
      <trkpt lat="43.56659" lon="5.57029">
        <ele>549.8</ele>
        <time>1970-01-01T00:52:53.000Z</time>
      </trkpt>
      <trkpt lat="43.56659" lon="5.57033">
        <ele>550.1</ele>
        <time>1970-01-01T00:52:55.000Z</time>
      </trkpt>
      <trkpt lat="43.56658" lon="5.57036">
        <ele>550.3</ele>
        <time>1970-01-01T00:52:57.000Z</time>
      </trkpt>
      <trkpt lat="43.56657" lon="5.5704">
        <ele>550.6</ele>
        <time>1970-01-01T00:52:59.000Z</time>
      </trkpt>
      <trkpt lat="43.56657" lon="5.57044">
        <ele>550.9</ele>
        <time>1970-01-01T00:53:01.000Z</time>
      </trkpt>
      <trkpt lat="43.56656" lon="5.57045">
        <ele>550.9</ele>
        <time>1970-01-01T00:53:02.000Z</time>
      </trkpt>
      <trkpt lat="43.56655" lon="5.57049">
        <ele>551.3</ele>
        <time>1970-01-01T00:53:04.000Z</time>
      </trkpt>
      <trkpt lat="43.56655" lon="5.5705">
        <ele>551.3</ele>
        <time>1970-01-01T00:53:05.000Z</time>
      </trkpt>
      <trkpt lat="43.56654" lon="5.57053">
        <ele>551.6</ele>
        <time>1970-01-01T00:53:07.000Z</time>
      </trkpt>
      <trkpt lat="43.56653" lon="5.57054">
        <ele>551.6</ele>
        <time>1970-01-01T00:53:08.000Z</time>
      </trkpt>
      <trkpt lat="43.56651" lon="5.57058">
        <ele>551.9</ele>
        <time>1970-01-01T00:53:10.000Z</time>
      </trkpt>
      <trkpt lat="43.56651" lon="5.57059">
        <ele>552</ele>
        <time>1970-01-01T00:53:11.000Z</time>
      </trkpt>
      <trkpt lat="43.56648" lon="5.57063">
        <ele>552.4</ele>
        <time>1970-01-01T00:53:13.000Z</time>
      </trkpt>
      <trkpt lat="43.56647" lon="5.57064">
        <ele>552.5</ele>
        <time>1970-01-01T00:53:15.000Z</time>
      </trkpt>
      <trkpt lat="43.56646" lon="5.57065">
        <ele>552.6</ele>
        <time>1970-01-01T00:53:16.000Z</time>
      </trkpt>
      <trkpt lat="43.56644" lon="5.57066">
        <ele>552.7</ele>
        <time>1970-01-01T00:53:17.000Z</time>
      </trkpt>
      <trkpt lat="43.56642" lon="5.5707">
        <ele>553</ele>
        <time>1970-01-01T00:53:19.000Z</time>
      </trkpt>
      <trkpt lat="43.56641" lon="5.57071">
        <ele>553.1</ele>
        <time>1970-01-01T00:53:21.000Z</time>
      </trkpt>
      <trkpt lat="43.5664" lon="5.57073">
        <ele>553.2</ele>
        <time>1970-01-01T00:53:22.000Z</time>
      </trkpt>
      <trkpt lat="43.56639" lon="5.57074">
        <ele>553.3</ele>
        <time>1970-01-01T00:53:23.000Z</time>
      </trkpt>
      <trkpt lat="43.56638" lon="5.57076">
        <ele>553.4</ele>
        <time>1970-01-01T00:53:25.000Z</time>
      </trkpt>
      <trkpt lat="43.56638" lon="5.57078">
        <ele>553.6</ele>
        <time>1970-01-01T00:53:27.000Z</time>
      </trkpt>
      <trkpt lat="43.56636" lon="5.57081">
        <ele>553.8</ele>
        <time>1970-01-01T00:53:29.000Z</time>
      </trkpt>
      <trkpt lat="43.56633" lon="5.57084">
        <ele>554.1</ele>
        <time>1970-01-01T00:53:31.000Z</time>
      </trkpt>
      <trkpt lat="43.56631" lon="5.57088">
        <ele>554.4</ele>
        <time>1970-01-01T00:53:33.000Z</time>
      </trkpt>
      <trkpt lat="43.56631" lon="5.57091">
        <ele>554.5</ele>
        <time>1970-01-01T00:53:35.000Z</time>
      </trkpt>
      <trkpt lat="43.56631" lon="5.57093">
        <ele>554.6</ele>
        <time>1970-01-01T00:53:36.000Z</time>
      </trkpt>
      <trkpt lat="43.5663" lon="5.57096">
        <ele>554.9</ele>
        <time>1970-01-01T00:53:37.000Z</time>
      </trkpt>
      <trkpt lat="43.5663" lon="5.57097">
        <ele>554.9</ele>
        <time>1970-01-01T00:53:38.000Z</time>
      </trkpt>
      <trkpt lat="43.5663" lon="5.57099">
        <ele>555</ele>
        <time>1970-01-01T00:53:39.000Z</time>
      </trkpt>
      <trkpt lat="43.56631" lon="5.57101">
        <ele>555.1</ele>
        <time>1970-01-01T00:53:40.000Z</time>
      </trkpt>
      <trkpt lat="43.56632" lon="5.57104">
        <ele>555.3</ele>
        <time>1970-01-01T00:53:42.000Z</time>
      </trkpt>
      <trkpt lat="43.56633" lon="5.57108">
        <ele>555.6</ele>
        <time>1970-01-01T00:53:44.000Z</time>
      </trkpt>
      <trkpt lat="43.56633" lon="5.5711">
        <ele>555.7</ele>
        <time>1970-01-01T00:53:45.000Z</time>
      </trkpt>
      <trkpt lat="43.56634" lon="5.57115">
        <ele>556</ele>
        <time>1970-01-01T00:53:47.000Z</time>
      </trkpt>
      <trkpt lat="43.56634" lon="5.57117">
        <ele>556.2</ele>
        <time>1970-01-01T00:53:48.000Z</time>
      </trkpt>
      <trkpt lat="43.56636" lon="5.5712">
        <ele>556.4</ele>
        <time>1970-01-01T00:53:50.000Z</time>
      </trkpt>
      <trkpt lat="43.56637" lon="5.57121">
        <ele>556.6</ele>
        <time>1970-01-01T00:53:52.000Z</time>
      </trkpt>
      <trkpt lat="43.5664" lon="5.57124">
        <ele>556.8</ele>
        <time>1970-01-01T00:53:54.000Z</time>
      </trkpt>
      <trkpt lat="43.56642" lon="5.57127">
        <ele>557.1</ele>
        <time>1970-01-01T00:53:56.000Z</time>
      </trkpt>
      <trkpt lat="43.56643" lon="5.57129">
        <ele>557.2</ele>
        <time>1970-01-01T00:53:57.000Z</time>
      </trkpt>
      <trkpt lat="43.56643" lon="5.57131">
        <ele>557.3</ele>
        <time>1970-01-01T00:53:58.000Z</time>
      </trkpt>
      <trkpt lat="43.56645" lon="5.57134">
        <ele>557.5</ele>
        <time>1970-01-01T00:54:00.000Z</time>
      </trkpt>
      <trkpt lat="43.56646" lon="5.57139">
        <ele>557.9</ele>
        <time>1970-01-01T00:54:02.000Z</time>
      </trkpt>
      <trkpt lat="43.56647" lon="5.57141">
        <ele>558.1</ele>
        <time>1970-01-01T00:54:03.000Z</time>
      </trkpt>
      <trkpt lat="43.5665" lon="5.57145">
        <ele>558.4</ele>
        <time>1970-01-01T00:54:05.000Z</time>
      </trkpt>
      <trkpt lat="43.56651" lon="5.57147">
        <ele>558.6</ele>
        <time>1970-01-01T00:54:06.000Z</time>
      </trkpt>
      <trkpt lat="43.56653" lon="5.57151">
        <ele>558.9</ele>
        <time>1970-01-01T00:54:08.000Z</time>
      </trkpt>
      <trkpt lat="43.56654" lon="5.57153">
        <ele>559</ele>
        <time>1970-01-01T00:54:09.000Z</time>
      </trkpt>
      <trkpt lat="43.56654" lon="5.57154">
        <ele>559.1</ele>
        <time>1970-01-01T00:54:10.000Z</time>
      </trkpt>
      <trkpt lat="43.56655" lon="5.57156">
        <ele>559.3</ele>
        <time>1970-01-01T00:54:11.000Z</time>
      </trkpt>
      <trkpt lat="43.56656" lon="5.5716">
        <ele>559.5</ele>
        <time>1970-01-01T00:54:13.000Z</time>
      </trkpt>
      <trkpt lat="43.56657" lon="5.57162">
        <ele>559.7</ele>
        <time>1970-01-01T00:54:15.000Z</time>
      </trkpt>
      <trkpt lat="43.56658" lon="5.57165">
        <ele>559.9</ele>
        <time>1970-01-01T00:54:17.000Z</time>
      </trkpt>
      <trkpt lat="43.56659" lon="5.57167">
        <ele>560</ele>
        <time>1970-01-01T00:54:18.000Z</time>
      </trkpt>
      <trkpt lat="43.5666" lon="5.5717">
        <ele>560.2</ele>
        <time>1970-01-01T00:54:20.000Z</time>
      </trkpt>
      <trkpt lat="43.56662" lon="5.57172">
        <ele>560.4</ele>
        <time>1970-01-01T00:54:21.000Z</time>
      </trkpt>
      <trkpt lat="43.56662" lon="5.57174">
        <ele>560.5</ele>
        <time>1970-01-01T00:54:22.000Z</time>
      </trkpt>
      <trkpt lat="43.56663" lon="5.57175">
        <ele>560.6</ele>
        <time>1970-01-01T00:54:23.000Z</time>
      </trkpt>
      <trkpt lat="43.56664" lon="5.57179">
        <ele>560.8</ele>
        <time>1970-01-01T00:54:25.000Z</time>
      </trkpt>
      <trkpt lat="43.56665" lon="5.5718">
        <ele>560.9</ele>
        <time>1970-01-01T00:54:26.000Z</time>
      </trkpt>
      <trkpt lat="43.56667" lon="5.57181">
        <ele>561.1</ele>
        <time>1970-01-01T00:54:28.000Z</time>
      </trkpt>
      <trkpt lat="43.56668" lon="5.57182">
        <ele>561.2</ele>
        <time>1970-01-01T00:54:29.000Z</time>
      </trkpt>
      <trkpt lat="43.5667" lon="5.57184">
        <ele>561.3</ele>
        <time>1970-01-01T00:54:31.000Z</time>
      </trkpt>
      <trkpt lat="43.56671" lon="5.57186">
        <ele>561.5</ele>
        <time>1970-01-01T00:54:33.000Z</time>
      </trkpt>
      <trkpt lat="43.56671" lon="5.5719">
        <ele>561.7</ele>
        <time>1970-01-01T00:54:35.000Z</time>
      </trkpt>
      <trkpt lat="43.56671" lon="5.57192">
        <ele>561.8</ele>
        <time>1970-01-01T00:54:36.000Z</time>
      </trkpt>
      <trkpt lat="43.56671" lon="5.57197">
        <ele>562.1</ele>
        <time>1970-01-01T00:54:38.000Z</time>
      </trkpt>
      <trkpt lat="43.56671" lon="5.57201">
        <ele>562.3</ele>
        <time>1970-01-01T00:54:40.000Z</time>
      </trkpt>
      <trkpt lat="43.5667" lon="5.57203">
        <ele>562.5</ele>
        <time>1970-01-01T00:54:41.000Z</time>
      </trkpt>
      <trkpt lat="43.56669" lon="5.57207">
        <ele>562.7</ele>
        <time>1970-01-01T00:54:43.000Z</time>
      </trkpt>
      <trkpt lat="43.56669" lon="5.57212">
        <ele>563</ele>
        <time>1970-01-01T00:54:45.000Z</time>
      </trkpt>
      <trkpt lat="43.56669" lon="5.57213">
        <ele>563</ele>
        <time>1970-01-01T00:54:46.000Z</time>
      </trkpt>
      <trkpt lat="43.56669" lon="5.57215">
        <ele>563.2</ele>
        <time>1970-01-01T00:54:47.000Z</time>
      </trkpt>
      <trkpt lat="43.56669" lon="5.57216">
        <ele>563.2</ele>
        <time>1970-01-01T00:54:48.000Z</time>
      </trkpt>
      <trkpt lat="43.56669" lon="5.57218">
        <ele>563.3</ele>
        <time>1970-01-01T00:54:49.000Z</time>
      </trkpt>
      <trkpt lat="43.56669" lon="5.5722">
        <ele>563.5</ele>
        <time>1970-01-01T00:54:51.000Z</time>
      </trkpt>
      <trkpt lat="43.56669" lon="5.57223">
        <ele>563.6</ele>
        <time>1970-01-01T00:54:53.000Z</time>
      </trkpt>
      <trkpt lat="43.56668" lon="5.57226">
        <ele>563.8</ele>
        <time>1970-01-01T00:54:54.000Z</time>
      </trkpt>
      <trkpt lat="43.56667" lon="5.5723">
        <ele>564</ele>
        <time>1970-01-01T00:54:56.000Z</time>
      </trkpt>
      <trkpt lat="43.56667" lon="5.57231">
        <ele>564.1</ele>
        <time>1970-01-01T00:54:57.000Z</time>
      </trkpt>
      <trkpt lat="43.56666" lon="5.57233">
        <ele>564.2</ele>
        <time>1970-01-01T00:54:58.000Z</time>
      </trkpt>
      <trkpt lat="43.56665" lon="5.57237">
        <ele>564.4</ele>
        <time>1970-01-01T00:55:00.000Z</time>
      </trkpt>
      <trkpt lat="43.56664" lon="5.57241">
        <ele>564.6</ele>
        <time>1970-01-01T00:55:02.000Z</time>
      </trkpt>
      <trkpt lat="43.56663" lon="5.57243">
        <ele>564.8</ele>
        <time>1970-01-01T00:55:03.000Z</time>
      </trkpt>
      <trkpt lat="43.56663" lon="5.57244">
        <ele>564.9</ele>
        <time>1970-01-01T00:55:04.000Z</time>
      </trkpt>
      <trkpt lat="43.56663" lon="5.57246">
        <ele>565</ele>
        <time>1970-01-01T00:55:05.000Z</time>
      </trkpt>
      <trkpt lat="43.56662" lon="5.57249">
        <ele>565.1</ele>
        <time>1970-01-01T00:55:07.000Z</time>
      </trkpt>
      <trkpt lat="43.56658" lon="5.57253">
        <ele>565.5</ele>
        <time>1970-01-01T00:55:09.000Z</time>
      </trkpt>
      <trkpt lat="43.56656" lon="5.57255">
        <ele>565.7</ele>
        <time>1970-01-01T00:55:11.000Z</time>
      </trkpt>
      <trkpt lat="43.56655" lon="5.57255">
        <ele>565.8</ele>
        <time>1970-01-01T00:55:12.000Z</time>
      </trkpt>
      <trkpt lat="43.56652" lon="5.57257">
        <ele>566</ele>
        <time>1970-01-01T00:55:14.000Z</time>
      </trkpt>
      <trkpt lat="43.5665" lon="5.57258">
        <ele>566.2</ele>
        <time>1970-01-01T00:55:15.000Z</time>
      </trkpt>
      <trkpt lat="43.56648" lon="5.57259">
        <ele>566.3</ele>
        <time>1970-01-01T00:55:16.000Z</time>
      </trkpt>
      <trkpt lat="43.56647" lon="5.5726">
        <ele>566.4</ele>
        <time>1970-01-01T00:55:17.000Z</time>
      </trkpt>
      <trkpt lat="43.56646" lon="5.57261">
        <ele>566.5</ele>
        <time>1970-01-01T00:55:18.000Z</time>
      </trkpt>
      <trkpt lat="43.56644" lon="5.57263">
        <ele>566.6</ele>
        <time>1970-01-01T00:55:20.000Z</time>
      </trkpt>
      <trkpt lat="43.56643" lon="5.57264">
        <ele>566.7</ele>
        <time>1970-01-01T00:55:21.000Z</time>
      </trkpt>
      <trkpt lat="43.56642" lon="5.57266">
        <ele>566.9</ele>
        <time>1970-01-01T00:55:23.000Z</time>
      </trkpt>
      <trkpt lat="43.56641" lon="5.57269">
        <ele>567</ele>
        <time>1970-01-01T00:55:25.000Z</time>
      </trkpt>
      <trkpt lat="43.56639" lon="5.57271">
        <ele>567.2</ele>
        <time>1970-01-01T00:55:27.000Z</time>
      </trkpt>
      <trkpt lat="43.56636" lon="5.57273">
        <ele>567.5</ele>
        <time>1970-01-01T00:55:29.000Z</time>
      </trkpt>
      <trkpt lat="43.56633" lon="5.57275">
        <ele>567.8</ele>
        <time>1970-01-01T00:55:31.000Z</time>
      </trkpt>
      <trkpt lat="43.5663" lon="5.57278">
        <ele>568.1</ele>
        <time>1970-01-01T00:55:33.000Z</time>
      </trkpt>
      <trkpt lat="43.56627" lon="5.57281">
        <ele>568.4</ele>
        <time>1970-01-01T00:55:35.000Z</time>
      </trkpt>
      <trkpt lat="43.56626" lon="5.57283">
        <ele>568.6</ele>
        <time>1970-01-01T00:55:36.000Z</time>
      </trkpt>
      <trkpt lat="43.56624" lon="5.57285">
        <ele>568.8</ele>
        <time>1970-01-01T00:55:38.000Z</time>
      </trkpt>
      <trkpt lat="43.56623" lon="5.57286">
        <ele>569</ele>
        <time>1970-01-01T00:55:39.000Z</time>
      </trkpt>
      <trkpt lat="43.56619" lon="5.57289">
        <ele>569.3</ele>
        <time>1970-01-01T00:55:41.000Z</time>
      </trkpt>
      <trkpt lat="43.56618" lon="5.5729">
        <ele>569.5</ele>
        <time>1970-01-01T00:55:42.000Z</time>
      </trkpt>
      <trkpt lat="43.56616" lon="5.57294">
        <ele>569.8</ele>
        <time>1970-01-01T00:55:44.000Z</time>
      </trkpt>
      <trkpt lat="43.56613" lon="5.57298">
        <ele>570.2</ele>
        <time>1970-01-01T00:55:46.000Z</time>
      </trkpt>
      <trkpt lat="43.56612" lon="5.57299">
        <ele>570.3</ele>
        <time>1970-01-01T00:55:47.000Z</time>
      </trkpt>
      <trkpt lat="43.5661" lon="5.57301">
        <ele>570.5</ele>
        <time>1970-01-01T00:55:49.000Z</time>
      </trkpt>
      <trkpt lat="43.5661" lon="5.57304">
        <ele>570.6</ele>
        <time>1970-01-01T00:55:51.000Z</time>
      </trkpt>
      <trkpt lat="43.56609" lon="5.57305">
        <ele>570.7</ele>
        <time>1970-01-01T00:55:52.000Z</time>
      </trkpt>
      <trkpt lat="43.56607" lon="5.57309">
        <ele>571</ele>
        <time>1970-01-01T00:55:56.000Z</time>
      </trkpt>
      <trkpt lat="43.56606" lon="5.5731">
        <ele>571.1</ele>
        <time>1970-01-01T00:55:57.000Z</time>
      </trkpt>
      <trkpt lat="43.56605" lon="5.57312">
        <ele>571.3</ele>
        <time>1970-01-01T00:55:59.000Z</time>
      </trkpt>
      <trkpt lat="43.56605" lon="5.57314">
        <ele>571.4</ele>
        <time>1970-01-01T00:56:00.000Z</time>
      </trkpt>
      <trkpt lat="43.56604" lon="5.57316">
        <ele>571.6</ele>
        <time>1970-01-01T00:56:01.000Z</time>
      </trkpt>
      <trkpt lat="43.56603" lon="5.57317">
        <ele>571.7</ele>
        <time>1970-01-01T00:56:02.000Z</time>
      </trkpt>
      <trkpt lat="43.56601" lon="5.5732">
        <ele>572</ele>
        <time>1970-01-01T00:56:04.000Z</time>
      </trkpt>
      <trkpt lat="43.566" lon="5.57322">
        <ele>572.2</ele>
        <time>1970-01-01T00:56:05.000Z</time>
      </trkpt>
      <trkpt lat="43.56598" lon="5.57324">
        <ele>572.4</ele>
        <time>1970-01-01T00:56:07.000Z</time>
      </trkpt>
      <trkpt lat="43.56595" lon="5.57327">
        <ele>572.8</ele>
        <time>1970-01-01T00:56:09.000Z</time>
      </trkpt>
      <trkpt lat="43.56593" lon="5.57329">
        <ele>573</ele>
        <time>1970-01-01T00:56:11.000Z</time>
      </trkpt>
      <trkpt lat="43.56593" lon="5.57331">
        <ele>573.1</ele>
        <time>1970-01-01T00:56:12.000Z</time>
      </trkpt>
      <trkpt lat="43.56592" lon="5.57333">
        <ele>573.3</ele>
        <time>1970-01-01T00:56:14.000Z</time>
      </trkpt>
      <trkpt lat="43.56592" lon="5.57334">
        <ele>573.4</ele>
        <time>1970-01-01T00:56:15.000Z</time>
      </trkpt>
      <trkpt lat="43.5659" lon="5.57336">
        <ele>573.5</ele>
        <time>1970-01-01T00:56:16.000Z</time>
      </trkpt>
      <trkpt lat="43.56589" lon="5.57337">
        <ele>573.7</ele>
        <time>1970-01-01T00:56:17.000Z</time>
      </trkpt>
      <trkpt lat="43.56586" lon="5.57341">
        <ele>574.1</ele>
        <time>1970-01-01T00:56:19.000Z</time>
      </trkpt>
      <trkpt lat="43.56583" lon="5.57344">
        <ele>574.4</ele>
        <time>1970-01-01T00:56:21.000Z</time>
      </trkpt>
      <trkpt lat="43.56582" lon="5.57345">
        <ele>574.6</ele>
        <time>1970-01-01T00:56:22.000Z</time>
      </trkpt>
      <trkpt lat="43.56579" lon="5.57348">
        <ele>574.8</ele>
        <time>1970-01-01T00:56:24.000Z</time>
      </trkpt>
      <trkpt lat="43.56578" lon="5.57349">
        <ele>575</ele>
        <time>1970-01-01T00:56:26.000Z</time>
      </trkpt>
      <trkpt lat="43.56577" lon="5.57351">
        <ele>575.1</ele>
        <time>1970-01-01T00:56:27.000Z</time>
      </trkpt>
      <trkpt lat="43.56576" lon="5.57352">
        <ele>575.2</ele>
        <time>1970-01-01T00:56:28.000Z</time>
      </trkpt>
      <trkpt lat="43.56574" lon="5.57355">
        <ele>575.4</ele>
        <time>1970-01-01T00:56:30.000Z</time>
      </trkpt>
      <trkpt lat="43.56573" lon="5.57357">
        <ele>575.5</ele>
        <time>1970-01-01T00:56:31.000Z</time>
      </trkpt>
      <trkpt lat="43.56572" lon="5.57358">
        <ele>575.6</ele>
        <time>1970-01-01T00:56:32.000Z</time>
      </trkpt>
      <trkpt lat="43.56569" lon="5.57361">
        <ele>575.9</ele>
        <time>1970-01-01T00:56:34.000Z</time>
      </trkpt>
      <trkpt lat="43.56568" lon="5.57362">
        <ele>576</ele>
        <time>1970-01-01T00:56:35.000Z</time>
      </trkpt>
      <trkpt lat="43.56567" lon="5.57363">
        <ele>576</ele>
        <time>1970-01-01T00:56:36.000Z</time>
      </trkpt>
      <trkpt lat="43.56566" lon="5.57364">
        <ele>576.1</ele>
        <time>1970-01-01T00:56:37.000Z</time>
      </trkpt>
      <trkpt lat="43.56564" lon="5.57367">
        <ele>576.2</ele>
        <time>1970-01-01T00:56:39.000Z</time>
      </trkpt>
      <trkpt lat="43.56561" lon="5.57369">
        <ele>576.4</ele>
        <time>1970-01-01T00:56:41.000Z</time>
      </trkpt>
      <trkpt lat="43.5656" lon="5.5737">
        <ele>576.5</ele>
        <time>1970-01-01T00:56:42.000Z</time>
      </trkpt>
      <trkpt lat="43.56557" lon="5.57372">
        <ele>576.6</ele>
        <time>1970-01-01T00:56:44.000Z</time>
      </trkpt>
      <trkpt lat="43.56556" lon="5.57372">
        <ele>576.7</ele>
        <time>1970-01-01T00:56:45.000Z</time>
      </trkpt>
      <trkpt lat="43.56554" lon="5.57375">
        <ele>576.8</ele>
        <time>1970-01-01T00:56:47.000Z</time>
      </trkpt>
      <trkpt lat="43.56553" lon="5.57376">
        <ele>576.8</ele>
        <time>1970-01-01T00:56:48.000Z</time>
      </trkpt>
      <trkpt lat="43.56552" lon="5.57377">
        <ele>576.8</ele>
        <time>1970-01-01T00:56:49.000Z</time>
      </trkpt>
      <trkpt lat="43.56549" lon="5.57378">
        <ele>576.9</ele>
        <time>1970-01-01T00:56:51.000Z</time>
      </trkpt>
      <trkpt lat="43.56547" lon="5.57379">
        <ele>576.9</ele>
        <time>1970-01-01T00:56:52.000Z</time>
      </trkpt>
      <trkpt lat="43.56544" lon="5.57378">
        <ele>577</ele>
        <time>1970-01-01T00:56:54.000Z</time>
      </trkpt>
      <trkpt lat="43.56541" lon="5.57378">
        <ele>577</ele>
        <time>1970-01-01T00:56:56.000Z</time>
      </trkpt>
      <trkpt lat="43.56537" lon="5.57377">
        <ele>577</ele>
        <time>1970-01-01T00:56:58.000Z</time>
      </trkpt>
      <trkpt lat="43.56533" lon="5.57377">
        <ele>577</ele>
        <time>1970-01-01T00:56:59.000Z</time>
      </trkpt>
      <trkpt lat="43.56532" lon="5.57377">
        <ele>577</ele>
        <time>1970-01-01T00:57:00.000Z</time>
      </trkpt>
      <trkpt lat="43.5653" lon="5.57376">
        <ele>577</ele>
        <time>1970-01-01T00:57:01.000Z</time>
      </trkpt>
      <trkpt lat="43.56525" lon="5.57376">
        <ele>576.9</ele>
        <time>1970-01-01T00:57:03.000Z</time>
      </trkpt>
      <trkpt lat="43.56518" lon="5.57376">
        <ele>576.8</ele>
        <time>1970-01-01T00:57:05.000Z</time>
      </trkpt>
      <trkpt lat="43.56513" lon="5.57379">
        <ele>576.6</ele>
        <time>1970-01-01T00:57:07.000Z</time>
      </trkpt>
      <trkpt lat="43.56509" lon="5.57384">
        <ele>576.5</ele>
        <time>1970-01-01T00:57:09.000Z</time>
      </trkpt>
      <trkpt lat="43.56506" lon="5.57392">
        <ele>576.3</ele>
        <time>1970-01-01T00:57:11.000Z</time>
      </trkpt>
      <trkpt lat="43.56504" lon="5.574">
        <ele>576.1</ele>
        <time>1970-01-01T00:57:13.000Z</time>
      </trkpt>
      <trkpt lat="43.56503" lon="5.57405">
        <ele>576</ele>
        <time>1970-01-01T00:57:14.000Z</time>
      </trkpt>
      <trkpt lat="43.56501" lon="5.57414">
        <ele>575.9</ele>
        <time>1970-01-01T00:57:16.000Z</time>
      </trkpt>
      <trkpt lat="43.56499" lon="5.57418">
        <ele>575.8</ele>
        <time>1970-01-01T00:57:17.000Z</time>
      </trkpt>
      <trkpt lat="43.56499" lon="5.57422">
        <ele>575.7</ele>
        <time>1970-01-01T00:57:18.000Z</time>
      </trkpt>
      <trkpt lat="43.56498" lon="5.57426">
        <ele>575.7</ele>
        <time>1970-01-01T00:57:19.000Z</time>
      </trkpt>
      <trkpt lat="43.56494" lon="5.57434">
        <ele>575.6</ele>
        <time>1970-01-01T00:57:21.000Z</time>
      </trkpt>
      <trkpt lat="43.56493" lon="5.57438">
        <ele>575.5</ele>
        <time>1970-01-01T00:57:22.000Z</time>
      </trkpt>
      <trkpt lat="43.56492" lon="5.57442">
        <ele>575.5</ele>
        <time>1970-01-01T00:57:23.000Z</time>
      </trkpt>
      <trkpt lat="43.56491" lon="5.57451">
        <ele>575.4</ele>
        <time>1970-01-01T00:57:25.000Z</time>
      </trkpt>
      <trkpt lat="43.5649" lon="5.57459">
        <ele>575.4</ele>
        <time>1970-01-01T00:57:27.000Z</time>
      </trkpt>
      <trkpt lat="43.5649" lon="5.57463">
        <ele>575.4</ele>
        <time>1970-01-01T00:57:28.000Z</time>
      </trkpt>
      <trkpt lat="43.56488" lon="5.5747">
        <ele>575.4</ele>
        <time>1970-01-01T00:57:30.000Z</time>
      </trkpt>
      <trkpt lat="43.56487" lon="5.57476">
        <ele>575.4</ele>
        <time>1970-01-01T00:57:32.000Z</time>
      </trkpt>
      <trkpt lat="43.56487" lon="5.5748">
        <ele>575.4</ele>
        <time>1970-01-01T00:57:33.000Z</time>
      </trkpt>
      <trkpt lat="43.56485" lon="5.57488">
        <ele>575.4</ele>
        <time>1970-01-01T00:57:35.000Z</time>
      </trkpt>
      <trkpt lat="43.56483" lon="5.57495">
        <ele>575.4</ele>
        <time>1970-01-01T00:57:37.000Z</time>
      </trkpt>
      <trkpt lat="43.56482" lon="5.575">
        <ele>575.5</ele>
        <time>1970-01-01T00:57:38.000Z</time>
      </trkpt>
      <trkpt lat="43.56482" lon="5.57502">
        <ele>575.5</ele>
        <time>1970-01-01T00:57:39.000Z</time>
      </trkpt>
      <trkpt lat="43.5648" lon="5.5751">
        <ele>575.6</ele>
        <time>1970-01-01T00:57:41.000Z</time>
      </trkpt>
      <trkpt lat="43.56479" lon="5.57513">
        <ele>575.6</ele>
        <time>1970-01-01T00:57:42.000Z</time>
      </trkpt>
      <trkpt lat="43.56479" lon="5.57516">
        <ele>575.7</ele>
        <time>1970-01-01T00:57:43.000Z</time>
      </trkpt>
      <trkpt lat="43.56476" lon="5.5753">
        <ele>576</ele>
        <time>1970-01-01T00:57:47.000Z</time>
      </trkpt>
      <trkpt lat="43.56476" lon="5.57536">
        <ele>576.2</ele>
        <time>1970-01-01T00:57:49.000Z</time>
      </trkpt>
      <trkpt lat="43.56475" lon="5.57542">
        <ele>576.4</ele>
        <time>1970-01-01T00:57:51.000Z</time>
      </trkpt>
      <trkpt lat="43.56475" lon="5.57544">
        <ele>576.4</ele>
        <time>1970-01-01T00:57:52.000Z</time>
      </trkpt>
      <trkpt lat="43.56474" lon="5.57546">
        <ele>576.5</ele>
        <time>1970-01-01T00:57:53.000Z</time>
      </trkpt>
      <trkpt lat="43.56473" lon="5.5755">
        <ele>576.7</ele>
        <time>1970-01-01T00:57:55.000Z</time>
      </trkpt>
      <trkpt lat="43.56472" lon="5.57552">
        <ele>576.7</ele>
        <time>1970-01-01T00:57:56.000Z</time>
      </trkpt>
      <trkpt lat="43.56471" lon="5.57553">
        <ele>576.8</ele>
        <time>1970-01-01T00:57:57.000Z</time>
      </trkpt>
      <trkpt lat="43.5647" lon="5.57557">
        <ele>577</ele>
        <time>1970-01-01T00:57:59.000Z</time>
      </trkpt>
      <trkpt lat="43.56469" lon="5.57561">
        <ele>577.2</ele>
        <time>1970-01-01T00:58:01.000Z</time>
      </trkpt>
      <trkpt lat="43.56468" lon="5.57564">
        <ele>577.3</ele>
        <time>1970-01-01T00:58:02.000Z</time>
      </trkpt>
      <trkpt lat="43.56467" lon="5.57567">
        <ele>577.5</ele>
        <time>1970-01-01T00:58:04.000Z</time>
      </trkpt>
      <trkpt lat="43.56467" lon="5.57572">
        <ele>577.7</ele>
        <time>1970-01-01T00:58:06.000Z</time>
      </trkpt>
      <trkpt lat="43.56467" lon="5.57574">
        <ele>577.8</ele>
        <time>1970-01-01T00:58:07.000Z</time>
      </trkpt>
      <trkpt lat="43.56467" lon="5.57578">
        <ele>578</ele>
        <time>1970-01-01T00:58:09.000Z</time>
      </trkpt>
      <trkpt lat="43.56467" lon="5.57582">
        <ele>578.2</ele>
        <time>1970-01-01T00:58:11.000Z</time>
      </trkpt>
      <trkpt lat="43.56465" lon="5.57587">
        <ele>578.5</ele>
        <time>1970-01-01T00:58:13.000Z</time>
      </trkpt>
      <trkpt lat="43.56463" lon="5.57593">
        <ele>578.8</ele>
        <time>1970-01-01T00:58:15.000Z</time>
      </trkpt>
      <trkpt lat="43.56462" lon="5.57594">
        <ele>579</ele>
        <time>1970-01-01T00:58:17.000Z</time>
      </trkpt>
      <trkpt lat="43.56462" lon="5.57596">
        <ele>579.1</ele>
        <time>1970-01-01T00:58:18.000Z</time>
      </trkpt>
      <trkpt lat="43.56461" lon="5.576">
        <ele>579.3</ele>
        <time>1970-01-01T00:58:20.000Z</time>
      </trkpt>
      <trkpt lat="43.56461" lon="5.57601">
        <ele>579.4</ele>
        <time>1970-01-01T00:58:21.000Z</time>
      </trkpt>
      <trkpt lat="43.56461" lon="5.57603">
        <ele>579.5</ele>
        <time>1970-01-01T00:58:22.000Z</time>
      </trkpt>
      <trkpt lat="43.56461" lon="5.57605">
        <ele>579.6</ele>
        <time>1970-01-01T00:58:23.000Z</time>
      </trkpt>
      <trkpt lat="43.56458" lon="5.57609">
        <ele>580</ele>
        <time>1970-01-01T00:58:25.000Z</time>
      </trkpt>
      <trkpt lat="43.56456" lon="5.57613">
        <ele>580.2</ele>
        <time>1970-01-01T00:58:27.000Z</time>
      </trkpt>
      <trkpt lat="43.56456" lon="5.57615">
        <ele>580.3</ele>
        <time>1970-01-01T00:58:28.000Z</time>
      </trkpt>
      <trkpt lat="43.56455" lon="5.57616">
        <ele>580.4</ele>
        <time>1970-01-01T00:58:29.000Z</time>
      </trkpt>
      <trkpt lat="43.56454" lon="5.5762">
        <ele>580.6</ele>
        <time>1970-01-01T00:58:31.000Z</time>
      </trkpt>
      <trkpt lat="43.56454" lon="5.57624">
        <ele>580.9</ele>
        <time>1970-01-01T00:58:33.000Z</time>
      </trkpt>
      <trkpt lat="43.56454" lon="5.57626">
        <ele>580.9</ele>
        <time>1970-01-01T00:58:34.000Z</time>
      </trkpt>
      <trkpt lat="43.56454" lon="5.57628">
        <ele>581</ele>
        <time>1970-01-01T00:58:36.000Z</time>
      </trkpt>
      <trkpt lat="43.56453" lon="5.57631">
        <ele>581.1</ele>
        <time>1970-01-01T00:58:37.000Z</time>
      </trkpt>
      <trkpt lat="43.56452" lon="5.57633">
        <ele>581.3</ele>
        <time>1970-01-01T00:58:39.000Z</time>
      </trkpt>
      <trkpt lat="43.56451" lon="5.57634">
        <ele>581.4</ele>
        <time>1970-01-01T00:58:40.000Z</time>
      </trkpt>
      <trkpt lat="43.56451" lon="5.57634">
        <ele>581.4</ele>
        <time>1970-01-01T00:58:42.000Z</time>
      </trkpt>
      <trkpt lat="43.56451" lon="5.57633">
        <ele>581.5</ele>
        <time>1970-01-01T00:58:44.000Z</time>
      </trkpt>
      <trkpt lat="43.56451" lon="5.57632">
        <ele>581.5</ele>
        <time>1970-01-01T00:58:46.000Z</time>
      </trkpt>
      <trkpt lat="43.56451" lon="5.57632">
        <ele>581.5</ele>
        <time>1970-01-01T00:58:47.000Z</time>
      </trkpt>
      <trkpt lat="43.56451" lon="5.57632">
        <ele>581.5</ele>
        <time>1970-01-01T00:58:49.000Z</time>
      </trkpt>
      <trkpt lat="43.56451" lon="5.57633">
        <ele>581.6</ele>
        <time>1970-01-01T00:58:50.000Z</time>
      </trkpt>
      <trkpt lat="43.56452" lon="5.57636">
        <ele>581.7</ele>
        <time>1970-01-01T01:00:40.000Z</time>
      </trkpt>
      <trkpt lat="43.56454" lon="5.57639">
        <ele>581.9</ele>
        <time>1970-01-01T01:00:42.000Z</time>
      </trkpt>
      <trkpt lat="43.56454" lon="5.57642">
        <ele>582.1</ele>
        <time>1970-01-01T01:00:43.000Z</time>
      </trkpt>
      <trkpt lat="43.56455" lon="5.57644">
        <ele>582.2</ele>
        <time>1970-01-01T01:00:44.000Z</time>
      </trkpt>
      <trkpt lat="43.56455" lon="5.57646">
        <ele>582.3</ele>
        <time>1970-01-01T01:00:45.000Z</time>
      </trkpt>
      <trkpt lat="43.56456" lon="5.57649">
        <ele>582.4</ele>
        <time>1970-01-01T01:00:47.000Z</time>
      </trkpt>
      <trkpt lat="43.56458" lon="5.57654">
        <ele>582.7</ele>
        <time>1970-01-01T01:00:49.000Z</time>
      </trkpt>
      <trkpt lat="43.5646" lon="5.57658">
        <ele>583</ele>
        <time>1970-01-01T01:00:50.000Z</time>
      </trkpt>
      <trkpt lat="43.5646" lon="5.5766">
        <ele>583.1</ele>
        <time>1970-01-01T01:00:51.000Z</time>
      </trkpt>
      <trkpt lat="43.56462" lon="5.57663">
        <ele>583.3</ele>
        <time>1970-01-01T01:00:53.000Z</time>
      </trkpt>
      <trkpt lat="43.56463" lon="5.57665">
        <ele>583.4</ele>
        <time>1970-01-01T01:00:54.000Z</time>
      </trkpt>
      <trkpt lat="43.56464" lon="5.57668">
        <ele>583.6</ele>
        <time>1970-01-01T01:00:56.000Z</time>
      </trkpt>
      <trkpt lat="43.56466" lon="5.5767">
        <ele>583.8</ele>
        <time>1970-01-01T01:00:58.000Z</time>
      </trkpt>
      <trkpt lat="43.56469" lon="5.57675">
        <ele>584.1</ele>
        <time>1970-01-01T01:01:00.000Z</time>
      </trkpt>
      <trkpt lat="43.56471" lon="5.57679">
        <ele>584.3</ele>
        <time>1970-01-01T01:01:02.000Z</time>
      </trkpt>
      <trkpt lat="43.56475" lon="5.57681">
        <ele>584.6</ele>
        <time>1970-01-01T01:01:04.000Z</time>
      </trkpt>
      <trkpt lat="43.56477" lon="5.57683">
        <ele>584.8</ele>
        <time>1970-01-01T01:01:05.000Z</time>
      </trkpt>
      <trkpt lat="43.56481" lon="5.57686">
        <ele>585.1</ele>
        <time>1970-01-01T01:01:07.000Z</time>
      </trkpt>
      <trkpt lat="43.56483" lon="5.57687">
        <ele>585.2</ele>
        <time>1970-01-01T01:01:08.000Z</time>
      </trkpt>
      <trkpt lat="43.56485" lon="5.57691">
        <ele>585.5</ele>
        <time>1970-01-01T01:01:10.000Z</time>
      </trkpt>
      <trkpt lat="43.56485" lon="5.57693">
        <ele>585.6</ele>
        <time>1970-01-01T01:01:11.000Z</time>
      </trkpt>
      <trkpt lat="43.56486" lon="5.57695">
        <ele>585.7</ele>
        <time>1970-01-01T01:01:12.000Z</time>
      </trkpt>
      <trkpt lat="43.56486" lon="5.577">
        <ele>585.9</ele>
        <time>1970-01-01T01:01:14.000Z</time>
      </trkpt>
      <trkpt lat="43.56487" lon="5.57703">
        <ele>586.1</ele>
        <time>1970-01-01T01:01:15.000Z</time>
      </trkpt>
      <trkpt lat="43.56487" lon="5.57704">
        <ele>586.1</ele>
        <time>1970-01-01T01:01:16.000Z</time>
      </trkpt>
      <trkpt lat="43.56488" lon="5.57706">
        <ele>586.2</ele>
        <time>1970-01-01T01:01:17.000Z</time>
      </trkpt>
      <trkpt lat="43.56488" lon="5.5771">
        <ele>586.4</ele>
        <time>1970-01-01T01:01:19.000Z</time>
      </trkpt>
      <trkpt lat="43.56488" lon="5.57715">
        <ele>586.5</ele>
        <time>1970-01-01T01:01:21.000Z</time>
      </trkpt>
      <trkpt lat="43.56487" lon="5.57719">
        <ele>586.7</ele>
        <time>1970-01-01T01:01:22.000Z</time>
      </trkpt>
      <trkpt lat="43.56486" lon="5.57721">
        <ele>586.7</ele>
        <time>1970-01-01T01:01:23.000Z</time>
      </trkpt>
      <trkpt lat="43.56484" lon="5.57725">
        <ele>586.9</ele>
        <time>1970-01-01T01:01:24.000Z</time>
      </trkpt>
      <trkpt lat="43.56483" lon="5.57726">
        <ele>586.9</ele>
        <time>1970-01-01T01:01:25.000Z</time>
      </trkpt>
      <trkpt lat="43.56483" lon="5.57731">
        <ele>587.1</ele>
        <time>1970-01-01T01:01:27.000Z</time>
      </trkpt>
      <trkpt lat="43.56483" lon="5.57733">
        <ele>587.1</ele>
        <time>1970-01-01T01:01:28.000Z</time>
      </trkpt>
      <trkpt lat="43.56483" lon="5.57736">
        <ele>587.2</ele>
        <time>1970-01-01T01:01:29.000Z</time>
      </trkpt>
      <trkpt lat="43.56481" lon="5.5774">
        <ele>587.3</ele>
        <time>1970-01-01T01:01:31.000Z</time>
      </trkpt>
      <trkpt lat="43.5648" lon="5.57744">
        <ele>587.5</ele>
        <time>1970-01-01T01:01:33.000Z</time>
      </trkpt>
      <trkpt lat="43.56479" lon="5.57745">
        <ele>587.5</ele>
        <time>1970-01-01T01:01:34.000Z</time>
      </trkpt>
      <trkpt lat="43.56478" lon="5.57748">
        <ele>587.6</ele>
        <time>1970-01-01T01:01:35.000Z</time>
      </trkpt>
      <trkpt lat="43.56475" lon="5.57753">
        <ele>587.8</ele>
        <time>1970-01-01T01:01:37.000Z</time>
      </trkpt>
      <trkpt lat="43.56472" lon="5.57756">
        <ele>588</ele>
        <time>1970-01-01T01:01:39.000Z</time>
      </trkpt>
      <trkpt lat="43.56471" lon="5.57757">
        <ele>588</ele>
        <time>1970-01-01T01:01:40.000Z</time>
      </trkpt>
      <trkpt lat="43.5647" lon="5.57759">
        <ele>588.1</ele>
        <time>1970-01-01T01:01:41.000Z</time>
      </trkpt>
      <trkpt lat="43.56467" lon="5.57763">
        <ele>588.3</ele>
        <time>1970-01-01T01:01:43.000Z</time>
      </trkpt>
      <trkpt lat="43.56465" lon="5.57766">
        <ele>588.6</ele>
        <time>1970-01-01T01:01:44.000Z</time>
      </trkpt>
      <trkpt lat="43.56464" lon="5.57767">
        <ele>588.6</ele>
        <time>1970-01-01T01:01:45.000Z</time>
      </trkpt>
      <trkpt lat="43.56462" lon="5.5777">
        <ele>588.8</ele>
        <time>1970-01-01T01:01:47.000Z</time>
      </trkpt>
      <trkpt lat="43.56461" lon="5.57772">
        <ele>589</ele>
        <time>1970-01-01T01:01:49.000Z</time>
      </trkpt>
      <trkpt lat="43.5646" lon="5.57773">
        <ele>589.1</ele>
        <time>1970-01-01T01:01:50.000Z</time>
      </trkpt>
      <trkpt lat="43.56458" lon="5.57779">
        <ele>589.4</ele>
        <time>1970-01-01T01:01:52.000Z</time>
      </trkpt>
      <trkpt lat="43.56457" lon="5.57781">
        <ele>589.5</ele>
        <time>1970-01-01T01:01:53.000Z</time>
      </trkpt>
      <trkpt lat="43.56457" lon="5.57782">
        <ele>589.6</ele>
        <time>1970-01-01T01:01:54.000Z</time>
      </trkpt>
      <trkpt lat="43.56455" lon="5.57786">
        <ele>589.8</ele>
        <time>1970-01-01T01:01:56.000Z</time>
      </trkpt>
      <trkpt lat="43.56454" lon="5.57788">
        <ele>590</ele>
        <time>1970-01-01T01:01:57.000Z</time>
      </trkpt>
      <trkpt lat="43.56453" lon="5.5779">
        <ele>590.1</ele>
        <time>1970-01-01T01:01:58.000Z</time>
      </trkpt>
      <trkpt lat="43.56452" lon="5.57794">
        <ele>590.4</ele>
        <time>1970-01-01T01:02:00.000Z</time>
      </trkpt>
      <trkpt lat="43.5645" lon="5.578">
        <ele>590.7</ele>
        <time>1970-01-01T01:02:02.000Z</time>
      </trkpt>
      <trkpt lat="43.5645" lon="5.57801">
        <ele>590.8</ele>
        <time>1970-01-01T01:02:03.000Z</time>
      </trkpt>
      <trkpt lat="43.56451" lon="5.57804">
        <ele>591</ele>
        <time>1970-01-01T01:02:05.000Z</time>
      </trkpt>
      <trkpt lat="43.5645" lon="5.57805">
        <ele>591.1</ele>
        <time>1970-01-01T01:02:06.000Z</time>
      </trkpt>
      <trkpt lat="43.56449" lon="5.57809">
        <ele>591.4</ele>
        <time>1970-01-01T01:02:08.000Z</time>
      </trkpt>
      <trkpt lat="43.56448" lon="5.5781">
        <ele>591.4</ele>
        <time>1970-01-01T01:02:09.000Z</time>
      </trkpt>
      <trkpt lat="43.56445" lon="5.57812">
        <ele>591.7</ele>
        <time>1970-01-01T01:02:11.000Z</time>
      </trkpt>
      <trkpt lat="43.56444" lon="5.57812">
        <ele>591.8</ele>
        <time>1970-01-01T01:02:12.000Z</time>
      </trkpt>
      <trkpt lat="43.56441" lon="5.57814">
        <ele>592.1</ele>
        <time>1970-01-01T01:02:14.000Z</time>
      </trkpt>
      <trkpt lat="43.5644" lon="5.57815">
        <ele>592.2</ele>
        <time>1970-01-01T01:02:15.000Z</time>
      </trkpt>
      <trkpt lat="43.56439" lon="5.57816">
        <ele>592.3</ele>
        <time>1970-01-01T01:02:16.000Z</time>
      </trkpt>
      <trkpt lat="43.56438" lon="5.57817">
        <ele>592.4</ele>
        <time>1970-01-01T01:02:17.000Z</time>
      </trkpt>
      <trkpt lat="43.56436" lon="5.5782">
        <ele>592.8</ele>
        <time>1970-01-01T01:02:19.000Z</time>
      </trkpt>
      <trkpt lat="43.56435" lon="5.57822">
        <ele>592.9</ele>
        <time>1970-01-01T01:02:20.000Z</time>
      </trkpt>
      <trkpt lat="43.56434" lon="5.57823">
        <ele>593</ele>
        <time>1970-01-01T01:02:21.000Z</time>
      </trkpt>
      <trkpt lat="43.56433" lon="5.57825">
        <ele>593.1</ele>
        <time>1970-01-01T01:02:22.000Z</time>
      </trkpt>
      <trkpt lat="43.56433" lon="5.57826">
        <ele>593.2</ele>
        <time>1970-01-01T01:02:23.000Z</time>
      </trkpt>
      <trkpt lat="43.56433" lon="5.57827">
        <ele>593.2</ele>
        <time>1970-01-01T01:02:24.000Z</time>
      </trkpt>
      <trkpt lat="43.56433" lon="5.57834">
        <ele>593.6</ele>
        <time>1970-01-01T01:02:27.000Z</time>
      </trkpt>
      <trkpt lat="43.5643" lon="5.57838">
        <ele>594</ele>
        <time>1970-01-01T01:02:29.000Z</time>
      </trkpt>
      <trkpt lat="43.56429" lon="5.57838">
        <ele>594.1</ele>
        <time>1970-01-01T01:02:30.000Z</time>
      </trkpt>
      <trkpt lat="43.56426" lon="5.5784">
        <ele>594.3</ele>
        <time>1970-01-01T01:02:32.000Z</time>
      </trkpt>
      <trkpt lat="43.56423" lon="5.57844">
        <ele>594.6</ele>
        <time>1970-01-01T01:02:33.000Z</time>
      </trkpt>
      <trkpt lat="43.56422" lon="5.57845">
        <ele>594.8</ele>
        <time>1970-01-01T01:02:34.000Z</time>
      </trkpt>
      <trkpt lat="43.56421" lon="5.57847">
        <ele>594.9</ele>
        <time>1970-01-01T01:02:35.000Z</time>
      </trkpt>
      <trkpt lat="43.56421" lon="5.57848">
        <ele>595</ele>
        <time>1970-01-01T01:02:37.000Z</time>
      </trkpt>
      <trkpt lat="43.56422" lon="5.57849">
        <ele>595.1</ele>
        <time>1970-01-01T01:02:38.000Z</time>
      </trkpt>
      <trkpt lat="43.56422" lon="5.57851">
        <ele>595.2</ele>
        <time>1970-01-01T01:02:40.000Z</time>
      </trkpt>
      <trkpt lat="43.5642" lon="5.57855">
        <ele>595.6</ele>
        <time>1970-01-01T01:02:42.000Z</time>
      </trkpt>
      <trkpt lat="43.56419" lon="5.57857">
        <ele>595.7</ele>
        <time>1970-01-01T01:02:44.000Z</time>
      </trkpt>
      <trkpt lat="43.56418" lon="5.57858">
        <ele>595.8</ele>
        <time>1970-01-01T01:02:45.000Z</time>
      </trkpt>
      <trkpt lat="43.56417" lon="5.5786">
        <ele>596</ele>
        <time>1970-01-01T01:02:46.000Z</time>
      </trkpt>
      <trkpt lat="43.56413" lon="5.57862">
        <ele>596.4</ele>
        <time>1970-01-01T01:02:48.000Z</time>
      </trkpt>
      <trkpt lat="43.56409" lon="5.57864">
        <ele>596.8</ele>
        <time>1970-01-01T01:02:50.000Z</time>
      </trkpt>
      <trkpt lat="43.56408" lon="5.57864">
        <ele>596.9</ele>
        <time>1970-01-01T01:02:51.000Z</time>
      </trkpt>
      <trkpt lat="43.56405" lon="5.57865">
        <ele>597.1</ele>
        <time>1970-01-01T01:02:53.000Z</time>
      </trkpt>
      <trkpt lat="43.56404" lon="5.57866">
        <ele>597.3</ele>
        <time>1970-01-01T01:02:54.000Z</time>
      </trkpt>
      <trkpt lat="43.56403" lon="5.57868">
        <ele>597.5</ele>
        <time>1970-01-01T01:02:56.000Z</time>
      </trkpt>
      <trkpt lat="43.56401" lon="5.57871">
        <ele>597.8</ele>
        <time>1970-01-01T01:02:58.000Z</time>
      </trkpt>
      <trkpt lat="43.564" lon="5.57874">
        <ele>597.9</ele>
        <time>1970-01-01T01:02:59.000Z</time>
      </trkpt>
      <trkpt lat="43.56398" lon="5.57876">
        <ele>598.2</ele>
        <time>1970-01-01T01:03:01.000Z</time>
      </trkpt>
      <trkpt lat="43.56397" lon="5.57878">
        <ele>598.3</ele>
        <time>1970-01-01T01:03:03.000Z</time>
      </trkpt>
      <trkpt lat="43.56396" lon="5.57881">
        <ele>598.6</ele>
        <time>1970-01-01T01:03:05.000Z</time>
      </trkpt>
      <trkpt lat="43.56393" lon="5.57884">
        <ele>598.9</ele>
        <time>1970-01-01T01:03:07.000Z</time>
      </trkpt>
      <trkpt lat="43.56392" lon="5.57887">
        <ele>599.1</ele>
        <time>1970-01-01T01:03:08.000Z</time>
      </trkpt>
      <trkpt lat="43.56391" lon="5.57889">
        <ele>599.3</ele>
        <time>1970-01-01T01:03:10.000Z</time>
      </trkpt>
      <trkpt lat="43.56391" lon="5.57889">
        <ele>599.3</ele>
        <time>1970-01-01T01:03:12.000Z</time>
      </trkpt>
      <trkpt lat="43.56391" lon="5.57889">
        <ele>599.4</ele>
        <time>1970-01-01T01:03:13.000Z</time>
      </trkpt>
      <trkpt lat="43.56391" lon="5.57889">
        <ele>599.4</ele>
        <time>1970-01-01T01:03:14.000Z</time>
      </trkpt>
      <trkpt lat="43.56391" lon="5.5789">
        <ele>599.5</ele>
        <time>1970-01-01T01:03:16.000Z</time>
      </trkpt>
      <trkpt lat="43.56391" lon="5.57891">
        <ele>599.6</ele>
        <time>1970-01-01T01:03:17.000Z</time>
      </trkpt>
      <trkpt lat="43.56391" lon="5.57895">
        <ele>599.8</ele>
        <time>1970-01-01T01:03:19.000Z</time>
      </trkpt>
      <trkpt lat="43.5639" lon="5.579">
        <ele>600.2</ele>
        <time>1970-01-01T01:03:21.000Z</time>
      </trkpt>
      <trkpt lat="43.56389" lon="5.57908">
        <ele>600.8</ele>
        <time>1970-01-01T01:03:23.000Z</time>
      </trkpt>
      <trkpt lat="43.56388" lon="5.57913">
        <ele>601.2</ele>
        <time>1970-01-01T01:03:25.000Z</time>
      </trkpt>
      <trkpt lat="43.56388" lon="5.57917">
        <ele>601.5</ele>
        <time>1970-01-01T01:03:26.000Z</time>
      </trkpt>
      <trkpt lat="43.56385" lon="5.57922">
        <ele>602</ele>
        <time>1970-01-01T01:03:28.000Z</time>
      </trkpt>
      <trkpt lat="43.56382" lon="5.57925">
        <ele>602.3</ele>
        <time>1970-01-01T01:03:30.000Z</time>
      </trkpt>
      <trkpt lat="43.56382" lon="5.57931">
        <ele>602.7</ele>
        <time>1970-01-01T01:03:32.000Z</time>
      </trkpt>
      <trkpt lat="43.56382" lon="5.57933">
        <ele>602.9</ele>
        <time>1970-01-01T01:03:33.000Z</time>
      </trkpt>
      <trkpt lat="43.56381" lon="5.57936">
        <ele>603.2</ele>
        <time>1970-01-01T01:03:35.000Z</time>
      </trkpt>
      <trkpt lat="43.56381" lon="5.5794">
        <ele>603.5</ele>
        <time>1970-01-01T01:03:36.000Z</time>
      </trkpt>
      <trkpt lat="43.56381" lon="5.57942">
        <ele>603.6</ele>
        <time>1970-01-01T01:03:37.000Z</time>
      </trkpt>
      <trkpt lat="43.56383" lon="5.57945">
        <ele>604</ele>
        <time>1970-01-01T01:03:39.000Z</time>
      </trkpt>
      <trkpt lat="43.56384" lon="5.57947">
        <ele>604.2</ele>
        <time>1970-01-01T01:03:40.000Z</time>
      </trkpt>
      <trkpt lat="43.56382" lon="5.57955">
        <ele>604.8</ele>
        <time>1970-01-01T01:03:42.000Z</time>
      </trkpt>
      <trkpt lat="43.5638" lon="5.57959">
        <ele>605.2</ele>
        <time>1970-01-01T01:03:43.000Z</time>
      </trkpt>
      <trkpt lat="43.5638" lon="5.57961">
        <ele>605.3</ele>
        <time>1970-01-01T01:03:44.000Z</time>
      </trkpt>
      <trkpt lat="43.5638" lon="5.57962">
        <ele>605.3</ele>
        <time>1970-01-01T01:03:46.000Z</time>
      </trkpt>
      <trkpt lat="43.5638" lon="5.57962">
        <ele>605.4</ele>
        <time>1970-01-01T01:03:47.000Z</time>
      </trkpt>
      <trkpt lat="43.5638" lon="5.57964">
        <ele>605.5</ele>
        <time>1970-01-01T01:03:49.000Z</time>
      </trkpt>
      <trkpt lat="43.56379" lon="5.57971">
        <ele>606</ele>
        <time>1970-01-01T01:03:51.000Z</time>
      </trkpt>
      <trkpt lat="43.56375" lon="5.57975">
        <ele>606.4</ele>
        <time>1970-01-01T01:03:53.000Z</time>
      </trkpt>
      <trkpt lat="43.56377" lon="5.57981">
        <ele>606.8</ele>
        <time>1970-01-01T01:03:55.000Z</time>
      </trkpt>
      <trkpt lat="43.56376" lon="5.57981">
        <ele>606.9</ele>
        <time>1970-01-01T01:03:57.000Z</time>
      </trkpt>
      <trkpt lat="43.56375" lon="5.57982">
        <ele>607</ele>
        <time>1970-01-01T01:03:59.000Z</time>
      </trkpt>
      <trkpt lat="43.56374" lon="5.57984">
        <ele>607.1</ele>
        <time>1970-01-01T01:04:00.000Z</time>
      </trkpt>
      <trkpt lat="43.56373" lon="5.57986">
        <ele>607.3</ele>
        <time>1970-01-01T01:04:02.000Z</time>
      </trkpt>
      <trkpt lat="43.56372" lon="5.57987">
        <ele>607.4</ele>
        <time>1970-01-01T01:04:03.000Z</time>
      </trkpt>
      <trkpt lat="43.5637" lon="5.57989">
        <ele>607.6</ele>
        <time>1970-01-01T01:04:05.000Z</time>
      </trkpt>
      <trkpt lat="43.56368" lon="5.5799">
        <ele>607.7</ele>
        <time>1970-01-01T01:04:06.000Z</time>
      </trkpt>
      <trkpt lat="43.56365" lon="5.57991">
        <ele>608</ele>
        <time>1970-01-01T01:04:08.000Z</time>
      </trkpt>
      <trkpt lat="43.56363" lon="5.57995">
        <ele>608.3</ele>
        <time>1970-01-01T01:04:10.000Z</time>
      </trkpt>
      <trkpt lat="43.56361" lon="5.57999">
        <ele>608.6</ele>
        <time>1970-01-01T01:04:12.000Z</time>
      </trkpt>
      <trkpt lat="43.56358" lon="5.58002">
        <ele>608.9</ele>
        <time>1970-01-01T01:04:14.000Z</time>
      </trkpt>
      <trkpt lat="43.56354" lon="5.58006">
        <ele>609.3</ele>
        <time>1970-01-01T01:04:16.000Z</time>
      </trkpt>
      <trkpt lat="43.5635" lon="5.58009">
        <ele>609.6</ele>
        <time>1970-01-01T01:04:18.000Z</time>
      </trkpt>
      <trkpt lat="43.56348" lon="5.5801">
        <ele>609.8</ele>
        <time>1970-01-01T01:04:20.000Z</time>
      </trkpt>
      <trkpt lat="43.56347" lon="5.58011">
        <ele>609.9</ele>
        <time>1970-01-01T01:04:22.000Z</time>
      </trkpt>
      <trkpt lat="43.56346" lon="5.58012">
        <ele>610</ele>
        <time>1970-01-01T01:04:23.000Z</time>
      </trkpt>
      <trkpt lat="43.56344" lon="5.58013">
        <ele>610.2</ele>
        <time>1970-01-01T01:04:24.000Z</time>
      </trkpt>
      <trkpt lat="43.56342" lon="5.58015">
        <ele>610.4</ele>
        <time>1970-01-01T01:04:26.000Z</time>
      </trkpt>
      <trkpt lat="43.56341" lon="5.58015">
        <ele>610.4</ele>
        <time>1970-01-01T01:04:27.000Z</time>
      </trkpt>
      <trkpt lat="43.56339" lon="5.58015">
        <ele>610.6</ele>
        <time>1970-01-01T01:04:29.000Z</time>
      </trkpt>
      <trkpt lat="43.56339" lon="5.58016">
        <ele>610.7</ele>
        <time>1970-01-01T01:04:31.000Z</time>
      </trkpt>
      <trkpt lat="43.56338" lon="5.58016">
        <ele>610.8</ele>
        <time>1970-01-01T01:04:32.000Z</time>
      </trkpt>
      <trkpt lat="43.56337" lon="5.58017">
        <ele>610.9</ele>
        <time>1970-01-01T01:04:33.000Z</time>
      </trkpt>
      <trkpt lat="43.56333" lon="5.58017">
        <ele>611.2</ele>
        <time>1970-01-01T01:04:35.000Z</time>
      </trkpt>
      <trkpt lat="43.56331" lon="5.58017">
        <ele>611.4</ele>
        <time>1970-01-01T01:04:36.000Z</time>
      </trkpt>
      <trkpt lat="43.5633" lon="5.58018">
        <ele>611.5</ele>
        <time>1970-01-01T01:04:37.000Z</time>
      </trkpt>
      <trkpt lat="43.5633" lon="5.58018">
        <ele>611.6</ele>
        <time>1970-01-01T01:04:38.000Z</time>
      </trkpt>
      <trkpt lat="43.56326" lon="5.58022">
        <ele>611.9</ele>
        <time>1970-01-01T01:04:40.000Z</time>
      </trkpt>
      <trkpt lat="43.56322" lon="5.58027">
        <ele>612.4</ele>
        <time>1970-01-01T01:04:42.000Z</time>
      </trkpt>
      <trkpt lat="43.56321" lon="5.58032">
        <ele>612.6</ele>
        <time>1970-01-01T01:04:43.000Z</time>
      </trkpt>
      <trkpt lat="43.56318" lon="5.58036">
        <ele>613</ele>
        <time>1970-01-01T01:04:45.000Z</time>
      </trkpt>
      <trkpt lat="43.56317" lon="5.58037">
        <ele>613.1</ele>
        <time>1970-01-01T01:04:47.000Z</time>
      </trkpt>
      <trkpt lat="43.56316" lon="5.58039">
        <ele>613.2</ele>
        <time>1970-01-01T01:04:48.000Z</time>
      </trkpt>
      <trkpt lat="43.56315" lon="5.58041">
        <ele>613.3</ele>
        <time>1970-01-01T01:04:49.000Z</time>
      </trkpt>
      <trkpt lat="43.56314" lon="5.58043">
        <ele>613.4</ele>
        <time>1970-01-01T01:04:51.000Z</time>
      </trkpt>
      <trkpt lat="43.56315" lon="5.58045">
        <ele>613.5</ele>
        <time>1970-01-01T01:04:53.000Z</time>
      </trkpt>
      <trkpt lat="43.56315" lon="5.58047">
        <ele>613.7</ele>
        <time>1970-01-01T01:04:54.000Z</time>
      </trkpt>
      <trkpt lat="43.56313" lon="5.58051">
        <ele>613.9</ele>
        <time>1970-01-01T01:04:56.000Z</time>
      </trkpt>
      <trkpt lat="43.56311" lon="5.58053">
        <ele>614</ele>
        <time>1970-01-01T01:04:57.000Z</time>
      </trkpt>
      <trkpt lat="43.5631" lon="5.58054">
        <ele>614.1</ele>
        <time>1970-01-01T01:04:58.000Z</time>
      </trkpt>
      <trkpt lat="43.56307" lon="5.58056">
        <ele>614.3</ele>
        <time>1970-01-01T01:05:00.000Z</time>
      </trkpt>
      <trkpt lat="43.56306" lon="5.58056">
        <ele>614.4</ele>
        <time>1970-01-01T01:05:02.000Z</time>
      </trkpt>
      <trkpt lat="43.56302" lon="5.58056">
        <ele>614.6</ele>
        <time>1970-01-01T01:05:04.000Z</time>
      </trkpt>
      <trkpt lat="43.56302" lon="5.58052">
        <ele>614.7</ele>
        <time>1970-01-01T01:05:06.000Z</time>
      </trkpt>
      <trkpt lat="43.56303" lon="5.58045">
        <ele>614.7</ele>
        <time>1970-01-01T01:05:08.000Z</time>
      </trkpt>
      <trkpt lat="43.56303" lon="5.58043">
        <ele>614.7</ele>
        <time>1970-01-01T01:05:09.000Z</time>
      </trkpt>
      <trkpt lat="43.56301" lon="5.58036">
        <ele>614.8</ele>
        <time>1970-01-01T01:05:11.000Z</time>
      </trkpt>
      <trkpt lat="43.563" lon="5.58032">
        <ele>614.8</ele>
        <time>1970-01-01T01:05:12.000Z</time>
      </trkpt>
      <trkpt lat="43.56299" lon="5.58029">
        <ele>614.9</ele>
        <time>1970-01-01T01:05:14.000Z</time>
      </trkpt>
      <trkpt lat="43.56298" lon="5.58023">
        <ele>615</ele>
        <time>1970-01-01T01:05:16.000Z</time>
      </trkpt>
      <trkpt lat="43.56298" lon="5.58021">
        <ele>615</ele>
        <time>1970-01-01T01:05:17.000Z</time>
      </trkpt>
      <trkpt lat="43.56298" lon="5.58017">
        <ele>615.1</ele>
        <time>1970-01-01T01:05:19.000Z</time>
      </trkpt>
      <trkpt lat="43.56299" lon="5.58014">
        <ele>615.1</ele>
        <time>1970-01-01T01:05:20.000Z</time>
      </trkpt>
      <trkpt lat="43.56299" lon="5.58013">
        <ele>615.2</ele>
        <time>1970-01-01T01:05:21.000Z</time>
      </trkpt>
      <trkpt lat="43.56299" lon="5.58011">
        <ele>615.2</ele>
        <time>1970-01-01T01:05:22.000Z</time>
      </trkpt>
      <trkpt lat="43.56299" lon="5.58007">
        <ele>615.3</ele>
        <time>1970-01-01T01:05:24.000Z</time>
      </trkpt>
      <trkpt lat="43.56299" lon="5.58006">
        <ele>615.3</ele>
        <time>1970-01-01T01:05:25.000Z</time>
      </trkpt>
      <trkpt lat="43.56299" lon="5.58002">
        <ele>615.4</ele>
        <time>1970-01-01T01:05:27.000Z</time>
      </trkpt>
      <trkpt lat="43.56299" lon="5.57997">
        <ele>615.5</ele>
        <time>1970-01-01T01:05:29.000Z</time>
      </trkpt>
      <trkpt lat="43.563" lon="5.57994">
        <ele>615.5</ele>
        <time>1970-01-01T01:05:30.000Z</time>
      </trkpt>
      <trkpt lat="43.563" lon="5.57992">
        <ele>615.6</ele>
        <time>1970-01-01T01:05:32.000Z</time>
      </trkpt>
      <trkpt lat="43.56301" lon="5.57991">
        <ele>615.6</ele>
        <time>1970-01-01T01:05:33.000Z</time>
      </trkpt>
      <trkpt lat="43.56302" lon="5.57984">
        <ele>615.8</ele>
        <time>1970-01-01T01:05:35.000Z</time>
      </trkpt>
      <trkpt lat="43.56302" lon="5.57981">
        <ele>615.8</ele>
        <time>1970-01-01T01:05:36.000Z</time>
      </trkpt>
      <trkpt lat="43.56301" lon="5.57978">
        <ele>615.9</ele>
        <time>1970-01-01T01:05:38.000Z</time>
      </trkpt>
      <trkpt lat="43.56299" lon="5.57973">
        <ele>616.1</ele>
        <time>1970-01-01T01:05:40.000Z</time>
      </trkpt>
      <trkpt lat="43.56297" lon="5.57965">
        <ele>616.3</ele>
        <time>1970-01-01T01:05:42.000Z</time>
      </trkpt>
      <trkpt lat="43.56296" lon="5.57961">
        <ele>616.4</ele>
        <time>1970-01-01T01:05:44.000Z</time>
      </trkpt>
      <trkpt lat="43.56295" lon="5.5796">
        <ele>616.4</ele>
        <time>1970-01-01T01:05:45.000Z</time>
      </trkpt>
      <trkpt lat="43.56295" lon="5.57958">
        <ele>616.4</ele>
        <time>1970-01-01T01:05:46.000Z</time>
      </trkpt>
      <trkpt lat="43.56295" lon="5.57954">
        <ele>616.5</ele>
        <time>1970-01-01T01:05:48.000Z</time>
      </trkpt>
      <trkpt lat="43.56295" lon="5.57949">
        <ele>616.6</ele>
        <time>1970-01-01T01:05:49.000Z</time>
      </trkpt>
      <trkpt lat="43.56294" lon="5.57947">
        <ele>616.7</ele>
        <time>1970-01-01T01:05:51.000Z</time>
      </trkpt>
      <trkpt lat="43.56293" lon="5.57945">
        <ele>616.7</ele>
        <time>1970-01-01T01:05:53.000Z</time>
      </trkpt>
      <trkpt lat="43.56292" lon="5.57943">
        <ele>616.8</ele>
        <time>1970-01-01T01:05:54.000Z</time>
      </trkpt>
      <trkpt lat="43.56291" lon="5.57941">
        <ele>616.9</ele>
        <time>1970-01-01T01:05:55.000Z</time>
      </trkpt>
      <trkpt lat="43.56289" lon="5.57938">
        <ele>616.9</ele>
        <time>1970-01-01T01:05:57.000Z</time>
      </trkpt>
      <trkpt lat="43.56288" lon="5.57929">
        <ele>617.2</ele>
        <time>1970-01-01T01:05:59.000Z</time>
      </trkpt>
      <trkpt lat="43.56287" lon="5.57927">
        <ele>617.3</ele>
        <time>1970-01-01T01:06:01.000Z</time>
      </trkpt>
      <trkpt lat="43.56286" lon="5.57926">
        <ele>617.3</ele>
        <time>1970-01-01T01:06:02.000Z</time>
      </trkpt>
      <trkpt lat="43.56285" lon="5.57921">
        <ele>617.5</ele>
        <time>1970-01-01T01:06:04.000Z</time>
      </trkpt>
      <trkpt lat="43.56285" lon="5.57919">
        <ele>617.5</ele>
        <time>1970-01-01T01:06:05.000Z</time>
      </trkpt>
      <trkpt lat="43.56283" lon="5.57915">
        <ele>617.7</ele>
        <time>1970-01-01T01:06:07.000Z</time>
      </trkpt>
      <trkpt lat="43.56281" lon="5.57912">
        <ele>617.8</ele>
        <time>1970-01-01T01:06:08.000Z</time>
      </trkpt>
      <trkpt lat="43.5628" lon="5.5791">
        <ele>617.9</ele>
        <time>1970-01-01T01:06:09.000Z</time>
      </trkpt>
      <trkpt lat="43.56278" lon="5.57908">
        <ele>618</ele>
        <time>1970-01-01T01:06:10.000Z</time>
      </trkpt>
      <trkpt lat="43.56275" lon="5.57907">
        <ele>618.1</ele>
        <time>1970-01-01T01:06:12.000Z</time>
      </trkpt>
      <trkpt lat="43.56272" lon="5.57902">
        <ele>618.2</ele>
        <time>1970-01-01T01:06:14.000Z</time>
      </trkpt>
      <trkpt lat="43.56272" lon="5.579">
        <ele>618.3</ele>
        <time>1970-01-01T01:06:15.000Z</time>
      </trkpt>
      <trkpt lat="43.56272" lon="5.57899">
        <ele>618.3</ele>
        <time>1970-01-01T01:06:16.000Z</time>
      </trkpt>
      <trkpt lat="43.56271" lon="5.57897">
        <ele>618.3</ele>
        <time>1970-01-01T01:06:17.000Z</time>
      </trkpt>
      <trkpt lat="43.5627" lon="5.57893">
        <ele>618.4</ele>
        <time>1970-01-01T01:06:19.000Z</time>
      </trkpt>
      <trkpt lat="43.5627" lon="5.57891">
        <ele>618.4</ele>
        <time>1970-01-01T01:06:20.000Z</time>
      </trkpt>
      <trkpt lat="43.56269" lon="5.57891">
        <ele>618.4</ele>
        <time>1970-01-01T01:06:21.000Z</time>
      </trkpt>
      <trkpt lat="43.56264" lon="5.57886">
        <ele>618.4</ele>
        <time>1970-01-01T01:06:23.000Z</time>
      </trkpt>
      <trkpt lat="43.5626" lon="5.57884">
        <ele>618.2</ele>
        <time>1970-01-01T01:06:24.000Z</time>
      </trkpt>
      <trkpt lat="43.56253" lon="5.57886">
        <ele>618.6</ele>
        <time>1970-01-01T01:06:26.000Z</time>
      </trkpt>
      <trkpt lat="43.5625" lon="5.57891">
        <ele>618.9</ele>
        <time>1970-01-01T01:06:28.000Z</time>
      </trkpt>
      <trkpt lat="43.56249" lon="5.57896">
        <ele>619.1</ele>
        <time>1970-01-01T01:06:30.000Z</time>
      </trkpt>
      <trkpt lat="43.56248" lon="5.57898">
        <ele>619.2</ele>
        <time>1970-01-01T01:06:31.000Z</time>
      </trkpt>
      <trkpt lat="43.56244" lon="5.57903">
        <ele>619.4</ele>
        <time>1970-01-01T01:06:33.000Z</time>
      </trkpt>
      <trkpt lat="43.56243" lon="5.57904">
        <ele>619.5</ele>
        <time>1970-01-01T01:06:34.000Z</time>
      </trkpt>
      <trkpt lat="43.56239" lon="5.57909">
        <ele>619.8</ele>
        <time>1970-01-01T01:06:36.000Z</time>
      </trkpt>
      <trkpt lat="43.56238" lon="5.57913">
        <ele>620</ele>
        <time>1970-01-01T01:06:38.000Z</time>
      </trkpt>
      <trkpt lat="43.56237" lon="5.57917">
        <ele>620.2</ele>
        <time>1970-01-01T01:06:40.000Z</time>
      </trkpt>
      <trkpt lat="43.56236" lon="5.57921">
        <ele>620.5</ele>
        <time>1970-01-01T01:06:42.000Z</time>
      </trkpt>
      <trkpt lat="43.56234" lon="5.57925">
        <ele>620.7</ele>
        <time>1970-01-01T01:06:44.000Z</time>
      </trkpt>
      <trkpt lat="43.56232" lon="5.57927">
        <ele>620.9</ele>
        <time>1970-01-01T01:06:46.000Z</time>
      </trkpt>
      <trkpt lat="43.5623" lon="5.5793">
        <ele>621</ele>
        <time>1970-01-01T01:06:47.000Z</time>
      </trkpt>
      <trkpt lat="43.56229" lon="5.57935">
        <ele>621.3</ele>
        <time>1970-01-01T01:06:49.000Z</time>
      </trkpt>
      <trkpt lat="43.56225" lon="5.5794">
        <ele>621.6</ele>
        <time>1970-01-01T01:06:51.000Z</time>
      </trkpt>
      <trkpt lat="43.56224" lon="5.57942">
        <ele>621.7</ele>
        <time>1970-01-01T01:06:52.000Z</time>
      </trkpt>
      <trkpt lat="43.56223" lon="5.57944">
        <ele>621.8</ele>
        <time>1970-01-01T01:06:54.000Z</time>
      </trkpt>
      <trkpt lat="43.56222" lon="5.57945">
        <ele>621.9</ele>
        <time>1970-01-01T01:06:55.000Z</time>
      </trkpt>
      <trkpt lat="43.5622" lon="5.57949">
        <ele>622</ele>
        <time>1970-01-01T01:06:56.000Z</time>
      </trkpt>
      <trkpt lat="43.5622" lon="5.5795">
        <ele>622.1</ele>
        <time>1970-01-01T01:06:58.000Z</time>
      </trkpt>
      <trkpt lat="43.56219" lon="5.57952">
        <ele>622.2</ele>
        <time>1970-01-01T01:06:59.000Z</time>
      </trkpt>
      <trkpt lat="43.56218" lon="5.57954">
        <ele>622.3</ele>
        <time>1970-01-01T01:07:00.000Z</time>
      </trkpt>
      <trkpt lat="43.56215" lon="5.57956">
        <ele>622.4</ele>
        <time>1970-01-01T01:07:01.000Z</time>
      </trkpt>
      <trkpt lat="43.56215" lon="5.57957">
        <ele>622.5</ele>
        <time>1970-01-01T01:07:02.000Z</time>
      </trkpt>
      <trkpt lat="43.56213" lon="5.57959">
        <ele>622.6</ele>
        <time>1970-01-01T01:07:05.000Z</time>
      </trkpt>
      <trkpt lat="43.56211" lon="5.57963">
        <ele>622.7</ele>
        <time>1970-01-01T01:07:07.000Z</time>
      </trkpt>
      <trkpt lat="43.5621" lon="5.57966">
        <ele>622.9</ele>
        <time>1970-01-01T01:07:09.000Z</time>
      </trkpt>
      <trkpt lat="43.56209" lon="5.57967">
        <ele>622.9</ele>
        <time>1970-01-01T01:07:10.000Z</time>
      </trkpt>
      <trkpt lat="43.56208" lon="5.57973">
        <ele>623.2</ele>
        <time>1970-01-01T01:07:12.000Z</time>
      </trkpt>
      <trkpt lat="43.56207" lon="5.57977">
        <ele>623.4</ele>
        <time>1970-01-01T01:07:13.000Z</time>
      </trkpt>
      <trkpt lat="43.56205" lon="5.57978">
        <ele>623.5</ele>
        <time>1970-01-01T01:07:15.000Z</time>
      </trkpt>
      <trkpt lat="43.56203" lon="5.57982">
        <ele>623.7</ele>
        <time>1970-01-01T01:07:17.000Z</time>
      </trkpt>
      <trkpt lat="43.56202" lon="5.57983">
        <ele>623.7</ele>
        <time>1970-01-01T01:07:18.000Z</time>
      </trkpt>
      <trkpt lat="43.56201" lon="5.57984">
        <ele>623.8</ele>
        <time>1970-01-01T01:07:19.000Z</time>
      </trkpt>
      <trkpt lat="43.56199" lon="5.57986">
        <ele>624</ele>
        <time>1970-01-01T01:07:21.000Z</time>
      </trkpt>
      <trkpt lat="43.56198" lon="5.57988">
        <ele>624</ele>
        <time>1970-01-01T01:07:22.000Z</time>
      </trkpt>
      <trkpt lat="43.56196" lon="5.57992">
        <ele>624.2</ele>
        <time>1970-01-01T01:07:24.000Z</time>
      </trkpt>
      <trkpt lat="43.56195" lon="5.57993">
        <ele>624.3</ele>
        <time>1970-01-01T01:07:25.000Z</time>
      </trkpt>
      <trkpt lat="43.56194" lon="5.57996">
        <ele>624.4</ele>
        <time>1970-01-01T01:07:27.000Z</time>
      </trkpt>
      <trkpt lat="43.56193" lon="5.57998">
        <ele>624.5</ele>
        <time>1970-01-01T01:07:28.000Z</time>
      </trkpt>
      <trkpt lat="43.56191" lon="5.58001">
        <ele>624.6</ele>
        <time>1970-01-01T01:07:30.000Z</time>
      </trkpt>
      <trkpt lat="43.56189" lon="5.58004">
        <ele>624.8</ele>
        <time>1970-01-01T01:07:32.000Z</time>
      </trkpt>
      <trkpt lat="43.56188" lon="5.58005">
        <ele>624.8</ele>
        <time>1970-01-01T01:07:33.000Z</time>
      </trkpt>
      <trkpt lat="43.56188" lon="5.58006">
        <ele>624.8</ele>
        <time>1970-01-01T01:07:34.000Z</time>
      </trkpt>
      <trkpt lat="43.56185" lon="5.58009">
        <ele>625</ele>
        <time>1970-01-01T01:07:36.000Z</time>
      </trkpt>
      <trkpt lat="43.56181" lon="5.58012">
        <ele>625.2</ele>
        <time>1970-01-01T01:07:38.000Z</time>
      </trkpt>
      <trkpt lat="43.5618" lon="5.58015">
        <ele>625.4</ele>
        <time>1970-01-01T01:07:40.000Z</time>
      </trkpt>
      <trkpt lat="43.56176" lon="5.58019">
        <ele>625.6</ele>
        <time>1970-01-01T01:07:42.000Z</time>
      </trkpt>
      <trkpt lat="43.56174" lon="5.58023">
        <ele>625.8</ele>
        <time>1970-01-01T01:07:44.000Z</time>
      </trkpt>
      <trkpt lat="43.56173" lon="5.58031">
        <ele>626.1</ele>
        <time>1970-01-01T01:07:46.000Z</time>
      </trkpt>
      <trkpt lat="43.56172" lon="5.58036">
        <ele>626.3</ele>
        <time>1970-01-01T01:07:48.000Z</time>
      </trkpt>
      <trkpt lat="43.5617" lon="5.5804">
        <ele>626.4</ele>
        <time>1970-01-01T01:07:50.000Z</time>
      </trkpt>
      <trkpt lat="43.56168" lon="5.58042">
        <ele>626.5</ele>
        <time>1970-01-01T01:07:51.000Z</time>
      </trkpt>
      <trkpt lat="43.56163" lon="5.5805">
        <ele>626.9</ele>
        <time>1970-01-01T01:07:54.000Z</time>
      </trkpt>
      <trkpt lat="43.56163" lon="5.58055">
        <ele>627.1</ele>
        <time>1970-01-01T01:07:56.000Z</time>
      </trkpt>
      <trkpt lat="43.56162" lon="5.5806">
        <ele>627.3</ele>
        <time>1970-01-01T01:07:58.000Z</time>
      </trkpt>
      <trkpt lat="43.5616" lon="5.58062">
        <ele>627.4</ele>
        <time>1970-01-01T01:07:59.000Z</time>
      </trkpt>
      <trkpt lat="43.56159" lon="5.58067">
        <ele>627.5</ele>
        <time>1970-01-01T01:08:01.000Z</time>
      </trkpt>
      <trkpt lat="43.56159" lon="5.58073">
        <ele>627.7</ele>
        <time>1970-01-01T01:08:03.000Z</time>
      </trkpt>
      <trkpt lat="43.56158" lon="5.58076">
        <ele>627.8</ele>
        <time>1970-01-01T01:08:05.000Z</time>
      </trkpt>
      <trkpt lat="43.56157" lon="5.58081">
        <ele>628</ele>
        <time>1970-01-01T01:08:07.000Z</time>
      </trkpt>
      <trkpt lat="43.56155" lon="5.58084">
        <ele>628.1</ele>
        <time>1970-01-01T01:08:09.000Z</time>
      </trkpt>
      <trkpt lat="43.56152" lon="5.58089">
        <ele>628.3</ele>
        <time>1970-01-01T01:08:11.000Z</time>
      </trkpt>
      <trkpt lat="43.56151" lon="5.58092">
        <ele>628.3</ele>
        <time>1970-01-01T01:08:13.000Z</time>
      </trkpt>
      <trkpt lat="43.5615" lon="5.58102">
        <ele>628.5</ele>
        <time>1970-01-01T01:08:15.000Z</time>
      </trkpt>
      <trkpt lat="43.56146" lon="5.58108">
        <ele>628.7</ele>
        <time>1970-01-01T01:08:17.000Z</time>
      </trkpt>
      <trkpt lat="43.56143" lon="5.58114">
        <ele>628.9</ele>
        <time>1970-01-01T01:08:19.000Z</time>
      </trkpt>
      <trkpt lat="43.5614" lon="5.58118">
        <ele>629</ele>
        <time>1970-01-01T01:08:21.000Z</time>
      </trkpt>
      <trkpt lat="43.56137" lon="5.5812">
        <ele>629.1</ele>
        <time>1970-01-01T01:08:23.000Z</time>
      </trkpt>
      <trkpt lat="43.56133" lon="5.58124">
        <ele>629.2</ele>
        <time>1970-01-01T01:08:25.000Z</time>
      </trkpt>
      <trkpt lat="43.56132" lon="5.58126">
        <ele>629.3</ele>
        <time>1970-01-01T01:08:26.000Z</time>
      </trkpt>
      <trkpt lat="43.5613" lon="5.58129">
        <ele>629.4</ele>
        <time>1970-01-01T01:08:28.000Z</time>
      </trkpt>
      <trkpt lat="43.56129" lon="5.58136">
        <ele>629.5</ele>
        <time>1970-01-01T01:08:30.000Z</time>
      </trkpt>
      <trkpt lat="43.56128" lon="5.58141">
        <ele>629.6</ele>
        <time>1970-01-01T01:08:31.000Z</time>
      </trkpt>
      <trkpt lat="43.56128" lon="5.58144">
        <ele>629.6</ele>
        <time>1970-01-01T01:08:32.000Z</time>
      </trkpt>
      <trkpt lat="43.56127" lon="5.58148">
        <ele>629.6</ele>
        <time>1970-01-01T01:08:34.000Z</time>
      </trkpt>
      <trkpt lat="43.56123" lon="5.58155">
        <ele>629.7</ele>
        <time>1970-01-01T01:08:36.000Z</time>
      </trkpt>
      <trkpt lat="43.56125" lon="5.58158">
        <ele>629.7</ele>
        <time>1970-01-01T01:08:37.000Z</time>
      </trkpt>
      <trkpt lat="43.56123" lon="5.58161">
        <ele>629.7</ele>
        <time>1970-01-01T01:08:38.000Z</time>
      </trkpt>
      <trkpt lat="43.56122" lon="5.58162">
        <ele>629.7</ele>
        <time>1970-01-01T01:08:39.000Z</time>
      </trkpt>
      <trkpt lat="43.56121" lon="5.58168">
        <ele>629.7</ele>
        <time>1970-01-01T01:08:41.000Z</time>
      </trkpt>
      <trkpt lat="43.5612" lon="5.58177">
        <ele>629.8</ele>
        <time>1970-01-01T01:08:43.000Z</time>
      </trkpt>
      <trkpt lat="43.56123" lon="5.58186">
        <ele>629.8</ele>
        <time>1970-01-01T01:08:45.000Z</time>
      </trkpt>
      <trkpt lat="43.56126" lon="5.58193">
        <ele>629.8</ele>
        <time>1970-01-01T01:08:47.000Z</time>
      </trkpt>
      <trkpt lat="43.56125" lon="5.58197">
        <ele>629.8</ele>
        <time>1970-01-01T01:08:48.000Z</time>
      </trkpt>
      <trkpt lat="43.56124" lon="5.58201">
        <ele>629.8</ele>
        <time>1970-01-01T01:08:49.000Z</time>
      </trkpt>
      <trkpt lat="43.56123" lon="5.58205">
        <ele>629.8</ele>
        <time>1970-01-01T01:08:50.000Z</time>
      </trkpt>
      <trkpt lat="43.56121" lon="5.58212">
        <ele>629.8</ele>
        <time>1970-01-01T01:08:52.000Z</time>
      </trkpt>
      <trkpt lat="43.5612" lon="5.58215">
        <ele>629.8</ele>
        <time>1970-01-01T01:08:53.000Z</time>
      </trkpt>
      <trkpt lat="43.56116" lon="5.5822">
        <ele>629.8</ele>
        <time>1970-01-01T01:08:55.000Z</time>
      </trkpt>
      <trkpt lat="43.56115" lon="5.58226">
        <ele>629.8</ele>
        <time>1970-01-01T01:08:57.000Z</time>
      </trkpt>
      <trkpt lat="43.56114" lon="5.5823">
        <ele>629.8</ele>
        <time>1970-01-01T01:08:58.000Z</time>
      </trkpt>
      <trkpt lat="43.56115" lon="5.58236">
        <ele>629.8</ele>
        <time>1970-01-01T01:09:00.000Z</time>
      </trkpt>
      <trkpt lat="43.56114" lon="5.5824">
        <ele>629.7</ele>
        <time>1970-01-01T01:09:01.000Z</time>
      </trkpt>
      <trkpt lat="43.56114" lon="5.58242">
        <ele>629.7</ele>
        <time>1970-01-01T01:09:02.000Z</time>
      </trkpt>
      <trkpt lat="43.56113" lon="5.5825">
        <ele>629.7</ele>
        <time>1970-01-01T01:09:04.000Z</time>
      </trkpt>
      <trkpt lat="43.56113" lon="5.58253">
        <ele>629.7</ele>
        <time>1970-01-01T01:09:05.000Z</time>
      </trkpt>
      <trkpt lat="43.56111" lon="5.5826">
        <ele>629.7</ele>
        <time>1970-01-01T01:09:07.000Z</time>
      </trkpt>
      <trkpt lat="43.56107" lon="5.58266">
        <ele>629.6</ele>
        <time>1970-01-01T01:09:09.000Z</time>
      </trkpt>
      <trkpt lat="43.56108" lon="5.58276">
        <ele>629.5</ele>
        <time>1970-01-01T01:09:11.000Z</time>
      </trkpt>
      <trkpt lat="43.56106" lon="5.58281">
        <ele>629.4</ele>
        <time>1970-01-01T01:09:13.000Z</time>
      </trkpt>
      <trkpt lat="43.56104" lon="5.58284">
        <ele>629.4</ele>
        <time>1970-01-01T01:09:14.000Z</time>
      </trkpt>
      <trkpt lat="43.56103" lon="5.58289">
        <ele>629.3</ele>
        <time>1970-01-01T01:09:15.000Z</time>
      </trkpt>
      <trkpt lat="43.561" lon="5.58293">
        <ele>629.2</ele>
        <time>1970-01-01T01:09:17.000Z</time>
      </trkpt>
      <trkpt lat="43.56097" lon="5.58301">
        <ele>629</ele>
        <time>1970-01-01T01:09:19.000Z</time>
      </trkpt>
      <trkpt lat="43.56095" lon="5.58308">
        <ele>628.7</ele>
        <time>1970-01-01T01:09:21.000Z</time>
      </trkpt>
      <trkpt lat="43.56093" lon="5.58315">
        <ele>628.4</ele>
        <time>1970-01-01T01:09:23.000Z</time>
      </trkpt>
      <trkpt lat="43.56091" lon="5.58325">
        <ele>627.9</ele>
        <time>1970-01-01T01:09:25.000Z</time>
      </trkpt>
      <trkpt lat="43.56096" lon="5.58333">
        <ele>627.3</ele>
        <time>1970-01-01T01:09:27.000Z</time>
      </trkpt>
      <trkpt lat="43.56095" lon="5.58338">
        <ele>627</ele>
        <time>1970-01-01T01:09:28.000Z</time>
      </trkpt>
      <trkpt lat="43.56091" lon="5.58347">
        <ele>626.6</ele>
        <time>1970-01-01T01:09:30.000Z</time>
      </trkpt>
      <trkpt lat="43.56089" lon="5.58353">
        <ele>626.3</ele>
        <time>1970-01-01T01:09:31.000Z</time>
      </trkpt>
      <trkpt lat="43.56084" lon="5.58363">
        <ele>625.6</ele>
        <time>1970-01-01T01:09:33.000Z</time>
      </trkpt>
      <trkpt lat="43.56086" lon="5.58375">
        <ele>624.8</ele>
        <time>1970-01-01T01:09:35.000Z</time>
      </trkpt>
      <trkpt lat="43.56086" lon="5.58386">
        <ele>624</ele>
        <time>1970-01-01T01:09:37.000Z</time>
      </trkpt>
      <trkpt lat="43.56085" lon="5.58396">
        <ele>623.2</ele>
        <time>1970-01-01T01:09:39.000Z</time>
      </trkpt>
      <trkpt lat="43.56082" lon="5.58409">
        <ele>621.8</ele>
        <time>1970-01-01T01:09:41.000Z</time>
      </trkpt>
      <trkpt lat="43.56084" lon="5.58422">
        <ele>620.5</ele>
        <time>1970-01-01T01:09:43.000Z</time>
      </trkpt>
      <trkpt lat="43.56085" lon="5.58427">
        <ele>619.9</ele>
        <time>1970-01-01T01:09:44.000Z</time>
      </trkpt>
      <trkpt lat="43.56083" lon="5.58435">
        <ele>619.3</ele>
        <time>1970-01-01T01:09:46.000Z</time>
      </trkpt>
      <trkpt lat="43.56081" lon="5.5844">
        <ele>618.8</ele>
        <time>1970-01-01T01:09:47.000Z</time>
      </trkpt>
      <trkpt lat="43.56083" lon="5.5845">
        <ele>617.9</ele>
        <time>1970-01-01T01:09:49.000Z</time>
      </trkpt>
      <trkpt lat="43.56083" lon="5.58455">
        <ele>617.5</ele>
        <time>1970-01-01T01:09:50.000Z</time>
      </trkpt>
      <trkpt lat="43.56083" lon="5.58469">
        <ele>616.7</ele>
        <time>1970-01-01T01:09:52.000Z</time>
      </trkpt>
      <trkpt lat="43.56082" lon="5.58484">
        <ele>615.9</ele>
        <time>1970-01-01T01:09:54.000Z</time>
      </trkpt>
      <trkpt lat="43.56081" lon="5.5849">
        <ele>615.6</ele>
        <time>1970-01-01T01:09:55.000Z</time>
      </trkpt>
      <trkpt lat="43.56082" lon="5.58496">
        <ele>615.4</ele>
        <time>1970-01-01T01:09:56.000Z</time>
      </trkpt>
      <trkpt lat="43.56085" lon="5.58505">
        <ele>615</ele>
        <time>1970-01-01T01:09:58.000Z</time>
      </trkpt>
      <trkpt lat="43.56085" lon="5.58511">
        <ele>614.7</ele>
        <time>1970-01-01T01:09:59.000Z</time>
      </trkpt>
      <trkpt lat="43.56086" lon="5.58517">
        <ele>614.3</ele>
        <time>1970-01-01T01:10:01.000Z</time>
      </trkpt>
      <trkpt lat="43.56088" lon="5.5852">
        <ele>614</ele>
        <time>1970-01-01T01:10:02.000Z</time>
      </trkpt>
      <trkpt lat="43.56089" lon="5.58523">
        <ele>613.8</ele>
        <time>1970-01-01T01:10:03.000Z</time>
      </trkpt>
      <trkpt lat="43.56091" lon="5.58532">
        <ele>613.1</ele>
        <time>1970-01-01T01:10:05.000Z</time>
      </trkpt>
      <trkpt lat="43.56088" lon="5.58549">
        <ele>611.9</ele>
        <time>1970-01-01T01:10:07.000Z</time>
      </trkpt>
      <trkpt lat="43.5609" lon="5.58563">
        <ele>611.1</ele>
        <time>1970-01-01T01:10:09.000Z</time>
      </trkpt>
      <trkpt lat="43.56088" lon="5.5857">
        <ele>610.7</ele>
        <time>1970-01-01T01:10:10.000Z</time>
      </trkpt>
      <trkpt lat="43.56088" lon="5.58587">
        <ele>609.7</ele>
        <time>1970-01-01T01:10:12.000Z</time>
      </trkpt>
      <trkpt lat="43.56091" lon="5.58596">
        <ele>609.1</ele>
        <time>1970-01-01T01:10:13.000Z</time>
      </trkpt>
      <trkpt lat="43.56093" lon="5.58613">
        <ele>608.1</ele>
        <time>1970-01-01T01:10:15.000Z</time>
      </trkpt>
      <trkpt lat="43.56094" lon="5.58621">
        <ele>607.7</ele>
        <time>1970-01-01T01:10:16.000Z</time>
      </trkpt>
      <trkpt lat="43.56094" lon="5.58628">
        <ele>607.4</ele>
        <time>1970-01-01T01:10:17.000Z</time>
      </trkpt>
      <trkpt lat="43.56089" lon="5.58639">
        <ele>606.7</ele>
        <time>1970-01-01T01:10:19.000Z</time>
      </trkpt>
      <trkpt lat="43.56087" lon="5.58647">
        <ele>606.3</ele>
        <time>1970-01-01T01:10:20.000Z</time>
      </trkpt>
      <trkpt lat="43.56079" lon="5.58656">
        <ele>605.6</ele>
        <time>1970-01-01T01:10:22.000Z</time>
      </trkpt>
      <trkpt lat="43.56075" lon="5.58656">
        <ele>605.4</ele>
        <time>1970-01-01T01:10:23.000Z</time>
      </trkpt>
      <trkpt lat="43.56068" lon="5.58657">
        <ele>605.2</ele>
        <time>1970-01-01T01:10:25.000Z</time>
      </trkpt>
      <trkpt lat="43.56065" lon="5.58668">
        <ele>604.9</ele>
        <time>1970-01-01T01:10:27.000Z</time>
      </trkpt>
      <trkpt lat="43.56067" lon="5.58675">
        <ele>604.8</ele>
        <time>1970-01-01T01:10:28.000Z</time>
      </trkpt>
      <trkpt lat="43.56066" lon="5.58679">
        <ele>604.7</ele>
        <time>1970-01-01T01:10:29.000Z</time>
      </trkpt>
      <trkpt lat="43.56065" lon="5.58685">
        <ele>604.5</ele>
        <time>1970-01-01T01:10:31.000Z</time>
      </trkpt>
      <trkpt lat="43.56068" lon="5.58694">
        <ele>604.1</ele>
        <time>1970-01-01T01:10:33.000Z</time>
      </trkpt>
      <trkpt lat="43.5607" lon="5.58699">
        <ele>603.9</ele>
        <time>1970-01-01T01:10:35.000Z</time>
      </trkpt>
      <trkpt lat="43.56066" lon="5.58711">
        <ele>603.2</ele>
        <time>1970-01-01T01:10:37.000Z</time>
      </trkpt>
      <trkpt lat="43.56066" lon="5.5872">
        <ele>602.7</ele>
        <time>1970-01-01T01:10:38.000Z</time>
      </trkpt>
      <trkpt lat="43.56064" lon="5.58726">
        <ele>602.3</ele>
        <time>1970-01-01T01:10:39.000Z</time>
      </trkpt>
      <trkpt lat="43.56061" lon="5.58739">
        <ele>601.6</ele>
        <time>1970-01-01T01:10:41.000Z</time>
      </trkpt>
      <trkpt lat="43.56064" lon="5.58743">
        <ele>601.3</ele>
        <time>1970-01-01T01:10:42.000Z</time>
      </trkpt>
      <trkpt lat="43.56071" lon="5.58751">
        <ele>600.7</ele>
        <time>1970-01-01T01:10:44.000Z</time>
      </trkpt>
      <trkpt lat="43.56066" lon="5.58758">
        <ele>600.2</ele>
        <time>1970-01-01T01:10:46.000Z</time>
      </trkpt>
      <trkpt lat="43.56063" lon="5.58762">
        <ele>599.8</ele>
        <time>1970-01-01T01:10:47.000Z</time>
      </trkpt>
      <trkpt lat="43.56061" lon="5.58773">
        <ele>599</ele>
        <time>1970-01-01T01:10:49.000Z</time>
      </trkpt>
      <trkpt lat="43.56058" lon="5.58784">
        <ele>598.3</ele>
        <time>1970-01-01T01:10:51.000Z</time>
      </trkpt>
      <trkpt lat="43.56057" lon="5.58794">
        <ele>597.6</ele>
        <time>1970-01-01T01:10:53.000Z</time>
      </trkpt>
      <trkpt lat="43.56056" lon="5.58798">
        <ele>597.4</ele>
        <time>1970-01-01T01:10:54.000Z</time>
      </trkpt>
      <trkpt lat="43.56054" lon="5.58804">
        <ele>596.9</ele>
        <time>1970-01-01T01:10:56.000Z</time>
      </trkpt>
      <trkpt lat="43.56053" lon="5.58811">
        <ele>596.5</ele>
        <time>1970-01-01T01:10:58.000Z</time>
      </trkpt>
      <trkpt lat="43.56053" lon="5.58814">
        <ele>596.3</ele>
        <time>1970-01-01T01:10:59.000Z</time>
      </trkpt>
      <trkpt lat="43.56054" lon="5.58816">
        <ele>596.2</ele>
        <time>1970-01-01T01:11:01.000Z</time>
      </trkpt>
      <trkpt lat="43.56054" lon="5.58816">
        <ele>596.2</ele>
        <time>1970-01-01T01:11:02.000Z</time>
      </trkpt>
      <trkpt lat="43.56054" lon="5.58816">
        <ele>596.2</ele>
        <time>1970-01-01T01:11:03.000Z</time>
      </trkpt>
      <trkpt lat="43.56054" lon="5.58816">
        <ele>596.1</ele>
        <time>1970-01-01T01:11:05.000Z</time>
      </trkpt>
      <trkpt lat="43.56054" lon="5.58816">
        <ele>596.1</ele>
        <time>1970-01-01T01:11:07.000Z</time>
      </trkpt>
      <trkpt lat="43.56054" lon="5.58816">
        <ele>596.1</ele>
        <time>1970-01-01T01:11:08.000Z</time>
      </trkpt>
      <trkpt lat="43.56055" lon="5.58816">
        <ele>596.1</ele>
        <time>1970-01-01T01:11:09.000Z</time>
      </trkpt>
      <trkpt lat="43.56055" lon="5.58816">
        <ele>596.1</ele>
        <time>1970-01-01T01:11:10.000Z</time>
      </trkpt>
      <trkpt lat="43.56055" lon="5.58816">
        <ele>596.1</ele>
        <time>1970-01-01T01:11:11.000Z</time>
      </trkpt>
      <trkpt lat="43.56055" lon="5.58816">
        <ele>596.1</ele>
        <time>1970-01-01T01:11:12.000Z</time>
      </trkpt>
      <trkpt lat="43.56055" lon="5.58822">
        <ele>595.7</ele>
        <time>1970-01-01T01:11:18.000Z</time>
      </trkpt>
      <trkpt lat="43.56056" lon="5.58825">
        <ele>595.5</ele>
        <time>1970-01-01T01:11:20.000Z</time>
      </trkpt>
      <trkpt lat="43.56056" lon="5.58825">
        <ele>595.5</ele>
        <time>1970-01-01T01:11:21.000Z</time>
      </trkpt>
      <trkpt lat="43.56057" lon="5.58829">
        <ele>595.3</ele>
        <time>1970-01-01T01:11:23.000Z</time>
      </trkpt>
      <trkpt lat="43.56057" lon="5.58831">
        <ele>595.2</ele>
        <time>1970-01-01T01:11:24.000Z</time>
      </trkpt>
      <trkpt lat="43.56058" lon="5.58835">
        <ele>595</ele>
        <time>1970-01-01T01:11:26.000Z</time>
      </trkpt>
      <trkpt lat="43.56059" lon="5.58838">
        <ele>594.9</ele>
        <time>1970-01-01T01:11:28.000Z</time>
      </trkpt>
      <trkpt lat="43.5606" lon="5.5884">
        <ele>594.8</ele>
        <time>1970-01-01T01:11:29.000Z</time>
      </trkpt>
      <trkpt lat="43.56061" lon="5.58842">
        <ele>594.7</ele>
        <time>1970-01-01T01:11:30.000Z</time>
      </trkpt>
      <trkpt lat="43.56061" lon="5.58845">
        <ele>594.7</ele>
        <time>1970-01-01T01:11:32.000Z</time>
      </trkpt>
      <trkpt lat="43.56061" lon="5.58846">
        <ele>594.6</ele>
        <time>1970-01-01T01:11:33.000Z</time>
      </trkpt>
      <trkpt lat="43.56062" lon="5.58847">
        <ele>594.6</ele>
        <time>1970-01-01T01:11:34.000Z</time>
      </trkpt>
      <trkpt lat="43.56064" lon="5.58848">
        <ele>594.5</ele>
        <time>1970-01-01T01:11:36.000Z</time>
      </trkpt>
      <trkpt lat="43.56065" lon="5.58849">
        <ele>594.4</ele>
        <time>1970-01-01T01:11:38.000Z</time>
      </trkpt>
      <trkpt lat="43.56066" lon="5.5885">
        <ele>594.4</ele>
        <time>1970-01-01T01:11:40.000Z</time>
      </trkpt>
      <trkpt lat="43.56066" lon="5.58851">
        <ele>594.4</ele>
        <time>1970-01-01T01:11:41.000Z</time>
      </trkpt>
      <trkpt lat="43.56066" lon="5.58854">
        <ele>594.3</ele>
        <time>1970-01-01T01:11:43.000Z</time>
      </trkpt>
      <trkpt lat="43.56067" lon="5.58857">
        <ele>594.2</ele>
        <time>1970-01-01T01:11:45.000Z</time>
      </trkpt>
      <trkpt lat="43.56067" lon="5.58858">
        <ele>594.2</ele>
        <time>1970-01-01T01:11:46.000Z</time>
      </trkpt>
      <trkpt lat="43.56067" lon="5.58863">
        <ele>594</ele>
        <time>1970-01-01T01:11:48.000Z</time>
      </trkpt>
      <trkpt lat="43.56067" lon="5.58865">
        <ele>594</ele>
        <time>1970-01-01T01:11:49.000Z</time>
      </trkpt>
      <trkpt lat="43.56067" lon="5.58867">
        <ele>594</ele>
        <time>1970-01-01T01:11:50.000Z</time>
      </trkpt>
      <trkpt lat="43.56066" lon="5.58869">
        <ele>593.9</ele>
        <time>1970-01-01T01:11:51.000Z</time>
      </trkpt>
      <trkpt lat="43.56064" lon="5.58875">
        <ele>593.7</ele>
        <time>1970-01-01T01:11:53.000Z</time>
      </trkpt>
      <trkpt lat="43.56062" lon="5.5888">
        <ele>593.6</ele>
        <time>1970-01-01T01:11:55.000Z</time>
      </trkpt>
      <trkpt lat="43.56062" lon="5.58882">
        <ele>593.5</ele>
        <time>1970-01-01T01:11:56.000Z</time>
      </trkpt>
      <trkpt lat="43.56064" lon="5.58885">
        <ele>593.4</ele>
        <time>1970-01-01T01:11:58.000Z</time>
      </trkpt>
      <trkpt lat="43.56065" lon="5.58886">
        <ele>593.3</ele>
        <time>1970-01-01T01:11:59.000Z</time>
      </trkpt>
      <trkpt lat="43.56068" lon="5.58889">
        <ele>593.2</ele>
        <time>1970-01-01T01:12:01.000Z</time>
      </trkpt>
      <trkpt lat="43.5607" lon="5.58896">
        <ele>592.9</ele>
        <time>1970-01-01T01:12:03.000Z</time>
      </trkpt>
      <trkpt lat="43.56069" lon="5.58902">
        <ele>592.8</ele>
        <time>1970-01-01T01:12:05.000Z</time>
      </trkpt>
      <trkpt lat="43.56069" lon="5.58907">
        <ele>592.6</ele>
        <time>1970-01-01T01:12:06.000Z</time>
      </trkpt>
      <trkpt lat="43.56069" lon="5.58909">
        <ele>592.6</ele>
        <time>1970-01-01T01:12:07.000Z</time>
      </trkpt>
      <trkpt lat="43.5607" lon="5.58913">
        <ele>592.4</ele>
        <time>1970-01-01T01:12:09.000Z</time>
      </trkpt>
      <trkpt lat="43.56069" lon="5.58918">
        <ele>592.2</ele>
        <time>1970-01-01T01:12:11.000Z</time>
      </trkpt>
      <trkpt lat="43.56069" lon="5.5892">
        <ele>592.1</ele>
        <time>1970-01-01T01:12:12.000Z</time>
      </trkpt>
      <trkpt lat="43.56066" lon="5.58924">
        <ele>591.8</ele>
        <time>1970-01-01T01:12:14.000Z</time>
      </trkpt>
      <trkpt lat="43.56065" lon="5.58928">
        <ele>591.5</ele>
        <time>1970-01-01T01:12:16.000Z</time>
      </trkpt>
      <trkpt lat="43.56065" lon="5.58931">
        <ele>591.3</ele>
        <time>1970-01-01T01:12:17.000Z</time>
      </trkpt>
      <trkpt lat="43.56066" lon="5.58938">
        <ele>590.9</ele>
        <time>1970-01-01T01:12:19.000Z</time>
      </trkpt>
      <trkpt lat="43.56066" lon="5.58945">
        <ele>590.5</ele>
        <time>1970-01-01T01:12:21.000Z</time>
      </trkpt>
      <trkpt lat="43.56064" lon="5.58949">
        <ele>590.3</ele>
        <time>1970-01-01T01:12:22.000Z</time>
      </trkpt>
      <trkpt lat="43.56063" lon="5.58953">
        <ele>590</ele>
        <time>1970-01-01T01:12:23.000Z</time>
      </trkpt>
      <trkpt lat="43.56059" lon="5.5896">
        <ele>589.6</ele>
        <time>1970-01-01T01:12:25.000Z</time>
      </trkpt>
      <trkpt lat="43.56056" lon="5.58968">
        <ele>589</ele>
        <time>1970-01-01T01:12:27.000Z</time>
      </trkpt>
      <trkpt lat="43.56053" lon="5.58976">
        <ele>588.5</ele>
        <time>1970-01-01T01:12:29.000Z</time>
      </trkpt>
      <trkpt lat="43.56053" lon="5.58979">
        <ele>588.4</ele>
        <time>1970-01-01T01:12:30.000Z</time>
      </trkpt>
      <trkpt lat="43.56053" lon="5.58986">
        <ele>588.1</ele>
        <time>1970-01-01T01:12:32.000Z</time>
      </trkpt>
      <trkpt lat="43.56053" lon="5.58993">
        <ele>587.7</ele>
        <time>1970-01-01T01:12:34.000Z</time>
      </trkpt>
      <trkpt lat="43.56053" lon="5.58995">
        <ele>587.7</ele>
        <time>1970-01-01T01:12:35.000Z</time>
      </trkpt>
      <trkpt lat="43.56053" lon="5.58997">
        <ele>587.6</ele>
        <time>1970-01-01T01:12:36.000Z</time>
      </trkpt>
      <trkpt lat="43.56053" lon="5.59003">
        <ele>587.3</ele>
        <time>1970-01-01T01:12:38.000Z</time>
      </trkpt>
      <trkpt lat="43.56053" lon="5.59006">
        <ele>587.2</ele>
        <time>1970-01-01T01:12:39.000Z</time>
      </trkpt>
      <trkpt lat="43.56054" lon="5.59012">
        <ele>586.9</ele>
        <time>1970-01-01T01:12:41.000Z</time>
      </trkpt>
      <trkpt lat="43.56053" lon="5.59019">
        <ele>586.6</ele>
        <time>1970-01-01T01:12:43.000Z</time>
      </trkpt>
      <trkpt lat="43.56054" lon="5.59023">
        <ele>586.5</ele>
        <time>1970-01-01T01:12:45.000Z</time>
      </trkpt>
      <trkpt lat="43.56055" lon="5.59025">
        <ele>586.4</ele>
        <time>1970-01-01T01:12:46.000Z</time>
      </trkpt>
      <trkpt lat="43.56054" lon="5.59032">
        <ele>586.2</ele>
        <time>1970-01-01T01:12:48.000Z</time>
      </trkpt>
      <trkpt lat="43.56054" lon="5.59037">
        <ele>586.1</ele>
        <time>1970-01-01T01:12:49.000Z</time>
      </trkpt>
      <trkpt lat="43.56055" lon="5.59044">
        <ele>585.9</ele>
        <time>1970-01-01T01:12:51.000Z</time>
      </trkpt>
      <trkpt lat="43.56055" lon="5.59048">
        <ele>585.8</ele>
        <time>1970-01-01T01:12:52.000Z</time>
      </trkpt>
      <trkpt lat="43.56054" lon="5.59051">
        <ele>585.6</ele>
        <time>1970-01-01T01:12:53.000Z</time>
      </trkpt>
      <trkpt lat="43.56053" lon="5.59055">
        <ele>585.5</ele>
        <time>1970-01-01T01:12:54.000Z</time>
      </trkpt>
      <trkpt lat="43.56054" lon="5.59062">
        <ele>585.2</ele>
        <time>1970-01-01T01:12:56.000Z</time>
      </trkpt>
      <trkpt lat="43.56053" lon="5.59066">
        <ele>585.1</ele>
        <time>1970-01-01T01:12:57.000Z</time>
      </trkpt>
      <trkpt lat="43.56051" lon="5.59073">
        <ele>584.8</ele>
        <time>1970-01-01T01:12:59.000Z</time>
      </trkpt>
      <trkpt lat="43.56049" lon="5.59082">
        <ele>584.4</ele>
        <time>1970-01-01T01:13:01.000Z</time>
      </trkpt>
      <trkpt lat="43.56051" lon="5.59089">
        <ele>584.2</ele>
        <time>1970-01-01T01:13:03.000Z</time>
      </trkpt>
      <trkpt lat="43.56051" lon="5.59094">
        <ele>584.1</ele>
        <time>1970-01-01T01:13:05.000Z</time>
      </trkpt>
      <trkpt lat="43.5605" lon="5.59097">
        <ele>584</ele>
        <time>1970-01-01T01:13:06.000Z</time>
      </trkpt>
      <trkpt lat="43.56047" lon="5.59105">
        <ele>583.9</ele>
        <time>1970-01-01T01:13:08.000Z</time>
      </trkpt>
      <trkpt lat="43.56046" lon="5.59109">
        <ele>583.8</ele>
        <time>1970-01-01T01:13:09.000Z</time>
      </trkpt>
      <trkpt lat="43.56045" lon="5.59113">
        <ele>583.7</ele>
        <time>1970-01-01T01:13:10.000Z</time>
      </trkpt>
      <trkpt lat="43.56047" lon="5.59123">
        <ele>583.6</ele>
        <time>1970-01-01T01:13:12.000Z</time>
      </trkpt>
      <trkpt lat="43.56048" lon="5.59127">
        <ele>583.5</ele>
        <time>1970-01-01T01:13:13.000Z</time>
      </trkpt>
      <trkpt lat="43.56049" lon="5.5913">
        <ele>583.4</ele>
        <time>1970-01-01T01:13:14.000Z</time>
      </trkpt>
      <trkpt lat="43.56049" lon="5.59133">
        <ele>583.3</ele>
        <time>1970-01-01T01:13:15.000Z</time>
      </trkpt>
      <trkpt lat="43.56047" lon="5.59141">
        <ele>583.1</ele>
        <time>1970-01-01T01:13:17.000Z</time>
      </trkpt>
      <trkpt lat="43.56047" lon="5.59145">
        <ele>583</ele>
        <time>1970-01-01T01:13:18.000Z</time>
      </trkpt>
      <trkpt lat="43.56048" lon="5.59149">
        <ele>582.9</ele>
        <time>1970-01-01T01:13:19.000Z</time>
      </trkpt>
      <trkpt lat="43.56049" lon="5.59158">
        <ele>582.6</ele>
        <time>1970-01-01T01:13:21.000Z</time>
      </trkpt>
      <trkpt lat="43.56051" lon="5.59165">
        <ele>582.3</ele>
        <time>1970-01-01T01:13:23.000Z</time>
      </trkpt>
      <trkpt lat="43.56053" lon="5.59171">
        <ele>582.2</ele>
        <time>1970-01-01T01:13:25.000Z</time>
      </trkpt>
      <trkpt lat="43.56053" lon="5.59175">
        <ele>582</ele>
        <time>1970-01-01T01:13:26.000Z</time>
      </trkpt>
      <trkpt lat="43.56051" lon="5.59179">
        <ele>581.9</ele>
        <time>1970-01-01T01:13:27.000Z</time>
      </trkpt>
      <trkpt lat="43.56046" lon="5.59187">
        <ele>581.5</ele>
        <time>1970-01-01T01:13:29.000Z</time>
      </trkpt>
      <trkpt lat="43.56044" lon="5.59191">
        <ele>581.4</ele>
        <time>1970-01-01T01:13:30.000Z</time>
      </trkpt>
      <trkpt lat="43.56043" lon="5.592">
        <ele>581.1</ele>
        <time>1970-01-01T01:13:32.000Z</time>
      </trkpt>
      <trkpt lat="43.56041" lon="5.59209">
        <ele>580.9</ele>
        <time>1970-01-01T01:13:34.000Z</time>
      </trkpt>
      <trkpt lat="43.5604" lon="5.59213">
        <ele>580.7</ele>
        <time>1970-01-01T01:13:35.000Z</time>
      </trkpt>
      <trkpt lat="43.56037" lon="5.59221">
        <ele>580.5</ele>
        <time>1970-01-01T01:13:37.000Z</time>
      </trkpt>
      <trkpt lat="43.56034" lon="5.5923">
        <ele>580.3</ele>
        <time>1970-01-01T01:13:39.000Z</time>
      </trkpt>
      <trkpt lat="43.56033" lon="5.59234">
        <ele>580.1</ele>
        <time>1970-01-01T01:13:40.000Z</time>
      </trkpt>
      <trkpt lat="43.56033" lon="5.59244">
        <ele>579.8</ele>
        <time>1970-01-01T01:13:42.000Z</time>
      </trkpt>
      <trkpt lat="43.56031" lon="5.59251">
        <ele>579.6</ele>
        <time>1970-01-01T01:13:44.000Z</time>
      </trkpt>
      <trkpt lat="43.56029" lon="5.59259">
        <ele>579.4</ele>
        <time>1970-01-01T01:13:46.000Z</time>
      </trkpt>
      <trkpt lat="43.56028" lon="5.59262">
        <ele>579.3</ele>
        <time>1970-01-01T01:13:47.000Z</time>
      </trkpt>
      <trkpt lat="43.56027" lon="5.59271">
        <ele>579.2</ele>
        <time>1970-01-01T01:13:49.000Z</time>
      </trkpt>
      <trkpt lat="43.56026" lon="5.59275">
        <ele>579.1</ele>
        <time>1970-01-01T01:13:50.000Z</time>
      </trkpt>
      <trkpt lat="43.56025" lon="5.59278">
        <ele>579</ele>
        <time>1970-01-01T01:13:51.000Z</time>
      </trkpt>
      <trkpt lat="43.56024" lon="5.59287">
        <ele>578.8</ele>
        <time>1970-01-01T01:13:53.000Z</time>
      </trkpt>
      <trkpt lat="43.56024" lon="5.59292">
        <ele>578.6</ele>
        <time>1970-01-01T01:13:54.000Z</time>
      </trkpt>
      <trkpt lat="43.56024" lon="5.59294">
        <ele>578.6</ele>
        <time>1970-01-01T01:13:55.000Z</time>
      </trkpt>
      <trkpt lat="43.56023" lon="5.593">
        <ele>578.4</ele>
        <time>1970-01-01T01:13:57.000Z</time>
      </trkpt>
      <trkpt lat="43.56022" lon="5.59301">
        <ele>578.4</ele>
        <time>1970-01-01T01:13:58.000Z</time>
      </trkpt>
      <trkpt lat="43.56021" lon="5.59303">
        <ele>578.3</ele>
        <time>1970-01-01T01:13:59.000Z</time>
      </trkpt>
      <trkpt lat="43.56019" lon="5.59308">
        <ele>578.2</ele>
        <time>1970-01-01T01:14:00.000Z</time>
      </trkpt>
      <trkpt lat="43.56019" lon="5.59309">
        <ele>578.1</ele>
        <time>1970-01-01T01:14:01.000Z</time>
      </trkpt>
      <trkpt lat="43.56017" lon="5.59318">
        <ele>577.9</ele>
        <time>1970-01-01T01:14:03.000Z</time>
      </trkpt>
      <trkpt lat="43.56018" lon="5.59323">
        <ele>577.8</ele>
        <time>1970-01-01T01:14:05.000Z</time>
      </trkpt>
      <trkpt lat="43.56016" lon="5.59333">
        <ele>577.6</ele>
        <time>1970-01-01T01:14:07.000Z</time>
      </trkpt>
      <trkpt lat="43.56017" lon="5.5934">
        <ele>577.4</ele>
        <time>1970-01-01T01:14:09.000Z</time>
      </trkpt>
      <trkpt lat="43.56018" lon="5.59343">
        <ele>577.4</ele>
        <time>1970-01-01T01:14:10.000Z</time>
      </trkpt>
      <trkpt lat="43.56017" lon="5.59346">
        <ele>577.3</ele>
        <time>1970-01-01T01:14:12.000Z</time>
      </trkpt>
      <trkpt lat="43.56014" lon="5.59352">
        <ele>577.1</ele>
        <time>1970-01-01T01:14:14.000Z</time>
      </trkpt>
      <trkpt lat="43.56015" lon="5.59355">
        <ele>577</ele>
        <time>1970-01-01T01:14:15.000Z</time>
      </trkpt>
      <trkpt lat="43.56014" lon="5.59363">
        <ele>576.8</ele>
        <time>1970-01-01T01:14:17.000Z</time>
      </trkpt>
      <trkpt lat="43.56013" lon="5.59372">
        <ele>576.5</ele>
        <time>1970-01-01T01:14:19.000Z</time>
      </trkpt>
      <trkpt lat="43.56014" lon="5.59376">
        <ele>576.4</ele>
        <time>1970-01-01T01:14:21.000Z</time>
      </trkpt>
      <trkpt lat="43.56017" lon="5.59379">
        <ele>576.3</ele>
        <time>1970-01-01T01:14:22.000Z</time>
      </trkpt>
      <trkpt lat="43.56018" lon="5.59389">
        <ele>576.1</ele>
        <time>1970-01-01T01:14:24.000Z</time>
      </trkpt>
      <trkpt lat="43.56018" lon="5.59394">
        <ele>576.1</ele>
        <time>1970-01-01T01:14:25.000Z</time>
      </trkpt>
      <trkpt lat="43.56018" lon="5.59397">
        <ele>576</ele>
        <time>1970-01-01T01:14:26.000Z</time>
      </trkpt>
      <trkpt lat="43.56018" lon="5.59408">
        <ele>575.9</ele>
        <time>1970-01-01T01:14:28.000Z</time>
      </trkpt>
      <trkpt lat="43.56018" lon="5.59415">
        <ele>575.8</ele>
        <time>1970-01-01T01:14:29.000Z</time>
      </trkpt>
      <trkpt lat="43.56018" lon="5.5942">
        <ele>575.8</ele>
        <time>1970-01-01T01:14:30.000Z</time>
      </trkpt>
      <trkpt lat="43.56019" lon="5.59428">
        <ele>575.7</ele>
        <time>1970-01-01T01:14:32.000Z</time>
      </trkpt>
      <trkpt lat="43.5602" lon="5.59431">
        <ele>575.6</ele>
        <time>1970-01-01T01:14:33.000Z</time>
      </trkpt>
      <trkpt lat="43.56024" lon="5.59443">
        <ele>575.6</ele>
        <time>1970-01-01T01:14:35.000Z</time>
      </trkpt>
      <trkpt lat="43.56022" lon="5.59454">
        <ele>575.5</ele>
        <time>1970-01-01T01:14:37.000Z</time>
      </trkpt>
      <trkpt lat="43.56021" lon="5.59464">
        <ele>575.5</ele>
        <time>1970-01-01T01:14:39.000Z</time>
      </trkpt>
      <trkpt lat="43.56022" lon="5.59469">
        <ele>575.4</ele>
        <time>1970-01-01T01:14:40.000Z</time>
      </trkpt>
      <trkpt lat="43.56022" lon="5.59474">
        <ele>575.4</ele>
        <time>1970-01-01T01:14:41.000Z</time>
      </trkpt>
      <trkpt lat="43.56023" lon="5.59484">
        <ele>575.3</ele>
        <time>1970-01-01T01:14:43.000Z</time>
      </trkpt>
      <trkpt lat="43.56022" lon="5.59489">
        <ele>575.3</ele>
        <time>1970-01-01T01:14:44.000Z</time>
      </trkpt>
      <trkpt lat="43.56022" lon="5.59493">
        <ele>575.3</ele>
        <time>1970-01-01T01:14:45.000Z</time>
      </trkpt>
      <trkpt lat="43.56023" lon="5.59501">
        <ele>575.4</ele>
        <time>1970-01-01T01:14:47.000Z</time>
      </trkpt>
      <trkpt lat="43.56023" lon="5.59508">
        <ele>575.5</ele>
        <time>1970-01-01T01:14:49.000Z</time>
      </trkpt>
      <trkpt lat="43.56022" lon="5.59511">
        <ele>575.6</ele>
        <time>1970-01-01T01:14:50.000Z</time>
      </trkpt>
      <trkpt lat="43.56021" lon="5.59518">
        <ele>575.7</ele>
        <time>1970-01-01T01:14:52.000Z</time>
      </trkpt>
      <trkpt lat="43.5602" lon="5.59522">
        <ele>575.7</ele>
        <time>1970-01-01T01:14:53.000Z</time>
      </trkpt>
      <trkpt lat="43.56019" lon="5.59525">
        <ele>575.8</ele>
        <time>1970-01-01T01:14:54.000Z</time>
      </trkpt>
      <trkpt lat="43.5602" lon="5.59534">
        <ele>575.8</ele>
        <time>1970-01-01T01:14:56.000Z</time>
      </trkpt>
      <trkpt lat="43.56016" lon="5.59547">
        <ele>575.9</ele>
        <time>1970-01-01T01:14:58.000Z</time>
      </trkpt>
      <trkpt lat="43.56014" lon="5.59553">
        <ele>575.9</ele>
        <time>1970-01-01T01:14:59.000Z</time>
      </trkpt>
      <trkpt lat="43.56013" lon="5.59557">
        <ele>575.8</ele>
        <time>1970-01-01T01:15:00.000Z</time>
      </trkpt>
      <trkpt lat="43.56009" lon="5.59562">
        <ele>575.8</ele>
        <time>1970-01-01T01:15:02.000Z</time>
      </trkpt>
      <trkpt lat="43.56009" lon="5.59574">
        <ele>575.7</ele>
        <time>1970-01-01T01:15:04.000Z</time>
      </trkpt>
      <trkpt lat="43.56009" lon="5.5958">
        <ele>575.7</ele>
        <time>1970-01-01T01:15:05.000Z</time>
      </trkpt>
      <trkpt lat="43.56008" lon="5.59586">
        <ele>575.6</ele>
        <time>1970-01-01T01:15:06.000Z</time>
      </trkpt>
      <trkpt lat="43.56008" lon="5.59596">
        <ele>575.6</ele>
        <time>1970-01-01T01:15:08.000Z</time>
      </trkpt>
      <trkpt lat="43.56007" lon="5.59607">
        <ele>575.5</ele>
        <time>1970-01-01T01:15:10.000Z</time>
      </trkpt>
      <trkpt lat="43.56007" lon="5.59621">
        <ele>575.5</ele>
        <time>1970-01-01T01:15:12.000Z</time>
      </trkpt>
      <trkpt lat="43.56004" lon="5.59632">
        <ele>575.6</ele>
        <time>1970-01-01T01:15:14.000Z</time>
      </trkpt>
      <trkpt lat="43.56004" lon="5.59638">
        <ele>575.6</ele>
        <time>1970-01-01T01:15:15.000Z</time>
      </trkpt>
      <trkpt lat="43.56004" lon="5.59644">
        <ele>575.7</ele>
        <time>1970-01-01T01:15:16.000Z</time>
      </trkpt>
      <trkpt lat="43.56003" lon="5.59655">
        <ele>575.8</ele>
        <time>1970-01-01T01:15:18.000Z</time>
      </trkpt>
      <trkpt lat="43.56" lon="5.59661">
        <ele>576</ele>
        <time>1970-01-01T01:15:19.000Z</time>
      </trkpt>
      <trkpt lat="43.55997" lon="5.59667">
        <ele>576.1</ele>
        <time>1970-01-01T01:15:20.000Z</time>
      </trkpt>
      <trkpt lat="43.55995" lon="5.59678">
        <ele>576.2</ele>
        <time>1970-01-01T01:15:22.000Z</time>
      </trkpt>
      <trkpt lat="43.55991" lon="5.59685">
        <ele>576.4</ele>
        <time>1970-01-01T01:15:24.000Z</time>
      </trkpt>
      <trkpt lat="43.55991" lon="5.5969">
        <ele>576.5</ele>
        <time>1970-01-01T01:15:25.000Z</time>
      </trkpt>
      <trkpt lat="43.55989" lon="5.59699">
        <ele>576.7</ele>
        <time>1970-01-01T01:15:27.000Z</time>
      </trkpt>
      <trkpt lat="43.55988" lon="5.59708">
        <ele>576.9</ele>
        <time>1970-01-01T01:15:29.000Z</time>
      </trkpt>
      <trkpt lat="43.55986" lon="5.59719">
        <ele>577.2</ele>
        <time>1970-01-01T01:15:31.000Z</time>
      </trkpt>
      <trkpt lat="43.55986" lon="5.59724">
        <ele>577.3</ele>
        <time>1970-01-01T01:15:32.000Z</time>
      </trkpt>
      <trkpt lat="43.55986" lon="5.59733">
        <ele>577.5</ele>
        <time>1970-01-01T01:15:34.000Z</time>
      </trkpt>
      <trkpt lat="43.55985" lon="5.59743">
        <ele>577.7</ele>
        <time>1970-01-01T01:15:36.000Z</time>
      </trkpt>
      <trkpt lat="43.55984" lon="5.59748">
        <ele>577.8</ele>
        <time>1970-01-01T01:15:37.000Z</time>
      </trkpt>
      <trkpt lat="43.55983" lon="5.59753">
        <ele>577.9</ele>
        <time>1970-01-01T01:15:38.000Z</time>
      </trkpt>
      <trkpt lat="43.55983" lon="5.59763">
        <ele>578.1</ele>
        <time>1970-01-01T01:15:40.000Z</time>
      </trkpt>
      <trkpt lat="43.55983" lon="5.59774">
        <ele>578.3</ele>
        <time>1970-01-01T01:15:42.000Z</time>
      </trkpt>
      <trkpt lat="43.55983" lon="5.59785">
        <ele>578.5</ele>
        <time>1970-01-01T01:15:44.000Z</time>
      </trkpt>
      <trkpt lat="43.55983" lon="5.5979">
        <ele>578.4</ele>
        <time>1970-01-01T01:15:45.000Z</time>
      </trkpt>
      <trkpt lat="43.55983" lon="5.59795">
        <ele>578.3</ele>
        <time>1970-01-01T01:15:46.000Z</time>
      </trkpt>
      <trkpt lat="43.55984" lon="5.59801">
        <ele>578.1</ele>
        <time>1970-01-01T01:15:47.000Z</time>
      </trkpt>
      <trkpt lat="43.55985" lon="5.59809">
        <ele>578</ele>
        <time>1970-01-01T01:15:49.000Z</time>
      </trkpt>
      <trkpt lat="43.55984" lon="5.59818">
        <ele>577.8</ele>
        <time>1970-01-01T01:15:51.000Z</time>
      </trkpt>
      <trkpt lat="43.55985" lon="5.59822">
        <ele>577.6</ele>
        <time>1970-01-01T01:15:52.000Z</time>
      </trkpt>
      <trkpt lat="43.55987" lon="5.59828">
        <ele>577.5</ele>
        <time>1970-01-01T01:15:53.000Z</time>
      </trkpt>
      <trkpt lat="43.55991" lon="5.59836">
        <ele>577.2</ele>
        <time>1970-01-01T01:15:55.000Z</time>
      </trkpt>
      <trkpt lat="43.55993" lon="5.59841">
        <ele>577.1</ele>
        <time>1970-01-01T01:15:56.000Z</time>
      </trkpt>
      <trkpt lat="43.55996" lon="5.59849">
        <ele>576.9</ele>
        <time>1970-01-01T01:15:58.000Z</time>
      </trkpt>
      <trkpt lat="43.56001" lon="5.59858">
        <ele>576.5</ele>
        <time>1970-01-01T01:16:00.000Z</time>
      </trkpt>
      <trkpt lat="43.56002" lon="5.59862">
        <ele>576.4</ele>
        <time>1970-01-01T01:16:01.000Z</time>
      </trkpt>
      <trkpt lat="43.56002" lon="5.59871">
        <ele>576.2</ele>
        <time>1970-01-01T01:16:03.000Z</time>
      </trkpt>
      <trkpt lat="43.56003" lon="5.59883">
        <ele>575.9</ele>
        <time>1970-01-01T01:16:05.000Z</time>
      </trkpt>
      <trkpt lat="43.56003" lon="5.59888">
        <ele>575.8</ele>
        <time>1970-01-01T01:16:06.000Z</time>
      </trkpt>
      <trkpt lat="43.56002" lon="5.59894">
        <ele>575.9</ele>
        <time>1970-01-01T01:16:07.000Z</time>
      </trkpt>
      <trkpt lat="43.56002" lon="5.599">
        <ele>575.9</ele>
        <time>1970-01-01T01:16:08.000Z</time>
      </trkpt>
      <trkpt lat="43.56" lon="5.59905">
        <ele>575.8</ele>
        <time>1970-01-01T01:16:09.000Z</time>
      </trkpt>
      <trkpt lat="43.55998" lon="5.59911">
        <ele>576</ele>
        <time>1970-01-01T01:16:10.000Z</time>
      </trkpt>
      <trkpt lat="43.55998" lon="5.59916">
        <ele>575.9</ele>
        <time>1970-01-01T01:16:12.000Z</time>
      </trkpt>
      <trkpt lat="43.55998" lon="5.59921">
        <ele>575.9</ele>
        <time>1970-01-01T01:16:13.000Z</time>
      </trkpt>
      <trkpt lat="43.55995" lon="5.59932">
        <ele>576</ele>
        <time>1970-01-01T01:16:15.000Z</time>
      </trkpt>
      <trkpt lat="43.55993" lon="5.59941">
        <ele>576</ele>
        <time>1970-01-01T01:16:17.000Z</time>
      </trkpt>
      <trkpt lat="43.5599" lon="5.59945">
        <ele>576</ele>
        <time>1970-01-01T01:16:18.000Z</time>
      </trkpt>
      <trkpt lat="43.55987" lon="5.59947">
        <ele>576</ele>
        <time>1970-01-01T01:16:19.000Z</time>
      </trkpt>
      <trkpt lat="43.55981" lon="5.59953">
        <ele>576.1</ele>
        <time>1970-01-01T01:16:21.000Z</time>
      </trkpt>
      <trkpt lat="43.55979" lon="5.59952">
        <ele>576.1</ele>
        <time>1970-01-01T01:16:22.000Z</time>
      </trkpt>
      <trkpt lat="43.55973" lon="5.59949">
        <ele>576.2</ele>
        <time>1970-01-01T01:16:24.000Z</time>
      </trkpt>
      <trkpt lat="43.5597" lon="5.59951">
        <ele>576.2</ele>
        <time>1970-01-01T01:16:25.000Z</time>
      </trkpt>
      <trkpt lat="43.55964" lon="5.5996">
        <ele>576.3</ele>
        <time>1970-01-01T01:16:27.000Z</time>
      </trkpt>
      <trkpt lat="43.55961" lon="5.59969">
        <ele>576.3</ele>
        <time>1970-01-01T01:16:29.000Z</time>
      </trkpt>
      <trkpt lat="43.55958" lon="5.59974">
        <ele>576.3</ele>
        <time>1970-01-01T01:16:30.000Z</time>
      </trkpt>
      <trkpt lat="43.55955" lon="5.59985">
        <ele>576.3</ele>
        <time>1970-01-01T01:16:32.000Z</time>
      </trkpt>
      <trkpt lat="43.55954" lon="5.59991">
        <ele>576.3</ele>
        <time>1970-01-01T01:16:33.000Z</time>
      </trkpt>
      <trkpt lat="43.55954" lon="5.60002">
        <ele>576.2</ele>
        <time>1970-01-01T01:16:35.000Z</time>
      </trkpt>
      <trkpt lat="43.55953" lon="5.60013">
        <ele>576.1</ele>
        <time>1970-01-01T01:16:37.000Z</time>
      </trkpt>
      <trkpt lat="43.55951" lon="5.60019">
        <ele>576.1</ele>
        <time>1970-01-01T01:16:38.000Z</time>
      </trkpt>
      <trkpt lat="43.55947" lon="5.60029">
        <ele>576</ele>
        <time>1970-01-01T01:16:40.000Z</time>
      </trkpt>
      <trkpt lat="43.55945" lon="5.60042">
        <ele>575.8</ele>
        <time>1970-01-01T01:16:42.000Z</time>
      </trkpt>
      <trkpt lat="43.55944" lon="5.60048">
        <ele>575.7</ele>
        <time>1970-01-01T01:16:43.000Z</time>
      </trkpt>
      <trkpt lat="43.55943" lon="5.6006">
        <ele>575.4</ele>
        <time>1970-01-01T01:16:45.000Z</time>
      </trkpt>
      <trkpt lat="43.55942" lon="5.60067">
        <ele>575.3</ele>
        <time>1970-01-01T01:16:46.000Z</time>
      </trkpt>
      <trkpt lat="43.55941" lon="5.60073">
        <ele>575</ele>
        <time>1970-01-01T01:16:47.000Z</time>
      </trkpt>
      <trkpt lat="43.5594" lon="5.60078">
        <ele>575</ele>
        <time>1970-01-01T01:16:48.000Z</time>
      </trkpt>
      <trkpt lat="43.5594" lon="5.60082">
        <ele>574.8</ele>
        <time>1970-01-01T01:16:50.000Z</time>
      </trkpt>
      <trkpt lat="43.55942" lon="5.60085">
        <ele>574.7</ele>
        <time>1970-01-01T01:16:51.000Z</time>
      </trkpt>
      <trkpt lat="43.55946" lon="5.6009">
        <ele>574.6</ele>
        <time>1970-01-01T01:16:53.000Z</time>
      </trkpt>
      <trkpt lat="43.5595" lon="5.60094">
        <ele>574.5</ele>
        <time>1970-01-01T01:16:55.000Z</time>
      </trkpt>
      <trkpt lat="43.55953" lon="5.60097">
        <ele>574.4</ele>
        <time>1970-01-01T01:16:57.000Z</time>
      </trkpt>
      <trkpt lat="43.55955" lon="5.60101">
        <ele>574.3</ele>
        <time>1970-01-01T01:16:58.000Z</time>
      </trkpt>
      <trkpt lat="43.55955" lon="5.60103">
        <ele>574.3</ele>
        <time>1970-01-01T01:16:59.000Z</time>
      </trkpt>
      <trkpt lat="43.55958" lon="5.60107">
        <ele>574.3</ele>
        <time>1970-01-01T01:17:00.000Z</time>
      </trkpt>
      <trkpt lat="43.55959" lon="5.60109">
        <ele>574.3</ele>
        <time>1970-01-01T01:17:01.000Z</time>
      </trkpt>
      <trkpt lat="43.55961" lon="5.60114">
        <ele>574.1</ele>
        <time>1970-01-01T01:17:03.000Z</time>
      </trkpt>
      <trkpt lat="43.55966" lon="5.60119">
        <ele>574.1</ele>
        <time>1970-01-01T01:17:05.000Z</time>
      </trkpt>
      <trkpt lat="43.55968" lon="5.6012">
        <ele>574.1</ele>
        <time>1970-01-01T01:17:06.000Z</time>
      </trkpt>
      <trkpt lat="43.55974" lon="5.60121">
        <ele>574</ele>
        <time>1970-01-01T01:17:08.000Z</time>
      </trkpt>
      <trkpt lat="43.55978" lon="5.60123">
        <ele>573.9</ele>
        <time>1970-01-01T01:17:09.000Z</time>
      </trkpt>
      <trkpt lat="43.55982" lon="5.60124">
        <ele>573.9</ele>
        <time>1970-01-01T01:17:10.000Z</time>
      </trkpt>
      <trkpt lat="43.55988" lon="5.60127">
        <ele>573.8</ele>
        <time>1970-01-01T01:17:12.000Z</time>
      </trkpt>
      <trkpt lat="43.55994" lon="5.6013">
        <ele>573.8</ele>
        <time>1970-01-01T01:17:14.000Z</time>
      </trkpt>
      <trkpt lat="43.55998" lon="5.60133">
        <ele>573.7</ele>
        <time>1970-01-01T01:17:15.000Z</time>
      </trkpt>
      <trkpt lat="43.56004" lon="5.60137">
        <ele>573.6</ele>
        <time>1970-01-01T01:17:17.000Z</time>
      </trkpt>
      <trkpt lat="43.56009" lon="5.60142">
        <ele>573.5</ele>
        <time>1970-01-01T01:17:19.000Z</time>
      </trkpt>
      <trkpt lat="43.56016" lon="5.60147">
        <ele>573.5</ele>
        <time>1970-01-01T01:17:21.000Z</time>
      </trkpt>
      <trkpt lat="43.56024" lon="5.60148">
        <ele>573.5</ele>
        <time>1970-01-01T01:17:23.000Z</time>
      </trkpt>
      <trkpt lat="43.56027" lon="5.60149">
        <ele>573.5</ele>
        <time>1970-01-01T01:17:24.000Z</time>
      </trkpt>
      <trkpt lat="43.56034" lon="5.60153">
        <ele>573.4</ele>
        <time>1970-01-01T01:17:26.000Z</time>
      </trkpt>
      <trkpt lat="43.56042" lon="5.6016">
        <ele>573.3</ele>
        <time>1970-01-01T01:17:28.000Z</time>
      </trkpt>
      <trkpt lat="43.56045" lon="5.60163">
        <ele>573.2</ele>
        <time>1970-01-01T01:17:29.000Z</time>
      </trkpt>
      <trkpt lat="43.56051" lon="5.60171">
        <ele>573</ele>
        <time>1970-01-01T01:17:31.000Z</time>
      </trkpt>
      <trkpt lat="43.5606" lon="5.60178">
        <ele>572.7</ele>
        <time>1970-01-01T01:17:33.000Z</time>
      </trkpt>
      <trkpt lat="43.56069" lon="5.60181">
        <ele>572.2</ele>
        <time>1970-01-01T01:17:35.000Z</time>
      </trkpt>
      <trkpt lat="43.56073" lon="5.60184">
        <ele>572.1</ele>
        <time>1970-01-01T01:17:36.000Z</time>
      </trkpt>
      <trkpt lat="43.56084" lon="5.60188">
        <ele>571.4</ele>
        <time>1970-01-01T01:17:38.000Z</time>
      </trkpt>
      <trkpt lat="43.56089" lon="5.60189">
        <ele>571.2</ele>
        <time>1970-01-01T01:17:39.000Z</time>
      </trkpt>
      <trkpt lat="43.56095" lon="5.60188">
        <ele>570.8</ele>
        <time>1970-01-01T01:17:40.000Z</time>
      </trkpt>
      <trkpt lat="43.56106" lon="5.60189">
        <ele>570</ele>
        <time>1970-01-01T01:17:42.000Z</time>
      </trkpt>
      <trkpt lat="43.56111" lon="5.60187">
        <ele>569.8</ele>
        <time>1970-01-01T01:17:43.000Z</time>
      </trkpt>
      <trkpt lat="43.5612" lon="5.6018">
        <ele>569.1</ele>
        <time>1970-01-01T01:17:45.000Z</time>
      </trkpt>
      <trkpt lat="43.56129" lon="5.60181">
        <ele>568.6</ele>
        <time>1970-01-01T01:17:47.000Z</time>
      </trkpt>
      <trkpt lat="43.56133" lon="5.60182">
        <ele>568.3</ele>
        <time>1970-01-01T01:17:48.000Z</time>
      </trkpt>
      <trkpt lat="43.56143" lon="5.60185">
        <ele>567.9</ele>
        <time>1970-01-01T01:17:50.000Z</time>
      </trkpt>
      <trkpt lat="43.56151" lon="5.60189">
        <ele>567.7</ele>
        <time>1970-01-01T01:17:52.000Z</time>
      </trkpt>
      <trkpt lat="43.56158" lon="5.6019">
        <ele>567.3</ele>
        <time>1970-01-01T01:17:54.000Z</time>
      </trkpt>
      <trkpt lat="43.56162" lon="5.60191">
        <ele>567.3</ele>
        <time>1970-01-01T01:17:55.000Z</time>
      </trkpt>
      <trkpt lat="43.56168" lon="5.60195">
        <ele>566.9</ele>
        <time>1970-01-01T01:17:57.000Z</time>
      </trkpt>
      <trkpt lat="43.56174" lon="5.60197">
        <ele>566.7</ele>
        <time>1970-01-01T01:17:59.000Z</time>
      </trkpt>
      <trkpt lat="43.5618" lon="5.60199">
        <ele>566.3</ele>
        <time>1970-01-01T01:18:01.000Z</time>
      </trkpt>
      <trkpt lat="43.56187" lon="5.60199">
        <ele>565.9</ele>
        <time>1970-01-01T01:18:03.000Z</time>
      </trkpt>
      <trkpt lat="43.56191" lon="5.60199">
        <ele>565.7</ele>
        <time>1970-01-01T01:18:04.000Z</time>
      </trkpt>
      <trkpt lat="43.56198" lon="5.60203">
        <ele>565.4</ele>
        <time>1970-01-01T01:18:06.000Z</time>
      </trkpt>
      <trkpt lat="43.56206" lon="5.60208">
        <ele>564.8</ele>
        <time>1970-01-01T01:18:08.000Z</time>
      </trkpt>
      <trkpt lat="43.5621" lon="5.60211">
        <ele>564.7</ele>
        <time>1970-01-01T01:18:09.000Z</time>
      </trkpt>
      <trkpt lat="43.56219" lon="5.60217">
        <ele>564.2</ele>
        <time>1970-01-01T01:18:11.000Z</time>
      </trkpt>
      <trkpt lat="43.56224" lon="5.6022">
        <ele>563.7</ele>
        <time>1970-01-01T01:18:12.000Z</time>
      </trkpt>
      <trkpt lat="43.56229" lon="5.60222">
        <ele>563.5</ele>
        <time>1970-01-01T01:18:13.000Z</time>
      </trkpt>
      <trkpt lat="43.56235" lon="5.60223">
        <ele>563</ele>
        <time>1970-01-01T01:18:14.000Z</time>
      </trkpt>
      <trkpt lat="43.5625" lon="5.60225">
        <ele>562</ele>
        <time>1970-01-01T01:18:16.000Z</time>
      </trkpt>
      <trkpt lat="43.56258" lon="5.60226">
        <ele>561.7</ele>
        <time>1970-01-01T01:18:17.000Z</time>
      </trkpt>
      <trkpt lat="43.56265" lon="5.60226">
        <ele>561.5</ele>
        <time>1970-01-01T01:18:18.000Z</time>
      </trkpt>
      <trkpt lat="43.56278" lon="5.60227">
        <ele>561.2</ele>
        <time>1970-01-01T01:18:20.000Z</time>
      </trkpt>
      <trkpt lat="43.56289" lon="5.60226">
        <ele>560.8</ele>
        <time>1970-01-01T01:18:22.000Z</time>
      </trkpt>
      <trkpt lat="43.56294" lon="5.60224">
        <ele>560.5</ele>
        <time>1970-01-01T01:18:23.000Z</time>
      </trkpt>
      <trkpt lat="43.56305" lon="5.60223">
        <ele>560.1</ele>
        <time>1970-01-01T01:18:25.000Z</time>
      </trkpt>
      <trkpt lat="43.56317" lon="5.60228">
        <ele>559.9</ele>
        <time>1970-01-01T01:18:27.000Z</time>
      </trkpt>
      <trkpt lat="43.56323" lon="5.60231">
        <ele>559.9</ele>
        <time>1970-01-01T01:18:28.000Z</time>
      </trkpt>
      <trkpt lat="43.56333" lon="5.60237">
        <ele>559.8</ele>
        <time>1970-01-01T01:18:30.000Z</time>
      </trkpt>
      <trkpt lat="43.56337" lon="5.60239">
        <ele>559.9</ele>
        <time>1970-01-01T01:18:31.000Z</time>
      </trkpt>
      <trkpt lat="43.56347" lon="5.6024">
        <ele>559.7</ele>
        <time>1970-01-01T01:18:33.000Z</time>
      </trkpt>
      <trkpt lat="43.56353" lon="5.60239">
        <ele>559.5</ele>
        <time>1970-01-01T01:18:34.000Z</time>
      </trkpt>
      <trkpt lat="43.56365" lon="5.60238">
        <ele>559.3</ele>
        <time>1970-01-01T01:18:36.000Z</time>
      </trkpt>
      <trkpt lat="43.56375" lon="5.60245">
        <ele>559.2</ele>
        <time>1970-01-01T01:18:38.000Z</time>
      </trkpt>
      <trkpt lat="43.56383" lon="5.60256">
        <ele>559</ele>
        <time>1970-01-01T01:18:40.000Z</time>
      </trkpt>
      <trkpt lat="43.56387" lon="5.60269">
        <ele>558.9</ele>
        <time>1970-01-01T01:18:42.000Z</time>
      </trkpt>
      <trkpt lat="43.5639" lon="5.60276">
        <ele>558.8</ele>
        <time>1970-01-01T01:18:43.000Z</time>
      </trkpt>
      <trkpt lat="43.56393" lon="5.60283">
        <ele>558.8</ele>
        <time>1970-01-01T01:18:44.000Z</time>
      </trkpt>
      <trkpt lat="43.56402" lon="5.60293">
        <ele>558.8</ele>
        <time>1970-01-01T01:18:46.000Z</time>
      </trkpt>
      <trkpt lat="43.5641" lon="5.60303">
        <ele>558.9</ele>
        <time>1970-01-01T01:18:48.000Z</time>
      </trkpt>
      <trkpt lat="43.56414" lon="5.60309">
        <ele>558.9</ele>
        <time>1970-01-01T01:18:49.000Z</time>
      </trkpt>
      <trkpt lat="43.56418" lon="5.60315">
        <ele>559</ele>
        <time>1970-01-01T01:18:50.000Z</time>
      </trkpt>
      <trkpt lat="43.56424" lon="5.60329">
        <ele>559</ele>
        <time>1970-01-01T01:18:52.000Z</time>
      </trkpt>
      <trkpt lat="43.56427" lon="5.60335">
        <ele>558.9</ele>
        <time>1970-01-01T01:18:53.000Z</time>
      </trkpt>
      <trkpt lat="43.56433" lon="5.60348">
        <ele>558.6</ele>
        <time>1970-01-01T01:18:55.000Z</time>
      </trkpt>
      <trkpt lat="43.56437" lon="5.60351">
        <ele>558.4</ele>
        <time>1970-01-01T01:18:56.000Z</time>
      </trkpt>
      <trkpt lat="43.56441" lon="5.60355">
        <ele>558.3</ele>
        <time>1970-01-01T01:18:58.000Z</time>
      </trkpt>
      <trkpt lat="43.56443" lon="5.60356">
        <ele>558.3</ele>
        <time>1970-01-01T01:18:59.000Z</time>
      </trkpt>
      <trkpt lat="43.56447" lon="5.60355">
        <ele>558.2</ele>
        <time>1970-01-01T01:19:01.000Z</time>
      </trkpt>
      <trkpt lat="43.56451" lon="5.60351">
        <ele>558.3</ele>
        <time>1970-01-01T01:19:03.000Z</time>
      </trkpt>
      <trkpt lat="43.56454" lon="5.60349">
        <ele>558.3</ele>
        <time>1970-01-01T01:19:04.000Z</time>
      </trkpt>
      <trkpt lat="43.56456" lon="5.60347">
        <ele>558.3</ele>
        <time>1970-01-01T01:19:05.000Z</time>
      </trkpt>
      <trkpt lat="43.56458" lon="5.60346">
        <ele>558.4</ele>
        <time>1970-01-01T01:19:06.000Z</time>
      </trkpt>
      <trkpt lat="43.56461" lon="5.60342">
        <ele>558.3</ele>
        <time>1970-01-01T01:19:08.000Z</time>
      </trkpt>
      <trkpt lat="43.56463" lon="5.60338">
        <ele>558.4</ele>
        <time>1970-01-01T01:19:10.000Z</time>
      </trkpt>
      <trkpt lat="43.56463" lon="5.60334">
        <ele>558.5</ele>
        <time>1970-01-01T01:19:11.000Z</time>
      </trkpt>
      <trkpt lat="43.56463" lon="5.60333">
        <ele>558.7</ele>
        <time>1970-01-01T01:19:12.000Z</time>
      </trkpt>
      <trkpt lat="43.56462" lon="5.60326">
        <ele>558.9</ele>
        <time>1970-01-01T01:19:14.000Z</time>
      </trkpt>
      <trkpt lat="43.56463" lon="5.60323">
        <ele>559</ele>
        <time>1970-01-01T01:19:15.000Z</time>
      </trkpt>
      <trkpt lat="43.56464" lon="5.60317">
        <ele>559.1</ele>
        <time>1970-01-01T01:19:17.000Z</time>
      </trkpt>
      <trkpt lat="43.56465" lon="5.60314">
        <ele>559.2</ele>
        <time>1970-01-01T01:19:18.000Z</time>
      </trkpt>
      <trkpt lat="43.56466" lon="5.60309">
        <ele>559.5</ele>
        <time>1970-01-01T01:19:20.000Z</time>
      </trkpt>
      <trkpt lat="43.56465" lon="5.60304">
        <ele>559.5</ele>
        <time>1970-01-01T01:19:21.000Z</time>
      </trkpt>
      <trkpt lat="43.56465" lon="5.60302">
        <ele>559.8</ele>
        <time>1970-01-01T01:19:22.000Z</time>
      </trkpt>
      <trkpt lat="43.56463" lon="5.60298">
        <ele>559.8</ele>
        <time>1970-01-01T01:19:24.000Z</time>
      </trkpt>
      <trkpt lat="43.56463" lon="5.60296">
        <ele>559.8</ele>
        <time>1970-01-01T01:19:25.000Z</time>
      </trkpt>
      <trkpt lat="43.56463" lon="5.60294">
        <ele>560.1</ele>
        <time>1970-01-01T01:19:26.000Z</time>
      </trkpt>
      <trkpt lat="43.56464" lon="5.60291">
        <ele>560.1</ele>
        <time>1970-01-01T01:19:28.000Z</time>
      </trkpt>
      <trkpt lat="43.56464" lon="5.60289">
        <ele>560.3</ele>
        <time>1970-01-01T01:19:29.000Z</time>
      </trkpt>
      <trkpt lat="43.56464" lon="5.60283">
        <ele>560.5</ele>
        <time>1970-01-01T01:19:31.000Z</time>
      </trkpt>
      <trkpt lat="43.56464" lon="5.60279">
        <ele>560.8</ele>
        <time>1970-01-01T01:19:33.000Z</time>
      </trkpt>
      <trkpt lat="43.56463" lon="5.60278">
        <ele>560.8</ele>
        <time>1970-01-01T01:19:34.000Z</time>
      </trkpt>
      <trkpt lat="43.56464" lon="5.60276">
        <ele>561</ele>
        <time>1970-01-01T01:19:35.000Z</time>
      </trkpt>
      <trkpt lat="43.56464" lon="5.60275">
        <ele>561</ele>
        <time>1970-01-01T01:19:37.000Z</time>
      </trkpt>
      <trkpt lat="43.56463" lon="5.60274">
        <ele>561</ele>
        <time>1970-01-01T01:19:38.000Z</time>
      </trkpt>
      <trkpt lat="43.56463" lon="5.60271">
        <ele>561.3</ele>
        <time>1970-01-01T01:19:40.000Z</time>
      </trkpt>
      <trkpt lat="43.56463" lon="5.6027">
        <ele>561.3</ele>
        <time>1970-01-01T01:19:41.000Z</time>
      </trkpt>
      <trkpt lat="43.56465" lon="5.60269">
        <ele>561.2</ele>
        <time>1970-01-01T01:19:42.000Z</time>
      </trkpt>
      <trkpt lat="43.56465" lon="5.60269">
        <ele>561.2</ele>
        <time>1970-01-01T01:19:43.000Z</time>
      </trkpt>
      <trkpt lat="43.56467" lon="5.60265">
        <ele>561.9</ele>
        <time>1970-01-01T01:19:45.000Z</time>
      </trkpt>
      <trkpt lat="43.56467" lon="5.60263">
        <ele>562.2</ele>
        <time>1970-01-01T01:19:46.000Z</time>
      </trkpt>
      <trkpt lat="43.56465" lon="5.6026">
        <ele>562.2</ele>
        <time>1970-01-01T01:19:48.000Z</time>
      </trkpt>
      <trkpt lat="43.56462" lon="5.60255">
        <ele>562.1</ele>
        <time>1970-01-01T01:19:50.000Z</time>
      </trkpt>
      <trkpt lat="43.5646" lon="5.60253">
        <ele>562.1</ele>
        <time>1970-01-01T01:19:51.000Z</time>
      </trkpt>
      <trkpt lat="43.56459" lon="5.60252">
        <ele>561.8</ele>
        <time>1970-01-01T01:19:52.000Z</time>
      </trkpt>
      <trkpt lat="43.56459" lon="5.60249">
        <ele>562.1</ele>
        <time>1970-01-01T01:19:54.000Z</time>
      </trkpt>
      <trkpt lat="43.56459" lon="5.60246">
        <ele>562.4</ele>
        <time>1970-01-01T01:19:56.000Z</time>
      </trkpt>
      <trkpt lat="43.5646" lon="5.60242">
        <ele>563.1</ele>
        <time>1970-01-01T01:19:57.000Z</time>
      </trkpt>
      <trkpt lat="43.5646" lon="5.60241">
        <ele>563.1</ele>
        <time>1970-01-01T01:19:58.000Z</time>
      </trkpt>
      <trkpt lat="43.56461" lon="5.6024">
        <ele>563.1</ele>
        <time>1970-01-01T01:19:59.000Z</time>
      </trkpt>
      <trkpt lat="43.56461" lon="5.60237">
        <ele>563.4</ele>
        <time>1970-01-01T01:20:01.000Z</time>
      </trkpt>
      <trkpt lat="43.56462" lon="5.60235">
        <ele>563.4</ele>
        <time>1970-01-01T01:20:02.000Z</time>
      </trkpt>
      <trkpt lat="43.56462" lon="5.60233">
        <ele>563.7</ele>
        <time>1970-01-01T01:20:03.000Z</time>
      </trkpt>
      <trkpt lat="43.56462" lon="5.6023">
        <ele>563.7</ele>
        <time>1970-01-01T01:20:05.000Z</time>
      </trkpt>
      <trkpt lat="43.56462" lon="5.60229">
        <ele>564</ele>
        <time>1970-01-01T01:20:06.000Z</time>
      </trkpt>
      <trkpt lat="43.56463" lon="5.60225">
        <ele>564.7</ele>
        <time>1970-01-01T01:20:08.000Z</time>
      </trkpt>
      <trkpt lat="43.56464" lon="5.60224">
        <ele>564.7</ele>
        <time>1970-01-01T01:20:09.000Z</time>
      </trkpt>
      <trkpt lat="43.56465" lon="5.60221">
        <ele>565</ele>
        <time>1970-01-01T01:20:11.000Z</time>
      </trkpt>
      <trkpt lat="43.56463" lon="5.60217">
        <ele>565</ele>
        <time>1970-01-01T01:20:13.000Z</time>
      </trkpt>
      <trkpt lat="43.56461" lon="5.60215">
        <ele>564.9</ele>
        <time>1970-01-01T01:20:14.000Z</time>
      </trkpt>
      <trkpt lat="43.5646" lon="5.60215">
        <ele>564.9</ele>
        <time>1970-01-01T01:20:15.000Z</time>
      </trkpt>
      <trkpt lat="43.56459" lon="5.60214">
        <ele>564.5</ele>
        <time>1970-01-01T01:20:16.000Z</time>
      </trkpt>
      <trkpt lat="43.56458" lon="5.6021">
        <ele>564.8</ele>
        <time>1970-01-01T01:20:18.000Z</time>
      </trkpt>
      <trkpt lat="43.56456" lon="5.60207">
        <ele>564.7</ele>
        <time>1970-01-01T01:20:20.000Z</time>
      </trkpt>
      <trkpt lat="43.56456" lon="5.60205">
        <ele>564.7</ele>
        <time>1970-01-01T01:20:22.000Z</time>
      </trkpt>
      <trkpt lat="43.56455" lon="5.60203">
        <ele>565</ele>
        <time>1970-01-01T01:20:24.000Z</time>
      </trkpt>
      <trkpt lat="43.56455" lon="5.60201">
        <ele>565</ele>
        <time>1970-01-01T01:20:26.000Z</time>
      </trkpt>
      <trkpt lat="43.56455" lon="5.602">
        <ele>565.3</ele>
        <time>1970-01-01T01:20:27.000Z</time>
      </trkpt>
      <trkpt lat="43.56455" lon="5.60199">
        <ele>565.3</ele>
        <time>1970-01-01T01:20:28.000Z</time>
      </trkpt>
      <trkpt lat="43.56455" lon="5.60196">
        <ele>565.3</ele>
        <time>1970-01-01T01:20:30.000Z</time>
      </trkpt>
      <trkpt lat="43.56456" lon="5.6019">
        <ele>565.8</ele>
        <time>1970-01-01T01:20:32.000Z</time>
      </trkpt>
      <trkpt lat="43.56457" lon="5.60189">
        <ele>566.2</ele>
        <time>1970-01-01T01:20:33.000Z</time>
      </trkpt>
      <trkpt lat="43.56458" lon="5.60187">
        <ele>566.4</ele>
        <time>1970-01-01T01:20:34.000Z</time>
      </trkpt>
      <trkpt lat="43.56459" lon="5.60182">
        <ele>566.7</ele>
        <time>1970-01-01T01:20:36.000Z</time>
      </trkpt>
      <trkpt lat="43.5646" lon="5.60178">
        <ele>567.4</ele>
        <time>1970-01-01T01:20:38.000Z</time>
      </trkpt>
      <trkpt lat="43.56461" lon="5.60174">
        <ele>567.3</ele>
        <time>1970-01-01T01:20:40.000Z</time>
      </trkpt>
      <trkpt lat="43.56461" lon="5.60174">
        <ele>567.6</ele>
        <time>1970-01-01T01:20:41.000Z</time>
      </trkpt>
      <trkpt lat="43.56462" lon="5.60172">
        <ele>567.6</ele>
        <time>1970-01-01T01:20:43.000Z</time>
      </trkpt>
      <trkpt lat="43.56462" lon="5.60171">
        <ele>567.6</ele>
        <time>1970-01-01T01:20:44.000Z</time>
      </trkpt>
      <trkpt lat="43.56463" lon="5.60169">
        <ele>568.3</ele>
        <time>1970-01-01T01:20:46.000Z</time>
      </trkpt>
      <trkpt lat="43.56463" lon="5.60167">
        <ele>567.9</ele>
        <time>1970-01-01T01:20:47.000Z</time>
      </trkpt>
      <trkpt lat="43.56462" lon="5.60162">
        <ele>568.2</ele>
        <time>1970-01-01T01:20:49.000Z</time>
      </trkpt>
      <trkpt lat="43.56461" lon="5.60157">
        <ele>568.5</ele>
        <time>1970-01-01T01:20:50.000Z</time>
      </trkpt>
      <trkpt lat="43.56461" lon="5.60155">
        <ele>568.8</ele>
        <time>1970-01-01T01:20:51.000Z</time>
      </trkpt>
      <trkpt lat="43.5646" lon="5.60149">
        <ele>569.1</ele>
        <time>1970-01-01T01:20:53.000Z</time>
      </trkpt>
      <trkpt lat="43.5646" lon="5.60143">
        <ele>569.6</ele>
        <time>1970-01-01T01:20:55.000Z</time>
      </trkpt>
      <trkpt lat="43.5646" lon="5.6014">
        <ele>569.8</ele>
        <time>1970-01-01T01:20:56.000Z</time>
      </trkpt>
      <trkpt lat="43.56461" lon="5.60131">
        <ele>570</ele>
        <time>1970-01-01T01:20:58.000Z</time>
      </trkpt>
      <trkpt lat="43.56463" lon="5.60124">
        <ele>570.3</ele>
        <time>1970-01-01T01:21:00.000Z</time>
      </trkpt>
      <trkpt lat="43.56465" lon="5.6012">
        <ele>570.9</ele>
        <time>1970-01-01T01:21:01.000Z</time>
      </trkpt>
      <trkpt lat="43.56467" lon="5.60115">
        <ele>571.4</ele>
        <time>1970-01-01T01:21:03.000Z</time>
      </trkpt>
      <trkpt lat="43.56469" lon="5.6011">
        <ele>572</ele>
        <time>1970-01-01T01:21:05.000Z</time>
      </trkpt>
      <trkpt lat="43.5647" lon="5.60107">
        <ele>572.1</ele>
        <time>1970-01-01T01:21:06.000Z</time>
      </trkpt>
      <trkpt lat="43.56473" lon="5.60104">
        <ele>572.7</ele>
        <time>1970-01-01T01:21:08.000Z</time>
      </trkpt>
      <trkpt lat="43.56476" lon="5.60102">
        <ele>573.2</ele>
        <time>1970-01-01T01:21:10.000Z</time>
      </trkpt>
      <trkpt lat="43.56479" lon="5.60097">
        <ele>573.7</ele>
        <time>1970-01-01T01:21:12.000Z</time>
      </trkpt>
      <trkpt lat="43.5648" lon="5.60094">
        <ele>573.7</ele>
        <time>1970-01-01T01:21:14.000Z</time>
      </trkpt>
      <trkpt lat="43.5648" lon="5.60088">
        <ele>573.8</ele>
        <time>1970-01-01T01:21:16.000Z</time>
      </trkpt>
      <trkpt lat="43.56479" lon="5.60085">
        <ele>573.8</ele>
        <time>1970-01-01T01:21:18.000Z</time>
      </trkpt>
      <trkpt lat="43.56478" lon="5.60084">
        <ele>573.4</ele>
        <time>1970-01-01T01:21:19.000Z</time>
      </trkpt>
      <trkpt lat="43.56477" lon="5.60083">
        <ele>573.3</ele>
        <time>1970-01-01T01:21:20.000Z</time>
      </trkpt>
      <trkpt lat="43.56472" lon="5.60081">
        <ele>572.8</ele>
        <time>1970-01-01T01:21:22.000Z</time>
      </trkpt>
      <trkpt lat="43.5647" lon="5.60078">
        <ele>572.3</ele>
        <time>1970-01-01T01:21:24.000Z</time>
      </trkpt>
      <trkpt lat="43.56469" lon="5.60077">
        <ele>571.8</ele>
        <time>1970-01-01T01:21:25.000Z</time>
      </trkpt>
      <trkpt lat="43.56466" lon="5.60075">
        <ele>571.3</ele>
        <time>1970-01-01T01:21:27.000Z</time>
      </trkpt>
      <trkpt lat="43.5646" lon="5.60073">
        <ele>571</ele>
        <time>1970-01-01T01:21:29.000Z</time>
      </trkpt>
      <trkpt lat="43.56458" lon="5.60072">
        <ele>570.6</ele>
        <time>1970-01-01T01:21:31.000Z</time>
      </trkpt>
      <trkpt lat="43.56456" lon="5.6007">
        <ele>570.3</ele>
        <time>1970-01-01T01:21:33.000Z</time>
      </trkpt>
      <trkpt lat="43.56454" lon="5.60068">
        <ele>570.3</ele>
        <time>1970-01-01T01:21:34.000Z</time>
      </trkpt>
      <trkpt lat="43.56452" lon="5.60064">
        <ele>570.1</ele>
        <time>1970-01-01T01:21:36.000Z</time>
      </trkpt>
      <trkpt lat="43.56451" lon="5.60063">
        <ele>570.1</ele>
        <time>1970-01-01T01:21:37.000Z</time>
      </trkpt>
      <trkpt lat="43.5645" lon="5.60062">
        <ele>569.9</ele>
        <time>1970-01-01T01:21:38.000Z</time>
      </trkpt>
      <trkpt lat="43.56448" lon="5.60061">
        <ele>569.9</ele>
        <time>1970-01-01T01:21:39.000Z</time>
      </trkpt>
      <trkpt lat="43.56447" lon="5.60057">
        <ele>570</ele>
        <time>1970-01-01T01:21:41.000Z</time>
      </trkpt>
      <trkpt lat="43.56446" lon="5.60054">
        <ele>569.5</ele>
        <time>1970-01-01T01:21:42.000Z</time>
      </trkpt>
      <trkpt lat="43.56446" lon="5.60053">
        <ele>569.6</ele>
        <time>1970-01-01T01:21:43.000Z</time>
      </trkpt>
      <trkpt lat="43.56444" lon="5.60049">
        <ele>569.4</ele>
        <time>1970-01-01T01:21:45.000Z</time>
      </trkpt>
      <trkpt lat="43.56444" lon="5.60048">
        <ele>569.4</ele>
        <time>1970-01-01T01:21:46.000Z</time>
      </trkpt>
      <trkpt lat="43.56445" lon="5.60043">
        <ele>569.8</ele>
        <time>1970-01-01T01:21:48.000Z</time>
      </trkpt>
      <trkpt lat="43.56447" lon="5.6004">
        <ele>569.9</ele>
        <time>1970-01-01T01:21:50.000Z</time>
      </trkpt>
      <trkpt lat="43.56446" lon="5.60035">
        <ele>569.9</ele>
        <time>1970-01-01T01:21:52.000Z</time>
      </trkpt>
      <trkpt lat="43.56443" lon="5.6003">
        <ele>569.7</ele>
        <time>1970-01-01T01:21:54.000Z</time>
      </trkpt>
      <trkpt lat="43.56441" lon="5.60027">
        <ele>569.5</ele>
        <time>1970-01-01T01:21:55.000Z</time>
      </trkpt>
      <trkpt lat="43.5644" lon="5.60026">
        <ele>569.4</ele>
        <time>1970-01-01T01:21:56.000Z</time>
      </trkpt>
      <trkpt lat="43.56439" lon="5.6002">
        <ele>569.5</ele>
        <time>1970-01-01T01:21:58.000Z</time>
      </trkpt>
      <trkpt lat="43.5644" lon="5.60017">
        <ele>569.6</ele>
        <time>1970-01-01T01:21:59.000Z</time>
      </trkpt>
      <trkpt lat="43.56442" lon="5.60008">
        <ele>570.1</ele>
        <time>1970-01-01T01:22:01.000Z</time>
      </trkpt>
      <trkpt lat="43.56441" lon="5.6">
        <ele>570.1</ele>
        <time>1970-01-01T01:22:03.000Z</time>
      </trkpt>
      <trkpt lat="43.56439" lon="5.59991">
        <ele>570.5</ele>
        <time>1970-01-01T01:22:05.000Z</time>
      </trkpt>
      <trkpt lat="43.56438" lon="5.59987">
        <ele>570.5</ele>
        <time>1970-01-01T01:22:06.000Z</time>
      </trkpt>
      <trkpt lat="43.56437" lon="5.59983">
        <ele>570.7</ele>
        <time>1970-01-01T01:22:07.000Z</time>
      </trkpt>
      <trkpt lat="43.56436" lon="5.59977">
        <ele>571</ele>
        <time>1970-01-01T01:22:09.000Z</time>
      </trkpt>
      <trkpt lat="43.56435" lon="5.59971">
        <ele>571.4</ele>
        <time>1970-01-01T01:22:11.000Z</time>
      </trkpt>
      <trkpt lat="43.56434" lon="5.59969">
        <ele>571.4</ele>
        <time>1970-01-01T01:22:12.000Z</time>
      </trkpt>
      <trkpt lat="43.56433" lon="5.59965">
        <ele>571.7</ele>
        <time>1970-01-01T01:22:14.000Z</time>
      </trkpt>
      <trkpt lat="43.56433" lon="5.59963">
        <ele>572</ele>
        <time>1970-01-01T01:22:15.000Z</time>
      </trkpt>
      <trkpt lat="43.56433" lon="5.59959">
        <ele>572.3</ele>
        <time>1970-01-01T01:22:17.000Z</time>
      </trkpt>
      <trkpt lat="43.56431" lon="5.59956">
        <ele>572</ele>
        <time>1970-01-01T01:22:18.000Z</time>
      </trkpt>
      <trkpt lat="43.5643" lon="5.59955">
        <ele>572.4</ele>
        <time>1970-01-01T01:22:19.000Z</time>
      </trkpt>
      <trkpt lat="43.56429" lon="5.59951">
        <ele>572.7</ele>
        <time>1970-01-01T01:22:21.000Z</time>
      </trkpt>
      <trkpt lat="43.56429" lon="5.59949">
        <ele>572.7</ele>
        <time>1970-01-01T01:22:22.000Z</time>
      </trkpt>
      <trkpt lat="43.56429" lon="5.59948">
        <ele>572.5</ele>
        <time>1970-01-01T01:22:23.000Z</time>
      </trkpt>
      <trkpt lat="43.56429" lon="5.59944">
        <ele>573</ele>
        <time>1970-01-01T01:22:25.000Z</time>
      </trkpt>
      <trkpt lat="43.56428" lon="5.59942">
        <ele>573.1</ele>
        <time>1970-01-01T01:22:26.000Z</time>
      </trkpt>
      <trkpt lat="43.56426" lon="5.59937">
        <ele>573.4</ele>
        <time>1970-01-01T01:22:28.000Z</time>
      </trkpt>
      <trkpt lat="43.56427" lon="5.59934">
        <ele>573.4</ele>
        <time>1970-01-01T01:22:29.000Z</time>
      </trkpt>
      <trkpt lat="43.5643" lon="5.59931">
        <ele>573.9</ele>
        <time>1970-01-01T01:22:31.000Z</time>
      </trkpt>
      <trkpt lat="43.56433" lon="5.59928">
        <ele>574.3</ele>
        <time>1970-01-01T01:22:33.000Z</time>
      </trkpt>
      <trkpt lat="43.56434" lon="5.59927">
        <ele>574.3</ele>
        <time>1970-01-01T01:22:34.000Z</time>
      </trkpt>
      <trkpt lat="43.56435" lon="5.59926">
        <ele>574.5</ele>
        <time>1970-01-01T01:22:35.000Z</time>
      </trkpt>
      <trkpt lat="43.56438" lon="5.59922">
        <ele>574.7</ele>
        <time>1970-01-01T01:22:37.000Z</time>
      </trkpt>
      <trkpt lat="43.56439" lon="5.59921">
        <ele>574.9</ele>
        <time>1970-01-01T01:22:38.000Z</time>
      </trkpt>
      <trkpt lat="43.56444" lon="5.59917">
        <ele>575.3</ele>
        <time>1970-01-01T01:22:40.000Z</time>
      </trkpt>
      <trkpt lat="43.56448" lon="5.59915">
        <ele>576.1</ele>
        <time>1970-01-01T01:22:42.000Z</time>
      </trkpt>
      <trkpt lat="43.56451" lon="5.59911">
        <ele>576.5</ele>
        <time>1970-01-01T01:22:44.000Z</time>
      </trkpt>
      <trkpt lat="43.56452" lon="5.5991">
        <ele>576.5</ele>
        <time>1970-01-01T01:22:45.000Z</time>
      </trkpt>
      <trkpt lat="43.56456" lon="5.59907">
        <ele>576.8</ele>
        <time>1970-01-01T01:22:47.000Z</time>
      </trkpt>
      <trkpt lat="43.56459" lon="5.59904">
        <ele>577</ele>
        <time>1970-01-01T01:22:49.000Z</time>
      </trkpt>
      <trkpt lat="43.5646" lon="5.59902">
        <ele>577.3</ele>
        <time>1970-01-01T01:22:50.000Z</time>
      </trkpt>
      <trkpt lat="43.56462" lon="5.59898">
        <ele>577.4</ele>
        <time>1970-01-01T01:22:52.000Z</time>
      </trkpt>
      <trkpt lat="43.56463" lon="5.59896">
        <ele>577.6</ele>
        <time>1970-01-01T01:22:53.000Z</time>
      </trkpt>
      <trkpt lat="43.56464" lon="5.59894">
        <ele>577.7</ele>
        <time>1970-01-01T01:22:54.000Z</time>
      </trkpt>
      <trkpt lat="43.56465" lon="5.59891">
        <ele>577.7</ele>
        <time>1970-01-01T01:22:56.000Z</time>
      </trkpt>
      <trkpt lat="43.56468" lon="5.59888">
        <ele>577.9</ele>
        <time>1970-01-01T01:22:58.000Z</time>
      </trkpt>
      <trkpt lat="43.56469" lon="5.59883">
        <ele>578.2</ele>
        <time>1970-01-01T01:23:00.000Z</time>
      </trkpt>
      <trkpt lat="43.56471" lon="5.59879">
        <ele>578.2</ele>
        <time>1970-01-01T01:23:01.000Z</time>
      </trkpt>
      <trkpt lat="43.56471" lon="5.59877">
        <ele>578.3</ele>
        <time>1970-01-01T01:23:02.000Z</time>
      </trkpt>
      <trkpt lat="43.56472" lon="5.59875">
        <ele>578.5</ele>
        <time>1970-01-01T01:23:03.000Z</time>
      </trkpt>
      <trkpt lat="43.56473" lon="5.59875">
        <ele>578.5</ele>
        <time>1970-01-01T01:23:04.000Z</time>
      </trkpt>
      <trkpt lat="43.56475" lon="5.59875">
        <ele>578.4</ele>
        <time>1970-01-01T01:23:06.000Z</time>
      </trkpt>
      <trkpt lat="43.56476" lon="5.59874">
        <ele>578.6</ele>
        <time>1970-01-01T01:23:07.000Z</time>
      </trkpt>
      <trkpt lat="43.56476" lon="5.59873">
        <ele>578.6</ele>
        <time>1970-01-01T01:23:08.000Z</time>
      </trkpt>
      <trkpt lat="43.56477" lon="5.59872">
        <ele>578.6</ele>
        <time>1970-01-01T01:23:09.000Z</time>
      </trkpt>
      <trkpt lat="43.5648" lon="5.59869">
        <ele>578.8</ele>
        <time>1970-01-01T01:23:11.000Z</time>
      </trkpt>
      <trkpt lat="43.56484" lon="5.59867">
        <ele>579</ele>
        <time>1970-01-01T01:23:12.000Z</time>
      </trkpt>
      <trkpt lat="43.56486" lon="5.59865">
        <ele>579.1</ele>
        <time>1970-01-01T01:23:13.000Z</time>
      </trkpt>
      <trkpt lat="43.5649" lon="5.5986">
        <ele>579.3</ele>
        <time>1970-01-01T01:23:15.000Z</time>
      </trkpt>
      <trkpt lat="43.5649" lon="5.59856">
        <ele>579.3</ele>
        <time>1970-01-01T01:23:16.000Z</time>
      </trkpt>
      <trkpt lat="43.56489" lon="5.59854">
        <ele>579.3</ele>
        <time>1970-01-01T01:23:17.000Z</time>
      </trkpt>
      <trkpt lat="43.56487" lon="5.5985">
        <ele>579.2</ele>
        <time>1970-01-01T01:23:19.000Z</time>
      </trkpt>
      <trkpt lat="43.56488" lon="5.59843">
        <ele>579.3</ele>
        <time>1970-01-01T01:23:21.000Z</time>
      </trkpt>
      <trkpt lat="43.56489" lon="5.5984">
        <ele>579.3</ele>
        <time>1970-01-01T01:23:22.000Z</time>
      </trkpt>
      <trkpt lat="43.56491" lon="5.59837">
        <ele>579.4</ele>
        <time>1970-01-01T01:23:23.000Z</time>
      </trkpt>
      <trkpt lat="43.56492" lon="5.59836">
        <ele>579.4</ele>
        <time>1970-01-01T01:23:24.000Z</time>
      </trkpt>
      <trkpt lat="43.56496" lon="5.5983">
        <ele>579.5</ele>
        <time>1970-01-01T01:23:26.000Z</time>
      </trkpt>
      <trkpt lat="43.56496" lon="5.59824">
        <ele>579.5</ele>
        <time>1970-01-01T01:23:28.000Z</time>
      </trkpt>
      <trkpt lat="43.56494" lon="5.59813">
        <ele>579.4</ele>
        <time>1970-01-01T01:23:30.000Z</time>
      </trkpt>
      <trkpt lat="43.56495" lon="5.59809">
        <ele>579.4</ele>
        <time>1970-01-01T01:23:31.000Z</time>
      </trkpt>
      <trkpt lat="43.56496" lon="5.59805">
        <ele>579.3</ele>
        <time>1970-01-01T01:23:32.000Z</time>
      </trkpt>
      <trkpt lat="43.56499" lon="5.598">
        <ele>579.4</ele>
        <time>1970-01-01T01:23:33.000Z</time>
      </trkpt>
      <trkpt lat="43.56503" lon="5.59787">
        <ele>579.4</ele>
        <time>1970-01-01T01:23:35.000Z</time>
      </trkpt>
      <trkpt lat="43.56501" lon="5.59782">
        <ele>579.4</ele>
        <time>1970-01-01T01:23:36.000Z</time>
      </trkpt>
      <trkpt lat="43.56501" lon="5.59777">
        <ele>579.3</ele>
        <time>1970-01-01T01:23:37.000Z</time>
      </trkpt>
      <trkpt lat="43.56501" lon="5.59771">
        <ele>579.3</ele>
        <time>1970-01-01T01:23:38.000Z</time>
      </trkpt>
      <trkpt lat="43.56502" lon="5.59765">
        <ele>579.2</ele>
        <time>1970-01-01T01:23:40.000Z</time>
      </trkpt>
      <trkpt lat="43.56503" lon="5.5976">
        <ele>579.1</ele>
        <time>1970-01-01T01:23:41.000Z</time>
      </trkpt>
      <trkpt lat="43.56504" lon="5.59754">
        <ele>579.2</ele>
        <time>1970-01-01T01:23:42.000Z</time>
      </trkpt>
      <trkpt lat="43.56503" lon="5.59749">
        <ele>579</ele>
        <time>1970-01-01T01:23:43.000Z</time>
      </trkpt>
      <trkpt lat="43.56499" lon="5.5974">
        <ele>578.7</ele>
        <time>1970-01-01T01:23:45.000Z</time>
      </trkpt>
      <trkpt lat="43.56494" lon="5.59732">
        <ele>578.5</ele>
        <time>1970-01-01T01:23:47.000Z</time>
      </trkpt>
      <trkpt lat="43.56493" lon="5.59729">
        <ele>578.3</ele>
        <time>1970-01-01T01:23:48.000Z</time>
      </trkpt>
      <trkpt lat="43.56492" lon="5.59725">
        <ele>578.2</ele>
        <time>1970-01-01T01:23:49.000Z</time>
      </trkpt>
      <trkpt lat="43.56491" lon="5.59713">
        <ele>578</ele>
        <time>1970-01-01T01:23:51.000Z</time>
      </trkpt>
      <trkpt lat="43.56488" lon="5.59705">
        <ele>577.8</ele>
        <time>1970-01-01T01:23:53.000Z</time>
      </trkpt>
      <trkpt lat="43.56485" lon="5.59696">
        <ele>577.5</ele>
        <time>1970-01-01T01:23:55.000Z</time>
      </trkpt>
      <trkpt lat="43.56484" lon="5.5969">
        <ele>577.4</ele>
        <time>1970-01-01T01:23:56.000Z</time>
      </trkpt>
      <trkpt lat="43.56481" lon="5.59678">
        <ele>577.1</ele>
        <time>1970-01-01T01:23:58.000Z</time>
      </trkpt>
      <trkpt lat="43.56482" lon="5.59672">
        <ele>577.1</ele>
        <time>1970-01-01T01:23:59.000Z</time>
      </trkpt>
      <trkpt lat="43.56482" lon="5.59662">
        <ele>576.8</ele>
        <time>1970-01-01T01:24:01.000Z</time>
      </trkpt>
      <trkpt lat="43.56483" lon="5.59658">
        <ele>576.8</ele>
        <time>1970-01-01T01:24:02.000Z</time>
      </trkpt>
      <trkpt lat="43.56485" lon="5.59654">
        <ele>576.8</ele>
        <time>1970-01-01T01:24:03.000Z</time>
      </trkpt>
      <trkpt lat="43.56487" lon="5.59644">
        <ele>576.7</ele>
        <time>1970-01-01T01:24:05.000Z</time>
      </trkpt>
      <trkpt lat="43.56492" lon="5.59636">
        <ele>576.9</ele>
        <time>1970-01-01T01:24:07.000Z</time>
      </trkpt>
      <trkpt lat="43.56495" lon="5.59632">
        <ele>577</ele>
        <time>1970-01-01T01:24:08.000Z</time>
      </trkpt>
      <trkpt lat="43.56498" lon="5.59622">
        <ele>577.1</ele>
        <time>1970-01-01T01:24:10.000Z</time>
      </trkpt>
      <trkpt lat="43.56498" lon="5.59616">
        <ele>577</ele>
        <time>1970-01-01T01:24:11.000Z</time>
      </trkpt>
      <trkpt lat="43.56497" lon="5.59603">
        <ele>576.6</ele>
        <time>1970-01-01T01:24:13.000Z</time>
      </trkpt>
      <trkpt lat="43.56493" lon="5.59591">
        <ele>576.4</ele>
        <time>1970-01-01T01:24:15.000Z</time>
      </trkpt>
      <trkpt lat="43.56491" lon="5.59585">
        <ele>576.3</ele>
        <time>1970-01-01T01:24:16.000Z</time>
      </trkpt>
      <trkpt lat="43.56486" lon="5.59574">
        <ele>575.9</ele>
        <time>1970-01-01T01:24:18.000Z</time>
      </trkpt>
      <trkpt lat="43.56485" lon="5.5957">
        <ele>575.9</ele>
        <time>1970-01-01T01:24:19.000Z</time>
      </trkpt>
      <trkpt lat="43.56486" lon="5.59563">
        <ele>575.8</ele>
        <time>1970-01-01T01:24:20.000Z</time>
      </trkpt>
      <trkpt lat="43.56488" lon="5.59548">
        <ele>576</ele>
        <time>1970-01-01T01:24:22.000Z</time>
      </trkpt>
      <trkpt lat="43.56488" lon="5.59541">
        <ele>576</ele>
        <time>1970-01-01T01:24:23.000Z</time>
      </trkpt>
      <trkpt lat="43.56485" lon="5.59526">
        <ele>575.9</ele>
        <time>1970-01-01T01:24:25.000Z</time>
      </trkpt>
      <trkpt lat="43.56481" lon="5.5952">
        <ele>575.8</ele>
        <time>1970-01-01T01:24:26.000Z</time>
      </trkpt>
      <trkpt lat="43.56478" lon="5.59513">
        <ele>575.4</ele>
        <time>1970-01-01T01:24:27.000Z</time>
      </trkpt>
      <trkpt lat="43.56474" lon="5.59507">
        <ele>575.4</ele>
        <time>1970-01-01T01:24:28.000Z</time>
      </trkpt>
      <trkpt lat="43.56468" lon="5.59498">
        <ele>575.2</ele>
        <time>1970-01-01T01:24:30.000Z</time>
      </trkpt>
      <trkpt lat="43.56466" lon="5.59494">
        <ele>575.2</ele>
        <time>1970-01-01T01:24:31.000Z</time>
      </trkpt>
      <trkpt lat="43.56464" lon="5.5949">
        <ele>575.2</ele>
        <time>1970-01-01T01:24:32.000Z</time>
      </trkpt>
      <trkpt lat="43.56462" lon="5.59486">
        <ele>575.2</ele>
        <time>1970-01-01T01:24:33.000Z</time>
      </trkpt>
      <trkpt lat="43.56461" lon="5.59477">
        <ele>575.3</ele>
        <time>1970-01-01T01:24:35.000Z</time>
      </trkpt>
      <trkpt lat="43.5646" lon="5.59471">
        <ele>575.4</ele>
        <time>1970-01-01T01:24:37.000Z</time>
      </trkpt>
      <trkpt lat="43.5646" lon="5.59463">
        <ele>575.5</ele>
        <time>1970-01-01T01:24:39.000Z</time>
      </trkpt>
      <trkpt lat="43.5646" lon="5.5946">
        <ele>575.7</ele>
        <time>1970-01-01T01:24:40.000Z</time>
      </trkpt>
      <trkpt lat="43.56461" lon="5.59454">
        <ele>575.8</ele>
        <time>1970-01-01T01:24:42.000Z</time>
      </trkpt>
      <trkpt lat="43.56462" lon="5.59449">
        <ele>575.9</ele>
        <time>1970-01-01T01:24:44.000Z</time>
      </trkpt>
      <trkpt lat="43.56463" lon="5.59446">
        <ele>576</ele>
        <time>1970-01-01T01:24:45.000Z</time>
      </trkpt>
      <trkpt lat="43.56463" lon="5.59441">
        <ele>576.1</ele>
        <time>1970-01-01T01:24:47.000Z</time>
      </trkpt>
      <trkpt lat="43.56463" lon="5.59438">
        <ele>576.2</ele>
        <time>1970-01-01T01:24:48.000Z</time>
      </trkpt>
      <trkpt lat="43.56463" lon="5.59434">
        <ele>576.3</ele>
        <time>1970-01-01T01:24:50.000Z</time>
      </trkpt>
      <trkpt lat="43.56464" lon="5.59433">
        <ele>576.3</ele>
        <time>1970-01-01T01:24:51.000Z</time>
      </trkpt>
      <trkpt lat="43.56465" lon="5.59429">
        <ele>576.4</ele>
        <time>1970-01-01T01:24:53.000Z</time>
      </trkpt>
      <trkpt lat="43.56467" lon="5.59425">
        <ele>576.6</ele>
        <time>1970-01-01T01:24:55.000Z</time>
      </trkpt>
      <trkpt lat="43.5647" lon="5.59418">
        <ele>576.9</ele>
        <time>1970-01-01T01:24:57.000Z</time>
      </trkpt>
      <trkpt lat="43.56472" lon="5.59414">
        <ele>577.1</ele>
        <time>1970-01-01T01:24:59.000Z</time>
      </trkpt>
      <trkpt lat="43.56473" lon="5.59412">
        <ele>577.1</ele>
        <time>1970-01-01T01:25:00.000Z</time>
      </trkpt>
      <trkpt lat="43.56474" lon="5.59408">
        <ele>577.2</ele>
        <time>1970-01-01T01:25:02.000Z</time>
      </trkpt>
      <trkpt lat="43.56475" lon="5.59406">
        <ele>577.4</ele>
        <time>1970-01-01T01:25:03.000Z</time>
      </trkpt>
      <trkpt lat="43.56477" lon="5.59401">
        <ele>577.6</ele>
        <time>1970-01-01T01:25:05.000Z</time>
      </trkpt>
      <trkpt lat="43.56478" lon="5.59395">
        <ele>577.7</ele>
        <time>1970-01-01T01:25:07.000Z</time>
      </trkpt>
      <trkpt lat="43.56478" lon="5.59393">
        <ele>577.8</ele>
        <time>1970-01-01T01:25:08.000Z</time>
      </trkpt>
      <trkpt lat="43.56477" lon="5.59388">
        <ele>577.9</ele>
        <time>1970-01-01T01:25:10.000Z</time>
      </trkpt>
      <trkpt lat="43.56476" lon="5.59384">
        <ele>578</ele>
        <time>1970-01-01T01:25:11.000Z</time>
      </trkpt>
      <trkpt lat="43.56476" lon="5.59383">
        <ele>578</ele>
        <time>1970-01-01T01:25:12.000Z</time>
      </trkpt>
      <trkpt lat="43.56474" lon="5.59378">
        <ele>578.1</ele>
        <time>1970-01-01T01:25:13.000Z</time>
      </trkpt>
      <trkpt lat="43.56474" lon="5.59377">
        <ele>578</ele>
        <time>1970-01-01T01:25:14.000Z</time>
      </trkpt>
      <trkpt lat="43.56472" lon="5.59371">
        <ele>578.2</ele>
        <time>1970-01-01T01:25:16.000Z</time>
      </trkpt>
      <trkpt lat="43.5647" lon="5.59367">
        <ele>578.3</ele>
        <time>1970-01-01T01:25:18.000Z</time>
      </trkpt>
      <trkpt lat="43.56469" lon="5.59365">
        <ele>578.3</ele>
        <time>1970-01-01T01:25:19.000Z</time>
      </trkpt>
      <trkpt lat="43.56469" lon="5.59362">
        <ele>578.4</ele>
        <time>1970-01-01T01:25:20.000Z</time>
      </trkpt>
      <trkpt lat="43.56468" lon="5.59357">
        <ele>578.5</ele>
        <time>1970-01-01T01:25:22.000Z</time>
      </trkpt>
      <trkpt lat="43.56467" lon="5.59355">
        <ele>578.5</ele>
        <time>1970-01-01T01:25:23.000Z</time>
      </trkpt>
      <trkpt lat="43.56468" lon="5.59349">
        <ele>578.7</ele>
        <time>1970-01-01T01:25:25.000Z</time>
      </trkpt>
      <trkpt lat="43.56468" lon="5.59347">
        <ele>578.7</ele>
        <time>1970-01-01T01:25:26.000Z</time>
      </trkpt>
      <trkpt lat="43.56468" lon="5.5934">
        <ele>579</ele>
        <time>1970-01-01T01:25:28.000Z</time>
      </trkpt>
      <trkpt lat="43.5647" lon="5.59337">
        <ele>579.2</ele>
        <time>1970-01-01T01:25:29.000Z</time>
      </trkpt>
      <trkpt lat="43.5647" lon="5.59336">
        <ele>579.2</ele>
        <time>1970-01-01T01:25:30.000Z</time>
      </trkpt>
      <trkpt lat="43.56471" lon="5.59332">
        <ele>579.3</ele>
        <time>1970-01-01T01:25:31.000Z</time>
      </trkpt>
      <trkpt lat="43.56472" lon="5.59325">
        <ele>579.4</ele>
        <time>1970-01-01T01:25:33.000Z</time>
      </trkpt>
      <trkpt lat="43.56472" lon="5.59317">
        <ele>579.7</ele>
        <time>1970-01-01T01:25:35.000Z</time>
      </trkpt>
      <trkpt lat="43.56471" lon="5.59313">
        <ele>579.8</ele>
        <time>1970-01-01T01:25:36.000Z</time>
      </trkpt>
      <trkpt lat="43.5647" lon="5.59309">
        <ele>580</ele>
        <time>1970-01-01T01:25:37.000Z</time>
      </trkpt>
      <trkpt lat="43.56467" lon="5.59301">
        <ele>580.2</ele>
        <time>1970-01-01T01:25:39.000Z</time>
      </trkpt>
      <trkpt lat="43.56465" lon="5.59297">
        <ele>580.2</ele>
        <time>1970-01-01T01:25:40.000Z</time>
      </trkpt>
      <trkpt lat="43.56463" lon="5.59292">
        <ele>580.3</ele>
        <time>1970-01-01T01:25:41.000Z</time>
      </trkpt>
      <trkpt lat="43.56462" lon="5.59288">
        <ele>580.4</ele>
        <time>1970-01-01T01:25:42.000Z</time>
      </trkpt>
      <trkpt lat="43.56457" lon="5.59281">
        <ele>580.5</ele>
        <time>1970-01-01T01:25:44.000Z</time>
      </trkpt>
      <trkpt lat="43.56454" lon="5.59278">
        <ele>580.4</ele>
        <time>1970-01-01T01:25:45.000Z</time>
      </trkpt>
      <trkpt lat="43.56449" lon="5.59271">
        <ele>580.4</ele>
        <time>1970-01-01T01:25:47.000Z</time>
      </trkpt>
      <trkpt lat="43.56447" lon="5.59268">
        <ele>580.5</ele>
        <time>1970-01-01T01:25:48.000Z</time>
      </trkpt>
      <trkpt lat="43.56445" lon="5.59265">
        <ele>580.4</ele>
        <time>1970-01-01T01:25:49.000Z</time>
      </trkpt>
      <trkpt lat="43.56442" lon="5.59259">
        <ele>580.5</ele>
        <time>1970-01-01T01:25:51.000Z</time>
      </trkpt>
      <trkpt lat="43.56438" lon="5.59252">
        <ele>580.4</ele>
        <time>1970-01-01T01:25:53.000Z</time>
      </trkpt>
      <trkpt lat="43.56437" lon="5.59248">
        <ele>580.4</ele>
        <time>1970-01-01T01:25:54.000Z</time>
      </trkpt>
      <trkpt lat="43.56435" lon="5.59244">
        <ele>580.4</ele>
        <time>1970-01-01T01:25:55.000Z</time>
      </trkpt>
      <trkpt lat="43.56431" lon="5.59237">
        <ele>580.3</ele>
        <time>1970-01-01T01:25:57.000Z</time>
      </trkpt>
      <trkpt lat="43.56429" lon="5.59234">
        <ele>580.4</ele>
        <time>1970-01-01T01:25:58.000Z</time>
      </trkpt>
      <trkpt lat="43.56427" lon="5.5923">
        <ele>580.3</ele>
        <time>1970-01-01T01:25:59.000Z</time>
      </trkpt>
      <trkpt lat="43.56423" lon="5.59222">
        <ele>580.2</ele>
        <time>1970-01-01T01:26:01.000Z</time>
      </trkpt>
      <trkpt lat="43.56419" lon="5.59215">
        <ele>580</ele>
        <time>1970-01-01T01:26:03.000Z</time>
      </trkpt>
      <trkpt lat="43.56415" lon="5.59209">
        <ele>579.9</ele>
        <time>1970-01-01T01:26:05.000Z</time>
      </trkpt>
      <trkpt lat="43.56412" lon="5.59201">
        <ele>579.9</ele>
        <time>1970-01-01T01:26:07.000Z</time>
      </trkpt>
      <trkpt lat="43.5641" lon="5.59198">
        <ele>579.9</ele>
        <time>1970-01-01T01:26:08.000Z</time>
      </trkpt>
      <trkpt lat="43.56407" lon="5.5919">
        <ele>579.8</ele>
        <time>1970-01-01T01:26:10.000Z</time>
      </trkpt>
      <trkpt lat="43.56406" lon="5.59187">
        <ele>579.7</ele>
        <time>1970-01-01T01:26:11.000Z</time>
      </trkpt>
      <trkpt lat="43.56401" lon="5.5918">
        <ele>579.6</ele>
        <time>1970-01-01T01:26:13.000Z</time>
      </trkpt>
      <trkpt lat="43.56399" lon="5.59175">
        <ele>579.5</ele>
        <time>1970-01-01T01:26:14.000Z</time>
      </trkpt>
      <trkpt lat="43.56395" lon="5.59168">
        <ele>579.4</ele>
        <time>1970-01-01T01:26:16.000Z</time>
      </trkpt>
      <trkpt lat="43.56392" lon="5.59165">
        <ele>579.4</ele>
        <time>1970-01-01T01:26:17.000Z</time>
      </trkpt>
      <trkpt lat="43.56388" lon="5.59157">
        <ele>579.2</ele>
        <time>1970-01-01T01:26:19.000Z</time>
      </trkpt>
      <trkpt lat="43.56383" lon="5.59149">
        <ele>579.2</ele>
        <time>1970-01-01T01:26:21.000Z</time>
      </trkpt>
      <trkpt lat="43.56381" lon="5.59145">
        <ele>579.1</ele>
        <time>1970-01-01T01:26:22.000Z</time>
      </trkpt>
      <trkpt lat="43.56378" lon="5.59136">
        <ele>579.1</ele>
        <time>1970-01-01T01:26:24.000Z</time>
      </trkpt>
      <trkpt lat="43.56374" lon="5.59126">
        <ele>579.1</ele>
        <time>1970-01-01T01:26:26.000Z</time>
      </trkpt>
      <trkpt lat="43.5637" lon="5.59117">
        <ele>579.1</ele>
        <time>1970-01-01T01:26:28.000Z</time>
      </trkpt>
      <trkpt lat="43.56367" lon="5.59113">
        <ele>579.1</ele>
        <time>1970-01-01T01:26:29.000Z</time>
      </trkpt>
      <trkpt lat="43.56362" lon="5.59104">
        <ele>579.1</ele>
        <time>1970-01-01T01:26:31.000Z</time>
      </trkpt>
      <trkpt lat="43.56359" lon="5.591">
        <ele>579.1</ele>
        <time>1970-01-01T01:26:32.000Z</time>
      </trkpt>
      <trkpt lat="43.56355" lon="5.59092">
        <ele>579.1</ele>
        <time>1970-01-01T01:26:34.000Z</time>
      </trkpt>
      <trkpt lat="43.56354" lon="5.59087">
        <ele>579.1</ele>
        <time>1970-01-01T01:26:35.000Z</time>
      </trkpt>
      <trkpt lat="43.56351" lon="5.5908">
        <ele>579.1</ele>
        <time>1970-01-01T01:26:37.000Z</time>
      </trkpt>
      <trkpt lat="43.56348" lon="5.59072">
        <ele>579.2</ele>
        <time>1970-01-01T01:26:39.000Z</time>
      </trkpt>
      <trkpt lat="43.56345" lon="5.59065">
        <ele>579.3</ele>
        <time>1970-01-01T01:26:41.000Z</time>
      </trkpt>
      <trkpt lat="43.56346" lon="5.5906">
        <ele>579.3</ele>
        <time>1970-01-01T01:26:43.000Z</time>
      </trkpt>
      <trkpt lat="43.56347" lon="5.59058">
        <ele>579.3</ele>
        <time>1970-01-01T01:26:45.000Z</time>
      </trkpt>
      <trkpt lat="43.56349" lon="5.59057">
        <ele>579.4</ele>
        <time>1970-01-01T01:26:46.000Z</time>
      </trkpt>
      <trkpt lat="43.56351" lon="5.59055">
        <ele>579.4</ele>
        <time>1970-01-01T01:26:47.000Z</time>
      </trkpt>
      <trkpt lat="43.56352" lon="5.59054">
        <ele>579.4</ele>
        <time>1970-01-01T01:26:48.000Z</time>
      </trkpt>
      <trkpt lat="43.56354" lon="5.59052">
        <ele>579.5</ele>
        <time>1970-01-01T01:26:50.000Z</time>
      </trkpt>
      <trkpt lat="43.56357" lon="5.59048">
        <ele>579.6</ele>
        <time>1970-01-01T01:26:52.000Z</time>
      </trkpt>
      <trkpt lat="43.5636" lon="5.59043">
        <ele>579.7</ele>
        <time>1970-01-01T01:26:54.000Z</time>
      </trkpt>
      <trkpt lat="43.56362" lon="5.59038">
        <ele>579.7</ele>
        <time>1970-01-01T01:26:56.000Z</time>
      </trkpt>
      <trkpt lat="43.56365" lon="5.59033">
        <ele>579.8</ele>
        <time>1970-01-01T01:26:58.000Z</time>
      </trkpt>
      <trkpt lat="43.56368" lon="5.5903">
        <ele>579.8</ele>
        <time>1970-01-01T01:27:00.000Z</time>
      </trkpt>
      <trkpt lat="43.5637" lon="5.59026">
        <ele>579.9</ele>
        <time>1970-01-01T01:27:01.000Z</time>
      </trkpt>
      <trkpt lat="43.5637" lon="5.59024">
        <ele>579.9</ele>
        <time>1970-01-01T01:27:02.000Z</time>
      </trkpt>
      <trkpt lat="43.56372" lon="5.59021">
        <ele>579.9</ele>
        <time>1970-01-01T01:27:03.000Z</time>
      </trkpt>
      <trkpt lat="43.56375" lon="5.59013">
        <ele>580</ele>
        <time>1970-01-01T01:27:05.000Z</time>
      </trkpt>
      <trkpt lat="43.5638" lon="5.59005">
        <ele>580.1</ele>
        <time>1970-01-01T01:27:07.000Z</time>
      </trkpt>
      <trkpt lat="43.56384" lon="5.58999">
        <ele>580.2</ele>
        <time>1970-01-01T01:27:09.000Z</time>
      </trkpt>
      <trkpt lat="43.56387" lon="5.58997">
        <ele>580.2</ele>
        <time>1970-01-01T01:27:10.000Z</time>
      </trkpt>
      <trkpt lat="43.56392" lon="5.58992">
        <ele>580.4</ele>
        <time>1970-01-01T01:27:12.000Z</time>
      </trkpt>
      <trkpt lat="43.56395" lon="5.5899">
        <ele>580.5</ele>
        <time>1970-01-01T01:27:13.000Z</time>
      </trkpt>
      <trkpt lat="43.56398" lon="5.58988">
        <ele>580.6</ele>
        <time>1970-01-01T01:27:14.000Z</time>
      </trkpt>
      <trkpt lat="43.564" lon="5.58985">
        <ele>580.7</ele>
        <time>1970-01-01T01:27:16.000Z</time>
      </trkpt>
      <trkpt lat="43.56405" lon="5.5898">
        <ele>580.8</ele>
        <time>1970-01-01T01:27:18.000Z</time>
      </trkpt>
      <trkpt lat="43.56407" lon="5.58977">
        <ele>580.9</ele>
        <time>1970-01-01T01:27:19.000Z</time>
      </trkpt>
      <trkpt lat="43.5641" lon="5.58974">
        <ele>581</ele>
        <time>1970-01-01T01:27:20.000Z</time>
      </trkpt>
      <trkpt lat="43.56413" lon="5.58972">
        <ele>581.1</ele>
        <time>1970-01-01T01:27:21.000Z</time>
      </trkpt>
      <trkpt lat="43.56415" lon="5.58966">
        <ele>581.2</ele>
        <time>1970-01-01T01:27:23.000Z</time>
      </trkpt>
      <trkpt lat="43.56417" lon="5.58962">
        <ele>581.3</ele>
        <time>1970-01-01T01:27:24.000Z</time>
      </trkpt>
      <trkpt lat="43.56418" lon="5.58959">
        <ele>581.4</ele>
        <time>1970-01-01T01:27:25.000Z</time>
      </trkpt>
      <trkpt lat="43.56421" lon="5.58951">
        <ele>581.7</ele>
        <time>1970-01-01T01:27:27.000Z</time>
      </trkpt>
      <trkpt lat="43.56424" lon="5.58947">
        <ele>581.8</ele>
        <time>1970-01-01T01:27:28.000Z</time>
      </trkpt>
      <trkpt lat="43.56426" lon="5.58945">
        <ele>581.9</ele>
        <time>1970-01-01T01:27:29.000Z</time>
      </trkpt>
      <trkpt lat="43.56431" lon="5.58942">
        <ele>582.1</ele>
        <time>1970-01-01T01:27:31.000Z</time>
      </trkpt>
      <trkpt lat="43.56433" lon="5.5894">
        <ele>582.2</ele>
        <time>1970-01-01T01:27:32.000Z</time>
      </trkpt>
      <trkpt lat="43.56435" lon="5.58937">
        <ele>582.3</ele>
        <time>1970-01-01T01:27:33.000Z</time>
      </trkpt>
      <trkpt lat="43.56438" lon="5.58933">
        <ele>582.5</ele>
        <time>1970-01-01T01:27:35.000Z</time>
      </trkpt>
      <trkpt lat="43.56441" lon="5.58931">
        <ele>582.6</ele>
        <time>1970-01-01T01:27:36.000Z</time>
      </trkpt>
      <trkpt lat="43.56445" lon="5.58928">
        <ele>582.9</ele>
        <time>1970-01-01T01:27:38.000Z</time>
      </trkpt>
      <trkpt lat="43.56447" lon="5.58927">
        <ele>583</ele>
        <time>1970-01-01T01:27:39.000Z</time>
      </trkpt>
      <trkpt lat="43.56452" lon="5.58922">
        <ele>583.3</ele>
        <time>1970-01-01T01:27:41.000Z</time>
      </trkpt>
      <trkpt lat="43.56453" lon="5.5892">
        <ele>583.4</ele>
        <time>1970-01-01T01:27:42.000Z</time>
      </trkpt>
      <trkpt lat="43.56456" lon="5.58915">
        <ele>583.7</ele>
        <time>1970-01-01T01:27:44.000Z</time>
      </trkpt>
      <trkpt lat="43.56457" lon="5.58912">
        <ele>583.9</ele>
        <time>1970-01-01T01:27:45.000Z</time>
      </trkpt>
      <trkpt lat="43.56458" lon="5.58908">
        <ele>584.1</ele>
        <time>1970-01-01T01:27:47.000Z</time>
      </trkpt>
      <trkpt lat="43.5646" lon="5.58905">
        <ele>584.3</ele>
        <time>1970-01-01T01:27:48.000Z</time>
      </trkpt>
      <trkpt lat="43.5646" lon="5.58904">
        <ele>584.4</ele>
        <time>1970-01-01T01:27:49.000Z</time>
      </trkpt>
      <trkpt lat="43.56462" lon="5.589">
        <ele>584.6</ele>
        <time>1970-01-01T01:27:50.000Z</time>
      </trkpt>
      <trkpt lat="43.56463" lon="5.58899">
        <ele>584.6</ele>
        <time>1970-01-01T01:27:51.000Z</time>
      </trkpt>
      <trkpt lat="43.56463" lon="5.58897">
        <ele>584.7</ele>
        <time>1970-01-01T01:27:52.000Z</time>
      </trkpt>
      <trkpt lat="43.56466" lon="5.58892">
        <ele>585</ele>
        <time>1970-01-01T01:27:54.000Z</time>
      </trkpt>
      <trkpt lat="43.56468" lon="5.58891">
        <ele>585.1</ele>
        <time>1970-01-01T01:27:55.000Z</time>
      </trkpt>
      <trkpt lat="43.56468" lon="5.5889">
        <ele>585.2</ele>
        <time>1970-01-01T01:27:57.000Z</time>
      </trkpt>
      <trkpt lat="43.5647" lon="5.58886">
        <ele>585.3</ele>
        <time>1970-01-01T01:27:59.000Z</time>
      </trkpt>
      <trkpt lat="43.56473" lon="5.58883">
        <ele>585.6</ele>
        <time>1970-01-01T01:28:00.000Z</time>
      </trkpt>
      <trkpt lat="43.56474" lon="5.58881">
        <ele>585.6</ele>
        <time>1970-01-01T01:28:01.000Z</time>
      </trkpt>
      <trkpt lat="43.56474" lon="5.58876">
        <ele>585.9</ele>
        <time>1970-01-01T01:28:03.000Z</time>
      </trkpt>
      <trkpt lat="43.56476" lon="5.58871">
        <ele>586.1</ele>
        <time>1970-01-01T01:28:05.000Z</time>
      </trkpt>
      <trkpt lat="43.5648" lon="5.58869">
        <ele>586.4</ele>
        <time>1970-01-01T01:28:07.000Z</time>
      </trkpt>
      <trkpt lat="43.56483" lon="5.58865">
        <ele>586.6</ele>
        <time>1970-01-01T01:28:09.000Z</time>
      </trkpt>
      <trkpt lat="43.56485" lon="5.58863">
        <ele>586.7</ele>
        <time>1970-01-01T01:28:10.000Z</time>
      </trkpt>
      <trkpt lat="43.56489" lon="5.58858">
        <ele>587</ele>
        <time>1970-01-01T01:28:12.000Z</time>
      </trkpt>
      <trkpt lat="43.56493" lon="5.58853">
        <ele>587.3</ele>
        <time>1970-01-01T01:28:14.000Z</time>
      </trkpt>
      <trkpt lat="43.56495" lon="5.58851">
        <ele>587.5</ele>
        <time>1970-01-01T01:28:15.000Z</time>
      </trkpt>
      <trkpt lat="43.56499" lon="5.58847">
        <ele>587.7</ele>
        <time>1970-01-01T01:28:17.000Z</time>
      </trkpt>
      <trkpt lat="43.56499" lon="5.58845">
        <ele>587.7</ele>
        <time>1970-01-01T01:28:18.000Z</time>
      </trkpt>
      <trkpt lat="43.565" lon="5.58844">
        <ele>587.8</ele>
        <time>1970-01-01T01:28:19.000Z</time>
      </trkpt>
      <trkpt lat="43.56502" lon="5.5884">
        <ele>588</ele>
        <time>1970-01-01T01:28:20.000Z</time>
      </trkpt>
      <trkpt lat="43.56503" lon="5.58838">
        <ele>588.1</ele>
        <time>1970-01-01T01:28:21.000Z</time>
      </trkpt>
      <trkpt lat="43.56506" lon="5.58835">
        <ele>588.2</ele>
        <time>1970-01-01T01:28:22.000Z</time>
      </trkpt>
      <trkpt lat="43.56506" lon="5.58833">
        <ele>588.3</ele>
        <time>1970-01-01T01:28:23.000Z</time>
      </trkpt>
      <trkpt lat="43.56508" lon="5.5883">
        <ele>588.4</ele>
        <time>1970-01-01T01:28:24.000Z</time>
      </trkpt>
      <trkpt lat="43.5651" lon="5.58826">
        <ele>588.6</ele>
        <time>1970-01-01T01:28:26.000Z</time>
      </trkpt>
      <trkpt lat="43.56511" lon="5.58825">
        <ele>588.7</ele>
        <time>1970-01-01T01:28:27.000Z</time>
      </trkpt>
      <trkpt lat="43.56513" lon="5.58824">
        <ele>588.8</ele>
        <time>1970-01-01T01:28:28.000Z</time>
      </trkpt>
      <trkpt lat="43.56518" lon="5.5882">
        <ele>589.1</ele>
        <time>1970-01-01T01:28:30.000Z</time>
      </trkpt>
      <trkpt lat="43.5652" lon="5.58817">
        <ele>589.2</ele>
        <time>1970-01-01T01:28:31.000Z</time>
      </trkpt>
      <trkpt lat="43.56521" lon="5.58814">
        <ele>589.3</ele>
        <time>1970-01-01T01:28:32.000Z</time>
      </trkpt>
      <trkpt lat="43.56524" lon="5.5881">
        <ele>589.5</ele>
        <time>1970-01-01T01:28:34.000Z</time>
      </trkpt>
      <trkpt lat="43.56525" lon="5.58807">
        <ele>589.5</ele>
        <time>1970-01-01T01:28:35.000Z</time>
      </trkpt>
      <trkpt lat="43.56528" lon="5.58801">
        <ele>589.7</ele>
        <time>1970-01-01T01:28:37.000Z</time>
      </trkpt>
      <trkpt lat="43.5653" lon="5.58798">
        <ele>589.9</ele>
        <time>1970-01-01T01:28:38.000Z</time>
      </trkpt>
      <trkpt lat="43.56532" lon="5.58797">
        <ele>589.9</ele>
        <time>1970-01-01T01:28:39.000Z</time>
      </trkpt>
      <trkpt lat="43.56533" lon="5.58795">
        <ele>590</ele>
        <time>1970-01-01T01:28:40.000Z</time>
      </trkpt>
      <trkpt lat="43.56536" lon="5.5879">
        <ele>590.1</ele>
        <time>1970-01-01T01:28:42.000Z</time>
      </trkpt>
      <trkpt lat="43.5654" lon="5.58785">
        <ele>590.3</ele>
        <time>1970-01-01T01:28:44.000Z</time>
      </trkpt>
      <trkpt lat="43.56542" lon="5.58783">
        <ele>590.3</ele>
        <time>1970-01-01T01:28:45.000Z</time>
      </trkpt>
      <trkpt lat="43.56547" lon="5.58778">
        <ele>590.5</ele>
        <time>1970-01-01T01:28:47.000Z</time>
      </trkpt>
      <trkpt lat="43.56549" lon="5.58774">
        <ele>590.6</ele>
        <time>1970-01-01T01:28:49.000Z</time>
      </trkpt>
      <trkpt lat="43.56552" lon="5.58768">
        <ele>590.8</ele>
        <time>1970-01-01T01:28:51.000Z</time>
      </trkpt>
      <trkpt lat="43.56553" lon="5.58763">
        <ele>590.9</ele>
        <time>1970-01-01T01:28:53.000Z</time>
      </trkpt>
      <trkpt lat="43.56556" lon="5.58759">
        <ele>591.1</ele>
        <time>1970-01-01T01:28:54.000Z</time>
      </trkpt>
      <trkpt lat="43.56557" lon="5.58757">
        <ele>591.1</ele>
        <time>1970-01-01T01:28:55.000Z</time>
      </trkpt>
      <trkpt lat="43.56562" lon="5.58754">
        <ele>591.4</ele>
        <time>1970-01-01T01:28:57.000Z</time>
      </trkpt>
      <trkpt lat="43.56565" lon="5.5875">
        <ele>591.5</ele>
        <time>1970-01-01T01:28:59.000Z</time>
      </trkpt>
      <trkpt lat="43.56567" lon="5.58747">
        <ele>591.6</ele>
        <time>1970-01-01T01:29:00.000Z</time>
      </trkpt>
      <trkpt lat="43.56569" lon="5.58744">
        <ele>591.8</ele>
        <time>1970-01-01T01:29:02.000Z</time>
      </trkpt>
      <trkpt lat="43.56571" lon="5.5874">
        <ele>591.9</ele>
        <time>1970-01-01T01:29:04.000Z</time>
      </trkpt>
      <trkpt lat="43.56573" lon="5.5874">
        <ele>592</ele>
        <time>1970-01-01T01:29:05.000Z</time>
      </trkpt>
      <trkpt lat="43.56574" lon="5.58738">
        <ele>592.1</ele>
        <time>1970-01-01T01:29:07.000Z</time>
      </trkpt>
      <trkpt lat="43.56576" lon="5.58736">
        <ele>592.2</ele>
        <time>1970-01-01T01:29:08.000Z</time>
      </trkpt>
      <trkpt lat="43.56578" lon="5.58733">
        <ele>592.3</ele>
        <time>1970-01-01T01:29:10.000Z</time>
      </trkpt>
      <trkpt lat="43.56582" lon="5.58727">
        <ele>592.5</ele>
        <time>1970-01-01T01:29:11.000Z</time>
      </trkpt>
      <trkpt lat="43.56585" lon="5.58724">
        <ele>592.6</ele>
        <time>1970-01-01T01:29:16.000Z</time>
      </trkpt>
      <trkpt lat="43.56587" lon="5.58721">
        <ele>592.6</ele>
        <time>1970-01-01T01:29:17.000Z</time>
      </trkpt>
      <trkpt lat="43.56591" lon="5.58712">
        <ele>592.9</ele>
        <time>1970-01-01T01:29:18.000Z</time>
      </trkpt>
      <trkpt lat="43.56593" lon="5.58708">
        <ele>593</ele>
        <time>1970-01-01T01:29:20.000Z</time>
      </trkpt>
      <trkpt lat="43.56597" lon="5.58703">
        <ele>593.2</ele>
        <time>1970-01-01T01:29:22.000Z</time>
      </trkpt>
      <trkpt lat="43.566" lon="5.587">
        <ele>593.4</ele>
        <time>1970-01-01T01:29:24.000Z</time>
      </trkpt>
      <trkpt lat="43.56602" lon="5.58699">
        <ele>593.5</ele>
        <time>1970-01-01T01:29:25.000Z</time>
      </trkpt>
      <trkpt lat="43.56605" lon="5.58696">
        <ele>593.6</ele>
        <time>1970-01-01T01:29:27.000Z</time>
      </trkpt>
      <trkpt lat="43.56606" lon="5.58695">
        <ele>593.7</ele>
        <time>1970-01-01T01:29:28.000Z</time>
      </trkpt>
      <trkpt lat="43.5661" lon="5.58694">
        <ele>593.8</ele>
        <time>1970-01-01T01:29:30.000Z</time>
      </trkpt>
      <trkpt lat="43.56615" lon="5.58693">
        <ele>594.1</ele>
        <time>1970-01-01T01:29:32.000Z</time>
      </trkpt>
      <trkpt lat="43.56617" lon="5.58692">
        <ele>594.2</ele>
        <time>1970-01-01T01:29:33.000Z</time>
      </trkpt>
      <trkpt lat="43.56618" lon="5.58692">
        <ele>594.2</ele>
        <time>1970-01-01T01:29:34.000Z</time>
      </trkpt>
      <trkpt lat="43.56621" lon="5.58689">
        <ele>594.4</ele>
        <time>1970-01-01T01:29:36.000Z</time>
      </trkpt>
      <trkpt lat="43.56622" lon="5.58688">
        <ele>594.4</ele>
        <time>1970-01-01T01:29:37.000Z</time>
      </trkpt>
      <trkpt lat="43.56624" lon="5.58686">
        <ele>594.6</ele>
        <time>1970-01-01T01:29:38.000Z</time>
      </trkpt>
      <trkpt lat="43.56627" lon="5.58683">
        <ele>594.8</ele>
        <time>1970-01-01T01:29:40.000Z</time>
      </trkpt>
      <trkpt lat="43.56629" lon="5.58682">
        <ele>594.9</ele>
        <time>1970-01-01T01:29:41.000Z</time>
      </trkpt>
      <trkpt lat="43.56634" lon="5.58679">
        <ele>595.2</ele>
        <time>1970-01-01T01:29:43.000Z</time>
      </trkpt>
      <trkpt lat="43.56635" lon="5.58678">
        <ele>595.3</ele>
        <time>1970-01-01T01:29:44.000Z</time>
      </trkpt>
      <trkpt lat="43.56637" lon="5.58677">
        <ele>595.4</ele>
        <time>1970-01-01T01:29:45.000Z</time>
      </trkpt>
      <trkpt lat="43.56639" lon="5.58676">
        <ele>595.5</ele>
        <time>1970-01-01T01:29:46.000Z</time>
      </trkpt>
      <trkpt lat="43.5664" lon="5.58676">
        <ele>595.6</ele>
        <time>1970-01-01T01:29:47.000Z</time>
      </trkpt>
      <trkpt lat="43.56641" lon="5.58676">
        <ele>595.7</ele>
        <time>1970-01-01T01:29:48.000Z</time>
      </trkpt>
      <trkpt lat="43.56644" lon="5.58674">
        <ele>595.9</ele>
        <time>1970-01-01T01:29:50.000Z</time>
      </trkpt>
      <trkpt lat="43.56649" lon="5.58671">
        <ele>596.2</ele>
        <time>1970-01-01T01:29:52.000Z</time>
      </trkpt>
      <trkpt lat="43.5665" lon="5.5867">
        <ele>596.3</ele>
        <time>1970-01-01T01:29:53.000Z</time>
      </trkpt>
      <trkpt lat="43.56654" lon="5.58667">
        <ele>596.6</ele>
        <time>1970-01-01T01:29:55.000Z</time>
      </trkpt>
      <trkpt lat="43.56663" lon="5.58665">
        <ele>597.2</ele>
        <time>1970-01-01T01:29:59.000Z</time>
      </trkpt>
      <trkpt lat="43.56666" lon="5.58663">
        <ele>597.3</ele>
        <time>1970-01-01T01:30:01.000Z</time>
      </trkpt>
      <trkpt lat="43.56668" lon="5.58661">
        <ele>597.5</ele>
        <time>1970-01-01T01:30:03.000Z</time>
      </trkpt>
      <trkpt lat="43.56671" lon="5.58659">
        <ele>597.7</ele>
        <time>1970-01-01T01:30:05.000Z</time>
      </trkpt>
      <trkpt lat="43.56673" lon="5.58659">
        <ele>597.8</ele>
        <time>1970-01-01T01:30:06.000Z</time>
      </trkpt>
      <trkpt lat="43.56677" lon="5.58657">
        <ele>598.1</ele>
        <time>1970-01-01T01:30:08.000Z</time>
      </trkpt>
      <trkpt lat="43.56678" lon="5.58655">
        <ele>598.2</ele>
        <time>1970-01-01T01:30:09.000Z</time>
      </trkpt>
      <trkpt lat="43.56681" lon="5.58652">
        <ele>598.4</ele>
        <time>1970-01-01T01:30:11.000Z</time>
      </trkpt>
      <trkpt lat="43.56684" lon="5.5865">
        <ele>598.2</ele>
        <time>1970-01-01T01:30:12.000Z</time>
      </trkpt>
      <trkpt lat="43.56685" lon="5.58649">
        <ele>598.2</ele>
        <time>1970-01-01T01:30:13.000Z</time>
      </trkpt>
      <trkpt lat="43.5669" lon="5.58645">
        <ele>598.3</ele>
        <time>1970-01-01T01:30:15.000Z</time>
      </trkpt>
      <trkpt lat="43.56692" lon="5.58643">
        <ele>598.3</ele>
        <time>1970-01-01T01:30:16.000Z</time>
      </trkpt>
      <trkpt lat="43.56694" lon="5.5864">
        <ele>598.1</ele>
        <time>1970-01-01T01:30:19.000Z</time>
      </trkpt>
      <trkpt lat="43.56766" lon="5.5857">
        <ele>602.3</ele>
      </trkpt>
      <trkpt lat="43.56864" lon="5.5848">
        <ele>594</ele>
      </trkpt>
      <trkpt lat="43.56975" lon="5.58474">
        <ele>612.8</ele>
      </trkpt>
      <trkpt lat="43.56992" lon="5.58432">
        <ele>621</ele>
        <time>2021-04-24T19:08:45.283Z</time>
      </trkpt>
      <trkpt lat="43.56992" lon="5.58432">
        <ele>621</ele>
        <time>2021-04-24T19:08:45.283Z</time>
      </trkpt>
      <trkpt lat="43.56991" lon="5.58428">
        <ele>621</ele>
        <time>2021-04-24T19:08:46.283Z</time>
      </trkpt>
      <trkpt lat="43.5699" lon="5.58424">
        <ele>621</ele>
        <time>2021-04-24T19:08:47.283Z</time>
      </trkpt>
      <trkpt lat="43.56989" lon="5.58419">
        <ele>621</ele>
        <time>2021-04-24T19:08:48.283Z</time>
      </trkpt>
      <trkpt lat="43.56988" lon="5.58415">
        <ele>621</ele>
        <time>2021-04-24T19:08:49.283Z</time>
      </trkpt>
      <trkpt lat="43.56986" lon="5.58411">
        <ele>621</ele>
        <time>2021-04-24T19:08:50.283Z</time>
      </trkpt>
      <trkpt lat="43.56984" lon="5.58406">
        <ele>620.6</ele>
        <time>2021-04-24T19:08:51.283Z</time>
      </trkpt>
      <trkpt lat="43.56981" lon="5.58402">
        <ele>620</ele>
        <time>2021-04-24T19:08:52.283Z</time>
      </trkpt>
      <trkpt lat="43.56979" lon="5.58399">
        <ele>620</ele>
        <time>2021-04-24T19:08:53.283Z</time>
      </trkpt>
      <trkpt lat="43.56977" lon="5.58395">
        <ele>619.8</ele>
        <time>2021-04-24T19:08:54.283Z</time>
      </trkpt>
      <trkpt lat="43.56976" lon="5.5839">
        <ele>619</ele>
        <time>2021-04-24T19:08:55.283Z</time>
      </trkpt>
      <trkpt lat="43.56975" lon="5.58385">
        <ele>619</ele>
        <time>2021-04-24T19:08:56.283Z</time>
      </trkpt>
      <trkpt lat="43.56974" lon="5.5838">
        <ele>619</ele>
        <time>2021-04-24T19:08:57.283Z</time>
      </trkpt>
      <trkpt lat="43.56972" lon="5.58375">
        <ele>618.2</ele>
        <time>2021-04-24T19:08:58.283Z</time>
      </trkpt>
      <trkpt lat="43.5697" lon="5.58369">
        <ele>618</ele>
        <time>2021-04-24T19:08:59.283Z</time>
      </trkpt>
      <trkpt lat="43.56968" lon="5.58363">
        <ele>618</ele>
        <time>2021-04-24T19:09:00.283Z</time>
      </trkpt>
      <trkpt lat="43.56966" lon="5.58357">
        <ele>617.4</ele>
        <time>2021-04-24T19:09:01.283Z</time>
      </trkpt>
      <trkpt lat="43.56965" lon="5.58351">
        <ele>617</ele>
        <time>2021-04-24T19:09:02.283Z</time>
      </trkpt>
      <trkpt lat="43.56964" lon="5.58345">
        <ele>617</ele>
        <time>2021-04-24T19:09:03.283Z</time>
      </trkpt>
      <trkpt lat="43.56964" lon="5.58339">
        <ele>616.6</ele>
        <time>2021-04-24T19:09:04.283Z</time>
      </trkpt>
      <trkpt lat="43.56964" lon="5.58333">
        <ele>616</ele>
        <time>2021-04-24T19:09:05.283Z</time>
      </trkpt>
      <trkpt lat="43.56964" lon="5.58327">
        <ele>615.8</ele>
        <time>2021-04-24T19:09:06.283Z</time>
      </trkpt>
      <trkpt lat="43.56963" lon="5.58321">
        <ele>615</ele>
        <time>2021-04-24T19:09:07.283Z</time>
      </trkpt>
      <trkpt lat="43.56962" lon="5.58316">
        <ele>615</ele>
        <time>2021-04-24T19:09:08.283Z</time>
      </trkpt>
      <trkpt lat="43.56962" lon="5.5831">
        <ele>614</ele>
        <time>2021-04-24T19:09:09.283Z</time>
      </trkpt>
      <trkpt lat="43.56961" lon="5.58304">
        <ele>614</ele>
        <time>2021-04-24T19:09:10.283Z</time>
      </trkpt>
      <trkpt lat="43.56961" lon="5.58298">
        <ele>614</ele>
        <time>2021-04-24T19:09:11.283Z</time>
      </trkpt>
      <trkpt lat="43.5696" lon="5.58292">
        <ele>613.2</ele>
        <time>2021-04-24T19:09:12.283Z</time>
      </trkpt>
      <trkpt lat="43.56959" lon="5.58287">
        <ele>613</ele>
        <time>2021-04-24T19:09:13.283Z</time>
      </trkpt>
      <trkpt lat="43.56957" lon="5.5828">
        <ele>612.4</ele>
        <time>2021-04-24T19:09:14.283Z</time>
      </trkpt>
      <trkpt lat="43.56956" lon="5.58273">
        <ele>612</ele>
        <time>2021-04-24T19:09:15.283Z</time>
      </trkpt>
      <trkpt lat="43.56955" lon="5.58267">
        <ele>612</ele>
        <time>2021-04-24T19:09:16.283Z</time>
      </trkpt>
      <trkpt lat="43.56954" lon="5.58262">
        <ele>611.6</ele>
        <time>2021-04-24T19:09:17.283Z</time>
      </trkpt>
      <trkpt lat="43.56953" lon="5.58256">
        <ele>611</ele>
        <time>2021-04-24T19:09:18.283Z</time>
      </trkpt>
      <trkpt lat="43.56953" lon="5.58251">
        <ele>611</ele>
        <time>2021-04-24T19:09:19.283Z</time>
      </trkpt>
      <trkpt lat="43.56953" lon="5.58246">
        <ele>611</ele>
        <time>2021-04-24T19:09:20.283Z</time>
      </trkpt>
      <trkpt lat="43.56953" lon="5.5824">
        <ele>611</ele>
        <time>2021-04-24T19:09:21.283Z</time>
      </trkpt>
      <trkpt lat="43.56953" lon="5.58235">
        <ele>610</ele>
        <time>2021-04-24T19:09:22.283Z</time>
      </trkpt>
      <trkpt lat="43.56953" lon="5.58229">
        <ele>610</ele>
        <time>2021-04-24T19:09:23.283Z</time>
      </trkpt>
      <trkpt lat="43.56951" lon="5.58224">
        <ele>609.2</ele>
        <time>2021-04-24T19:09:24.283Z</time>
      </trkpt>
      <trkpt lat="43.56949" lon="5.58219">
        <ele>609</ele>
        <time>2021-04-24T19:09:25.283Z</time>
      </trkpt>
      <trkpt lat="43.56947" lon="5.58214">
        <ele>608.4</ele>
        <time>2021-04-24T19:09:26.283Z</time>
      </trkpt>
      <trkpt lat="43.56944" lon="5.58211">
        <ele>607.6</ele>
        <time>2021-04-24T19:09:27.283Z</time>
      </trkpt>
      <trkpt lat="43.56941" lon="5.58207">
        <ele>607</ele>
        <time>2021-04-24T19:09:28.283Z</time>
      </trkpt>
      <trkpt lat="43.56938" lon="5.58204">
        <ele>606.6</ele>
        <time>2021-04-24T19:09:29.283Z</time>
      </trkpt>
      <trkpt lat="43.56934" lon="5.582">
        <ele>605.8</ele>
        <time>2021-04-24T19:09:30.283Z</time>
      </trkpt>
      <trkpt lat="43.56931" lon="5.58196">
        <ele>604.8</ele>
        <time>2021-04-24T19:09:31.283Z</time>
      </trkpt>
      <trkpt lat="43.56928" lon="5.58192">
        <ele>604</ele>
        <time>2021-04-24T19:09:32.283Z</time>
      </trkpt>
      <trkpt lat="43.56926" lon="5.58187">
        <ele>603</ele>
        <time>2021-04-24T19:09:33.283Z</time>
      </trkpt>
      <trkpt lat="43.56925" lon="5.58182">
        <ele>603</ele>
        <time>2021-04-24T19:09:34.283Z</time>
      </trkpt>
      <trkpt lat="43.56923" lon="5.58176">
        <ele>602.2</ele>
        <time>2021-04-24T19:09:35.283Z</time>
      </trkpt>
      <trkpt lat="43.56921" lon="5.5817">
        <ele>601.2</ele>
        <time>2021-04-24T19:09:36.283Z</time>
      </trkpt>
      <trkpt lat="43.56918" lon="5.58166">
        <ele>600.4</ele>
        <time>2021-04-24T19:09:37.283Z</time>
      </trkpt>
      <trkpt lat="43.56914" lon="5.58161">
        <ele>599.4</ele>
        <time>2021-04-24T19:09:38.283Z</time>
      </trkpt>
      <trkpt lat="43.5691" lon="5.58157">
        <ele>599</ele>
        <time>2021-04-24T19:09:39.283Z</time>
      </trkpt>
      <trkpt lat="43.56906" lon="5.58153">
        <ele>598.6</ele>
        <time>2021-04-24T19:09:40.283Z</time>
      </trkpt>
      <trkpt lat="43.56903" lon="5.58148">
        <ele>598</ele>
        <time>2021-04-24T19:09:41.283Z</time>
      </trkpt>
      <trkpt lat="43.569" lon="5.58142">
        <ele>597.8</ele>
        <time>2021-04-24T19:09:42.283Z</time>
      </trkpt>
      <trkpt lat="43.56899" lon="5.58136">
        <ele>597</ele>
        <time>2021-04-24T19:09:43.283Z</time>
      </trkpt>
      <trkpt lat="43.56898" lon="5.5813">
        <ele>597</ele>
        <time>2021-04-24T19:09:44.283Z</time>
      </trkpt>
      <trkpt lat="43.56897" lon="5.58125">
        <ele>596</ele>
        <time>2021-04-24T19:09:45.283Z</time>
      </trkpt>
      <trkpt lat="43.56896" lon="5.58119">
        <ele>595</ele>
        <time>2021-04-24T19:09:46.283Z</time>
      </trkpt>
      <trkpt lat="43.56895" lon="5.58114">
        <ele>594.2</ele>
        <time>2021-04-24T19:09:47.283Z</time>
      </trkpt>
      <trkpt lat="43.56896" lon="5.58109">
        <ele>594</ele>
        <time>2021-04-24T19:09:48.283Z</time>
      </trkpt>
      <trkpt lat="43.56897" lon="5.58104">
        <ele>593.4</ele>
        <time>2021-04-24T19:09:49.283Z</time>
      </trkpt>
      <trkpt lat="43.56897" lon="5.58099">
        <ele>592.4</ele>
        <time>2021-04-24T19:09:50.283Z</time>
      </trkpt>
      <trkpt lat="43.56896" lon="5.58094">
        <ele>591.4</ele>
        <time>2021-04-24T19:09:51.283Z</time>
      </trkpt>
      <trkpt lat="43.56896" lon="5.58089">
        <ele>591</ele>
        <time>2021-04-24T19:09:52.283Z</time>
      </trkpt>
      <trkpt lat="43.56895" lon="5.58083">
        <ele>590.6</ele>
        <time>2021-04-24T19:09:53.283Z</time>
      </trkpt>
      <trkpt lat="43.56895" lon="5.58077">
        <ele>589.8</ele>
        <time>2021-04-24T19:09:54.283Z</time>
      </trkpt>
      <trkpt lat="43.56895" lon="5.58071">
        <ele>588.8</ele>
        <time>2021-04-24T19:09:55.283Z</time>
      </trkpt>
      <trkpt lat="43.56895" lon="5.58064">
        <ele>588</ele>
        <time>2021-04-24T19:09:56.283Z</time>
      </trkpt>
      <trkpt lat="43.56895" lon="5.58059">
        <ele>588</ele>
        <time>2021-04-24T19:09:57.283Z</time>
      </trkpt>
      <trkpt lat="43.56896" lon="5.58053">
        <ele>587</ele>
        <time>2021-04-24T19:09:58.283Z</time>
      </trkpt>
      <trkpt lat="43.56897" lon="5.58047">
        <ele>586.2</ele>
        <time>2021-04-24T19:09:59.283Z</time>
      </trkpt>
      <trkpt lat="43.56898" lon="5.5804">
        <ele>585.2</ele>
        <time>2021-04-24T19:10:00.283Z</time>
      </trkpt>
      <trkpt lat="43.56899" lon="5.58035">
        <ele>584.4</ele>
        <time>2021-04-24T19:10:01.283Z</time>
      </trkpt>
      <trkpt lat="43.56901" lon="5.58029">
        <ele>583.4</ele>
        <time>2021-04-24T19:10:02.283Z</time>
      </trkpt>
      <trkpt lat="43.56903" lon="5.58025">
        <ele>582.4</ele>
        <time>2021-04-24T19:10:03.283Z</time>
      </trkpt>
      <trkpt lat="43.56905" lon="5.5802">
        <ele>582</ele>
        <time>2021-04-24T19:10:04.283Z</time>
      </trkpt>
      <trkpt lat="43.56906" lon="5.58015">
        <ele>581.6</ele>
        <time>2021-04-24T19:10:05.283Z</time>
      </trkpt>
      <trkpt lat="43.56906" lon="5.5801">
        <ele>580.8</ele>
        <time>2021-04-24T19:10:06.283Z</time>
      </trkpt>
      <trkpt lat="43.56905" lon="5.58005">
        <ele>579.8</ele>
        <time>2021-04-24T19:10:07.283Z</time>
      </trkpt>
      <trkpt lat="43.56905" lon="5.58001">
        <ele>579</ele>
        <time>2021-04-24T19:10:08.283Z</time>
      </trkpt>
      <trkpt lat="43.56906" lon="5.57996">
        <ele>578</ele>
        <time>2021-04-24T19:10:09.283Z</time>
      </trkpt>
      <trkpt lat="43.56907" lon="5.57991">
        <ele>578</ele>
        <time>2021-04-24T19:10:10.283Z</time>
      </trkpt>
      <trkpt lat="43.56909" lon="5.57986">
        <ele>577.2</ele>
        <time>2021-04-24T19:10:11.283Z</time>
      </trkpt>
      <trkpt lat="43.56911" lon="5.57981">
        <ele>576.2</ele>
        <time>2021-04-24T19:10:12.283Z</time>
      </trkpt>
      <trkpt lat="43.56912" lon="5.57976">
        <ele>575.4</ele>
        <time>2021-04-24T19:10:13.283Z</time>
      </trkpt>
      <trkpt lat="43.56913" lon="5.57969">
        <ele>574.4</ele>
        <time>2021-04-24T19:10:14.283Z</time>
      </trkpt>
      <trkpt lat="43.56914" lon="5.57963">
        <ele>573.4</ele>
        <time>2021-04-24T19:10:15.283Z</time>
      </trkpt>
      <trkpt lat="43.56915" lon="5.57957">
        <ele>572.6</ele>
        <time>2021-04-24T19:10:16.283Z</time>
      </trkpt>
      <trkpt lat="43.56915" lon="5.57951">
        <ele>571.6</ele>
        <time>2021-04-24T19:10:17.283Z</time>
      </trkpt>
      <trkpt lat="43.56916" lon="5.57944">
        <ele>571</ele>
        <time>2021-04-24T19:10:18.283Z</time>
      </trkpt>
      <trkpt lat="43.56917" lon="5.57938">
        <ele>570.8</ele>
        <time>2021-04-24T19:10:19.283Z</time>
      </trkpt>
      <trkpt lat="43.56919" lon="5.57933">
        <ele>570</ele>
        <time>2021-04-24T19:10:20.283Z</time>
      </trkpt>
      <trkpt lat="43.56921" lon="5.57929">
        <ele>569</ele>
        <time>2021-04-24T19:10:21.283Z</time>
      </trkpt>
      <trkpt lat="43.56923" lon="5.57925">
        <ele>568</ele>
        <time>2021-04-24T19:10:22.283Z</time>
      </trkpt>
      <trkpt lat="43.56925" lon="5.5792">
        <ele>567.2</ele>
        <time>2021-04-24T19:10:23.283Z</time>
      </trkpt>
      <trkpt lat="43.56926" lon="5.57916">
        <ele>567</ele>
        <time>2021-04-24T19:10:24.283Z</time>
      </trkpt>
      <trkpt lat="43.56927" lon="5.57912">
        <ele>566.4</ele>
        <time>2021-04-24T19:10:25.283Z</time>
      </trkpt>
      <trkpt lat="43.56928" lon="5.57908">
        <ele>565.4</ele>
        <time>2021-04-24T19:10:26.283Z</time>
      </trkpt>
      <trkpt lat="43.5693" lon="5.57904">
        <ele>565</ele>
        <time>2021-04-24T19:10:27.283Z</time>
      </trkpt>
      <trkpt lat="43.56931" lon="5.579">
        <ele>564.6</ele>
        <time>2021-04-24T19:10:28.283Z</time>
      </trkpt>
      <trkpt lat="43.56932" lon="5.57896">
        <ele>563.6</ele>
        <time>2021-04-24T19:10:29.283Z</time>
      </trkpt>
      <trkpt lat="43.56933" lon="5.57892">
        <ele>563</ele>
        <time>2021-04-24T19:10:30.283Z</time>
      </trkpt>
      <trkpt lat="43.56932" lon="5.57887">
        <ele>562.8</ele>
        <time>2021-04-24T19:10:31.283Z</time>
      </trkpt>
      <trkpt lat="43.56932" lon="5.57883">
        <ele>561.8</ele>
        <time>2021-04-24T19:10:32.283Z</time>
      </trkpt>
      <trkpt lat="43.56933" lon="5.57879">
        <ele>561</ele>
        <time>2021-04-24T19:10:33.283Z</time>
      </trkpt>
      <trkpt lat="43.56933" lon="5.57876">
        <ele>561</ele>
        <time>2021-04-24T19:10:34.283Z</time>
      </trkpt>
      <trkpt lat="43.56932" lon="5.57872">
        <ele>560.2</ele>
        <time>2021-04-24T19:10:35.283Z</time>
      </trkpt>
      <trkpt lat="43.5693" lon="5.57867">
        <ele>559.2</ele>
        <time>2021-04-24T19:10:36.283Z</time>
      </trkpt>
      <trkpt lat="43.56929" lon="5.57861">
        <ele>558.4</ele>
        <time>2021-04-24T19:10:37.283Z</time>
      </trkpt>
      <trkpt lat="43.56927" lon="5.57856">
        <ele>558</ele>
        <time>2021-04-24T19:10:38.283Z</time>
      </trkpt>
      <trkpt lat="43.56926" lon="5.5785">
        <ele>557.4</ele>
        <time>2021-04-24T19:10:39.283Z</time>
      </trkpt>
      <trkpt lat="43.56925" lon="5.57844">
        <ele>556.6</ele>
        <time>2021-04-24T19:10:40.283Z</time>
      </trkpt>
      <trkpt lat="43.56924" lon="5.57839">
        <ele>555.6</ele>
        <time>2021-04-24T19:10:41.283Z</time>
      </trkpt>
      <trkpt lat="43.56923" lon="5.57835">
        <ele>554.8</ele>
        <time>2021-04-24T19:10:42.283Z</time>
      </trkpt>
      <trkpt lat="43.56922" lon="5.5783">
        <ele>554</ele>
        <time>2021-04-24T19:10:43.283Z</time>
      </trkpt>
      <trkpt lat="43.56922" lon="5.57824">
        <ele>553.8</ele>
        <time>2021-04-24T19:10:44.283Z</time>
      </trkpt>
      <trkpt lat="43.56921" lon="5.57819">
        <ele>553</ele>
        <time>2021-04-24T19:10:45.283Z</time>
      </trkpt>
      <trkpt lat="43.56919" lon="5.57813">
        <ele>552</ele>
        <time>2021-04-24T19:10:46.283Z</time>
      </trkpt>
      <trkpt lat="43.56917" lon="5.57809">
        <ele>551.2</ele>
        <time>2021-04-24T19:10:47.283Z</time>
      </trkpt>
      <trkpt lat="43.56915" lon="5.57804">
        <ele>550.2</ele>
        <time>2021-04-24T19:10:48.283Z</time>
      </trkpt>
      <trkpt lat="43.56913" lon="5.578">
        <ele>549.2</ele>
        <time>2021-04-24T19:10:49.283Z</time>
      </trkpt>
      <trkpt lat="43.56912" lon="5.57794">
        <ele>548.4</ele>
        <time>2021-04-24T19:10:50.283Z</time>
      </trkpt>
      <trkpt lat="43.5691" lon="5.57788">
        <ele>547.4</ele>
        <time>2021-04-24T19:10:51.283Z</time>
      </trkpt>
      <trkpt lat="43.56908" lon="5.57782">
        <ele>546.6</ele>
        <time>2021-04-24T19:10:52.283Z</time>
      </trkpt>
      <trkpt lat="43.56907" lon="5.57776">
        <ele>545.6</ele>
        <time>2021-04-24T19:10:53.283Z</time>
      </trkpt>
      <trkpt lat="43.56905" lon="5.5777">
        <ele>544.8</ele>
        <time>2021-04-24T19:10:54.283Z</time>
      </trkpt>
      <trkpt lat="43.56904" lon="5.57764">
        <ele>543.8</ele>
        <time>2021-04-24T19:10:55.283Z</time>
      </trkpt>
      <trkpt lat="43.56903" lon="5.57759">
        <ele>542.8</ele>
        <time>2021-04-24T19:10:56.283Z</time>
      </trkpt>
      <trkpt lat="43.56902" lon="5.57753">
        <ele>542</ele>
        <time>2021-04-24T19:10:57.283Z</time>
      </trkpt>
      <trkpt lat="43.56901" lon="5.57746">
        <ele>542</ele>
        <time>2021-04-24T19:10:58.283Z</time>
      </trkpt>
      <trkpt lat="43.56902" lon="5.5774">
        <ele>541.2</ele>
        <time>2021-04-24T19:10:59.283Z</time>
      </trkpt>
      <trkpt lat="43.56902" lon="5.57733">
        <ele>540.2</ele>
        <time>2021-04-24T19:11:00.283Z</time>
      </trkpt>
      <trkpt lat="43.56901" lon="5.57727">
        <ele>539.4</ele>
        <time>2021-04-24T19:11:01.283Z</time>
      </trkpt>
      <trkpt lat="43.569" lon="5.5772">
        <ele>538.4</ele>
        <time>2021-04-24T19:11:02.283Z</time>
      </trkpt>
      <trkpt lat="43.569" lon="5.57714">
        <ele>537.4</ele>
        <time>2021-04-24T19:11:03.283Z</time>
      </trkpt>
      <trkpt lat="43.569" lon="5.57709">
        <ele>536.6</ele>
        <time>2021-04-24T19:11:04.283Z</time>
      </trkpt>
      <trkpt lat="43.569" lon="5.57704">
        <ele>535.6</ele>
        <time>2021-04-24T19:11:05.283Z</time>
      </trkpt>
      <trkpt lat="43.569" lon="5.57699">
        <ele>534.8</ele>
        <time>2021-04-24T19:11:06.283Z</time>
      </trkpt>
      <trkpt lat="43.56901" lon="5.57694">
        <ele>533.8</ele>
        <time>2021-04-24T19:11:07.283Z</time>
      </trkpt>
      <trkpt lat="43.56904" lon="5.57689">
        <ele>533</ele>
        <time>2021-04-24T19:11:08.283Z</time>
      </trkpt>
      <trkpt lat="43.56905" lon="5.57684">
        <ele>533</ele>
        <time>2021-04-24T19:11:09.283Z</time>
      </trkpt>
      <trkpt lat="43.56906" lon="5.57679">
        <ele>532</ele>
        <time>2021-04-24T19:11:10.283Z</time>
      </trkpt>
      <trkpt lat="43.56907" lon="5.57676">
        <ele>531.2</ele>
        <time>2021-04-24T19:11:11.283Z</time>
      </trkpt>
      <trkpt lat="43.5691" lon="5.57674">
        <ele>530.2</ele>
        <time>2021-04-24T19:11:12.283Z</time>
      </trkpt>
      <trkpt lat="43.56913" lon="5.57673">
        <ele>530</ele>
        <time>2021-04-24T19:11:13.283Z</time>
      </trkpt>
      <trkpt lat="43.56916" lon="5.57671">
        <ele>529.4</ele>
        <time>2021-04-24T19:11:14.283Z</time>
      </trkpt>
      <trkpt lat="43.56918" lon="5.57667">
        <ele>528.4</ele>
        <time>2021-04-24T19:11:15.283Z</time>
      </trkpt>
      <trkpt lat="43.5692" lon="5.57663">
        <ele>528</ele>
        <time>2021-04-24T19:11:16.283Z</time>
      </trkpt>
      <trkpt lat="43.56923" lon="5.57658">
        <ele>527.6</ele>
        <time>2021-04-24T19:11:17.283Z</time>
      </trkpt>
      <trkpt lat="43.56924" lon="5.57653">
        <ele>526.8</ele>
        <time>2021-04-24T19:11:18.283Z</time>
      </trkpt>
      <trkpt lat="43.56926" lon="5.57648">
        <ele>526</ele>
        <time>2021-04-24T19:11:19.283Z</time>
      </trkpt>
      <trkpt lat="43.56929" lon="5.57645">
        <ele>525.8</ele>
        <time>2021-04-24T19:11:20.283Z</time>
      </trkpt>
      <trkpt lat="43.56932" lon="5.57643">
        <ele>525</ele>
        <time>2021-04-24T19:11:21.283Z</time>
      </trkpt>
      <trkpt lat="43.56936" lon="5.5764">
        <ele>524</ele>
        <time>2021-04-24T19:11:22.283Z</time>
      </trkpt>
      <trkpt lat="43.56941" lon="5.57636">
        <ele>524</ele>
        <time>2021-04-24T19:11:23.283Z</time>
      </trkpt>
      <trkpt lat="43.56945" lon="5.57633">
        <ele>523.2</ele>
        <time>2021-04-24T19:11:24.283Z</time>
      </trkpt>
      <trkpt lat="43.56948" lon="5.57629">
        <ele>522.2</ele>
        <time>2021-04-24T19:11:25.283Z</time>
      </trkpt>
      <trkpt lat="43.56952" lon="5.57624">
        <ele>522</ele>
        <time>2021-04-24T19:11:26.283Z</time>
      </trkpt>
      <trkpt lat="43.56956" lon="5.57618">
        <ele>521.4</ele>
        <time>2021-04-24T19:11:27.283Z</time>
      </trkpt>
      <trkpt lat="43.5696" lon="5.57613">
        <ele>520.6</ele>
        <time>2021-04-24T19:11:28.283Z</time>
      </trkpt>
      <trkpt lat="43.56964" lon="5.57607">
        <ele>520</ele>
        <time>2021-04-24T19:11:29.283Z</time>
      </trkpt>
      <trkpt lat="43.56968" lon="5.57601">
        <ele>519.8</ele>
        <time>2021-04-24T19:11:30.283Z</time>
      </trkpt>
      <trkpt lat="43.56973" lon="5.57595">
        <ele>518.8</ele>
        <time>2021-04-24T19:11:31.283Z</time>
      </trkpt>
      <trkpt lat="43.56977" lon="5.5759">
        <ele>518</ele>
        <time>2021-04-24T19:11:32.283Z</time>
      </trkpt>
      <trkpt lat="43.56981" lon="5.57586">
        <ele>518</ele>
        <time>2021-04-24T19:11:33.283Z</time>
      </trkpt>
      <trkpt lat="43.56985" lon="5.57581">
        <ele>517</ele>
        <time>2021-04-24T19:11:34.283Z</time>
      </trkpt>
      <trkpt lat="43.56987" lon="5.57576">
        <ele>517</ele>
        <time>2021-04-24T19:11:35.283Z</time>
      </trkpt>
      <trkpt lat="43.56989" lon="5.5757">
        <ele>516.2</ele>
        <time>2021-04-24T19:11:36.283Z</time>
      </trkpt>
      <trkpt lat="43.56992" lon="5.57564">
        <ele>516</ele>
        <time>2021-04-24T19:11:37.283Z</time>
      </trkpt>
      <trkpt lat="43.56995" lon="5.57559">
        <ele>516</ele>
        <time>2021-04-24T19:11:38.283Z</time>
      </trkpt>
      <trkpt lat="43.56999" lon="5.57553">
        <ele>515.4</ele>
        <time>2021-04-24T19:11:39.283Z</time>
      </trkpt>
      <trkpt lat="43.57002" lon="5.57547">
        <ele>515</ele>
        <time>2021-04-24T19:11:40.283Z</time>
      </trkpt>
      <trkpt lat="43.57005" lon="5.57541">
        <ele>514.6</ele>
        <time>2021-04-24T19:11:41.283Z</time>
      </trkpt>
      <trkpt lat="43.57008" lon="5.57535">
        <ele>514</ele>
        <time>2021-04-24T19:11:42.283Z</time>
      </trkpt>
      <trkpt lat="43.57012" lon="5.57529">
        <ele>513.8</ele>
        <time>2021-04-24T19:11:43.283Z</time>
      </trkpt>
      <trkpt lat="43.57015" lon="5.57522">
        <ele>513</ele>
        <time>2021-04-24T19:11:44.283Z</time>
      </trkpt>
      <trkpt lat="43.57019" lon="5.57517">
        <ele>513</ele>
        <time>2021-04-24T19:11:45.283Z</time>
      </trkpt>
      <trkpt lat="43.57023" lon="5.57511">
        <ele>512</ele>
        <time>2021-04-24T19:11:46.283Z</time>
      </trkpt>
      <trkpt lat="43.57027" lon="5.57506">
        <ele>512</ele>
        <time>2021-04-24T19:11:47.283Z</time>
      </trkpt>
      <trkpt lat="43.57032" lon="5.57502">
        <ele>511.2</ele>
        <time>2021-04-24T19:11:48.283Z</time>
      </trkpt>
      <trkpt lat="43.57034" lon="5.57498">
        <ele>511</ele>
        <time>2021-04-24T19:11:49.283Z</time>
      </trkpt>
      <trkpt lat="43.57035" lon="5.57495">
        <ele>511</ele>
        <time>2021-04-24T19:11:50.283Z</time>
      </trkpt>
      <trkpt lat="43.57035" lon="5.57492">
        <ele>510.4</ele>
        <time>2021-04-24T19:11:51.283Z</time>
      </trkpt>
      <trkpt lat="43.57036" lon="5.57489">
        <ele>510</ele>
        <time>2021-04-24T19:11:52.283Z</time>
      </trkpt>
      <trkpt lat="43.57036" lon="5.57485">
        <ele>510</ele>
        <time>2021-04-24T19:11:53.283Z</time>
      </trkpt>
      <trkpt lat="43.57037" lon="5.57481">
        <ele>509.8</ele>
        <time>2021-04-24T19:11:54.283Z</time>
      </trkpt>
      <trkpt lat="43.57039" lon="5.57476">
        <ele>509</ele>
        <time>2021-04-24T19:11:55.283Z</time>
      </trkpt>
      <trkpt lat="43.5704" lon="5.57473">
        <ele>509</ele>
        <time>2021-04-24T19:11:56.283Z</time>
      </trkpt>
      <trkpt lat="43.57041" lon="5.5747">
        <ele>509</ele>
        <time>2021-04-24T19:11:57.283Z</time>
      </trkpt>
      <trkpt lat="43.57043" lon="5.57467">
        <ele>508</ele>
        <time>2021-04-24T19:11:58.283Z</time>
      </trkpt>
      <trkpt lat="43.57045" lon="5.57464">
        <ele>508</ele>
        <time>2021-04-24T19:11:59.283Z</time>
      </trkpt>
      <trkpt lat="43.57047" lon="5.57462">
        <ele>508</ele>
        <time>2021-04-24T19:12:00.283Z</time>
      </trkpt>
      <trkpt lat="43.57048" lon="5.5746">
        <ele>507.4</ele>
        <time>2021-04-24T19:12:01.283Z</time>
      </trkpt>
      <trkpt lat="43.5705" lon="5.57457">
        <ele>507</ele>
        <time>2021-04-24T19:12:02.283Z</time>
      </trkpt>
      <trkpt lat="43.57051" lon="5.57454">
        <ele>507</ele>
        <time>2021-04-24T19:12:03.283Z</time>
      </trkpt>
      <trkpt lat="43.57053" lon="5.5745">
        <ele>507</ele>
        <time>2021-04-24T19:12:04.283Z</time>
      </trkpt>
      <trkpt lat="43.57054" lon="5.57446">
        <ele>506.6</ele>
        <time>2021-04-24T19:12:05.283Z</time>
      </trkpt>
      <trkpt lat="43.57055" lon="5.57441">
        <ele>506</ele>
        <time>2021-04-24T19:12:06.283Z</time>
      </trkpt>
      <trkpt lat="43.57055" lon="5.57438">
        <ele>506</ele>
        <time>2021-04-24T19:12:07.283Z</time>
      </trkpt>
      <trkpt lat="43.57056" lon="5.57435">
        <ele>506</ele>
        <time>2021-04-24T19:12:08.283Z</time>
      </trkpt>
      <trkpt lat="43.57056" lon="5.57432">
        <ele>506</ele>
        <time>2021-04-24T19:12:09.283Z</time>
      </trkpt>
      <trkpt lat="43.57057" lon="5.57429">
        <ele>506</ele>
        <time>2021-04-24T19:12:10.283Z</time>
      </trkpt>
      <trkpt lat="43.57058" lon="5.57425">
        <ele>505.2</ele>
        <time>2021-04-24T19:12:11.283Z</time>
      </trkpt>
      <trkpt lat="43.57059" lon="5.5742">
        <ele>505</ele>
        <time>2021-04-24T19:12:12.283Z</time>
      </trkpt>
      <trkpt lat="43.5706" lon="5.57415">
        <ele>505</ele>
        <time>2021-04-24T19:12:13.283Z</time>
      </trkpt>
      <trkpt lat="43.57062" lon="5.57409">
        <ele>504.4</ele>
        <time>2021-04-24T19:12:14.283Z</time>
      </trkpt>
      <trkpt lat="43.57064" lon="5.57403">
        <ele>504</ele>
        <time>2021-04-24T19:12:15.283Z</time>
      </trkpt>
      <trkpt lat="43.57066" lon="5.57397">
        <ele>504</ele>
        <time>2021-04-24T19:12:16.283Z</time>
      </trkpt>
      <trkpt lat="43.57067" lon="5.57392">
        <ele>504</ele>
        <time>2021-04-24T19:12:17.283Z</time>
      </trkpt>
      <trkpt lat="43.57069" lon="5.57387">
        <ele>503.6</ele>
        <time>2021-04-24T19:12:18.283Z</time>
      </trkpt>
      <trkpt lat="43.57071" lon="5.57381">
        <ele>503</ele>
        <time>2021-04-24T19:12:19.283Z</time>
      </trkpt>
      <trkpt lat="43.57071" lon="5.57376">
        <ele>503</ele>
        <time>2021-04-24T19:12:20.283Z</time>
      </trkpt>
      <trkpt lat="43.5707" lon="5.57371">
        <ele>503</ele>
        <time>2021-04-24T19:12:21.283Z</time>
      </trkpt>
      <trkpt lat="43.5707" lon="5.57366">
        <ele>503</ele>
        <time>2021-04-24T19:12:22.283Z</time>
      </trkpt>
      <trkpt lat="43.57069" lon="5.57361">
        <ele>503</ele>
        <time>2021-04-24T19:12:23.283Z</time>
      </trkpt>
      <trkpt lat="43.57069" lon="5.57356">
        <ele>502.2</ele>
        <time>2021-04-24T19:12:24.283Z</time>
      </trkpt>
      <trkpt lat="43.5707" lon="5.57351">
        <ele>502</ele>
        <time>2021-04-24T19:12:25.283Z</time>
      </trkpt>
      <trkpt lat="43.57072" lon="5.57347">
        <ele>502</ele>
        <time>2021-04-24T19:12:26.283Z</time>
      </trkpt>
      <trkpt lat="43.57073" lon="5.57343">
        <ele>502</ele>
        <time>2021-04-24T19:12:27.283Z</time>
      </trkpt>
      <trkpt lat="43.57076" lon="5.57339">
        <ele>502</ele>
        <time>2021-04-24T19:12:28.283Z</time>
      </trkpt>
      <trkpt lat="43.57078" lon="5.57336">
        <ele>502</ele>
        <time>2021-04-24T19:12:29.283Z</time>
      </trkpt>
      <trkpt lat="43.5708" lon="5.57331">
        <ele>501.6</ele>
        <time>2021-04-24T19:12:30.283Z</time>
      </trkpt>
      <trkpt lat="43.57082" lon="5.57327">
        <ele>501</ele>
        <time>2021-04-24T19:12:31.283Z</time>
      </trkpt>
      <trkpt lat="43.57084" lon="5.57322">
        <ele>501</ele>
        <time>2021-04-24T19:12:32.283Z</time>
      </trkpt>
      <trkpt lat="43.57086" lon="5.57318">
        <ele>501</ele>
        <time>2021-04-24T19:12:33.283Z</time>
      </trkpt>
      <trkpt lat="43.57088" lon="5.57314">
        <ele>501</ele>
        <time>2021-04-24T19:12:34.283Z</time>
      </trkpt>
      <trkpt lat="43.57091" lon="5.57311">
        <ele>501</ele>
        <time>2021-04-24T19:12:35.283Z</time>
      </trkpt>
      <trkpt lat="43.57093" lon="5.57308">
        <ele>500.2</ele>
        <time>2021-04-24T19:12:36.283Z</time>
      </trkpt>
      <trkpt lat="43.57095" lon="5.57305">
        <ele>500</ele>
        <time>2021-04-24T19:12:37.283Z</time>
      </trkpt>
      <trkpt lat="43.57097" lon="5.57302">
        <ele>500</ele>
        <time>2021-04-24T19:12:38.283Z</time>
      </trkpt>
      <trkpt lat="43.57099" lon="5.57299">
        <ele>500</ele>
        <time>2021-04-24T19:12:39.283Z</time>
      </trkpt>
      <trkpt lat="43.57101" lon="5.57296">
        <ele>500</ele>
        <time>2021-04-24T19:12:40.283Z</time>
      </trkpt>
      <trkpt lat="43.57103" lon="5.57293">
        <ele>499.6</ele>
        <time>2021-04-24T19:12:41.283Z</time>
      </trkpt>
      <trkpt lat="43.57105" lon="5.5729">
        <ele>499</ele>
        <time>2021-04-24T19:12:42.283Z</time>
      </trkpt>
      <trkpt lat="43.57107" lon="5.57287">
        <ele>499</ele>
        <time>2021-04-24T19:12:43.283Z</time>
      </trkpt>
      <trkpt lat="43.57109" lon="5.57284">
        <ele>499</ele>
        <time>2021-04-24T19:12:44.283Z</time>
      </trkpt>
      <trkpt lat="43.57112" lon="5.57281">
        <ele>499</ele>
        <time>2021-04-24T19:12:45.283Z</time>
      </trkpt>
      <trkpt lat="43.57113" lon="5.57278">
        <ele>498</ele>
        <time>2021-04-24T19:12:46.283Z</time>
      </trkpt>
      <trkpt lat="43.57115" lon="5.57276">
        <ele>498</ele>
        <time>2021-04-24T19:12:47.283Z</time>
      </trkpt>
      <trkpt lat="43.57116" lon="5.57273">
        <ele>498</ele>
        <time>2021-04-24T19:12:48.283Z</time>
      </trkpt>
      <trkpt lat="43.57117" lon="5.57269">
        <ele>498</ele>
        <time>2021-04-24T19:12:49.283Z</time>
      </trkpt>
      <trkpt lat="43.57119" lon="5.57266">
        <ele>498</ele>
        <time>2021-04-24T19:12:50.283Z</time>
      </trkpt>
      <trkpt lat="43.5712" lon="5.57264">
        <ele>498</ele>
        <time>2021-04-24T19:12:51.283Z</time>
      </trkpt>
      <trkpt lat="43.57121" lon="5.57262">
        <ele>497.4</ele>
        <time>2021-04-24T19:12:52.283Z</time>
      </trkpt>
      <trkpt lat="43.57121" lon="5.57259">
        <ele>497</ele>
        <time>2021-04-24T19:12:53.283Z</time>
      </trkpt>
      <trkpt lat="43.57122" lon="5.57255">
        <ele>497</ele>
        <time>2021-04-24T19:12:54.283Z</time>
      </trkpt>
      <trkpt lat="43.57122" lon="5.57251">
        <ele>497</ele>
        <time>2021-04-24T19:12:55.283Z</time>
      </trkpt>
      <trkpt lat="43.57124" lon="5.57247">
        <ele>497</ele>
        <time>2021-04-24T19:12:56.283Z</time>
      </trkpt>
      <trkpt lat="43.57126" lon="5.57243">
        <ele>496.8</ele>
        <time>2021-04-24T19:12:57.283Z</time>
      </trkpt>
      <trkpt lat="43.57128" lon="5.57241">
        <ele>496</ele>
        <time>2021-04-24T19:12:58.283Z</time>
      </trkpt>
      <trkpt lat="43.57131" lon="5.5724">
        <ele>496</ele>
        <time>2021-04-24T19:12:59.283Z</time>
      </trkpt>
      <trkpt lat="43.57134" lon="5.57238">
        <ele>496</ele>
        <time>2021-04-24T19:13:00.283Z</time>
      </trkpt>
      <trkpt lat="43.57136" lon="5.57235">
        <ele>496</ele>
        <time>2021-04-24T19:13:01.283Z</time>
      </trkpt>
      <trkpt lat="43.57139" lon="5.57232">
        <ele>496</ele>
        <time>2021-04-24T19:13:02.283Z</time>
      </trkpt>
      <trkpt lat="43.57141" lon="5.57229">
        <ele>496</ele>
        <time>2021-04-24T19:13:03.283Z</time>
      </trkpt>
      <trkpt lat="43.57144" lon="5.57225">
        <ele>496</ele>
        <time>2021-04-24T19:13:04.283Z</time>
      </trkpt>
      <trkpt lat="43.57146" lon="5.57221">
        <ele>496</ele>
        <time>2021-04-24T19:13:05.283Z</time>
      </trkpt>
      <trkpt lat="43.57149" lon="5.57217">
        <ele>496</ele>
        <time>2021-04-24T19:13:06.283Z</time>
      </trkpt>
      <trkpt lat="43.57151" lon="5.57213">
        <ele>495.8</ele>
        <time>2021-04-24T19:13:07.283Z</time>
      </trkpt>
      <trkpt lat="43.57154" lon="5.57209">
        <ele>495</ele>
        <time>2021-04-24T19:13:08.283Z</time>
      </trkpt>
      <trkpt lat="43.57157" lon="5.57205">
        <ele>495</ele>
        <time>2021-04-24T19:13:09.283Z</time>
      </trkpt>
      <trkpt lat="43.57159" lon="5.57202">
        <ele>495</ele>
        <time>2021-04-24T19:13:10.283Z</time>
      </trkpt>
      <trkpt lat="43.57161" lon="5.57198">
        <ele>495</ele>
        <time>2021-04-24T19:13:11.283Z</time>
      </trkpt>
      <trkpt lat="43.57163" lon="5.57193">
        <ele>494.2</ele>
        <time>2021-04-24T19:13:12.283Z</time>
      </trkpt>
      <trkpt lat="43.57165" lon="5.57189">
        <ele>494</ele>
        <time>2021-04-24T19:13:13.283Z</time>
      </trkpt>
      <trkpt lat="43.57168" lon="5.57185">
        <ele>494</ele>
        <time>2021-04-24T19:13:14.283Z</time>
      </trkpt>
      <trkpt lat="43.5717" lon="5.5718">
        <ele>494</ele>
        <time>2021-04-24T19:13:15.283Z</time>
      </trkpt>
      <trkpt lat="43.57173" lon="5.57176">
        <ele>493.4</ele>
        <time>2021-04-24T19:13:16.283Z</time>
      </trkpt>
      <trkpt lat="43.57175" lon="5.57173">
        <ele>493</ele>
        <time>2021-04-24T19:13:17.283Z</time>
      </trkpt>
      <trkpt lat="43.57177" lon="5.57169">
        <ele>493</ele>
        <time>2021-04-24T19:13:18.283Z</time>
      </trkpt>
      <trkpt lat="43.57179" lon="5.57166">
        <ele>493</ele>
        <time>2021-04-24T19:13:19.283Z</time>
      </trkpt>
      <trkpt lat="43.57181" lon="5.57163">
        <ele>493</ele>
        <time>2021-04-24T19:13:20.283Z</time>
      </trkpt>
      <trkpt lat="43.57183" lon="5.57161">
        <ele>493</ele>
        <time>2021-04-24T19:13:21.283Z</time>
      </trkpt>
      <trkpt lat="43.57186" lon="5.57159">
        <ele>493</ele>
        <time>2021-04-24T19:13:22.283Z</time>
      </trkpt>
      <trkpt lat="43.57189" lon="5.57156">
        <ele>493</ele>
        <time>2021-04-24T19:13:23.283Z</time>
      </trkpt>
      <trkpt lat="43.57191" lon="5.57153">
        <ele>492.2</ele>
        <time>2021-04-24T19:13:24.283Z</time>
      </trkpt>
      <trkpt lat="43.57194" lon="5.5715">
        <ele>492</ele>
        <time>2021-04-24T19:13:25.283Z</time>
      </trkpt>
      <trkpt lat="43.57197" lon="5.57147">
        <ele>492</ele>
        <time>2021-04-24T19:13:26.283Z</time>
      </trkpt>
      <trkpt lat="43.57199" lon="5.57144">
        <ele>492</ele>
        <time>2021-04-24T19:13:27.283Z</time>
      </trkpt>
      <trkpt lat="43.57202" lon="5.57143">
        <ele>492</ele>
        <time>2021-04-24T19:13:28.283Z</time>
      </trkpt>
      <trkpt lat="43.57205" lon="5.57141">
        <ele>492</ele>
        <time>2021-04-24T19:13:29.283Z</time>
      </trkpt>
      <trkpt lat="43.57208" lon="5.57139">
        <ele>491.6</ele>
        <time>2021-04-24T19:13:30.283Z</time>
      </trkpt>
      <trkpt lat="43.5721" lon="5.57137">
        <ele>491</ele>
        <time>2021-04-24T19:13:31.283Z</time>
      </trkpt>
      <trkpt lat="43.57213" lon="5.57136">
        <ele>491</ele>
        <time>2021-04-24T19:13:32.283Z</time>
      </trkpt>
      <trkpt lat="43.57216" lon="5.57134">
        <ele>491</ele>
        <time>2021-04-24T19:13:33.283Z</time>
      </trkpt>
      <trkpt lat="43.57218" lon="5.57132">
        <ele>491</ele>
        <time>2021-04-24T19:13:34.283Z</time>
      </trkpt>
      <trkpt lat="43.5722" lon="5.57128">
        <ele>491</ele>
        <time>2021-04-24T19:13:35.283Z</time>
      </trkpt>
      <trkpt lat="43.57221" lon="5.57125">
        <ele>490.2</ele>
        <time>2021-04-24T19:13:36.283Z</time>
      </trkpt>
      <trkpt lat="43.57224" lon="5.57122">
        <ele>490</ele>
        <time>2021-04-24T19:13:37.283Z</time>
      </trkpt>
      <trkpt lat="43.57226" lon="5.57118">
        <ele>490</ele>
        <time>2021-04-24T19:13:38.283Z</time>
      </trkpt>
      <trkpt lat="43.57228" lon="5.57116">
        <ele>490</ele>
        <time>2021-04-24T19:13:39.283Z</time>
      </trkpt>
      <trkpt lat="43.57231" lon="5.57116">
        <ele>489.4</ele>
        <time>2021-04-24T19:13:40.283Z</time>
      </trkpt>
      <trkpt lat="43.57234" lon="5.57115">
        <ele>489</ele>
        <time>2021-04-24T19:13:41.283Z</time>
      </trkpt>
      <trkpt lat="43.57237" lon="5.57113">
        <ele>489</ele>
        <time>2021-04-24T19:13:42.283Z</time>
      </trkpt>
      <trkpt lat="43.5724" lon="5.57111">
        <ele>489</ele>
        <time>2021-04-24T19:13:43.283Z</time>
      </trkpt>
      <trkpt lat="43.57244" lon="5.5711">
        <ele>488.8</ele>
        <time>2021-04-24T19:13:44.283Z</time>
      </trkpt>
      <trkpt lat="43.57248" lon="5.57108">
        <ele>488</ele>
        <time>2021-04-24T19:13:45.283Z</time>
      </trkpt>
      <trkpt lat="43.57252" lon="5.57105">
        <ele>488</ele>
        <time>2021-04-24T19:13:46.283Z</time>
      </trkpt>
      <trkpt lat="43.57255" lon="5.57103">
        <ele>488</ele>
        <time>2021-04-24T19:13:47.283Z</time>
      </trkpt>
      <trkpt lat="43.57259" lon="5.571">
        <ele>487.2</ele>
        <time>2021-04-24T19:13:48.283Z</time>
      </trkpt>
      <trkpt lat="43.57262" lon="5.57096">
        <ele>487</ele>
        <time>2021-04-24T19:13:49.283Z</time>
      </trkpt>
      <trkpt lat="43.57265" lon="5.57094">
        <ele>487</ele>
        <time>2021-04-24T19:13:50.283Z</time>
      </trkpt>
      <trkpt lat="43.57269" lon="5.57092">
        <ele>487</ele>
        <time>2021-04-24T19:13:51.283Z</time>
      </trkpt>
      <trkpt lat="43.57272" lon="5.57088">
        <ele>486.4</ele>
        <time>2021-04-24T19:13:52.283Z</time>
      </trkpt>
      <trkpt lat="43.57275" lon="5.57084">
        <ele>486</ele>
        <time>2021-04-24T19:13:53.283Z</time>
      </trkpt>
      <trkpt lat="43.57277" lon="5.5708">
        <ele>486</ele>
        <time>2021-04-24T19:13:54.283Z</time>
      </trkpt>
      <trkpt lat="43.5728" lon="5.57076">
        <ele>485.8</ele>
        <time>2021-04-24T19:13:55.283Z</time>
      </trkpt>
      <trkpt lat="43.57283" lon="5.57072">
        <ele>485</ele>
        <time>2021-04-24T19:13:56.283Z</time>
      </trkpt>
      <trkpt lat="43.57287" lon="5.57068">
        <ele>485</ele>
        <time>2021-04-24T19:13:57.283Z</time>
      </trkpt>
      <trkpt lat="43.5729" lon="5.57064">
        <ele>485</ele>
        <time>2021-04-24T19:13:58.283Z</time>
      </trkpt>
      <trkpt lat="43.57293" lon="5.57061">
        <ele>484</ele>
        <time>2021-04-24T19:13:59.283Z</time>
      </trkpt>
      <trkpt lat="43.57296" lon="5.57057">
        <ele>484</ele>
        <time>2021-04-24T19:14:00.283Z</time>
      </trkpt>
      <trkpt lat="43.57298" lon="5.57055">
        <ele>484</ele>
        <time>2021-04-24T19:14:01.283Z</time>
      </trkpt>
      <trkpt lat="43.57301" lon="5.57052">
        <ele>483.2</ele>
        <time>2021-04-24T19:14:02.283Z</time>
      </trkpt>
      <trkpt lat="43.57303" lon="5.57048">
        <ele>483</ele>
        <time>2021-04-24T19:14:03.283Z</time>
      </trkpt>
      <trkpt lat="43.57305" lon="5.57043">
        <ele>483</ele>
        <time>2021-04-24T19:14:04.283Z</time>
      </trkpt>
      <trkpt lat="43.57308" lon="5.5704">
        <ele>482.6</ele>
        <time>2021-04-24T19:14:05.283Z</time>
      </trkpt>
      <trkpt lat="43.57311" lon="5.57035">
        <ele>482</ele>
        <time>2021-04-24T19:14:06.283Z</time>
      </trkpt>
      <trkpt lat="43.57313" lon="5.5703">
        <ele>481.8</ele>
        <time>2021-04-24T19:14:07.283Z</time>
      </trkpt>
      <trkpt lat="43.57315" lon="5.57025">
        <ele>481</ele>
        <time>2021-04-24T19:14:08.283Z</time>
      </trkpt>
      <trkpt lat="43.57317" lon="5.5702">
        <ele>481</ele>
        <time>2021-04-24T19:14:09.283Z</time>
      </trkpt>
      <trkpt lat="43.57319" lon="5.57015">
        <ele>481</ele>
        <time>2021-04-24T19:14:10.283Z</time>
      </trkpt>
      <trkpt lat="43.5732" lon="5.57012">
        <ele>480</ele>
        <time>2021-04-24T19:14:11.283Z</time>
      </trkpt>
      <trkpt lat="43.57321" lon="5.57008">
        <ele>480</ele>
        <time>2021-04-24T19:14:12.283Z</time>
      </trkpt>
      <trkpt lat="43.57323" lon="5.57004">
        <ele>480</ele>
        <time>2021-04-24T19:14:13.283Z</time>
      </trkpt>
      <trkpt lat="43.57325" lon="5.57">
        <ele>480</ele>
        <time>2021-04-24T19:14:14.283Z</time>
      </trkpt>
      <trkpt lat="43.57326" lon="5.56997">
        <ele>479.4</ele>
        <time>2021-04-24T19:14:15.283Z</time>
      </trkpt>
      <trkpt lat="43.5733" lon="5.5698">
        <ele>479</ele>
        <time>2021-04-24T19:14:16.283Z</time>
      </trkpt>
      <trkpt lat="43.5733" lon="5.56977">
        <ele>479</ele>
        <time>2021-04-24T19:14:17.283Z</time>
      </trkpt>
      <trkpt lat="43.57331" lon="5.56973">
        <ele>478.4</ele>
        <time>2021-04-24T19:14:18.283Z</time>
      </trkpt>
      <trkpt lat="43.57332" lon="5.5697">
        <ele>478</ele>
        <time>2021-04-24T19:14:19.283Z</time>
      </trkpt>
      <trkpt lat="43.57334" lon="5.56967">
        <ele>478</ele>
        <time>2021-04-24T19:14:20.283Z</time>
      </trkpt>
      <trkpt lat="43.57336" lon="5.56965">
        <ele>478</ele>
        <time>2021-04-24T19:14:21.283Z</time>
      </trkpt>
      <trkpt lat="43.57338" lon="5.56964">
        <ele>478</ele>
        <time>2021-04-24T19:14:22.283Z</time>
      </trkpt>
      <trkpt lat="43.5734" lon="5.56962">
        <ele>478</ele>
        <time>2021-04-24T19:14:23.283Z</time>
      </trkpt>
      <trkpt lat="43.57343" lon="5.56959">
        <ele>478</ele>
        <time>2021-04-24T19:14:24.283Z</time>
      </trkpt>
      <trkpt lat="43.57346" lon="5.56958">
        <ele>478</ele>
        <time>2021-04-24T19:14:25.283Z</time>
      </trkpt>
      <trkpt lat="43.57349" lon="5.56957">
        <ele>477</ele>
        <time>2021-04-24T19:14:26.283Z</time>
      </trkpt>
      <trkpt lat="43.57352" lon="5.56959">
        <ele>477</ele>
        <time>2021-04-24T19:14:27.283Z</time>
      </trkpt>
      <trkpt lat="43.57355" lon="5.56961">
        <ele>477</ele>
        <time>2021-04-24T19:14:28.283Z</time>
      </trkpt>
      <trkpt lat="43.57359" lon="5.56964">
        <ele>476.2</ele>
        <time>2021-04-24T19:14:29.283Z</time>
      </trkpt>
      <trkpt lat="43.57362" lon="5.56967">
        <ele>476</ele>
        <time>2021-04-24T19:14:30.283Z</time>
      </trkpt>
      <trkpt lat="43.57366" lon="5.56971">
        <ele>475.4</ele>
        <time>2021-04-24T19:14:31.283Z</time>
      </trkpt>
      <trkpt lat="43.5737" lon="5.56973">
        <ele>475</ele>
        <time>2021-04-24T19:14:32.283Z</time>
      </trkpt>
      <trkpt lat="43.57372" lon="5.56976">
        <ele>474.6</ele>
        <time>2021-04-24T19:14:33.283Z</time>
      </trkpt>
      <trkpt lat="43.57375" lon="5.56979">
        <ele>474</ele>
        <time>2021-04-24T19:14:34.283Z</time>
      </trkpt>
      <trkpt lat="43.57379" lon="5.56981">
        <ele>473.8</ele>
        <time>2021-04-24T19:14:35.283Z</time>
      </trkpt>
      <trkpt lat="43.57382" lon="5.56983">
        <ele>473</ele>
        <time>2021-04-24T19:14:36.283Z</time>
      </trkpt>
      <trkpt lat="43.57385" lon="5.56986">
        <ele>473</ele>
        <time>2021-04-24T19:14:37.283Z</time>
      </trkpt>
      <trkpt lat="43.57388" lon="5.56989">
        <ele>472</ele>
        <time>2021-04-24T19:14:38.283Z</time>
      </trkpt>
      <trkpt lat="43.57391" lon="5.56992">
        <ele>472</ele>
        <time>2021-04-24T19:14:39.283Z</time>
      </trkpt>
      <trkpt lat="43.57394" lon="5.56996">
        <ele>472</ele>
        <time>2021-04-24T19:14:40.283Z</time>
      </trkpt>
      <trkpt lat="43.57398" lon="5.56999">
        <ele>471.2</ele>
        <time>2021-04-24T19:14:41.283Z</time>
      </trkpt>
      <trkpt lat="43.57401" lon="5.57001">
        <ele>470.4</ele>
        <time>2021-04-24T19:14:42.283Z</time>
      </trkpt>
      <trkpt lat="43.57404" lon="5.57004">
        <ele>470</ele>
        <time>2021-04-24T19:14:43.283Z</time>
      </trkpt>
      <trkpt lat="43.57408" lon="5.57007">
        <ele>469.6</ele>
        <time>2021-04-24T19:14:44.283Z</time>
      </trkpt>
      <trkpt lat="43.57412" lon="5.57009">
        <ele>468.6</ele>
        <time>2021-04-24T19:14:45.283Z</time>
      </trkpt>
      <trkpt lat="43.57415" lon="5.57012">
        <ele>468</ele>
        <time>2021-04-24T19:14:46.283Z</time>
      </trkpt>
      <trkpt lat="43.57419" lon="5.57014">
        <ele>467.8</ele>
        <time>2021-04-24T19:14:47.283Z</time>
      </trkpt>
      <trkpt lat="43.57422" lon="5.57017">
        <ele>466.8</ele>
        <time>2021-04-24T19:14:48.283Z</time>
      </trkpt>
      <trkpt lat="43.57425" lon="5.57019">
        <ele>466</ele>
        <time>2021-04-24T19:14:49.283Z</time>
      </trkpt>
      <trkpt lat="43.57429" lon="5.57021">
        <ele>465</ele>
        <time>2021-04-24T19:14:50.283Z</time>
      </trkpt>
      <trkpt lat="43.57431" lon="5.57023">
        <ele>464.2</ele>
        <time>2021-04-24T19:14:51.283Z</time>
      </trkpt>
      <trkpt lat="43.57434" lon="5.57025">
        <ele>463.2</ele>
        <time>2021-04-24T19:14:52.283Z</time>
      </trkpt>
      <trkpt lat="43.57437" lon="5.57029">
        <ele>462.2</ele>
        <time>2021-04-24T19:14:53.283Z</time>
      </trkpt>
      <trkpt lat="43.57441" lon="5.57033">
        <ele>460.8</ele>
        <time>2021-04-24T19:14:54.283Z</time>
      </trkpt>
      <trkpt lat="43.57445" lon="5.57038">
        <ele>460</ele>
        <time>2021-04-24T19:14:55.283Z</time>
      </trkpt>
      <trkpt lat="43.57449" lon="5.57042">
        <ele>459.6</ele>
        <time>2021-04-24T19:14:56.283Z</time>
      </trkpt>
      <trkpt lat="43.57453" lon="5.57045">
        <ele>459</ele>
        <time>2021-04-24T19:14:57.283Z</time>
      </trkpt>
      <trkpt lat="43.57456" lon="5.57047">
        <ele>459</ele>
        <time>2021-04-24T19:14:58.283Z</time>
      </trkpt>
      <trkpt lat="43.57458" lon="5.5705">
        <ele>459</ele>
        <time>2021-04-24T19:14:59.283Z</time>
      </trkpt>
      <trkpt lat="43.57461" lon="5.57052">
        <ele>459</ele>
        <time>2021-04-24T19:15:00.283Z</time>
      </trkpt>
      <trkpt lat="43.57463" lon="5.57054">
        <ele>459</ele>
        <time>2021-04-24T19:15:01.283Z</time>
      </trkpt>
      <trkpt lat="43.57466" lon="5.57056">
        <ele>458</ele>
        <time>2021-04-24T19:15:02.283Z</time>
      </trkpt>
      <trkpt lat="43.57469" lon="5.57058">
        <ele>458</ele>
        <time>2021-04-24T19:15:03.283Z</time>
      </trkpt>
      <trkpt lat="43.57471" lon="5.5706">
        <ele>458</ele>
        <time>2021-04-24T19:15:04.283Z</time>
      </trkpt>
      <trkpt lat="43.57473" lon="5.57063">
        <ele>457.2</ele>
        <time>2021-04-24T19:15:05.283Z</time>
      </trkpt>
      <trkpt lat="43.57476" lon="5.57065">
        <ele>457</ele>
        <time>2021-04-24T19:15:06.283Z</time>
      </trkpt>
      <trkpt lat="43.57478" lon="5.57067">
        <ele>456.4</ele>
        <time>2021-04-24T19:15:07.283Z</time>
      </trkpt>
      <trkpt lat="43.5748" lon="5.57068">
        <ele>455.6</ele>
        <time>2021-04-24T19:15:08.283Z</time>
      </trkpt>
      <trkpt lat="43.57483" lon="5.5707">
        <ele>455</ele>
        <time>2021-04-24T19:15:09.283Z</time>
      </trkpt>
      <trkpt lat="43.57484" lon="5.57072">
        <ele>454.8</ele>
        <time>2021-04-24T19:15:10.283Z</time>
      </trkpt>
      <trkpt lat="43.57487" lon="5.57074">
        <ele>453.8</ele>
        <time>2021-04-24T19:15:11.283Z</time>
      </trkpt>
      <trkpt lat="43.57489" lon="5.57076">
        <ele>452.8</ele>
        <time>2021-04-24T19:15:12.283Z</time>
      </trkpt>
      <trkpt lat="43.57491" lon="5.57078">
        <ele>452</ele>
        <time>2021-04-24T19:15:13.283Z</time>
      </trkpt>
      <trkpt lat="43.57494" lon="5.5708">
        <ele>451</ele>
        <time>2021-04-24T19:15:14.283Z</time>
      </trkpt>
      <trkpt lat="43.57496" lon="5.57082">
        <ele>449.2</ele>
        <time>2021-04-24T19:15:15.283Z</time>
      </trkpt>
      <trkpt lat="43.57499" lon="5.57084">
        <ele>448.2</ele>
        <time>2021-04-24T19:15:16.283Z</time>
      </trkpt>
      <trkpt lat="43.57503" lon="5.57086">
        <ele>447.2</ele>
        <time>2021-04-24T19:15:17.283Z</time>
      </trkpt>
      <trkpt lat="43.57506" lon="5.57088">
        <ele>446.4</ele>
        <time>2021-04-24T19:15:18.283Z</time>
      </trkpt>
      <trkpt lat="43.5751" lon="5.57089">
        <ele>446</ele>
        <time>2021-04-24T19:15:19.283Z</time>
      </trkpt>
      <trkpt lat="43.57514" lon="5.57088">
        <ele>445.6</ele>
        <time>2021-04-24T19:15:20.283Z</time>
      </trkpt>
      <trkpt lat="43.57519" lon="5.57085">
        <ele>444.6</ele>
        <time>2021-04-24T19:15:21.283Z</time>
      </trkpt>
      <trkpt lat="43.57523" lon="5.57083">
        <ele>444</ele>
        <time>2021-04-24T19:15:22.283Z</time>
      </trkpt>
      <trkpt lat="43.57527" lon="5.57079">
        <ele>443.8</ele>
        <time>2021-04-24T19:15:23.283Z</time>
      </trkpt>
      <trkpt lat="43.57531" lon="5.57076">
        <ele>443</ele>
        <time>2021-04-24T19:15:24.283Z</time>
      </trkpt>
      <trkpt lat="43.57535" lon="5.57072">
        <ele>443</ele>
        <time>2021-04-24T19:15:25.283Z</time>
      </trkpt>
      <trkpt lat="43.5754" lon="5.57067">
        <ele>442</ele>
        <time>2021-04-24T19:15:26.283Z</time>
      </trkpt>
      <trkpt lat="43.57544" lon="5.57062">
        <ele>441.2</ele>
        <time>2021-04-24T19:15:27.283Z</time>
      </trkpt>
      <trkpt lat="43.57548" lon="5.57057">
        <ele>441</ele>
        <time>2021-04-24T19:15:28.283Z</time>
      </trkpt>
      <trkpt lat="43.57552" lon="5.57051">
        <ele>440.2</ele>
        <time>2021-04-24T19:15:29.283Z</time>
      </trkpt>
      <trkpt lat="43.57556" lon="5.57045">
        <ele>440</ele>
        <time>2021-04-24T19:15:30.283Z</time>
      </trkpt>
      <trkpt lat="43.57561" lon="5.5704">
        <ele>439.4</ele>
        <time>2021-04-24T19:15:31.283Z</time>
      </trkpt>
      <trkpt lat="43.57565" lon="5.57036">
        <ele>439</ele>
        <time>2021-04-24T19:15:32.283Z</time>
      </trkpt>
      <trkpt lat="43.57569" lon="5.57032">
        <ele>438.6</ele>
        <time>2021-04-24T19:15:33.283Z</time>
      </trkpt>
      <trkpt lat="43.57572" lon="5.57027">
        <ele>438</ele>
        <time>2021-04-24T19:15:34.283Z</time>
      </trkpt>
      <trkpt lat="43.57575" lon="5.57022">
        <ele>437.8</ele>
        <time>2021-04-24T19:15:35.283Z</time>
      </trkpt>
      <trkpt lat="43.57579" lon="5.57017">
        <ele>437</ele>
        <time>2021-04-24T19:15:36.283Z</time>
      </trkpt>
      <trkpt lat="43.57581" lon="5.57013">
        <ele>437</ele>
        <time>2021-04-24T19:15:37.283Z</time>
      </trkpt>
      <trkpt lat="43.57583" lon="5.57009">
        <ele>437</ele>
        <time>2021-04-24T19:15:38.283Z</time>
      </trkpt>
      <trkpt lat="43.57583" lon="5.57005">
        <ele>436.2</ele>
        <time>2021-04-24T19:15:39.283Z</time>
      </trkpt>
      <trkpt lat="43.57583" lon="5.57001">
        <ele>436</ele>
        <time>2021-04-24T19:15:40.283Z</time>
      </trkpt>
      <trkpt lat="43.57585" lon="5.56998">
        <ele>436</ele>
        <time>2021-04-24T19:15:41.283Z</time>
      </trkpt>
      <trkpt lat="43.57587" lon="5.56997">
        <ele>436</ele>
        <time>2021-04-24T19:15:42.283Z</time>
      </trkpt>
      <trkpt lat="43.5759" lon="5.56995">
        <ele>435.4</ele>
        <time>2021-04-24T19:15:43.283Z</time>
      </trkpt>
      <trkpt lat="43.57593" lon="5.56993">
        <ele>435</ele>
        <time>2021-04-24T19:15:44.283Z</time>
      </trkpt>
      <trkpt lat="43.57596" lon="5.5699">
        <ele>435</ele>
        <time>2021-04-24T19:15:45.283Z</time>
      </trkpt>
      <trkpt lat="43.57599" lon="5.56987">
        <ele>435</ele>
        <time>2021-04-24T19:15:46.283Z</time>
      </trkpt>
      <trkpt lat="43.57601" lon="5.56983">
        <ele>434.8</ele>
        <time>2021-04-24T19:15:47.283Z</time>
      </trkpt>
      <trkpt lat="43.57604" lon="5.5698">
        <ele>434</ele>
        <time>2021-04-24T19:15:48.283Z</time>
      </trkpt>
      <trkpt lat="43.57607" lon="5.56977">
        <ele>434</ele>
        <time>2021-04-24T19:15:49.283Z</time>
      </trkpt>
      <trkpt lat="43.5761" lon="5.56972">
        <ele>434</ele>
        <time>2021-04-24T19:15:50.283Z</time>
      </trkpt>
      <trkpt lat="43.57613" lon="5.56968">
        <ele>434</ele>
        <time>2021-04-24T19:15:51.283Z</time>
      </trkpt>
      <trkpt lat="43.57616" lon="5.56964">
        <ele>434</ele>
        <time>2021-04-24T19:15:52.283Z</time>
      </trkpt>
      <trkpt lat="43.57618" lon="5.5696">
        <ele>433.2</ele>
        <time>2021-04-24T19:15:53.283Z</time>
      </trkpt>
      <trkpt lat="43.5762" lon="5.56956">
        <ele>433</ele>
        <time>2021-04-24T19:15:54.283Z</time>
      </trkpt>
      <trkpt lat="43.5762" lon="5.56952">
        <ele>433</ele>
        <time>2021-04-24T19:15:55.283Z</time>
      </trkpt>
      <trkpt lat="43.5762" lon="5.56949">
        <ele>432.6</ele>
        <time>2021-04-24T19:15:56.283Z</time>
      </trkpt>
      <trkpt lat="43.57621" lon="5.56945">
        <ele>432</ele>
        <time>2021-04-24T19:15:57.283Z</time>
      </trkpt>
      <trkpt lat="43.57622" lon="5.56941">
        <ele>432</ele>
        <time>2021-04-24T19:15:58.283Z</time>
      </trkpt>
      <trkpt lat="43.57624" lon="5.56936">
        <ele>431.8</ele>
        <time>2021-04-24T19:15:59.283Z</time>
      </trkpt>
      <trkpt lat="43.57627" lon="5.56931">
        <ele>431</ele>
        <time>2021-04-24T19:16:00.283Z</time>
      </trkpt>
      <trkpt lat="43.5763" lon="5.56925">
        <ele>431</ele>
        <time>2021-04-24T19:16:01.283Z</time>
      </trkpt>
      <trkpt lat="43.57633" lon="5.56918">
        <ele>430</ele>
        <time>2021-04-24T19:16:02.283Z</time>
      </trkpt>
      <trkpt lat="43.57637" lon="5.56912">
        <ele>430</ele>
        <time>2021-04-24T19:16:03.283Z</time>
      </trkpt>
      <trkpt lat="43.5764" lon="5.56905">
        <ele>429.2</ele>
        <time>2021-04-24T19:16:04.283Z</time>
      </trkpt>
      <trkpt lat="43.57645" lon="5.56899">
        <ele>429</ele>
        <time>2021-04-24T19:16:05.283Z</time>
      </trkpt>
      <trkpt lat="43.57649" lon="5.56894">
        <ele>428.4</ele>
        <time>2021-04-24T19:16:06.283Z</time>
      </trkpt>
      <trkpt lat="43.57653" lon="5.56888">
        <ele>428</ele>
        <time>2021-04-24T19:16:07.283Z</time>
      </trkpt>
      <trkpt lat="43.57656" lon="5.56881">
        <ele>427.6</ele>
        <time>2021-04-24T19:16:08.283Z</time>
      </trkpt>
      <trkpt lat="43.5766" lon="5.56876">
        <ele>427</ele>
        <time>2021-04-24T19:16:09.283Z</time>
      </trkpt>
      <trkpt lat="43.57663" lon="5.5687">
        <ele>426.6</ele>
        <time>2021-04-24T19:16:10.283Z</time>
      </trkpt>
      <trkpt lat="43.57667" lon="5.56864">
        <ele>425.8</ele>
        <time>2021-04-24T19:16:11.283Z</time>
      </trkpt>
      <trkpt lat="43.5767" lon="5.56858">
        <ele>425</ele>
        <time>2021-04-24T19:16:12.283Z</time>
      </trkpt>
      <trkpt lat="43.57672" lon="5.56853">
        <ele>425</ele>
        <time>2021-04-24T19:16:13.283Z</time>
      </trkpt>
      <trkpt lat="43.57676" lon="5.56848">
        <ele>424</ele>
        <time>2021-04-24T19:16:14.283Z</time>
      </trkpt>
      <trkpt lat="43.5768" lon="5.56843">
        <ele>424</ele>
        <time>2021-04-24T19:16:15.283Z</time>
      </trkpt>
      <trkpt lat="43.57685" lon="5.56839">
        <ele>423.2</ele>
        <time>2021-04-24T19:16:16.283Z</time>
      </trkpt>
      <trkpt lat="43.57689" lon="5.56834">
        <ele>423</ele>
        <time>2021-04-24T19:16:17.283Z</time>
      </trkpt>
      <trkpt lat="43.57693" lon="5.56829">
        <ele>422.4</ele>
        <time>2021-04-24T19:16:18.283Z</time>
      </trkpt>
      <trkpt lat="43.57697" lon="5.56824">
        <ele>422</ele>
        <time>2021-04-24T19:16:19.283Z</time>
      </trkpt>
      <trkpt lat="43.57702" lon="5.56818">
        <ele>421.6</ele>
        <time>2021-04-24T19:16:20.283Z</time>
      </trkpt>
      <trkpt lat="43.57706" lon="5.56813">
        <ele>421</ele>
        <time>2021-04-24T19:16:21.283Z</time>
      </trkpt>
      <trkpt lat="43.5771" lon="5.56808">
        <ele>421</ele>
        <time>2021-04-24T19:16:22.283Z</time>
      </trkpt>
      <trkpt lat="43.57715" lon="5.56804">
        <ele>420.8</ele>
        <time>2021-04-24T19:16:23.283Z</time>
      </trkpt>
      <trkpt lat="43.57719" lon="5.568">
        <ele>420</ele>
        <time>2021-04-24T19:16:24.283Z</time>
      </trkpt>
      <trkpt lat="43.57724" lon="5.56796">
        <ele>420</ele>
        <time>2021-04-24T19:16:25.283Z</time>
      </trkpt>
      <trkpt lat="43.57728" lon="5.56792">
        <ele>420</ele>
        <time>2021-04-24T19:16:26.283Z</time>
      </trkpt>
      <trkpt lat="43.57733" lon="5.56789">
        <ele>419.2</ele>
        <time>2021-04-24T19:16:27.283Z</time>
      </trkpt>
      <trkpt lat="43.57737" lon="5.56786">
        <ele>419</ele>
        <time>2021-04-24T19:16:28.283Z</time>
      </trkpt>
      <trkpt lat="43.57742" lon="5.56783">
        <ele>419</ele>
        <time>2021-04-24T19:16:29.283Z</time>
      </trkpt>
      <trkpt lat="43.57746" lon="5.5678">
        <ele>419</ele>
        <time>2021-04-24T19:16:30.283Z</time>
      </trkpt>
      <trkpt lat="43.57749" lon="5.56777">
        <ele>418.4</ele>
        <time>2021-04-24T19:16:31.283Z</time>
      </trkpt>
      <trkpt lat="43.57754" lon="5.56775">
        <ele>418</ele>
        <time>2021-04-24T19:16:32.283Z</time>
      </trkpt>
      <trkpt lat="43.57758" lon="5.56772">
        <ele>418</ele>
        <time>2021-04-24T19:16:33.283Z</time>
      </trkpt>
      <trkpt lat="43.57762" lon="5.56771">
        <ele>417.6</ele>
        <time>2021-04-24T19:16:34.283Z</time>
      </trkpt>
      <trkpt lat="43.57766" lon="5.56771">
        <ele>417</ele>
        <time>2021-04-24T19:16:35.283Z</time>
      </trkpt>
      <trkpt lat="43.5777" lon="5.5677">
        <ele>417</ele>
        <time>2021-04-24T19:16:36.283Z</time>
      </trkpt>
      <trkpt lat="43.57775" lon="5.56767">
        <ele>417</ele>
        <time>2021-04-24T19:16:37.283Z</time>
      </trkpt>
      <trkpt lat="43.57779" lon="5.56763">
        <ele>416</ele>
        <time>2021-04-24T19:16:38.283Z</time>
      </trkpt>
      <trkpt lat="43.57783" lon="5.5676">
        <ele>416</ele>
        <time>2021-04-24T19:16:39.283Z</time>
      </trkpt>
      <trkpt lat="43.57787" lon="5.56756">
        <ele>416</ele>
        <time>2021-04-24T19:16:40.283Z</time>
      </trkpt>
      <trkpt lat="43.57789" lon="5.56752">
        <ele>415.2</ele>
        <time>2021-04-24T19:16:41.283Z</time>
      </trkpt>
      <trkpt lat="43.57791" lon="5.56746">
        <ele>415</ele>
        <time>2021-04-24T19:16:42.283Z</time>
      </trkpt>
      <trkpt lat="43.57792" lon="5.5674">
        <ele>414.4</ele>
        <time>2021-04-24T19:16:43.283Z</time>
      </trkpt>
      <trkpt lat="43.57793" lon="5.56734">
        <ele>414</ele>
        <time>2021-04-24T19:16:44.283Z</time>
      </trkpt>
      <trkpt lat="43.57794" lon="5.56728">
        <ele>413.6</ele>
        <time>2021-04-24T19:16:45.283Z</time>
      </trkpt>
      <trkpt lat="43.57795" lon="5.56723">
        <ele>413</ele>
        <time>2021-04-24T19:16:46.283Z</time>
      </trkpt>
      <trkpt lat="43.57795" lon="5.56717">
        <ele>413</ele>
        <time>2021-04-24T19:16:47.283Z</time>
      </trkpt>
      <trkpt lat="43.57795" lon="5.56711">
        <ele>412.8</ele>
        <time>2021-04-24T19:16:48.283Z</time>
      </trkpt>
      <trkpt lat="43.57794" lon="5.56706">
        <ele>412</ele>
        <time>2021-04-24T19:16:49.283Z</time>
      </trkpt>
      <trkpt lat="43.57794" lon="5.567">
        <ele>412</ele>
        <time>2021-04-24T19:16:50.283Z</time>
      </trkpt>
      <trkpt lat="43.57794" lon="5.56695">
        <ele>412</ele>
        <time>2021-04-24T19:16:51.283Z</time>
      </trkpt>
      <trkpt lat="43.57795" lon="5.56689">
        <ele>411.2</ele>
        <time>2021-04-24T19:16:52.283Z</time>
      </trkpt>
      <trkpt lat="43.57795" lon="5.56684">
        <ele>411</ele>
        <time>2021-04-24T19:16:53.283Z</time>
      </trkpt>
      <trkpt lat="43.57795" lon="5.5668">
        <ele>410.4</ele>
        <time>2021-04-24T19:16:54.283Z</time>
      </trkpt>
      <trkpt lat="43.57795" lon="5.56676">
        <ele>410</ele>
        <time>2021-04-24T19:16:55.283Z</time>
      </trkpt>
      <trkpt lat="43.57796" lon="5.56672">
        <ele>409.6</ele>
        <time>2021-04-24T19:16:56.283Z</time>
      </trkpt>
      <trkpt lat="43.57796" lon="5.56667">
        <ele>409</ele>
        <time>2021-04-24T19:16:57.283Z</time>
      </trkpt>
      <trkpt lat="43.57797" lon="5.56661">
        <ele>408.6</ele>
        <time>2021-04-24T19:16:58.283Z</time>
      </trkpt>
      <trkpt lat="43.57798" lon="5.56656">
        <ele>408</ele>
        <time>2021-04-24T19:16:59.283Z</time>
      </trkpt>
      <trkpt lat="43.57799" lon="5.5665">
        <ele>407.8</ele>
        <time>2021-04-24T19:17:00.283Z</time>
      </trkpt>
      <trkpt lat="43.578" lon="5.56645">
        <ele>407</ele>
        <time>2021-04-24T19:17:01.283Z</time>
      </trkpt>
      <trkpt lat="43.57801" lon="5.56639">
        <ele>407</ele>
        <time>2021-04-24T19:17:02.283Z</time>
      </trkpt>
      <trkpt lat="43.57802" lon="5.56634">
        <ele>406</ele>
        <time>2021-04-24T19:17:03.283Z</time>
      </trkpt>
      <trkpt lat="43.57803" lon="5.56629">
        <ele>406</ele>
        <time>2021-04-24T19:17:04.283Z</time>
      </trkpt>
      <trkpt lat="43.57804" lon="5.56623">
        <ele>405.2</ele>
        <time>2021-04-24T19:17:05.283Z</time>
      </trkpt>
      <trkpt lat="43.57805" lon="5.56616">
        <ele>405</ele>
        <time>2021-04-24T19:17:06.283Z</time>
      </trkpt>
      <trkpt lat="43.57806" lon="5.5661">
        <ele>405</ele>
        <time>2021-04-24T19:17:07.283Z</time>
      </trkpt>
      <trkpt lat="43.57806" lon="5.56603">
        <ele>404.4</ele>
        <time>2021-04-24T19:17:08.283Z</time>
      </trkpt>
      <trkpt lat="43.57806" lon="5.56598">
        <ele>404</ele>
        <time>2021-04-24T19:17:09.283Z</time>
      </trkpt>
      <trkpt lat="43.57807" lon="5.56592">
        <ele>404</ele>
        <time>2021-04-24T19:17:10.283Z</time>
      </trkpt>
      <trkpt lat="43.57807" lon="5.56588">
        <ele>403.8</ele>
        <time>2021-04-24T19:17:11.283Z</time>
      </trkpt>
      <trkpt lat="43.57808" lon="5.56584">
        <ele>403</ele>
        <time>2021-04-24T19:17:12.283Z</time>
      </trkpt>
      <trkpt lat="43.57809" lon="5.56579">
        <ele>403</ele>
        <time>2021-04-24T19:17:13.283Z</time>
      </trkpt>
      <trkpt lat="43.5781" lon="5.56575">
        <ele>402</ele>
        <time>2021-04-24T19:17:14.283Z</time>
      </trkpt>
      <trkpt lat="43.57811" lon="5.5657">
        <ele>402</ele>
        <time>2021-04-24T19:17:15.283Z</time>
      </trkpt>
      <trkpt lat="43.57811" lon="5.56566">
        <ele>402</ele>
        <time>2021-04-24T19:17:16.283Z</time>
      </trkpt>
      <trkpt lat="43.57812" lon="5.56561">
        <ele>401.2</ele>
        <time>2021-04-24T19:17:17.283Z</time>
      </trkpt>
      <trkpt lat="43.57812" lon="5.56555">
        <ele>401</ele>
        <time>2021-04-24T19:17:18.283Z</time>
      </trkpt>
      <trkpt lat="43.57813" lon="5.5655">
        <ele>401</ele>
        <time>2021-04-24T19:17:19.283Z</time>
      </trkpt>
      <trkpt lat="43.57816" lon="5.56545">
        <ele>400.4</ele>
        <time>2021-04-24T19:17:20.283Z</time>
      </trkpt>
      <trkpt lat="43.57818" lon="5.56542">
        <ele>400</ele>
        <time>2021-04-24T19:17:21.283Z</time>
      </trkpt>
      <trkpt lat="43.5782" lon="5.56539">
        <ele>400</ele>
        <time>2021-04-24T19:17:22.283Z</time>
      </trkpt>
      <trkpt lat="43.57823" lon="5.56536">
        <ele>400</ele>
        <time>2021-04-24T19:17:23.283Z</time>
      </trkpt>
      <trkpt lat="43.57825" lon="5.56533">
        <ele>400</ele>
        <time>2021-04-24T19:17:24.283Z</time>
      </trkpt>
      <trkpt lat="43.57827" lon="5.5653">
        <ele>400</ele>
        <time>2021-04-24T19:17:25.283Z</time>
      </trkpt>
      <trkpt lat="43.57828" lon="5.56528">
        <ele>400</ele>
        <time>2021-04-24T19:17:26.283Z</time>
      </trkpt>
      <trkpt lat="43.5783" lon="5.56525">
        <ele>400</ele>
        <time>2021-04-24T19:17:27.283Z</time>
      </trkpt>
      <trkpt lat="43.57832" lon="5.56522">
        <ele>399</ele>
        <time>2021-04-24T19:17:28.283Z</time>
      </trkpt>
      <trkpt lat="43.57834" lon="5.5652">
        <ele>399</ele>
        <time>2021-04-24T19:17:29.283Z</time>
      </trkpt>
      <trkpt lat="43.57837" lon="5.56516">
        <ele>399</ele>
        <time>2021-04-24T19:17:30.283Z</time>
      </trkpt>
      <trkpt lat="43.57839" lon="5.56512">
        <ele>399</ele>
        <time>2021-04-24T19:17:31.283Z</time>
      </trkpt>
      <trkpt lat="43.57842" lon="5.56508">
        <ele>399</ele>
        <time>2021-04-24T19:17:32.283Z</time>
      </trkpt>
      <trkpt lat="43.57844" lon="5.56502">
        <ele>399</ele>
        <time>2021-04-24T19:17:33.283Z</time>
      </trkpt>
      <trkpt lat="43.57845" lon="5.56496">
        <ele>398.4</ele>
        <time>2021-04-24T19:17:34.283Z</time>
      </trkpt>
      <trkpt lat="43.57846" lon="5.56491">
        <ele>398</ele>
        <time>2021-04-24T19:17:35.283Z</time>
      </trkpt>
      <trkpt lat="43.57847" lon="5.56484">
        <ele>398</ele>
        <time>2021-04-24T19:17:36.283Z</time>
      </trkpt>
      <trkpt lat="43.57847" lon="5.56477">
        <ele>398</ele>
        <time>2021-04-24T19:17:37.283Z</time>
      </trkpt>
      <trkpt lat="43.57847" lon="5.56471">
        <ele>397.8</ele>
        <time>2021-04-24T19:17:38.283Z</time>
      </trkpt>
      <trkpt lat="43.57846" lon="5.56465">
        <ele>397</ele>
        <time>2021-04-24T19:17:39.283Z</time>
      </trkpt>
      <trkpt lat="43.57846" lon="5.56458">
        <ele>397</ele>
        <time>2021-04-24T19:17:40.283Z</time>
      </trkpt>
      <trkpt lat="43.57847" lon="5.56451">
        <ele>397</ele>
        <time>2021-04-24T19:17:41.283Z</time>
      </trkpt>
      <trkpt lat="43.57846" lon="5.56444">
        <ele>396.2</ele>
        <time>2021-04-24T19:17:42.283Z</time>
      </trkpt>
      <trkpt lat="43.57846" lon="5.56436">
        <ele>396</ele>
        <time>2021-04-24T19:17:43.283Z</time>
      </trkpt>
      <trkpt lat="43.57845" lon="5.56429">
        <ele>396</ele>
        <time>2021-04-24T19:17:44.283Z</time>
      </trkpt>
      <trkpt lat="43.57845" lon="5.56422">
        <ele>396</ele>
        <time>2021-04-24T19:17:45.283Z</time>
      </trkpt>
      <trkpt lat="43.57844" lon="5.56415">
        <ele>395.4</ele>
        <time>2021-04-24T19:17:46.283Z</time>
      </trkpt>
      <trkpt lat="43.57843" lon="5.56409">
        <ele>395</ele>
        <time>2021-04-24T19:17:47.283Z</time>
      </trkpt>
      <trkpt lat="43.57844" lon="5.56404">
        <ele>395</ele>
        <time>2021-04-24T19:17:48.283Z</time>
      </trkpt>
      <trkpt lat="43.57845" lon="5.564">
        <ele>395</ele>
        <time>2021-04-24T19:17:49.283Z</time>
      </trkpt>
      <trkpt lat="43.57848" lon="5.56395">
        <ele>395</ele>
        <time>2021-04-24T19:17:50.283Z</time>
      </trkpt>
      <trkpt lat="43.57851" lon="5.5639">
        <ele>394.8</ele>
        <time>2021-04-24T19:17:51.283Z</time>
      </trkpt>
      <trkpt lat="43.57854" lon="5.56385">
        <ele>394</ele>
        <time>2021-04-24T19:17:52.283Z</time>
      </trkpt>
      <trkpt lat="43.57857" lon="5.56379">
        <ele>394</ele>
        <time>2021-04-24T19:17:53.283Z</time>
      </trkpt>
      <trkpt lat="43.57861" lon="5.56374">
        <ele>394</ele>
        <time>2021-04-24T19:17:54.283Z</time>
      </trkpt>
      <trkpt lat="43.57865" lon="5.56368">
        <ele>393.2</ele>
        <time>2021-04-24T19:17:55.283Z</time>
      </trkpt>
      <trkpt lat="43.57868" lon="5.56362">
        <ele>393</ele>
        <time>2021-04-24T19:17:56.283Z</time>
      </trkpt>
      <trkpt lat="43.57872" lon="5.56357">
        <ele>393</ele>
        <time>2021-04-24T19:17:57.283Z</time>
      </trkpt>
      <trkpt lat="43.57877" lon="5.56351">
        <ele>392.4</ele>
        <time>2021-04-24T19:17:58.283Z</time>
      </trkpt>
      <trkpt lat="43.57881" lon="5.56346">
        <ele>392</ele>
        <time>2021-04-24T19:17:59.283Z</time>
      </trkpt>
      <trkpt lat="43.57886" lon="5.56341">
        <ele>391.6</ele>
        <time>2021-04-24T19:18:00.283Z</time>
      </trkpt>
      <trkpt lat="43.57891" lon="5.56336">
        <ele>391</ele>
        <time>2021-04-24T19:18:01.283Z</time>
      </trkpt>
      <trkpt lat="43.57896" lon="5.56332">
        <ele>391</ele>
        <time>2021-04-24T19:18:02.283Z</time>
      </trkpt>
      <trkpt lat="43.57902" lon="5.56327">
        <ele>390.8</ele>
        <time>2021-04-24T19:18:03.283Z</time>
      </trkpt>
      <trkpt lat="43.57907" lon="5.56322">
        <ele>390</ele>
        <time>2021-04-24T19:18:04.283Z</time>
      </trkpt>
      <trkpt lat="43.57912" lon="5.56317">
        <ele>390</ele>
        <time>2021-04-24T19:18:05.283Z</time>
      </trkpt>
      <trkpt lat="43.57917" lon="5.56312">
        <ele>389.2</ele>
        <time>2021-04-24T19:18:06.283Z</time>
      </trkpt>
      <trkpt lat="43.57922" lon="5.56306">
        <ele>389</ele>
        <time>2021-04-24T19:18:07.283Z</time>
      </trkpt>
      <trkpt lat="43.57927" lon="5.563">
        <ele>388.2</ele>
        <time>2021-04-24T19:18:08.283Z</time>
      </trkpt>
      <trkpt lat="43.57932" lon="5.56294">
        <ele>388</ele>
        <time>2021-04-24T19:18:09.283Z</time>
      </trkpt>
      <trkpt lat="43.57994" lon="5.56211">
        <ele>404.2</ele>
      </trkpt>
      <trkpt lat="43.57945" lon="5.56186">
        <ele>403.8</ele>
      </trkpt>
      <trkpt lat="43.57844" lon="5.5608">
        <ele>399.7</ele>
      </trkpt>
      <trkpt lat="43.57833" lon="5.56">
        <ele>392.1</ele>
      </trkpt>
      <trkpt lat="43.57888" lon="5.55909">
        <ele>399.4</ele>
      </trkpt>
      <trkpt lat="43.57939" lon="5.55857">
        <ele>401.8</ele>
      </trkpt>
      <trkpt lat="43.57947" lon="5.5579">
        <ele>400.3</ele>
      </trkpt>
      <trkpt lat="43.57976" lon="5.55719">
        <ele>395.1</ele>
      </trkpt>
      <trkpt lat="43.57995" lon="5.55625">
        <ele>388.9</ele>
      </trkpt>
      <trkpt lat="43.57996" lon="5.55538">
        <ele>386.7</ele>
      </trkpt>
      <trkpt lat="43.57969" lon="5.55501">
        <ele>388</ele>
      </trkpt>
      <trkpt lat="43.57838" lon="5.55613">
        <ele>404.1</ele>
      </trkpt>
      <trkpt lat="43.57783" lon="5.5568">
        <ele>414.5</ele>
      </trkpt>
      <trkpt lat="43.57793" lon="5.55722">
        <ele>416.6</ele>
      </trkpt>
      <trkpt lat="43.57854" lon="5.55701">
        <ele>407</ele>
      </trkpt>
      <trkpt lat="43.5788" lon="5.5573">
        <ele>406.5</ele>
      </trkpt>
      <trkpt lat="43.57762" lon="5.55815">
        <ele>424.8</ele>
      </trkpt>
      <trkpt lat="43.57581" lon="5.55864">
        <ele>438.1</ele>
      </trkpt>
      <trkpt lat="43.57501" lon="5.55848">
        <ele>454.7</ele>
      </trkpt>
      <trkpt lat="43.57428" lon="5.55916">
        <ele>455.5</ele>
      </trkpt>
      <trkpt lat="43.57438" lon="5.5588">
        <ele>458.8</ele>
      </trkpt>
      <trkpt lat="43.57444" lon="5.55854">
        <ele>461.5</ele>
      </trkpt>
      <trkpt lat="43.5743" lon="5.55773">
        <ele>465.6</ele>
      </trkpt>
      <trkpt lat="43.57265" lon="5.55752">
        <ele>482.9</ele>
      </trkpt>
      <trkpt lat="43.57062" lon="5.55623">
        <ele>498.5</ele>
      </trkpt>
      <trkpt lat="43.5694" lon="5.55467">
        <ele>507.8</ele>
      </trkpt>
      <trkpt lat="43.56854" lon="5.55336">
        <ele>509</ele>
      </trkpt>
      <trkpt lat="43.56773" lon="5.54934">
        <ele>500.4</ele>
      </trkpt>
      <trkpt lat="43.5674" lon="5.54497">
        <ele>496.3</ele>
      </trkpt>
      <trkpt lat="43.56762" lon="5.54411">
        <ele>498.6</ele>
      </trkpt>
      <trkpt lat="43.56763" lon="5.54407">
        <ele>494</ele>
        <time>1970-01-01T00:57:51.000Z</time>
      </trkpt>
      <trkpt lat="43.56767" lon="5.54405">
        <ele>494.4</ele>
        <time>1970-01-01T00:57:53.000Z</time>
      </trkpt>
      <trkpt lat="43.5677" lon="5.54403">
        <ele>494.9</ele>
        <time>1970-01-01T00:57:54.000Z</time>
      </trkpt>
      <trkpt lat="43.56771" lon="5.54403">
        <ele>495.3</ele>
        <time>1970-01-01T00:57:55.000Z</time>
      </trkpt>
      <trkpt lat="43.56775" lon="5.54402">
        <ele>495.8</ele>
        <time>1970-01-01T00:57:57.000Z</time>
      </trkpt>
      <trkpt lat="43.56779" lon="5.54403">
        <ele>496.2</ele>
        <time>1970-01-01T00:57:59.000Z</time>
      </trkpt>
      <trkpt lat="43.56781" lon="5.54403">
        <ele>496.4</ele>
        <time>1970-01-01T00:58:00.000Z</time>
      </trkpt>
      <trkpt lat="43.56784" lon="5.54399">
        <ele>496.6</ele>
        <time>1970-01-01T00:58:02.000Z</time>
      </trkpt>
      <trkpt lat="43.56787" lon="5.54395">
        <ele>496.9</ele>
        <time>1970-01-01T00:58:04.000Z</time>
      </trkpt>
      <trkpt lat="43.56789" lon="5.54394">
        <ele>497</ele>
        <time>1970-01-01T00:58:05.000Z</time>
      </trkpt>
      <trkpt lat="43.56792" lon="5.54391">
        <ele>497.2</ele>
        <time>1970-01-01T00:58:07.000Z</time>
      </trkpt>
      <trkpt lat="43.56793" lon="5.5439">
        <ele>497.3</ele>
        <time>1970-01-01T00:58:08.000Z</time>
      </trkpt>
      <trkpt lat="43.56798" lon="5.54387">
        <ele>497.6</ele>
        <time>1970-01-01T00:58:10.000Z</time>
      </trkpt>
      <trkpt lat="43.56802" lon="5.54385">
        <ele>497.9</ele>
        <time>1970-01-01T00:58:12.000Z</time>
      </trkpt>
      <trkpt lat="43.56805" lon="5.54383">
        <ele>498.1</ele>
        <time>1970-01-01T00:58:13.000Z</time>
      </trkpt>
      <trkpt lat="43.56807" lon="5.54382">
        <ele>498.2</ele>
        <time>1970-01-01T00:58:14.000Z</time>
      </trkpt>
      <trkpt lat="43.56809" lon="5.54381">
        <ele>498.4</ele>
        <time>1970-01-01T00:58:15.000Z</time>
      </trkpt>
      <trkpt lat="43.56812" lon="5.5438">
        <ele>498.6</ele>
        <time>1970-01-01T00:58:17.000Z</time>
      </trkpt>
      <trkpt lat="43.56813" lon="5.5438">
        <ele>498.6</ele>
        <time>1970-01-01T00:58:18.000Z</time>
      </trkpt>
      <trkpt lat="43.56815" lon="5.5438">
        <ele>498.8</ele>
        <time>1970-01-01T00:58:19.000Z</time>
      </trkpt>
      <trkpt lat="43.5682" lon="5.54378">
        <ele>499</ele>
        <time>1970-01-01T00:58:21.000Z</time>
      </trkpt>
      <trkpt lat="43.56824" lon="5.54376">
        <ele>499.3</ele>
        <time>1970-01-01T00:58:23.000Z</time>
      </trkpt>
      <trkpt lat="43.56829" lon="5.54374">
        <ele>499.6</ele>
        <time>1970-01-01T00:58:25.000Z</time>
      </trkpt>
      <trkpt lat="43.56833" lon="5.54372">
        <ele>499.8</ele>
        <time>1970-01-01T00:58:27.000Z</time>
      </trkpt>
      <trkpt lat="43.56838" lon="5.5437">
        <ele>500.1</ele>
        <time>1970-01-01T00:58:29.000Z</time>
      </trkpt>
      <trkpt lat="43.56839" lon="5.5437">
        <ele>500.1</ele>
        <time>1970-01-01T00:58:30.000Z</time>
      </trkpt>
      <trkpt lat="43.56843" lon="5.54369">
        <ele>500.3</ele>
        <time>1970-01-01T00:58:32.000Z</time>
      </trkpt>
      <trkpt lat="43.56847" lon="5.54369">
        <ele>500.6</ele>
        <time>1970-01-01T00:58:34.000Z</time>
      </trkpt>
      <trkpt lat="43.56852" lon="5.54367">
        <ele>500.8</ele>
        <time>1970-01-01T00:58:36.000Z</time>
      </trkpt>
      <trkpt lat="43.56855" lon="5.54366">
        <ele>500.9</ele>
        <time>1970-01-01T00:58:37.000Z</time>
      </trkpt>
      <trkpt lat="43.5686" lon="5.54365">
        <ele>501.2</ele>
        <time>1970-01-01T00:58:39.000Z</time>
      </trkpt>
      <trkpt lat="43.56862" lon="5.54364">
        <ele>501.2</ele>
        <time>1970-01-01T00:58:40.000Z</time>
      </trkpt>
      <trkpt lat="43.56866" lon="5.54362">
        <ele>501.4</ele>
        <time>1970-01-01T00:58:42.000Z</time>
      </trkpt>
      <trkpt lat="43.56868" lon="5.54361">
        <ele>501.5</ele>
        <time>1970-01-01T00:58:43.000Z</time>
      </trkpt>
      <trkpt lat="43.56872" lon="5.5436">
        <ele>501.7</ele>
        <time>1970-01-01T00:58:45.000Z</time>
      </trkpt>
      <trkpt lat="43.56876" lon="5.54359">
        <ele>501.9</ele>
        <time>1970-01-01T00:58:46.000Z</time>
      </trkpt>
      <trkpt lat="43.56877" lon="5.54359">
        <ele>501.9</ele>
        <time>1970-01-01T00:58:47.000Z</time>
      </trkpt>
      <trkpt lat="43.56881" lon="5.54358">
        <ele>502.1</ele>
        <time>1970-01-01T00:58:49.000Z</time>
      </trkpt>
      <trkpt lat="43.56886" lon="5.54358">
        <ele>502.2</ele>
        <time>1970-01-01T00:58:51.000Z</time>
      </trkpt>
      <trkpt lat="43.56889" lon="5.54359">
        <ele>502.4</ele>
        <time>1970-01-01T00:58:53.000Z</time>
      </trkpt>
      <trkpt lat="43.56891" lon="5.54359">
        <ele>502.4</ele>
        <time>1970-01-01T00:58:54.000Z</time>
      </trkpt>
      <trkpt lat="43.56896" lon="5.5436">
        <ele>502.6</ele>
        <time>1970-01-01T00:58:56.000Z</time>
      </trkpt>
      <trkpt lat="43.56899" lon="5.54361">
        <ele>502.8</ele>
        <time>1970-01-01T00:58:57.000Z</time>
      </trkpt>
      <trkpt lat="43.56901" lon="5.54361">
        <ele>502.8</ele>
        <time>1970-01-01T00:58:58.000Z</time>
      </trkpt>
      <trkpt lat="43.56904" lon="5.54361">
        <ele>502.9</ele>
        <time>1970-01-01T00:58:59.000Z</time>
      </trkpt>
      <trkpt lat="43.56908" lon="5.54359">
        <ele>503.1</ele>
        <time>1970-01-01T00:59:01.000Z</time>
      </trkpt>
      <trkpt lat="43.5691" lon="5.54358">
        <ele>503.1</ele>
        <time>1970-01-01T00:59:02.000Z</time>
      </trkpt>
      <trkpt lat="43.56915" lon="5.54356">
        <ele>503.3</ele>
        <time>1970-01-01T00:59:04.000Z</time>
      </trkpt>
      <trkpt lat="43.56918" lon="5.54355">
        <ele>503.4</ele>
        <time>1970-01-01T00:59:05.000Z</time>
      </trkpt>
      <trkpt lat="43.56922" lon="5.54355">
        <ele>503.5</ele>
        <time>1970-01-01T00:59:07.000Z</time>
      </trkpt>
      <trkpt lat="43.56925" lon="5.54355">
        <ele>503.6</ele>
        <time>1970-01-01T00:59:08.000Z</time>
      </trkpt>
      <trkpt lat="43.5693" lon="5.54355">
        <ele>503.8</ele>
        <time>1970-01-01T00:59:10.000Z</time>
      </trkpt>
      <trkpt lat="43.56935" lon="5.54356">
        <ele>504</ele>
        <time>1970-01-01T00:59:12.000Z</time>
      </trkpt>
      <trkpt lat="43.56937" lon="5.54356">
        <ele>504</ele>
        <time>1970-01-01T00:59:13.000Z</time>
      </trkpt>
      <trkpt lat="43.56938" lon="5.54356">
        <ele>504.1</ele>
        <time>1970-01-01T00:59:14.000Z</time>
      </trkpt>
      <trkpt lat="43.56942" lon="5.54355">
        <ele>504.2</ele>
        <time>1970-01-01T00:59:15.000Z</time>
      </trkpt>
      <trkpt lat="43.56947" lon="5.54353">
        <ele>504.3</ele>
        <time>1970-01-01T00:59:17.000Z</time>
      </trkpt>
      <trkpt lat="43.56949" lon="5.54351">
        <ele>504.4</ele>
        <time>1970-01-01T00:59:18.000Z</time>
      </trkpt>
      <trkpt lat="43.56954" lon="5.54348">
        <ele>504.6</ele>
        <time>1970-01-01T00:59:20.000Z</time>
      </trkpt>
      <trkpt lat="43.56957" lon="5.54348">
        <ele>504.7</ele>
        <time>1970-01-01T00:59:22.000Z</time>
      </trkpt>
      <trkpt lat="43.56959" lon="5.54348">
        <ele>504.7</ele>
        <time>1970-01-01T00:59:23.000Z</time>
      </trkpt>
      <trkpt lat="43.56965" lon="5.54346">
        <ele>504.9</ele>
        <time>1970-01-01T00:59:25.000Z</time>
      </trkpt>
      <trkpt lat="43.5697" lon="5.54343">
        <ele>505</ele>
        <time>1970-01-01T00:59:27.000Z</time>
      </trkpt>
      <trkpt lat="43.56974" lon="5.54341">
        <ele>505.1</ele>
        <time>1970-01-01T00:59:29.000Z</time>
      </trkpt>
      <trkpt lat="43.56976" lon="5.54339">
        <ele>505.2</ele>
        <time>1970-01-01T00:59:30.000Z</time>
      </trkpt>
      <trkpt lat="43.5698" lon="5.54338">
        <ele>505.3</ele>
        <time>1970-01-01T00:59:32.000Z</time>
      </trkpt>
      <trkpt lat="43.56983" lon="5.54337">
        <ele>505.4</ele>
        <time>1970-01-01T00:59:33.000Z</time>
      </trkpt>
      <trkpt lat="43.56984" lon="5.54337">
        <ele>505.4</ele>
        <time>1970-01-01T00:59:34.000Z</time>
      </trkpt>
      <trkpt lat="43.56986" lon="5.54337">
        <ele>505.4</ele>
        <time>1970-01-01T00:59:35.000Z</time>
      </trkpt>
      <trkpt lat="43.5699" lon="5.54338">
        <ele>505.5</ele>
        <time>1970-01-01T00:59:37.000Z</time>
      </trkpt>
      <trkpt lat="43.56993" lon="5.54343">
        <ele>505.6</ele>
        <time>1970-01-01T00:59:39.000Z</time>
      </trkpt>
      <trkpt lat="43.56992" lon="5.54351">
        <ele>505.7</ele>
        <time>1970-01-01T00:59:41.000Z</time>
      </trkpt>
      <trkpt lat="43.56991" lon="5.54354">
        <ele>505.7</ele>
        <time>1970-01-01T00:59:42.000Z</time>
      </trkpt>
      <trkpt lat="43.5699" lon="5.54361">
        <ele>505.8</ele>
        <time>1970-01-01T00:59:44.000Z</time>
      </trkpt>
      <trkpt lat="43.5699" lon="5.54364">
        <ele>505.8</ele>
        <time>1970-01-01T00:59:46.000Z</time>
      </trkpt>
      <trkpt lat="43.56989" lon="5.54365">
        <ele>505.8</ele>
        <time>1970-01-01T00:59:47.000Z</time>
      </trkpt>
      <trkpt lat="43.5699" lon="5.54366">
        <ele>505.8</ele>
        <time>1970-01-01T00:59:48.000Z</time>
      </trkpt>
      <trkpt lat="43.56991" lon="5.54365">
        <ele>505.8</ele>
        <time>1970-01-01T00:59:50.000Z</time>
      </trkpt>
      <trkpt lat="43.56991" lon="5.54364">
        <ele>505.9</ele>
        <time>1970-01-01T00:59:52.000Z</time>
      </trkpt>
      <trkpt lat="43.56991" lon="5.54364">
        <ele>505.9</ele>
        <time>1970-01-01T00:59:54.000Z</time>
      </trkpt>
      <trkpt lat="43.56991" lon="5.54365">
        <ele>505.9</ele>
        <time>1970-01-01T00:59:55.000Z</time>
      </trkpt>
      <trkpt lat="43.56991" lon="5.54368">
        <ele>505.9</ele>
        <time>1970-01-01T00:59:56.000Z</time>
      </trkpt>
      <trkpt lat="43.56991" lon="5.54371">
        <ele>505.9</ele>
        <time>1970-01-01T00:59:58.000Z</time>
      </trkpt>
      <trkpt lat="43.5699" lon="5.54372">
        <ele>505.9</ele>
        <time>1970-01-01T00:59:59.000Z</time>
      </trkpt>
      <trkpt lat="43.56988" lon="5.54372">
        <ele>505.9</ele>
        <time>1970-01-01T01:00:00.000Z</time>
      </trkpt>
      <trkpt lat="43.56986" lon="5.54372">
        <ele>506</ele>
        <time>1970-01-01T01:00:01.000Z</time>
      </trkpt>
      <trkpt lat="43.56983" lon="5.54371">
        <ele>506</ele>
        <time>1970-01-01T01:00:03.000Z</time>
      </trkpt>
      <trkpt lat="43.56983" lon="5.54372">
        <ele>506</ele>
        <time>1970-01-01T01:00:04.000Z</time>
      </trkpt>
      <trkpt lat="43.56983" lon="5.54371">
        <ele>506</ele>
        <time>1970-01-01T01:00:06.000Z</time>
      </trkpt>
      <trkpt lat="43.56983" lon="5.54371">
        <ele>506</ele>
        <time>1970-01-01T01:00:07.000Z</time>
      </trkpt>
      <trkpt lat="43.56982" lon="5.54371">
        <ele>506</ele>
        <time>1970-01-01T01:00:09.000Z</time>
      </trkpt>
      <trkpt lat="43.56982" lon="5.54371">
        <ele>506</ele>
        <time>1970-01-01T01:00:11.000Z</time>
      </trkpt>
      <trkpt lat="43.56982" lon="5.54372">
        <ele>506</ele>
        <time>1970-01-01T01:00:13.000Z</time>
      </trkpt>
      <trkpt lat="43.56982" lon="5.54371">
        <ele>506</ele>
        <time>1970-01-01T01:00:15.000Z</time>
      </trkpt>
      <trkpt lat="43.56982" lon="5.54371">
        <ele>506</ele>
        <time>1970-01-01T01:00:16.000Z</time>
      </trkpt>
      <trkpt lat="43.56983" lon="5.54371">
        <ele>506</ele>
        <time>1970-01-01T01:00:18.000Z</time>
      </trkpt>
      <trkpt lat="43.56983" lon="5.54372">
        <ele>506</ele>
        <time>1970-01-01T01:00:20.000Z</time>
      </trkpt>
      <trkpt lat="43.56983" lon="5.54372">
        <ele>506</ele>
        <time>1970-01-01T01:00:22.000Z</time>
      </trkpt>
      <trkpt lat="43.56983" lon="5.54372">
        <ele>506</ele>
        <time>1970-01-01T01:00:23.000Z</time>
      </trkpt>
      <trkpt lat="43.56982" lon="5.54372">
        <ele>506</ele>
        <time>1970-01-01T01:00:24.000Z</time>
      </trkpt>
      <trkpt lat="43.56982" lon="5.54371">
        <ele>506</ele>
        <time>1970-01-01T01:00:25.000Z</time>
      </trkpt>
      <trkpt lat="43.56983" lon="5.54371">
        <ele>506</ele>
        <time>1970-01-01T01:00:27.000Z</time>
      </trkpt>
      <trkpt lat="43.56983" lon="5.54371">
        <ele>506</ele>
        <time>1970-01-01T01:00:29.000Z</time>
      </trkpt>
      <trkpt lat="43.56983" lon="5.54371">
        <ele>506</ele>
        <time>1970-01-01T01:00:30.000Z</time>
      </trkpt>
      <trkpt lat="43.56983" lon="5.54371">
        <ele>506</ele>
        <time>1970-01-01T01:00:31.000Z</time>
      </trkpt>
      <trkpt lat="43.56983" lon="5.54371">
        <ele>506</ele>
        <time>1970-01-01T01:00:32.000Z</time>
      </trkpt>
      <trkpt lat="43.56982" lon="5.5437">
        <ele>506</ele>
        <time>1970-01-01T01:00:33.000Z</time>
      </trkpt>
      <trkpt lat="43.56986" lon="5.54361">
        <ele>506.1</ele>
        <time>1970-01-01T01:01:34.000Z</time>
      </trkpt>
      <trkpt lat="43.56987" lon="5.54357">
        <ele>506.1</ele>
        <time>1970-01-01T01:01:36.000Z</time>
      </trkpt>
      <trkpt lat="43.56987" lon="5.54354">
        <ele>506.2</ele>
        <time>1970-01-01T01:01:37.000Z</time>
      </trkpt>
      <trkpt lat="43.56988" lon="5.54346">
        <ele>506.2</ele>
        <time>1970-01-01T01:01:39.000Z</time>
      </trkpt>
      <trkpt lat="43.56989" lon="5.54341">
        <ele>506.2</ele>
        <time>1970-01-01T01:01:41.000Z</time>
      </trkpt>
      <trkpt lat="43.5699" lon="5.54339">
        <ele>506.2</ele>
        <time>1970-01-01T01:01:42.000Z</time>
      </trkpt>
      <trkpt lat="43.56991" lon="5.54337">
        <ele>506.2</ele>
        <time>1970-01-01T01:01:43.000Z</time>
      </trkpt>
      <trkpt lat="43.56993" lon="5.54331">
        <ele>506.3</ele>
        <time>1970-01-01T01:01:44.000Z</time>
      </trkpt>
      <trkpt lat="43.56995" lon="5.54328">
        <ele>506.3</ele>
        <time>1970-01-01T01:01:47.000Z</time>
      </trkpt>
      <trkpt lat="43.56997" lon="5.54327">
        <ele>506.3</ele>
        <time>1970-01-01T01:01:48.000Z</time>
      </trkpt>
      <trkpt lat="43.56998" lon="5.54327">
        <ele>506.3</ele>
        <time>1970-01-01T01:01:49.000Z</time>
      </trkpt>
      <trkpt lat="43.57003" lon="5.54335">
        <ele>506.3</ele>
        <time>1970-01-01T01:01:52.000Z</time>
      </trkpt>
      <trkpt lat="43.57009" lon="5.54337">
        <ele>506.4</ele>
        <time>1970-01-01T01:01:54.000Z</time>
      </trkpt>
      <trkpt lat="43.57014" lon="5.54331">
        <ele>506.4</ele>
        <time>1970-01-01T01:01:56.000Z</time>
      </trkpt>
      <trkpt lat="43.57016" lon="5.54327">
        <ele>506.4</ele>
        <time>1970-01-01T01:01:57.000Z</time>
      </trkpt>
      <trkpt lat="43.57019" lon="5.54322">
        <ele>506.4</ele>
        <time>1970-01-01T01:01:59.000Z</time>
      </trkpt>
      <trkpt lat="43.57023" lon="5.54318">
        <ele>506.4</ele>
        <time>1970-01-01T01:02:01.000Z</time>
      </trkpt>
      <trkpt lat="43.57025" lon="5.54315">
        <ele>506.4</ele>
        <time>1970-01-01T01:02:02.000Z</time>
      </trkpt>
      <trkpt lat="43.57029" lon="5.54309">
        <ele>506.5</ele>
        <time>1970-01-01T01:02:04.000Z</time>
      </trkpt>
      <trkpt lat="43.57032" lon="5.54301">
        <ele>506.5</ele>
        <time>1970-01-01T01:02:06.000Z</time>
      </trkpt>
      <trkpt lat="43.57033" lon="5.543">
        <ele>506.5</ele>
        <time>1970-01-01T01:02:07.000Z</time>
      </trkpt>
      <trkpt lat="43.57034" lon="5.54298">
        <ele>506.5</ele>
        <time>1970-01-01T01:02:08.000Z</time>
      </trkpt>
      <trkpt lat="43.57036" lon="5.54295">
        <ele>506.5</ele>
        <time>1970-01-01T01:02:09.000Z</time>
      </trkpt>
      <trkpt lat="43.57037" lon="5.54294">
        <ele>506.5</ele>
        <time>1970-01-01T01:02:10.000Z</time>
      </trkpt>
      <trkpt lat="43.57037" lon="5.54292">
        <ele>506.5</ele>
        <time>1970-01-01T01:02:11.000Z</time>
      </trkpt>
      <trkpt lat="43.57037" lon="5.54289">
        <ele>506.5</ele>
        <time>1970-01-01T01:02:12.000Z</time>
      </trkpt>
      <trkpt lat="43.57041" lon="5.54282">
        <ele>506.5</ele>
        <time>1970-01-01T01:02:14.000Z</time>
      </trkpt>
      <trkpt lat="43.57043" lon="5.54273">
        <ele>506.5</ele>
        <time>1970-01-01T01:02:16.000Z</time>
      </trkpt>
      <trkpt lat="43.57044" lon="5.54269">
        <ele>506.5</ele>
        <time>1970-01-01T01:02:17.000Z</time>
      </trkpt>
      <trkpt lat="43.57045" lon="5.54266">
        <ele>506.4</ele>
        <time>1970-01-01T01:02:18.000Z</time>
      </trkpt>
      <trkpt lat="43.57048" lon="5.54261">
        <ele>506.4</ele>
        <time>1970-01-01T01:02:20.000Z</time>
      </trkpt>
      <trkpt lat="43.57051" lon="5.54254">
        <ele>506.3</ele>
        <time>1970-01-01T01:02:22.000Z</time>
      </trkpt>
      <trkpt lat="43.57053" lon="5.54248">
        <ele>506.3</ele>
        <time>1970-01-01T01:02:24.000Z</time>
      </trkpt>
      <trkpt lat="43.57054" lon="5.54245">
        <ele>506.2</ele>
        <time>1970-01-01T01:02:25.000Z</time>
      </trkpt>
      <trkpt lat="43.57056" lon="5.54243">
        <ele>506.2</ele>
        <time>1970-01-01T01:02:26.000Z</time>
      </trkpt>
      <trkpt lat="43.57061" lon="5.54236">
        <ele>506.1</ele>
        <time>1970-01-01T01:02:29.000Z</time>
      </trkpt>
      <trkpt lat="43.57066" lon="5.5423">
        <ele>506</ele>
        <time>1970-01-01T01:02:31.000Z</time>
      </trkpt>
      <trkpt lat="43.57068" lon="5.54226">
        <ele>506</ele>
        <time>1970-01-01T01:02:32.000Z</time>
      </trkpt>
      <trkpt lat="43.57069" lon="5.54222">
        <ele>506</ele>
        <time>1970-01-01T01:02:33.000Z</time>
      </trkpt>
      <trkpt lat="43.57073" lon="5.54214">
        <ele>505.9</ele>
        <time>1970-01-01T01:02:35.000Z</time>
      </trkpt>
      <trkpt lat="43.57074" lon="5.54209">
        <ele>505.8</ele>
        <time>1970-01-01T01:02:36.000Z</time>
      </trkpt>
      <trkpt lat="43.57072" lon="5.54201">
        <ele>505.7</ele>
        <time>1970-01-01T01:02:38.000Z</time>
      </trkpt>
      <trkpt lat="43.5707" lon="5.54197">
        <ele>505.6</ele>
        <time>1970-01-01T01:02:39.000Z</time>
      </trkpt>
      <trkpt lat="43.57069" lon="5.54195">
        <ele>505.6</ele>
        <time>1970-01-01T01:02:40.000Z</time>
      </trkpt>
      <trkpt lat="43.57069" lon="5.5419">
        <ele>505.5</ele>
        <time>1970-01-01T01:02:41.000Z</time>
      </trkpt>
      <trkpt lat="43.57069" lon="5.54188">
        <ele>505.4</ele>
        <time>1970-01-01T01:02:42.000Z</time>
      </trkpt>
      <trkpt lat="43.5707" lon="5.5418">
        <ele>505.3</ele>
        <time>1970-01-01T01:02:44.000Z</time>
      </trkpt>
      <trkpt lat="43.57071" lon="5.54173">
        <ele>505.1</ele>
        <time>1970-01-01T01:02:46.000Z</time>
      </trkpt>
      <trkpt lat="43.57072" lon="5.54169">
        <ele>505</ele>
        <time>1970-01-01T01:02:47.000Z</time>
      </trkpt>
      <trkpt lat="43.57074" lon="5.5416">
        <ele>504.8</ele>
        <time>1970-01-01T01:02:49.000Z</time>
      </trkpt>
      <trkpt lat="43.57074" lon="5.54152">
        <ele>504.5</ele>
        <time>1970-01-01T01:02:51.000Z</time>
      </trkpt>
      <trkpt lat="43.57074" lon="5.54149">
        <ele>504.4</ele>
        <time>1970-01-01T01:02:52.000Z</time>
      </trkpt>
      <trkpt lat="43.57073" lon="5.54141">
        <ele>504.2</ele>
        <time>1970-01-01T01:02:54.000Z</time>
      </trkpt>
      <trkpt lat="43.57073" lon="5.54135">
        <ele>504.1</ele>
        <time>1970-01-01T01:02:55.000Z</time>
      </trkpt>
      <trkpt lat="43.57073" lon="5.54133">
        <ele>504</ele>
        <time>1970-01-01T01:02:56.000Z</time>
      </trkpt>
      <trkpt lat="43.57074" lon="5.5413">
        <ele>503.9</ele>
        <time>1970-01-01T01:02:57.000Z</time>
      </trkpt>
      <trkpt lat="43.57081" lon="5.5412">
        <ele>503.6</ele>
        <time>1970-01-01T01:02:59.000Z</time>
      </trkpt>
      <trkpt lat="43.57087" lon="5.54107">
        <ele>503.2</ele>
        <time>1970-01-01T01:03:01.000Z</time>
      </trkpt>
      <trkpt lat="43.5709" lon="5.541">
        <ele>503</ele>
        <time>1970-01-01T01:03:02.000Z</time>
      </trkpt>
      <trkpt lat="43.57092" lon="5.54095">
        <ele>502.8</ele>
        <time>1970-01-01T01:03:03.000Z</time>
      </trkpt>
      <trkpt lat="43.57093" lon="5.54089">
        <ele>502.6</ele>
        <time>1970-01-01T01:03:04.000Z</time>
      </trkpt>
      <trkpt lat="43.57092" lon="5.54077">
        <ele>502.3</ele>
        <time>1970-01-01T01:03:06.000Z</time>
      </trkpt>
      <trkpt lat="43.5709" lon="5.54065">
        <ele>502</ele>
        <time>1970-01-01T01:03:08.000Z</time>
      </trkpt>
      <trkpt lat="43.57089" lon="5.54051">
        <ele>501.6</ele>
        <time>1970-01-01T01:03:10.000Z</time>
      </trkpt>
      <trkpt lat="43.5709" lon="5.54047">
        <ele>501.5</ele>
        <time>1970-01-01T01:03:11.000Z</time>
      </trkpt>
      <trkpt lat="43.57092" lon="5.54042">
        <ele>501.3</ele>
        <time>1970-01-01T01:03:12.000Z</time>
      </trkpt>
      <trkpt lat="43.57097" lon="5.54032">
        <ele>501</ele>
        <time>1970-01-01T01:03:14.000Z</time>
      </trkpt>
      <trkpt lat="43.57095" lon="5.54015">
        <ele>500.6</ele>
        <time>1970-01-01T01:03:16.000Z</time>
      </trkpt>
      <trkpt lat="43.57099" lon="5.54001">
        <ele>500.2</ele>
        <time>1970-01-01T01:03:18.000Z</time>
      </trkpt>
      <trkpt lat="43.57102" lon="5.53995">
        <ele>500.1</ele>
        <time>1970-01-01T01:03:19.000Z</time>
      </trkpt>
      <trkpt lat="43.57106" lon="5.53989">
        <ele>499.9</ele>
        <time>1970-01-01T01:03:20.000Z</time>
      </trkpt>
      <trkpt lat="43.57108" lon="5.53976">
        <ele>499.6</ele>
        <time>1970-01-01T01:03:22.000Z</time>
      </trkpt>
      <trkpt lat="43.57106" lon="5.5397">
        <ele>499.5</ele>
        <time>1970-01-01T01:03:23.000Z</time>
      </trkpt>
      <trkpt lat="43.57106" lon="5.53964">
        <ele>499.4</ele>
        <time>1970-01-01T01:03:24.000Z</time>
      </trkpt>
      <trkpt lat="43.57112" lon="5.53953">
        <ele>499.1</ele>
        <time>1970-01-01T01:03:26.000Z</time>
      </trkpt>
      <trkpt lat="43.57116" lon="5.53942">
        <ele>498.9</ele>
        <time>1970-01-01T01:03:28.000Z</time>
      </trkpt>
      <trkpt lat="43.57116" lon="5.53936">
        <ele>498.8</ele>
        <time>1970-01-01T01:03:29.000Z</time>
      </trkpt>
      <trkpt lat="43.5712" lon="5.53926">
        <ele>498.6</ele>
        <time>1970-01-01T01:03:31.000Z</time>
      </trkpt>
      <trkpt lat="43.57124" lon="5.5392">
        <ele>498.5</ele>
        <time>1970-01-01T01:03:32.000Z</time>
      </trkpt>
      <trkpt lat="43.57128" lon="5.53914">
        <ele>498.3</ele>
        <time>1970-01-01T01:03:33.000Z</time>
      </trkpt>
      <trkpt lat="43.57134" lon="5.53901">
        <ele>498.1</ele>
        <time>1970-01-01T01:03:35.000Z</time>
      </trkpt>
      <trkpt lat="43.57138" lon="5.53887">
        <ele>497.9</ele>
        <time>1970-01-01T01:03:37.000Z</time>
      </trkpt>
      <trkpt lat="43.57142" lon="5.53882">
        <ele>497.8</ele>
        <time>1970-01-01T01:03:38.000Z</time>
      </trkpt>
      <trkpt lat="43.57146" lon="5.53875">
        <ele>497.7</ele>
        <time>1970-01-01T01:03:39.000Z</time>
      </trkpt>
      <trkpt lat="43.57156" lon="5.53866">
        <ele>497.5</ele>
        <time>1970-01-01T01:03:41.000Z</time>
      </trkpt>
      <trkpt lat="43.57161" lon="5.53863">
        <ele>497.4</ele>
        <time>1970-01-01T01:03:42.000Z</time>
      </trkpt>
      <trkpt lat="43.57164" lon="5.5386">
        <ele>497.4</ele>
        <time>1970-01-01T01:03:43.000Z</time>
      </trkpt>
      <trkpt lat="43.57167" lon="5.53853">
        <ele>497.3</ele>
        <time>1970-01-01T01:03:45.000Z</time>
      </trkpt>
      <trkpt lat="43.57168" lon="5.53849">
        <ele>497.3</ele>
        <time>1970-01-01T01:03:46.000Z</time>
      </trkpt>
      <trkpt lat="43.5717" lon="5.53846">
        <ele>497.3</ele>
        <time>1970-01-01T01:03:47.000Z</time>
      </trkpt>
      <trkpt lat="43.57171" lon="5.53842">
        <ele>497.2</ele>
        <time>1970-01-01T01:03:48.000Z</time>
      </trkpt>
      <trkpt lat="43.57175" lon="5.53834">
        <ele>497.2</ele>
        <time>1970-01-01T01:03:50.000Z</time>
      </trkpt>
      <trkpt lat="43.57177" lon="5.53829">
        <ele>497.1</ele>
        <time>1970-01-01T01:03:51.000Z</time>
      </trkpt>
      <trkpt lat="43.57182" lon="5.53819">
        <ele>497</ele>
        <time>1970-01-01T01:03:53.000Z</time>
      </trkpt>
      <trkpt lat="43.57185" lon="5.53813">
        <ele>496.9</ele>
        <time>1970-01-01T01:03:54.000Z</time>
      </trkpt>
      <trkpt lat="43.57193" lon="5.53803">
        <ele>496.7</ele>
        <time>1970-01-01T01:03:56.000Z</time>
      </trkpt>
      <trkpt lat="43.57198" lon="5.53798">
        <ele>496.6</ele>
        <time>1970-01-01T01:03:57.000Z</time>
      </trkpt>
      <trkpt lat="43.57206" lon="5.53786">
        <ele>496.4</ele>
        <time>1970-01-01T01:03:59.000Z</time>
      </trkpt>
      <trkpt lat="43.57214" lon="5.53774">
        <ele>496.2</ele>
        <time>1970-01-01T01:04:01.000Z</time>
      </trkpt>
      <trkpt lat="43.57222" lon="5.5376">
        <ele>495.9</ele>
        <time>1970-01-01T01:04:03.000Z</time>
      </trkpt>
      <trkpt lat="43.57226" lon="5.53753">
        <ele>495.8</ele>
        <time>1970-01-01T01:04:04.000Z</time>
      </trkpt>
      <trkpt lat="43.57229" lon="5.53747">
        <ele>495.7</ele>
        <time>1970-01-01T01:04:05.000Z</time>
      </trkpt>
      <trkpt lat="43.57237" lon="5.53733">
        <ele>495.4</ele>
        <time>1970-01-01T01:04:07.000Z</time>
      </trkpt>
      <trkpt lat="43.57245" lon="5.53723">
        <ele>495.2</ele>
        <time>1970-01-01T01:04:08.000Z</time>
      </trkpt>
      <trkpt lat="43.57254" lon="5.53707">
        <ele>494.6</ele>
        <time>1970-01-01T01:04:10.000Z</time>
      </trkpt>
      <trkpt lat="43.57258" lon="5.53701">
        <ele>494.3</ele>
        <time>1970-01-01T01:04:11.000Z</time>
      </trkpt>
      <trkpt lat="43.57268" lon="5.53689">
        <ele>493.7</ele>
        <time>1970-01-01T01:04:13.000Z</time>
      </trkpt>
      <trkpt lat="43.57271" lon="5.53683">
        <ele>493.5</ele>
        <time>1970-01-01T01:04:14.000Z</time>
      </trkpt>
      <trkpt lat="43.57273" lon="5.5367">
        <ele>493</ele>
        <time>1970-01-01T01:04:16.000Z</time>
      </trkpt>
      <trkpt lat="43.57273" lon="5.53663">
        <ele>492.7</ele>
        <time>1970-01-01T01:04:17.000Z</time>
      </trkpt>
      <trkpt lat="43.57273" lon="5.5365">
        <ele>492.1</ele>
        <time>1970-01-01T01:04:19.000Z</time>
      </trkpt>
      <trkpt lat="43.57274" lon="5.53644">
        <ele>491.8</ele>
        <time>1970-01-01T01:04:20.000Z</time>
      </trkpt>
      <trkpt lat="43.57274" lon="5.53637">
        <ele>491.5</ele>
        <time>1970-01-01T01:04:21.000Z</time>
      </trkpt>
      <trkpt lat="43.57275" lon="5.53623">
        <ele>490.8</ele>
        <time>1970-01-01T01:04:23.000Z</time>
      </trkpt>
      <trkpt lat="43.57275" lon="5.53616">
        <ele>490.5</ele>
        <time>1970-01-01T01:04:24.000Z</time>
      </trkpt>
      <trkpt lat="43.57276" lon="5.53609">
        <ele>490.1</ele>
        <time>1970-01-01T01:04:25.000Z</time>
      </trkpt>
      <trkpt lat="43.5728" lon="5.53595">
        <ele>489.4</ele>
        <time>1970-01-01T01:04:27.000Z</time>
      </trkpt>
      <trkpt lat="43.57283" lon="5.53587">
        <ele>488.9</ele>
        <time>1970-01-01T01:04:28.000Z</time>
      </trkpt>
      <trkpt lat="43.57289" lon="5.53571">
        <ele>488</ele>
        <time>1970-01-01T01:04:30.000Z</time>
      </trkpt>
      <trkpt lat="43.57292" lon="5.53564">
        <ele>487.7</ele>
        <time>1970-01-01T01:04:31.000Z</time>
      </trkpt>
      <trkpt lat="43.57298" lon="5.5355">
        <ele>487.1</ele>
        <time>1970-01-01T01:04:33.000Z</time>
      </trkpt>
      <trkpt lat="43.57301" lon="5.53544">
        <ele>486.9</ele>
        <time>1970-01-01T01:04:34.000Z</time>
      </trkpt>
      <trkpt lat="43.57307" lon="5.53531">
        <ele>486.5</ele>
        <time>1970-01-01T01:04:36.000Z</time>
      </trkpt>
      <trkpt lat="43.57311" lon="5.53524">
        <ele>486.3</ele>
        <time>1970-01-01T01:04:37.000Z</time>
      </trkpt>
      <trkpt lat="43.57313" lon="5.53517">
        <ele>486.2</ele>
        <time>1970-01-01T01:04:38.000Z</time>
      </trkpt>
      <trkpt lat="43.57317" lon="5.53505">
        <ele>486</ele>
        <time>1970-01-01T01:04:40.000Z</time>
      </trkpt>
      <trkpt lat="43.5732" lon="5.535">
        <ele>485.9</ele>
        <time>1970-01-01T01:04:41.000Z</time>
      </trkpt>
      <trkpt lat="43.57324" lon="5.53496">
        <ele>485.8</ele>
        <time>1970-01-01T01:04:42.000Z</time>
      </trkpt>
      <trkpt lat="43.57328" lon="5.53491">
        <ele>485.8</ele>
        <time>1970-01-01T01:04:43.000Z</time>
      </trkpt>
      <trkpt lat="43.57336" lon="5.53481">
        <ele>485.7</ele>
        <time>1970-01-01T01:04:45.000Z</time>
      </trkpt>
      <trkpt lat="43.5734" lon="5.53476">
        <ele>485.7</ele>
        <time>1970-01-01T01:04:46.000Z</time>
      </trkpt>
      <trkpt lat="43.57349" lon="5.53466">
        <ele>485.8</ele>
        <time>1970-01-01T01:04:48.000Z</time>
      </trkpt>
      <trkpt lat="43.57356" lon="5.53458">
        <ele>485.8</ele>
        <time>1970-01-01T01:04:50.000Z</time>
      </trkpt>
      <trkpt lat="43.57362" lon="5.53449">
        <ele>485.8</ele>
        <time>1970-01-01T01:04:52.000Z</time>
      </trkpt>
      <trkpt lat="43.57366" lon="5.53445">
        <ele>485.8</ele>
        <time>1970-01-01T01:04:53.000Z</time>
      </trkpt>
      <trkpt lat="43.57369" lon="5.5344">
        <ele>485.8</ele>
        <time>1970-01-01T01:04:54.000Z</time>
      </trkpt>
      <trkpt lat="43.57371" lon="5.53435">
        <ele>485.8</ele>
        <time>1970-01-01T01:04:55.000Z</time>
      </trkpt>
      <trkpt lat="43.57374" lon="5.53429">
        <ele>485.9</ele>
        <time>1970-01-01T01:04:56.000Z</time>
      </trkpt>
      <trkpt lat="43.57378" lon="5.5342">
        <ele>485.9</ele>
        <time>1970-01-01T01:04:58.000Z</time>
      </trkpt>
      <trkpt lat="43.57385" lon="5.53413">
        <ele>485.8</ele>
        <time>1970-01-01T01:05:00.000Z</time>
      </trkpt>
      <trkpt lat="43.57389" lon="5.53408">
        <ele>485.8</ele>
        <time>1970-01-01T01:05:01.000Z</time>
      </trkpt>
      <trkpt lat="43.57392" lon="5.53403">
        <ele>485.7</ele>
        <time>1970-01-01T01:05:02.000Z</time>
      </trkpt>
      <trkpt lat="43.57397" lon="5.53394">
        <ele>485.6</ele>
        <time>1970-01-01T01:05:04.000Z</time>
      </trkpt>
      <trkpt lat="43.57402" lon="5.53383">
        <ele>485.4</ele>
        <time>1970-01-01T01:05:06.000Z</time>
      </trkpt>
      <trkpt lat="43.57404" lon="5.53379">
        <ele>485.4</ele>
        <time>1970-01-01T01:05:07.000Z</time>
      </trkpt>
      <trkpt lat="43.57408" lon="5.53367">
        <ele>485.1</ele>
        <time>1970-01-01T01:05:09.000Z</time>
      </trkpt>
      <trkpt lat="43.57409" lon="5.53362">
        <ele>485</ele>
        <time>1970-01-01T01:05:10.000Z</time>
      </trkpt>
      <trkpt lat="43.57414" lon="5.53351">
        <ele>484.7</ele>
        <time>1970-01-01T01:05:12.000Z</time>
      </trkpt>
      <trkpt lat="43.57416" lon="5.53344">
        <ele>484.6</ele>
        <time>1970-01-01T01:05:13.000Z</time>
      </trkpt>
      <trkpt lat="43.57417" lon="5.5333">
        <ele>484.3</ele>
        <time>1970-01-01T01:05:15.000Z</time>
      </trkpt>
      <trkpt lat="43.57415" lon="5.53317">
        <ele>483.9</ele>
        <time>1970-01-01T01:05:17.000Z</time>
      </trkpt>
      <trkpt lat="43.57414" lon="5.53301">
        <ele>483.5</ele>
        <time>1970-01-01T01:05:19.000Z</time>
      </trkpt>
      <trkpt lat="43.57414" lon="5.53287">
        <ele>483.1</ele>
        <time>1970-01-01T01:05:21.000Z</time>
      </trkpt>
      <trkpt lat="43.57414" lon="5.53279">
        <ele>482.9</ele>
        <time>1970-01-01T01:05:22.000Z</time>
      </trkpt>
      <trkpt lat="43.57415" lon="5.53272">
        <ele>482.6</ele>
        <time>1970-01-01T01:05:23.000Z</time>
      </trkpt>
      <trkpt lat="43.57415" lon="5.53264">
        <ele>482.4</ele>
        <time>1970-01-01T01:05:24.000Z</time>
      </trkpt>
      <trkpt lat="43.57414" lon="5.53246">
        <ele>482</ele>
        <time>1970-01-01T01:05:26.000Z</time>
      </trkpt>
      <trkpt lat="43.57412" lon="5.53229">
        <ele>481.6</ele>
        <time>1970-01-01T01:05:28.000Z</time>
      </trkpt>
      <trkpt lat="43.57413" lon="5.53219">
        <ele>481.3</ele>
        <time>1970-01-01T01:05:29.000Z</time>
      </trkpt>
      <trkpt lat="43.57412" lon="5.53201">
        <ele>480.9</ele>
        <time>1970-01-01T01:05:31.000Z</time>
      </trkpt>
      <trkpt lat="43.57411" lon="5.53192">
        <ele>480.7</ele>
        <time>1970-01-01T01:05:32.000Z</time>
      </trkpt>
      <trkpt lat="43.5741" lon="5.53183">
        <ele>480.5</ele>
        <time>1970-01-01T01:05:33.000Z</time>
      </trkpt>
      <trkpt lat="43.57409" lon="5.53174">
        <ele>480.3</ele>
        <time>1970-01-01T01:05:34.000Z</time>
      </trkpt>
      <trkpt lat="43.57408" lon="5.53165">
        <ele>480.1</ele>
        <time>1970-01-01T01:05:35.000Z</time>
      </trkpt>
      <trkpt lat="43.57407" lon="5.53146">
        <ele>479.5</ele>
        <time>1970-01-01T01:05:37.000Z</time>
      </trkpt>
      <trkpt lat="43.57407" lon="5.53136">
        <ele>479.2</ele>
        <time>1970-01-01T01:05:38.000Z</time>
      </trkpt>
      <trkpt lat="43.57407" lon="5.53126">
        <ele>478.9</ele>
        <time>1970-01-01T01:05:39.000Z</time>
      </trkpt>
      <trkpt lat="43.57406" lon="5.53108">
        <ele>478.3</ele>
        <time>1970-01-01T01:05:41.000Z</time>
      </trkpt>
      <trkpt lat="43.57405" lon="5.5309">
        <ele>477.7</ele>
        <time>1970-01-01T01:05:43.000Z</time>
      </trkpt>
      <trkpt lat="43.57402" lon="5.53072">
        <ele>476.9</ele>
        <time>1970-01-01T01:05:45.000Z</time>
      </trkpt>
      <trkpt lat="43.57401" lon="5.53062">
        <ele>476.5</ele>
        <time>1970-01-01T01:05:46.000Z</time>
      </trkpt>
      <trkpt lat="43.57399" lon="5.5304">
        <ele>475.5</ele>
        <time>1970-01-01T01:05:48.000Z</time>
      </trkpt>
      <trkpt lat="43.57399" lon="5.53029">
        <ele>475</ele>
        <time>1970-01-01T01:05:49.000Z</time>
      </trkpt>
      <trkpt lat="43.57399" lon="5.53019">
        <ele>474.6</ele>
        <time>1970-01-01T01:05:50.000Z</time>
      </trkpt>
      <trkpt lat="43.57399" lon="5.52999">
        <ele>473.6</ele>
        <time>1970-01-01T01:05:52.000Z</time>
      </trkpt>
      <trkpt lat="43.574" lon="5.5299">
        <ele>473.1</ele>
        <time>1970-01-01T01:05:53.000Z</time>
      </trkpt>
      <trkpt lat="43.57401" lon="5.52979">
        <ele>472.5</ele>
        <time>1970-01-01T01:05:54.000Z</time>
      </trkpt>
      <trkpt lat="43.57402" lon="5.52967">
        <ele>471.9</ele>
        <time>1970-01-01T01:05:55.000Z</time>
      </trkpt>
      <trkpt lat="43.57403" lon="5.52947">
        <ele>470.9</ele>
        <time>1970-01-01T01:05:57.000Z</time>
      </trkpt>
      <trkpt lat="43.57404" lon="5.52928">
        <ele>470.1</ele>
        <time>1970-01-01T01:05:59.000Z</time>
      </trkpt>
      <trkpt lat="43.57405" lon="5.52908">
        <ele>469.1</ele>
        <time>1970-01-01T01:06:01.000Z</time>
      </trkpt>
      <trkpt lat="43.57406" lon="5.52888">
        <ele>468.1</ele>
        <time>1970-01-01T01:06:03.000Z</time>
      </trkpt>
      <trkpt lat="43.57404" lon="5.52879">
        <ele>467.6</ele>
        <time>1970-01-01T01:06:04.000Z</time>
      </trkpt>
      <trkpt lat="43.57402" lon="5.52862">
        <ele>466.7</ele>
        <time>1970-01-01T01:06:06.000Z</time>
      </trkpt>
      <trkpt lat="43.57401" lon="5.52852">
        <ele>466.2</ele>
        <time>1970-01-01T01:06:07.000Z</time>
      </trkpt>
      <trkpt lat="43.57399" lon="5.52843">
        <ele>465.8</ele>
        <time>1970-01-01T01:06:08.000Z</time>
      </trkpt>
      <trkpt lat="43.57386" lon="5.52828">
        <ele>465</ele>
        <time>1970-01-01T01:06:10.000Z</time>
      </trkpt>
      <trkpt lat="43.57383" lon="5.52809">
        <ele>464.6</ele>
        <time>1970-01-01T01:06:12.000Z</time>
      </trkpt>
      <trkpt lat="43.57384" lon="5.52799">
        <ele>464.4</ele>
        <time>1970-01-01T01:06:13.000Z</time>
      </trkpt>
      <trkpt lat="43.57388" lon="5.52781">
        <ele>464.3</ele>
        <time>1970-01-01T01:06:15.000Z</time>
      </trkpt>
      <trkpt lat="43.5739" lon="5.52772">
        <ele>464.3</ele>
        <time>1970-01-01T01:06:16.000Z</time>
      </trkpt>
      <trkpt lat="43.57394" lon="5.52754">
        <ele>464.4</ele>
        <time>1970-01-01T01:06:18.000Z</time>
      </trkpt>
      <trkpt lat="43.57397" lon="5.52737">
        <ele>464.5</ele>
        <time>1970-01-01T01:06:20.000Z</time>
      </trkpt>
      <trkpt lat="43.57401" lon="5.52722">
        <ele>464.7</ele>
        <time>1970-01-01T01:06:22.000Z</time>
      </trkpt>
      <trkpt lat="43.57404" lon="5.52714">
        <ele>464.8</ele>
        <time>1970-01-01T01:06:23.000Z</time>
      </trkpt>
      <trkpt lat="43.57409" lon="5.52699">
        <ele>464.9</ele>
        <time>1970-01-01T01:06:25.000Z</time>
      </trkpt>
      <trkpt lat="43.57412" lon="5.52693">
        <ele>464.9</ele>
        <time>1970-01-01T01:06:26.000Z</time>
      </trkpt>
      <trkpt lat="43.57415" lon="5.52686">
        <ele>464.9</ele>
        <time>1970-01-01T01:06:27.000Z</time>
      </trkpt>
      <trkpt lat="43.57417" lon="5.5268">
        <ele>464.9</ele>
        <time>1970-01-01T01:06:28.000Z</time>
      </trkpt>
      <trkpt lat="43.57422" lon="5.52665">
        <ele>464.7</ele>
        <time>1970-01-01T01:06:30.000Z</time>
      </trkpt>
      <trkpt lat="43.57423" lon="5.52658">
        <ele>464.6</ele>
        <time>1970-01-01T01:06:31.000Z</time>
      </trkpt>
      <trkpt lat="43.57425" lon="5.52653">
        <ele>464.5</ele>
        <time>1970-01-01T01:06:32.000Z</time>
      </trkpt>
      <trkpt lat="43.57427" lon="5.52643">
        <ele>464.4</ele>
        <time>1970-01-01T01:06:34.000Z</time>
      </trkpt>
      <trkpt lat="43.57427" lon="5.52631">
        <ele>464.2</ele>
        <time>1970-01-01T01:06:36.000Z</time>
      </trkpt>
      <trkpt lat="43.57428" lon="5.52625">
        <ele>464.1</ele>
        <time>1970-01-01T01:06:37.000Z</time>
      </trkpt>
      <trkpt lat="43.57425" lon="5.52618">
        <ele>463.9</ele>
        <time>1970-01-01T01:06:39.000Z</time>
      </trkpt>
      <trkpt lat="43.57424" lon="5.52615">
        <ele>463.9</ele>
        <time>1970-01-01T01:06:40.000Z</time>
      </trkpt>
      <trkpt lat="43.57424" lon="5.52604">
        <ele>463.7</ele>
        <time>1970-01-01T01:06:42.000Z</time>
      </trkpt>
      <trkpt lat="43.57425" lon="5.52594">
        <ele>463.5</ele>
        <time>1970-01-01T01:06:44.000Z</time>
      </trkpt>
      <trkpt lat="43.57425" lon="5.52581">
        <ele>463.3</ele>
        <time>1970-01-01T01:06:46.000Z</time>
      </trkpt>
      <trkpt lat="43.57425" lon="5.52567">
        <ele>463.2</ele>
        <time>1970-01-01T01:06:48.000Z</time>
      </trkpt>
      <trkpt lat="43.57425" lon="5.5256">
        <ele>463.1</ele>
        <time>1970-01-01T01:06:49.000Z</time>
      </trkpt>
      <trkpt lat="43.57425" lon="5.52553">
        <ele>463.1</ele>
        <time>1970-01-01T01:06:50.000Z</time>
      </trkpt>
      <trkpt lat="43.57424" lon="5.52539">
        <ele>463</ele>
        <time>1970-01-01T01:06:52.000Z</time>
      </trkpt>
      <trkpt lat="43.57424" lon="5.52525">
        <ele>463</ele>
        <time>1970-01-01T01:06:54.000Z</time>
      </trkpt>
      <trkpt lat="43.57426" lon="5.52511">
        <ele>463.1</ele>
        <time>1970-01-01T01:06:56.000Z</time>
      </trkpt>
      <trkpt lat="43.57428" lon="5.52498">
        <ele>463.3</ele>
        <time>1970-01-01T01:06:58.000Z</time>
      </trkpt>
      <trkpt lat="43.57429" lon="5.52492">
        <ele>463.4</ele>
        <time>1970-01-01T01:06:59.000Z</time>
      </trkpt>
      <trkpt lat="43.57432" lon="5.5248">
        <ele>463.7</ele>
        <time>1970-01-01T01:07:01.000Z</time>
      </trkpt>
      <trkpt lat="43.57432" lon="5.52475">
        <ele>463.9</ele>
        <time>1970-01-01T01:07:02.000Z</time>
      </trkpt>
      <trkpt lat="43.57434" lon="5.52464">
        <ele>464.2</ele>
        <time>1970-01-01T01:07:04.000Z</time>
      </trkpt>
      <trkpt lat="43.57434" lon="5.52458">
        <ele>464.4</ele>
        <time>1970-01-01T01:07:05.000Z</time>
      </trkpt>
      <trkpt lat="43.57436" lon="5.5245">
        <ele>464.7</ele>
        <time>1970-01-01T01:07:07.000Z</time>
      </trkpt>
      <trkpt lat="43.57437" lon="5.52447">
        <ele>464.8</ele>
        <time>1970-01-01T01:07:08.000Z</time>
      </trkpt>
      <trkpt lat="43.57441" lon="5.5244">
        <ele>465.1</ele>
        <time>1970-01-01T01:07:10.000Z</time>
      </trkpt>
      <trkpt lat="43.57441" lon="5.52435">
        <ele>465.2</ele>
        <time>1970-01-01T01:07:12.000Z</time>
      </trkpt>
      <trkpt lat="43.57442" lon="5.52428">
        <ele>465.4</ele>
        <time>1970-01-01T01:07:14.000Z</time>
      </trkpt>
      <trkpt lat="43.57443" lon="5.52424">
        <ele>465.6</ele>
        <time>1970-01-01T01:07:15.000Z</time>
      </trkpt>
      <trkpt lat="43.57443" lon="5.52423">
        <ele>465.6</ele>
        <time>1970-01-01T01:07:16.000Z</time>
      </trkpt>
      <trkpt lat="43.57444" lon="5.52417">
        <ele>465.8</ele>
        <time>1970-01-01T01:07:18.000Z</time>
      </trkpt>
      <trkpt lat="43.57445" lon="5.52411">
        <ele>466</ele>
        <time>1970-01-01T01:07:20.000Z</time>
      </trkpt>
      <trkpt lat="43.57445" lon="5.52408">
        <ele>466</ele>
        <time>1970-01-01T01:07:21.000Z</time>
      </trkpt>
      <trkpt lat="43.57445" lon="5.52404">
        <ele>466.2</ele>
        <time>1970-01-01T01:07:23.000Z</time>
      </trkpt>
      <trkpt lat="43.57446" lon="5.52398">
        <ele>466.3</ele>
        <time>1970-01-01T01:07:25.000Z</time>
      </trkpt>
      <trkpt lat="43.57448" lon="5.52394">
        <ele>466.4</ele>
        <time>1970-01-01T01:07:26.000Z</time>
      </trkpt>
      <trkpt lat="43.57448" lon="5.52393">
        <ele>466.4</ele>
        <time>1970-01-01T01:07:27.000Z</time>
      </trkpt>
      <trkpt lat="43.57451" lon="5.52389">
        <ele>466.5</ele>
        <time>1970-01-01T01:07:29.000Z</time>
      </trkpt>
      <trkpt lat="43.57454" lon="5.52383">
        <ele>466.6</ele>
        <time>1970-01-01T01:07:31.000Z</time>
      </trkpt>
      <trkpt lat="43.57458" lon="5.52375">
        <ele>466.6</ele>
        <time>1970-01-01T01:07:33.000Z</time>
      </trkpt>
      <trkpt lat="43.57461" lon="5.52369">
        <ele>466.6</ele>
        <time>1970-01-01T01:07:35.000Z</time>
      </trkpt>
      <trkpt lat="43.57462" lon="5.52364">
        <ele>466.6</ele>
        <time>1970-01-01T01:07:36.000Z</time>
      </trkpt>
      <trkpt lat="43.57464" lon="5.52358">
        <ele>466.5</ele>
        <time>1970-01-01T01:07:38.000Z</time>
      </trkpt>
      <trkpt lat="43.57465" lon="5.52355">
        <ele>466.5</ele>
        <time>1970-01-01T01:07:39.000Z</time>
      </trkpt>
      <trkpt lat="43.57469" lon="5.52347">
        <ele>466.5</ele>
        <time>1970-01-01T01:07:41.000Z</time>
      </trkpt>
      <trkpt lat="43.5747" lon="5.52343">
        <ele>466.5</ele>
        <time>1970-01-01T01:07:42.000Z</time>
      </trkpt>
      <trkpt lat="43.57472" lon="5.52339">
        <ele>466.4</ele>
        <time>1970-01-01T01:07:43.000Z</time>
      </trkpt>
      <trkpt lat="43.57474" lon="5.5233">
        <ele>466.4</ele>
        <time>1970-01-01T01:07:45.000Z</time>
      </trkpt>
      <trkpt lat="43.57476" lon="5.52326">
        <ele>466.4</ele>
        <time>1970-01-01T01:07:46.000Z</time>
      </trkpt>
      <trkpt lat="43.57478" lon="5.52321">
        <ele>466.3</ele>
        <time>1970-01-01T01:07:47.000Z</time>
      </trkpt>
      <trkpt lat="43.57482" lon="5.52316">
        <ele>466.3</ele>
        <time>1970-01-01T01:07:49.000Z</time>
      </trkpt>
      <trkpt lat="43.57485" lon="5.52314">
        <ele>466.2</ele>
        <time>1970-01-01T01:07:50.000Z</time>
      </trkpt>
      <trkpt lat="43.5749" lon="5.52307">
        <ele>466.2</ele>
        <time>1970-01-01T01:07:52.000Z</time>
      </trkpt>
      <trkpt lat="43.57492" lon="5.52297">
        <ele>466.1</ele>
        <time>1970-01-01T01:07:54.000Z</time>
      </trkpt>
      <trkpt lat="43.57495" lon="5.5228">
        <ele>465.9</ele>
        <time>1970-01-01T01:07:56.000Z</time>
      </trkpt>
      <trkpt lat="43.57496" lon="5.5227">
        <ele>465.8</ele>
        <time>1970-01-01T01:07:57.000Z</time>
      </trkpt>
      <trkpt lat="43.57495" lon="5.52254">
        <ele>465.5</ele>
        <time>1970-01-01T01:07:59.000Z</time>
      </trkpt>
      <trkpt lat="43.57496" lon="5.52236">
        <ele>465.1</ele>
        <time>1970-01-01T01:08:01.000Z</time>
      </trkpt>
      <trkpt lat="43.57497" lon="5.52225">
        <ele>464.9</ele>
        <time>1970-01-01T01:08:02.000Z</time>
      </trkpt>
      <trkpt lat="43.57497" lon="5.52204">
        <ele>464.4</ele>
        <time>1970-01-01T01:08:04.000Z</time>
      </trkpt>
      <trkpt lat="43.57497" lon="5.52184">
        <ele>463.8</ele>
        <time>1970-01-01T01:08:06.000Z</time>
      </trkpt>
      <trkpt lat="43.57498" lon="5.52173">
        <ele>463.4</ele>
        <time>1970-01-01T01:08:07.000Z</time>
      </trkpt>
      <trkpt lat="43.57497" lon="5.52162">
        <ele>463</ele>
        <time>1970-01-01T01:08:08.000Z</time>
      </trkpt>
      <trkpt lat="43.57498" lon="5.52152">
        <ele>462.6</ele>
        <time>1970-01-01T01:08:09.000Z</time>
      </trkpt>
      <trkpt lat="43.57498" lon="5.52131">
        <ele>461.2</ele>
        <time>1970-01-01T01:08:11.000Z</time>
      </trkpt>
      <trkpt lat="43.57498" lon="5.5211">
        <ele>460.4</ele>
        <time>1970-01-01T01:08:13.000Z</time>
      </trkpt>
      <trkpt lat="43.57497" lon="5.521">
        <ele>460.1</ele>
        <time>1970-01-01T01:08:14.000Z</time>
      </trkpt>
      <trkpt lat="43.57497" lon="5.52091">
        <ele>459.8</ele>
        <time>1970-01-01T01:08:15.000Z</time>
      </trkpt>
      <trkpt lat="43.57495" lon="5.52074">
        <ele>459.2</ele>
        <time>1970-01-01T01:08:17.000Z</time>
      </trkpt>
      <trkpt lat="43.5749" lon="5.52058">
        <ele>458.5</ele>
        <time>1970-01-01T01:08:19.000Z</time>
      </trkpt>
      <trkpt lat="43.57487" lon="5.52052">
        <ele>458.5</ele>
        <time>1970-01-01T01:08:20.000Z</time>
      </trkpt>
      <trkpt lat="43.57475" lon="5.52048">
        <ele>458.6</ele>
        <time>1970-01-01T01:08:22.000Z</time>
      </trkpt>
      <trkpt lat="43.5747" lon="5.52046">
        <ele>458.5</ele>
        <time>1970-01-01T01:08:23.000Z</time>
      </trkpt>
      <trkpt lat="43.57466" lon="5.52045">
        <ele>458.3</ele>
        <time>1970-01-01T01:08:24.000Z</time>
      </trkpt>
      <trkpt lat="43.57462" lon="5.52041">
        <ele>458.2</ele>
        <time>1970-01-01T01:08:26.000Z</time>
      </trkpt>
      <trkpt lat="43.57463" lon="5.52038">
        <ele>458.2</ele>
        <time>1970-01-01T01:08:28.000Z</time>
      </trkpt>
      <trkpt lat="43.57461" lon="5.52037">
        <ele>458.1</ele>
        <time>1970-01-01T01:08:30.000Z</time>
      </trkpt>
      <trkpt lat="43.5746" lon="5.52037">
        <ele>458</ele>
        <time>1970-01-01T01:08:32.000Z</time>
      </trkpt>
      <trkpt lat="43.57461" lon="5.52036">
        <ele>458</ele>
        <time>1970-01-01T01:08:33.000Z</time>
      </trkpt>
      <trkpt lat="43.57461" lon="5.52036">
        <ele>458</ele>
        <time>1970-01-01T01:08:35.000Z</time>
      </trkpt>
      <trkpt lat="43.57461" lon="5.52036">
        <ele>458</ele>
        <time>1970-01-01T01:08:36.000Z</time>
      </trkpt>
      <trkpt lat="43.57462" lon="5.52037">
        <ele>458</ele>
        <time>1970-01-01T01:08:38.000Z</time>
      </trkpt>
      <trkpt lat="43.57463" lon="5.52039">
        <ele>458.1</ele>
        <time>1970-01-01T01:08:39.000Z</time>
      </trkpt>
      <trkpt lat="43.57464" lon="5.52041">
        <ele>458.2</ele>
        <time>1970-01-01T01:08:41.000Z</time>
      </trkpt>
      <trkpt lat="43.57464" lon="5.52042">
        <ele>458.1</ele>
        <time>1970-01-01T01:08:42.000Z</time>
      </trkpt>
      <trkpt lat="43.57464" lon="5.52041">
        <ele>458.1</ele>
        <time>1970-01-01T01:08:44.000Z</time>
      </trkpt>
      <trkpt lat="43.57464" lon="5.52041">
        <ele>458.1</ele>
        <time>1970-01-01T01:08:45.000Z</time>
      </trkpt>
      <trkpt lat="43.57464" lon="5.52039">
        <ele>458</ele>
        <time>1970-01-01T01:08:46.000Z</time>
      </trkpt>
      <trkpt lat="43.57463" lon="5.52036">
        <ele>457.9</ele>
        <time>1970-01-01T01:08:47.000Z</time>
      </trkpt>
      <trkpt lat="43.57462" lon="5.52029">
        <ele>457.9</ele>
        <time>1970-01-01T01:08:49.000Z</time>
      </trkpt>
      <trkpt lat="43.5746" lon="5.52021">
        <ele>457.6</ele>
        <time>1970-01-01T01:08:51.000Z</time>
      </trkpt>
      <trkpt lat="43.5746" lon="5.52013">
        <ele>457.4</ele>
        <time>1970-01-01T01:08:53.000Z</time>
      </trkpt>
      <trkpt lat="43.57459" lon="5.52009">
        <ele>457.3</ele>
        <time>1970-01-01T01:08:54.000Z</time>
      </trkpt>
      <trkpt lat="43.57453" lon="5.52">
        <ele>457</ele>
        <time>1970-01-01T01:08:56.000Z</time>
      </trkpt>
      <trkpt lat="43.5745" lon="5.51997">
        <ele>456.8</ele>
        <time>1970-01-01T01:08:57.000Z</time>
      </trkpt>
      <trkpt lat="43.57449" lon="5.51994">
        <ele>456.7</ele>
        <time>1970-01-01T01:08:58.000Z</time>
      </trkpt>
      <trkpt lat="43.57446" lon="5.51987">
        <ele>456.6</ele>
        <time>1970-01-01T01:09:00.000Z</time>
      </trkpt>
      <trkpt lat="43.57438" lon="5.51984">
        <ele>456.4</ele>
        <time>1970-01-01T01:09:02.000Z</time>
      </trkpt>
      <trkpt lat="43.57433" lon="5.51983">
        <ele>456.4</ele>
        <time>1970-01-01T01:09:03.000Z</time>
      </trkpt>
      <trkpt lat="43.5743" lon="5.51972">
        <ele>456.1</ele>
        <time>1970-01-01T01:09:05.000Z</time>
      </trkpt>
      <trkpt lat="43.5743" lon="5.51956">
        <ele>455.8</ele>
        <time>1970-01-01T01:09:07.000Z</time>
      </trkpt>
      <trkpt lat="43.57424" lon="5.51944">
        <ele>455.4</ele>
        <time>1970-01-01T01:09:09.000Z</time>
      </trkpt>
      <trkpt lat="43.57418" lon="5.51936">
        <ele>455.2</ele>
        <time>1970-01-01T01:09:11.000Z</time>
      </trkpt>
      <trkpt lat="43.57414" lon="5.51924">
        <ele>454.8</ele>
        <time>1970-01-01T01:09:13.000Z</time>
      </trkpt>
      <trkpt lat="43.57407" lon="5.51913">
        <ele>454.5</ele>
        <time>1970-01-01T01:09:15.000Z</time>
      </trkpt>
      <trkpt lat="43.57406" lon="5.51908">
        <ele>454.1</ele>
        <time>1970-01-01T01:09:16.000Z</time>
      </trkpt>
      <trkpt lat="43.5741" lon="5.51895">
        <ele>453.5</ele>
        <time>1970-01-01T01:09:18.000Z</time>
      </trkpt>
      <trkpt lat="43.5741" lon="5.5189">
        <ele>453.2</ele>
        <time>1970-01-01T01:09:19.000Z</time>
      </trkpt>
      <trkpt lat="43.57404" lon="5.51879">
        <ele>452.6</ele>
        <time>1970-01-01T01:09:21.000Z</time>
      </trkpt>
      <trkpt lat="43.57399" lon="5.51866">
        <ele>451.7</ele>
        <time>1970-01-01T01:09:23.000Z</time>
      </trkpt>
      <trkpt lat="43.57394" lon="5.51857">
        <ele>450.9</ele>
        <time>1970-01-01T01:09:25.000Z</time>
      </trkpt>
      <trkpt lat="43.57392" lon="5.51846">
        <ele>449.8</ele>
        <time>1970-01-01T01:09:27.000Z</time>
      </trkpt>
      <trkpt lat="43.57391" lon="5.51839">
        <ele>449.1</ele>
        <time>1970-01-01T01:09:28.000Z</time>
      </trkpt>
      <trkpt lat="43.57385" lon="5.51825">
        <ele>448.2</ele>
        <time>1970-01-01T01:09:30.000Z</time>
      </trkpt>
      <trkpt lat="43.57384" lon="5.51817">
        <ele>447.6</ele>
        <time>1970-01-01T01:09:31.000Z</time>
      </trkpt>
      <trkpt lat="43.57381" lon="5.51801">
        <ele>446.3</ele>
        <time>1970-01-01T01:09:33.000Z</time>
      </trkpt>
      <trkpt lat="43.57381" lon="5.51793">
        <ele>445.9</ele>
        <time>1970-01-01T01:09:34.000Z</time>
      </trkpt>
      <trkpt lat="43.57381" lon="5.51774">
        <ele>444.1</ele>
        <time>1970-01-01T01:09:36.000Z</time>
      </trkpt>
      <trkpt lat="43.57383" lon="5.51765">
        <ele>443.3</ele>
        <time>1970-01-01T01:09:37.000Z</time>
      </trkpt>
      <trkpt lat="43.57385" lon="5.51747">
        <ele>441.2</ele>
        <time>1970-01-01T01:09:39.000Z</time>
      </trkpt>
      <trkpt lat="43.57384" lon="5.51732">
        <ele>439.4</ele>
        <time>1970-01-01T01:09:41.000Z</time>
      </trkpt>
      <trkpt lat="43.57381" lon="5.51717">
        <ele>438.4</ele>
        <time>1970-01-01T01:09:43.000Z</time>
      </trkpt>
      <trkpt lat="43.5738" lon="5.51702">
        <ele>436.8</ele>
        <time>1970-01-01T01:09:45.000Z</time>
      </trkpt>
      <trkpt lat="43.5738" lon="5.51695">
        <ele>436.2</ele>
        <time>1970-01-01T01:09:46.000Z</time>
      </trkpt>
      <trkpt lat="43.57385" lon="5.51686">
        <ele>435.3</ele>
        <time>1970-01-01T01:09:48.000Z</time>
      </trkpt>
      <trkpt lat="43.57386" lon="5.51683">
        <ele>434.9</ele>
        <time>1970-01-01T01:09:49.000Z</time>
      </trkpt>
      <trkpt lat="43.57391" lon="5.51679">
        <ele>434.3</ele>
        <time>1970-01-01T01:09:51.000Z</time>
      </trkpt>
      <trkpt lat="43.57395" lon="5.51677">
        <ele>434.1</ele>
        <time>1970-01-01T01:09:52.000Z</time>
      </trkpt>
      <trkpt lat="43.57397" lon="5.51674">
        <ele>433.7</ele>
        <time>1970-01-01T01:09:53.000Z</time>
      </trkpt>
      <trkpt lat="43.57399" lon="5.51665">
        <ele>432.9</ele>
        <time>1970-01-01T01:09:55.000Z</time>
      </trkpt>
      <trkpt lat="43.57401" lon="5.5166">
        <ele>432.5</ele>
        <time>1970-01-01T01:09:56.000Z</time>
      </trkpt>
      <trkpt lat="43.57403" lon="5.51654">
        <ele>431.8</ele>
        <time>1970-01-01T01:09:57.000Z</time>
      </trkpt>
      <trkpt lat="43.57406" lon="5.51642">
        <ele>430.9</ele>
        <time>1970-01-01T01:09:59.000Z</time>
      </trkpt>
      <trkpt lat="43.57407" lon="5.51636">
        <ele>430.6</ele>
        <time>1970-01-01T01:10:00.000Z</time>
      </trkpt>
      <trkpt lat="43.57407" lon="5.51628">
        <ele>430</ele>
        <time>1970-01-01T01:10:01.000Z</time>
      </trkpt>
      <trkpt lat="43.57407" lon="5.51622">
        <ele>429.6</ele>
        <time>1970-01-01T01:10:02.000Z</time>
      </trkpt>
      <trkpt lat="43.57405" lon="5.51614">
        <ele>429</ele>
        <time>1970-01-01T01:10:04.000Z</time>
      </trkpt>
      <trkpt lat="43.57408" lon="5.51609">
        <ele>428.6</ele>
        <time>1970-01-01T01:10:06.000Z</time>
      </trkpt>
      <trkpt lat="43.57409" lon="5.51605">
        <ele>428.4</ele>
        <time>1970-01-01T01:10:07.000Z</time>
      </trkpt>
      <trkpt lat="43.57411" lon="5.51597">
        <ele>427.7</ele>
        <time>1970-01-01T01:10:09.000Z</time>
      </trkpt>
      <trkpt lat="43.57418" lon="5.51583">
        <ele>426.9</ele>
        <time>1970-01-01T01:10:11.000Z</time>
      </trkpt>
      <trkpt lat="43.57425" lon="5.51572">
        <ele>426.1</ele>
        <time>1970-01-01T01:10:13.000Z</time>
      </trkpt>
      <trkpt lat="43.57429" lon="5.51567">
        <ele>426</ele>
        <time>1970-01-01T01:10:14.000Z</time>
      </trkpt>
      <trkpt lat="43.57433" lon="5.51557">
        <ele>425.7</ele>
        <time>1970-01-01T01:10:16.000Z</time>
      </trkpt>
      <trkpt lat="43.57433" lon="5.51544">
        <ele>425.2</ele>
        <time>1970-01-01T01:10:18.000Z</time>
      </trkpt>
      <trkpt lat="43.57436" lon="5.51532">
        <ele>424.9</ele>
        <time>1970-01-01T01:10:20.000Z</time>
      </trkpt>
      <trkpt lat="43.5744" lon="5.51523">
        <ele>424.7</ele>
        <time>1970-01-01T01:10:22.000Z</time>
      </trkpt>
      <trkpt lat="43.5744" lon="5.51519">
        <ele>424.5</ele>
        <time>1970-01-01T01:10:23.000Z</time>
      </trkpt>
      <trkpt lat="43.57443" lon="5.51509">
        <ele>424.2</ele>
        <time>1970-01-01T01:10:25.000Z</time>
      </trkpt>
      <trkpt lat="43.57445" lon="5.51504">
        <ele>423.9</ele>
        <time>1970-01-01T01:10:26.000Z</time>
      </trkpt>
      <trkpt lat="43.57449" lon="5.51501">
        <ele>424</ele>
        <time>1970-01-01T01:10:27.000Z</time>
      </trkpt>
      <trkpt lat="43.57453" lon="5.51497">
        <ele>423.8</ele>
        <time>1970-01-01T01:10:28.000Z</time>
      </trkpt>
      <trkpt lat="43.5746" lon="5.51489">
        <ele>423.5</ele>
        <time>1970-01-01T01:10:30.000Z</time>
      </trkpt>
      <trkpt lat="43.57461" lon="5.51481">
        <ele>423.2</ele>
        <time>1970-01-01T01:10:31.000Z</time>
      </trkpt>
      <trkpt lat="43.57462" lon="5.51472">
        <ele>422.8</ele>
        <time>1970-01-01T01:10:32.000Z</time>
      </trkpt>
      <trkpt lat="43.57465" lon="5.51461">
        <ele>422.2</ele>
        <time>1970-01-01T01:10:34.000Z</time>
      </trkpt>
      <trkpt lat="43.57467" lon="5.51458">
        <ele>421.8</ele>
        <time>1970-01-01T01:10:36.000Z</time>
      </trkpt>
      <trkpt lat="43.57468" lon="5.51457">
        <ele>421.8</ele>
        <time>1970-01-01T01:10:38.000Z</time>
      </trkpt>
      <trkpt lat="43.57473" lon="5.51449">
        <ele>420.8</ele>
        <time>1970-01-01T01:10:40.000Z</time>
      </trkpt>
      <trkpt lat="43.57476" lon="5.51444">
        <ele>420.1</ele>
        <time>1970-01-01T01:10:41.000Z</time>
      </trkpt>
      <trkpt lat="43.57478" lon="5.51441">
        <ele>419.3</ele>
        <time>1970-01-01T01:10:42.000Z</time>
      </trkpt>
      <trkpt lat="43.57479" lon="5.51431">
        <ele>418.5</ele>
        <time>1970-01-01T01:10:44.000Z</time>
      </trkpt>
      <trkpt lat="43.5748" lon="5.51421">
        <ele>417.4</ele>
        <time>1970-01-01T01:10:46.000Z</time>
      </trkpt>
      <trkpt lat="43.57476" lon="5.51414">
        <ele>417.1</ele>
        <time>1970-01-01T01:10:48.000Z</time>
      </trkpt>
      <trkpt lat="43.57473" lon="5.51411">
        <ele>417.8</ele>
        <time>1970-01-01T01:10:49.000Z</time>
      </trkpt>
      <trkpt lat="43.57471" lon="5.51408">
        <ele>417.4</ele>
        <time>1970-01-01T01:10:50.000Z</time>
      </trkpt>
      <trkpt lat="43.57476" lon="5.51402">
        <ele>416.5</ele>
        <time>1970-01-01T01:10:52.000Z</time>
      </trkpt>
      <trkpt lat="43.57482" lon="5.51392">
        <ele>415.1</ele>
        <time>1970-01-01T01:10:54.000Z</time>
      </trkpt>
      <trkpt lat="43.57482" lon="5.51379">
        <ele>414.2</ele>
        <time>1970-01-01T01:10:56.000Z</time>
      </trkpt>
      <trkpt lat="43.57484" lon="5.51372">
        <ele>413.3</ele>
        <time>1970-01-01T01:10:57.000Z</time>
      </trkpt>
      <trkpt lat="43.57487" lon="5.51368">
        <ele>412.9</ele>
        <time>1970-01-01T01:10:58.000Z</time>
      </trkpt>
      <trkpt lat="43.57497" lon="5.51364">
        <ele>411.3</ele>
        <time>1970-01-01T01:11:00.000Z</time>
      </trkpt>
      <trkpt lat="43.57504" lon="5.51361">
        <ele>410</ele>
        <time>1970-01-01T01:11:01.000Z</time>
      </trkpt>
      <trkpt lat="43.57508" lon="5.51356">
        <ele>408.7</ele>
        <time>1970-01-01T01:11:02.000Z</time>
      </trkpt>
      <trkpt lat="43.57514" lon="5.51348">
        <ele>407.2</ele>
        <time>1970-01-01T01:11:04.000Z</time>
      </trkpt>
      <trkpt lat="43.5752" lon="5.51339">
        <ele>405.9</ele>
        <time>1970-01-01T01:11:06.000Z</time>
      </trkpt>
      <trkpt lat="43.57523" lon="5.51335">
        <ele>405.3</ele>
        <time>1970-01-01T01:11:07.000Z</time>
      </trkpt>
      <trkpt lat="43.57528" lon="5.51333">
        <ele>404.6</ele>
        <time>1970-01-01T01:11:08.000Z</time>
      </trkpt>
      <trkpt lat="43.57531" lon="5.51333">
        <ele>404.3</ele>
        <time>1970-01-01T01:11:10.000Z</time>
      </trkpt>
      <trkpt lat="43.57532" lon="5.51328">
        <ele>404</ele>
        <time>1970-01-01T01:11:11.000Z</time>
      </trkpt>
      <trkpt lat="43.57536" lon="5.5132">
        <ele>402.8</ele>
        <time>1970-01-01T01:11:13.000Z</time>
      </trkpt>
      <trkpt lat="43.57537" lon="5.51317">
        <ele>402.7</ele>
        <time>1970-01-01T01:11:14.000Z</time>
      </trkpt>
      <trkpt lat="43.57537" lon="5.5131">
        <ele>402.1</ele>
        <time>1970-01-01T01:11:16.000Z</time>
      </trkpt>
      <trkpt lat="43.57536" lon="5.51305">
        <ele>401.8</ele>
        <time>1970-01-01T01:11:17.000Z</time>
      </trkpt>
      <trkpt lat="43.57536" lon="5.51303">
        <ele>401.4</ele>
        <time>1970-01-01T01:11:18.000Z</time>
      </trkpt>
      <trkpt lat="43.57537" lon="5.51298">
        <ele>401.1</ele>
        <time>1970-01-01T01:11:20.000Z</time>
      </trkpt>
      <trkpt lat="43.5754" lon="5.51296">
        <ele>400.8</ele>
        <time>1970-01-01T01:11:21.000Z</time>
      </trkpt>
      <trkpt lat="43.57549" lon="5.51297">
        <ele>400</ele>
        <time>1970-01-01T01:11:23.000Z</time>
      </trkpt>
      <trkpt lat="43.57553" lon="5.51298">
        <ele>399.7</ele>
        <time>1970-01-01T01:11:24.000Z</time>
      </trkpt>
      <trkpt lat="43.57557" lon="5.51282">
        <ele>398.4</ele>
        <time>1970-01-01T01:11:26.000Z</time>
      </trkpt>
      <trkpt lat="43.57561" lon="5.51275">
        <ele>397.1</ele>
        <time>1970-01-01T01:11:27.000Z</time>
      </trkpt>
      <trkpt lat="43.5757" lon="5.5127">
        <ele>396.2</ele>
        <time>1970-01-01T01:11:29.000Z</time>
      </trkpt>
      <trkpt lat="43.57572" lon="5.51267">
        <ele>395.6</ele>
        <time>1970-01-01T01:11:30.000Z</time>
      </trkpt>
      <trkpt lat="43.57571" lon="5.51259">
        <ele>394.8</ele>
        <time>1970-01-01T01:11:32.000Z</time>
      </trkpt>
      <trkpt lat="43.5757" lon="5.51255">
        <ele>394.6</ele>
        <time>1970-01-01T01:11:33.000Z</time>
      </trkpt>
      <trkpt lat="43.57568" lon="5.5125">
        <ele>394.3</ele>
        <time>1970-01-01T01:11:34.000Z</time>
      </trkpt>
      <trkpt lat="43.57566" lon="5.5124">
        <ele>393.8</ele>
        <time>1970-01-01T01:11:36.000Z</time>
      </trkpt>
      <trkpt lat="43.57567" lon="5.51236">
        <ele>393.3</ele>
        <time>1970-01-01T01:11:37.000Z</time>
      </trkpt>
      <trkpt lat="43.57571" lon="5.5123">
        <ele>392.3</ele>
        <time>1970-01-01T01:11:39.000Z</time>
      </trkpt>
      <trkpt lat="43.57573" lon="5.51226">
        <ele>392.1</ele>
        <time>1970-01-01T01:11:40.000Z</time>
      </trkpt>
      <trkpt lat="43.57575" lon="5.51219">
        <ele>391.3</ele>
        <time>1970-01-01T01:11:42.000Z</time>
      </trkpt>
      <trkpt lat="43.57577" lon="5.51215">
        <ele>390.7</ele>
        <time>1970-01-01T01:11:43.000Z</time>
      </trkpt>
      <trkpt lat="43.57579" lon="5.51212">
        <ele>390.3</ele>
        <time>1970-01-01T01:11:44.000Z</time>
      </trkpt>
      <trkpt lat="43.57581" lon="5.51207">
        <ele>389.7</ele>
        <time>1970-01-01T01:11:45.000Z</time>
      </trkpt>
      <trkpt lat="43.57587" lon="5.51197">
        <ele>388.4</ele>
        <time>1970-01-01T01:11:47.000Z</time>
      </trkpt>
      <trkpt lat="43.57591" lon="5.51193">
        <ele>387.8</ele>
        <time>1970-01-01T01:11:48.000Z</time>
      </trkpt>
      <trkpt lat="43.57599" lon="5.5119">
        <ele>386.8</ele>
        <time>1970-01-01T01:11:50.000Z</time>
      </trkpt>
      <trkpt lat="43.57602" lon="5.5119">
        <ele>386.7</ele>
        <time>1970-01-01T01:11:51.000Z</time>
      </trkpt>
      <trkpt lat="43.5761" lon="5.51184">
        <ele>386</ele>
        <time>1970-01-01T01:11:53.000Z</time>
      </trkpt>
      <trkpt lat="43.57614" lon="5.51178">
        <ele>384.9</ele>
        <time>1970-01-01T01:11:54.000Z</time>
      </trkpt>
      <trkpt lat="43.57617" lon="5.51171">
        <ele>384.3</ele>
        <time>1970-01-01T01:11:55.000Z</time>
      </trkpt>
      <trkpt lat="43.57625" lon="5.51157">
        <ele>382.5</ele>
        <time>1970-01-01T01:11:57.000Z</time>
      </trkpt>
      <trkpt lat="43.57632" lon="5.51152">
        <ele>382.2</ele>
        <time>1970-01-01T01:11:59.000Z</time>
      </trkpt>
      <trkpt lat="43.57632" lon="5.5115">
        <ele>382.2</ele>
        <time>1970-01-01T01:12:00.000Z</time>
      </trkpt>
      <trkpt lat="43.57621" lon="5.51146">
        <ele>381.8</ele>
        <time>1970-01-01T01:12:02.000Z</time>
      </trkpt>
      <trkpt lat="43.5762" lon="5.51141">
        <ele>381.5</ele>
        <time>1970-01-01T01:12:03.000Z</time>
      </trkpt>
      <trkpt lat="43.57621" lon="5.51134">
        <ele>380.7</ele>
        <time>1970-01-01T01:12:04.000Z</time>
      </trkpt>
      <trkpt lat="43.57622" lon="5.51126">
        <ele>380</ele>
        <time>1970-01-01T01:12:05.000Z</time>
      </trkpt>
      <trkpt lat="43.57623" lon="5.51121">
        <ele>379.7</ele>
        <time>1970-01-01T01:12:06.000Z</time>
      </trkpt>
      <trkpt lat="43.57631" lon="5.51112">
        <ele>379</ele>
        <time>1970-01-01T01:12:08.000Z</time>
      </trkpt>
      <trkpt lat="43.57636" lon="5.51104">
        <ele>378.2</ele>
        <time>1970-01-01T01:12:10.000Z</time>
      </trkpt>
      <trkpt lat="43.57635" lon="5.51095">
        <ele>377.3</ele>
        <time>1970-01-01T01:12:12.000Z</time>
      </trkpt>
      <trkpt lat="43.57635" lon="5.51091">
        <ele>376.8</ele>
        <time>1970-01-01T01:12:13.000Z</time>
      </trkpt>
      <trkpt lat="43.57637" lon="5.51079">
        <ele>375.4</ele>
        <time>1970-01-01T01:12:15.000Z</time>
      </trkpt>
      <trkpt lat="43.57645" lon="5.51063">
        <ele>374.2</ele>
        <time>1970-01-01T01:12:17.000Z</time>
      </trkpt>
      <trkpt lat="43.57652" lon="5.51051">
        <ele>373.6</ele>
        <time>1970-01-01T01:12:19.000Z</time>
      </trkpt>
      <trkpt lat="43.57655" lon="5.51045">
        <ele>372.9</ele>
        <time>1970-01-01T01:12:20.000Z</time>
      </trkpt>
      <trkpt lat="43.57659" lon="5.51038">
        <ele>372.6</ele>
        <time>1970-01-01T01:12:22.000Z</time>
      </trkpt>
      <trkpt lat="43.57665" lon="5.51023">
        <ele>371.6</ele>
        <time>1970-01-01T01:12:24.000Z</time>
      </trkpt>
      <trkpt lat="43.5767" lon="5.51016">
        <ele>371.7</ele>
        <time>1970-01-01T01:12:25.000Z</time>
      </trkpt>
      <trkpt lat="43.57675" lon="5.51001">
        <ele>370.6</ele>
        <time>1970-01-01T01:12:27.000Z</time>
      </trkpt>
      <trkpt lat="43.57677" lon="5.50994">
        <ele>370</ele>
        <time>1970-01-01T01:12:28.000Z</time>
      </trkpt>
      <trkpt lat="43.57679" lon="5.50988">
        <ele>369.8</ele>
        <time>1970-01-01T01:12:29.000Z</time>
      </trkpt>
      <trkpt lat="43.57681" lon="5.5098">
        <ele>369.1</ele>
        <time>1970-01-01T01:12:30.000Z</time>
      </trkpt>
      <trkpt lat="43.57683" lon="5.50973">
        <ele>369</ele>
        <time>1970-01-01T01:12:31.000Z</time>
      </trkpt>
      <trkpt lat="43.57685" lon="5.50965">
        <ele>368.7</ele>
        <time>1970-01-01T01:12:32.000Z</time>
      </trkpt>
      <trkpt lat="43.5768" lon="5.50955">
        <ele>367.1</ele>
        <time>1970-01-01T01:12:34.000Z</time>
      </trkpt>
      <trkpt lat="43.57681" lon="5.50953">
        <ele>367.1</ele>
        <time>1970-01-01T01:12:35.000Z</time>
      </trkpt>
      <trkpt lat="43.57683" lon="5.50952">
        <ele>367.4</ele>
        <time>1970-01-01T01:12:37.000Z</time>
      </trkpt>
      <trkpt lat="43.57686" lon="5.50951">
        <ele>367.5</ele>
        <time>1970-01-01T01:12:38.000Z</time>
      </trkpt>
      <trkpt lat="43.57689" lon="5.50949">
        <ele>367.9</ele>
        <time>1970-01-01T01:12:39.000Z</time>
      </trkpt>
      <trkpt lat="43.57691" lon="5.50946">
        <ele>367.6</ele>
        <time>1970-01-01T01:12:40.000Z</time>
      </trkpt>
      <trkpt lat="43.57696" lon="5.50939">
        <ele>368</ele>
        <time>1970-01-01T01:12:42.000Z</time>
      </trkpt>
      <trkpt lat="43.57702" lon="5.50932">
        <ele>368.1</ele>
        <time>1970-01-01T01:12:44.000Z</time>
      </trkpt>
      <trkpt lat="43.57707" lon="5.50923">
        <ele>368.2</ele>
        <time>1970-01-01T01:12:46.000Z</time>
      </trkpt>
      <trkpt lat="43.57708" lon="5.50918">
        <ele>368.1</ele>
        <time>1970-01-01T01:12:47.000Z</time>
      </trkpt>
      <trkpt lat="43.57711" lon="5.5091">
        <ele>367.9</ele>
        <time>1970-01-01T01:12:49.000Z</time>
      </trkpt>
      <trkpt lat="43.57711" lon="5.50903">
        <ele>367.8</ele>
        <time>1970-01-01T01:12:50.000Z</time>
      </trkpt>
      <trkpt lat="43.57711" lon="5.50901">
        <ele>367.7</ele>
        <time>1970-01-01T01:12:51.000Z</time>
      </trkpt>
      <trkpt lat="43.57713" lon="5.50891">
        <ele>367.5</ele>
        <time>1970-01-01T01:12:53.000Z</time>
      </trkpt>
      <trkpt lat="43.57716" lon="5.50886">
        <ele>367.4</ele>
        <time>1970-01-01T01:12:54.000Z</time>
      </trkpt>
      <trkpt lat="43.57718" lon="5.50882">
        <ele>367.2</ele>
        <time>1970-01-01T01:12:55.000Z</time>
      </trkpt>
      <trkpt lat="43.57723" lon="5.50875">
        <ele>366.9</ele>
        <time>1970-01-01T01:12:57.000Z</time>
      </trkpt>
      <trkpt lat="43.57728" lon="5.50867">
        <ele>366.5</ele>
        <time>1970-01-01T01:12:59.000Z</time>
      </trkpt>
      <trkpt lat="43.57729" lon="5.50864">
        <ele>366.1</ele>
        <time>1970-01-01T01:13:00.000Z</time>
      </trkpt>
      <trkpt lat="43.5773" lon="5.50859">
        <ele>365.9</ele>
        <time>1970-01-01T01:13:01.000Z</time>
      </trkpt>
      <trkpt lat="43.57729" lon="5.50847">
        <ele>365.5</ele>
        <time>1970-01-01T01:13:03.000Z</time>
      </trkpt>
      <trkpt lat="43.57728" lon="5.50842">
        <ele>365.3</ele>
        <time>1970-01-01T01:13:04.000Z</time>
      </trkpt>
      <trkpt lat="43.57727" lon="5.50831">
        <ele>365</ele>
        <time>1970-01-01T01:13:06.000Z</time>
      </trkpt>
      <trkpt lat="43.57728" lon="5.50824">
        <ele>364.8</ele>
        <time>1970-01-01T01:13:07.000Z</time>
      </trkpt>
      <trkpt lat="43.57728" lon="5.50818">
        <ele>364.7</ele>
        <time>1970-01-01T01:13:08.000Z</time>
      </trkpt>
      <trkpt lat="43.57727" lon="5.50812">
        <ele>364.6</ele>
        <time>1970-01-01T01:13:09.000Z</time>
      </trkpt>
      <trkpt lat="43.57724" lon="5.50801">
        <ele>364.5</ele>
        <time>1970-01-01T01:13:11.000Z</time>
      </trkpt>
      <trkpt lat="43.57722" lon="5.50797">
        <ele>364.4</ele>
        <time>1970-01-01T01:13:12.000Z</time>
      </trkpt>
      <trkpt lat="43.5772" lon="5.50786">
        <ele>364.3</ele>
        <time>1970-01-01T01:13:14.000Z</time>
      </trkpt>
      <trkpt lat="43.5772" lon="5.50773">
        <ele>364.4</ele>
        <time>1970-01-01T01:13:16.000Z</time>
      </trkpt>
      <trkpt lat="43.57722" lon="5.5076">
        <ele>364.5</ele>
        <time>1970-01-01T01:13:18.000Z</time>
      </trkpt>
      <trkpt lat="43.57724" lon="5.5075">
        <ele>364.7</ele>
        <time>1970-01-01T01:13:20.000Z</time>
      </trkpt>
      <trkpt lat="43.57725" lon="5.50739">
        <ele>364.9</ele>
        <time>1970-01-01T01:13:22.000Z</time>
      </trkpt>
      <trkpt lat="43.57726" lon="5.50734">
        <ele>365</ele>
        <time>1970-01-01T01:13:23.000Z</time>
      </trkpt>
      <trkpt lat="43.57726" lon="5.50729">
        <ele>365.1</ele>
        <time>1970-01-01T01:13:24.000Z</time>
      </trkpt>
      <trkpt lat="43.57727" lon="5.50726">
        <ele>365.3</ele>
        <time>1970-01-01T01:13:25.000Z</time>
      </trkpt>
      <trkpt lat="43.57728" lon="5.5072">
        <ele>365.6</ele>
        <time>1970-01-01T01:13:27.000Z</time>
      </trkpt>
      <trkpt lat="43.57727" lon="5.50713">
        <ele>365.9</ele>
        <time>1970-01-01T01:13:29.000Z</time>
      </trkpt>
      <trkpt lat="43.57727" lon="5.50711">
        <ele>366</ele>
        <time>1970-01-01T01:13:30.000Z</time>
      </trkpt>
      <trkpt lat="43.57727" lon="5.50711">
        <ele>366.1</ele>
        <time>1970-01-01T01:13:31.000Z</time>
      </trkpt>
      <trkpt lat="43.57728" lon="5.50709">
        <ele>366.1</ele>
        <time>1970-01-01T01:13:32.000Z</time>
      </trkpt>
      <trkpt lat="43.5773" lon="5.50706">
        <ele>366.5</ele>
        <time>1970-01-01T01:13:34.000Z</time>
      </trkpt>
      <trkpt lat="43.57729" lon="5.50701">
        <ele>366.8</ele>
        <time>1970-01-01T01:13:36.000Z</time>
      </trkpt>
      <trkpt lat="43.57728" lon="5.50699">
        <ele>367</ele>
        <time>1970-01-01T01:13:37.000Z</time>
      </trkpt>
      <trkpt lat="43.57727" lon="5.50696">
        <ele>367.3</ele>
        <time>1970-01-01T01:13:39.000Z</time>
      </trkpt>
      <trkpt lat="43.57726" lon="5.50693">
        <ele>367.6</ele>
        <time>1970-01-01T01:13:41.000Z</time>
      </trkpt>
      <trkpt lat="43.57726" lon="5.50692">
        <ele>367.7</ele>
        <time>1970-01-01T01:13:42.000Z</time>
      </trkpt>
      <trkpt lat="43.57725" lon="5.50687">
        <ele>368.1</ele>
        <time>1970-01-01T01:13:44.000Z</time>
      </trkpt>
      <trkpt lat="43.57725" lon="5.50686">
        <ele>368.2</ele>
        <time>1970-01-01T01:13:45.000Z</time>
      </trkpt>
      <trkpt lat="43.57726" lon="5.50682">
        <ele>368.5</ele>
        <time>1970-01-01T01:13:47.000Z</time>
      </trkpt>
      <trkpt lat="43.57726" lon="5.5068">
        <ele>368.7</ele>
        <time>1970-01-01T01:13:49.000Z</time>
      </trkpt>
      <trkpt lat="43.57725" lon="5.50678">
        <ele>369</ele>
        <time>1970-01-01T01:13:51.000Z</time>
      </trkpt>
      <trkpt lat="43.57724" lon="5.50676">
        <ele>369.1</ele>
        <time>1970-01-01T01:13:52.000Z</time>
      </trkpt>
      <trkpt lat="43.57724" lon="5.50673">
        <ele>369.4</ele>
        <time>1970-01-01T01:13:54.000Z</time>
      </trkpt>
      <trkpt lat="43.57725" lon="5.50672">
        <ele>369.5</ele>
        <time>1970-01-01T01:13:55.000Z</time>
      </trkpt>
      <trkpt lat="43.57725" lon="5.5067">
        <ele>369.7</ele>
        <time>1970-01-01T01:13:57.000Z</time>
      </trkpt>
      <trkpt lat="43.57725" lon="5.50669">
        <ele>369.7</ele>
        <time>1970-01-01T01:13:58.000Z</time>
      </trkpt>
      <trkpt lat="43.57725" lon="5.50666">
        <ele>370</ele>
        <time>1970-01-01T01:14:00.000Z</time>
      </trkpt>
      <trkpt lat="43.57724" lon="5.50663">
        <ele>370.3</ele>
        <time>1970-01-01T01:14:02.000Z</time>
      </trkpt>
      <trkpt lat="43.57724" lon="5.50661">
        <ele>370.4</ele>
        <time>1970-01-01T01:14:03.000Z</time>
      </trkpt>
      <trkpt lat="43.57724" lon="5.50658">
        <ele>370.6</ele>
        <time>1970-01-01T01:14:05.000Z</time>
      </trkpt>
      <trkpt lat="43.57724" lon="5.50656">
        <ele>370.7</ele>
        <time>1970-01-01T01:14:06.000Z</time>
      </trkpt>
      <trkpt lat="43.57725" lon="5.50655">
        <ele>370.8</ele>
        <time>1970-01-01T01:14:07.000Z</time>
      </trkpt>
      <trkpt lat="43.57726" lon="5.50652">
        <ele>371</ele>
        <time>1970-01-01T01:14:08.000Z</time>
      </trkpt>
      <trkpt lat="43.57726" lon="5.5065">
        <ele>371.1</ele>
        <time>1970-01-01T01:14:10.000Z</time>
      </trkpt>
      <trkpt lat="43.57726" lon="5.50648">
        <ele>371.2</ele>
        <time>1970-01-01T01:14:11.000Z</time>
      </trkpt>
      <trkpt lat="43.57726" lon="5.50644">
        <ele>371.3</ele>
        <time>1970-01-01T01:14:13.000Z</time>
      </trkpt>
      <trkpt lat="43.57726" lon="5.50643">
        <ele>371.4</ele>
        <time>1970-01-01T01:14:14.000Z</time>
      </trkpt>
      <trkpt lat="43.57727" lon="5.50641">
        <ele>371.4</ele>
        <time>1970-01-01T01:14:15.000Z</time>
      </trkpt>
      <trkpt lat="43.57727" lon="5.50639">
        <ele>371.5</ele>
        <time>1970-01-01T01:14:16.000Z</time>
      </trkpt>
      <trkpt lat="43.57726" lon="5.50635">
        <ele>371.5</ele>
        <time>1970-01-01T01:14:18.000Z</time>
      </trkpt>
      <trkpt lat="43.57725" lon="5.50633">
        <ele>371.5</ele>
        <time>1970-01-01T01:14:19.000Z</time>
      </trkpt>
      <trkpt lat="43.57724" lon="5.50631">
        <ele>371.6</ele>
        <time>1970-01-01T01:14:20.000Z</time>
      </trkpt>
      <trkpt lat="43.57723" lon="5.50629">
        <ele>371.6</ele>
        <time>1970-01-01T01:14:21.000Z</time>
      </trkpt>
      <trkpt lat="43.57722" lon="5.50627">
        <ele>371.5</ele>
        <time>1970-01-01T01:14:22.000Z</time>
      </trkpt>
      <trkpt lat="43.57721" lon="5.50625">
        <ele>371.5</ele>
        <time>1970-01-01T01:14:23.000Z</time>
      </trkpt>
      <trkpt lat="43.57718" lon="5.5062">
        <ele>371.4</ele>
        <time>1970-01-01T01:14:25.000Z</time>
      </trkpt>
      <trkpt lat="43.57716" lon="5.50617">
        <ele>371.4</ele>
        <time>1970-01-01T01:14:26.000Z</time>
      </trkpt>
      <trkpt lat="43.57711" lon="5.50611">
        <ele>371.2</ele>
        <time>1970-01-01T01:14:28.000Z</time>
      </trkpt>
      <trkpt lat="43.57708" lon="5.50608">
        <ele>371.1</ele>
        <time>1970-01-01T01:14:29.000Z</time>
      </trkpt>
      <trkpt lat="43.57703" lon="5.50604">
        <ele>371</ele>
        <time>1970-01-01T01:14:31.000Z</time>
      </trkpt>
      <trkpt lat="43.577" lon="5.50602">
        <ele>370.9</ele>
        <time>1970-01-01T01:14:32.000Z</time>
      </trkpt>
      <trkpt lat="43.57695" lon="5.50598">
        <ele>370.7</ele>
        <time>1970-01-01T01:14:34.000Z</time>
      </trkpt>
      <trkpt lat="43.57692" lon="5.50596">
        <ele>370.6</ele>
        <time>1970-01-01T01:14:35.000Z</time>
      </trkpt>
      <trkpt lat="43.57689" lon="5.50594">
        <ele>370.5</ele>
        <time>1970-01-01T01:14:36.000Z</time>
      </trkpt>
      <trkpt lat="43.57681" lon="5.50589">
        <ele>370.2</ele>
        <time>1970-01-01T01:14:38.000Z</time>
      </trkpt>
      <trkpt lat="43.57677" lon="5.50587">
        <ele>370.1</ele>
        <time>1970-01-01T01:14:39.000Z</time>
      </trkpt>
      <trkpt lat="43.57675" lon="5.50583">
        <ele>370</ele>
        <time>1970-01-01T01:14:40.000Z</time>
      </trkpt>
      <trkpt lat="43.57671" lon="5.50577">
        <ele>369.8</ele>
        <time>1970-01-01T01:14:42.000Z</time>
      </trkpt>
      <trkpt lat="43.57668" lon="5.50574">
        <ele>369.7</ele>
        <time>1970-01-01T01:14:43.000Z</time>
      </trkpt>
      <trkpt lat="43.57658" lon="5.50566">
        <ele>369.3</ele>
        <time>1970-01-01T01:14:46.000Z</time>
      </trkpt>
      <trkpt lat="43.57655" lon="5.50563">
        <ele>369.2</ele>
        <time>1970-01-01T01:14:47.000Z</time>
      </trkpt>
      <trkpt lat="43.57647" lon="5.50555">
        <ele>369</ele>
        <time>1970-01-01T01:14:50.000Z</time>
      </trkpt>
      <trkpt lat="43.57643" lon="5.50549">
        <ele>368.9</ele>
        <time>1970-01-01T01:14:52.000Z</time>
      </trkpt>
      <trkpt lat="43.57635" lon="5.50546">
        <ele>368.7</ele>
        <time>1970-01-01T01:14:54.000Z</time>
      </trkpt>
      <trkpt lat="43.57628" lon="5.5054">
        <ele>368.6</ele>
        <time>1970-01-01T01:14:57.000Z</time>
      </trkpt>
      <trkpt lat="43.57622" lon="5.50533">
        <ele>368.5</ele>
        <time>1970-01-01T01:14:58.000Z</time>
      </trkpt>
      <trkpt lat="43.57619" lon="5.50529">
        <ele>368.4</ele>
        <time>1970-01-01T01:14:59.000Z</time>
      </trkpt>
      <trkpt lat="43.57615" lon="5.50527">
        <ele>368.4</ele>
        <time>1970-01-01T01:15:00.000Z</time>
      </trkpt>
      <trkpt lat="43.57609" lon="5.50521">
        <ele>368.3</ele>
        <time>1970-01-01T01:15:02.000Z</time>
      </trkpt>
      <trkpt lat="43.57602" lon="5.50515">
        <ele>368.2</ele>
        <time>1970-01-01T01:15:04.000Z</time>
      </trkpt>
      <trkpt lat="43.57596" lon="5.50508">
        <ele>368.1</ele>
        <time>1970-01-01T01:15:06.000Z</time>
      </trkpt>
      <trkpt lat="43.57592" lon="5.50506">
        <ele>368.1</ele>
        <time>1970-01-01T01:15:07.000Z</time>
      </trkpt>
      <trkpt lat="43.57579" lon="5.50498">
        <ele>368</ele>
        <time>1970-01-01T01:15:10.000Z</time>
      </trkpt>
      <trkpt lat="43.57572" lon="5.50491">
        <ele>368</ele>
        <time>1970-01-01T01:15:12.000Z</time>
      </trkpt>
      <trkpt lat="43.57568" lon="5.50488">
        <ele>367.9</ele>
        <time>1970-01-01T01:15:14.000Z</time>
      </trkpt>
      <trkpt lat="43.5756" lon="5.50482">
        <ele>367.9</ele>
        <time>1970-01-01T01:15:15.000Z</time>
      </trkpt>
      <trkpt lat="43.57557" lon="5.50479">
        <ele>367.8</ele>
        <time>1970-01-01T01:15:16.000Z</time>
      </trkpt>
      <trkpt lat="43.57549" lon="5.50472">
        <ele>367.7</ele>
        <time>1970-01-01T01:15:18.000Z</time>
      </trkpt>
      <trkpt lat="43.57542" lon="5.50466">
        <ele>367.6</ele>
        <time>1970-01-01T01:15:20.000Z</time>
      </trkpt>
      <trkpt lat="43.57539" lon="5.50462">
        <ele>367.5</ele>
        <time>1970-01-01T01:15:22.000Z</time>
      </trkpt>
      <trkpt lat="43.57531" lon="5.50456">
        <ele>367.5</ele>
        <time>1970-01-01T01:15:23.000Z</time>
      </trkpt>
      <trkpt lat="43.57526" lon="5.50453">
        <ele>367.4</ele>
        <time>1970-01-01T01:15:24.000Z</time>
      </trkpt>
      <trkpt lat="43.57517" lon="5.50448">
        <ele>367.3</ele>
        <time>1970-01-01T01:15:26.000Z</time>
      </trkpt>
      <trkpt lat="43.57513" lon="5.50445">
        <ele>367.3</ele>
        <time>1970-01-01T01:15:27.000Z</time>
      </trkpt>
      <trkpt lat="43.57504" lon="5.50439">
        <ele>367.2</ele>
        <time>1970-01-01T01:15:30.000Z</time>
      </trkpt>
      <trkpt lat="43.57496" lon="5.50434">
        <ele>367.1</ele>
        <time>1970-01-01T01:15:31.000Z</time>
      </trkpt>
      <trkpt lat="43.57491" lon="5.50426">
        <ele>367</ele>
        <time>1970-01-01T01:15:34.000Z</time>
      </trkpt>
      <trkpt lat="43.57484" lon="5.50418">
        <ele>366.8</ele>
        <time>1970-01-01T01:15:35.000Z</time>
      </trkpt>
      <trkpt lat="43.57479" lon="5.50415">
        <ele>366.7</ele>
        <time>1970-01-01T01:15:36.000Z</time>
      </trkpt>
      <trkpt lat="43.57471" lon="5.50408">
        <ele>366.4</ele>
        <time>1970-01-01T01:15:38.000Z</time>
      </trkpt>
      <trkpt lat="43.57463" lon="5.504">
        <ele>366.2</ele>
        <time>1970-01-01T01:15:40.000Z</time>
      </trkpt>
      <trkpt lat="43.57456" lon="5.50393">
        <ele>366.1</ele>
        <time>1970-01-01T01:15:42.000Z</time>
      </trkpt>
      <trkpt lat="43.57452" lon="5.50389">
        <ele>366</ele>
        <time>1970-01-01T01:15:43.000Z</time>
      </trkpt>
      <trkpt lat="43.57444" lon="5.50382">
        <ele>365.9</ele>
        <time>1970-01-01T01:15:46.000Z</time>
      </trkpt>
      <trkpt lat="43.57437" lon="5.50375">
        <ele>365.8</ele>
        <time>1970-01-01T01:15:47.000Z</time>
      </trkpt>
      <trkpt lat="43.57433" lon="5.50373">
        <ele>365.7</ele>
        <time>1970-01-01T01:15:48.000Z</time>
      </trkpt>
      <trkpt lat="43.57426" lon="5.50368">
        <ele>365.7</ele>
        <time>1970-01-01T01:15:50.000Z</time>
      </trkpt>
      <trkpt lat="43.57423" lon="5.50366">
        <ele>365.7</ele>
        <time>1970-01-01T01:15:51.000Z</time>
      </trkpt>
      <trkpt lat="43.57415" lon="5.50363">
        <ele>365.6</ele>
        <time>1970-01-01T01:15:54.000Z</time>
      </trkpt>
      <trkpt lat="43.57408" lon="5.50361">
        <ele>365.6</ele>
        <time>1970-01-01T01:15:55.000Z</time>
      </trkpt>
      <trkpt lat="43.57404" lon="5.5036">
        <ele>365.6</ele>
        <time>1970-01-01T01:15:56.000Z</time>
      </trkpt>
      <trkpt lat="43.57396" lon="5.50357">
        <ele>365.7</ele>
        <time>1970-01-01T01:15:58.000Z</time>
      </trkpt>
      <trkpt lat="43.57392" lon="5.50354">
        <ele>365.7</ele>
        <time>1970-01-01T01:16:00.000Z</time>
      </trkpt>
      <trkpt lat="43.57382" lon="5.50346">
        <ele>365.7</ele>
        <time>1970-01-01T01:16:02.000Z</time>
      </trkpt>
      <trkpt lat="43.57379" lon="5.50343">
        <ele>365.8</ele>
        <time>1970-01-01T01:16:03.000Z</time>
      </trkpt>
      <trkpt lat="43.57373" lon="5.50337">
        <ele>365.8</ele>
        <time>1970-01-01T01:16:06.000Z</time>
      </trkpt>
      <trkpt lat="43.57368" lon="5.50329">
        <ele>365.9</ele>
        <time>1970-01-01T01:16:07.000Z</time>
      </trkpt>
      <trkpt lat="43.57363" lon="5.50323">
        <ele>365.9</ele>
        <time>1970-01-01T01:16:09.000Z</time>
      </trkpt>
      <trkpt lat="43.5736" lon="5.5032">
        <ele>366</ele>
        <time>1970-01-01T01:16:10.000Z</time>
      </trkpt>
      <trkpt lat="43.57354" lon="5.50316">
        <ele>366.1</ele>
        <time>1970-01-01T01:16:12.000Z</time>
      </trkpt>
      <trkpt lat="43.57348" lon="5.5031">
        <ele>366.2</ele>
        <time>1970-01-01T01:16:14.000Z</time>
      </trkpt>
      <trkpt lat="43.57345" lon="5.50308">
        <ele>366.2</ele>
        <time>1970-01-01T01:16:15.000Z</time>
      </trkpt>
      <trkpt lat="43.57343" lon="5.50305">
        <ele>366.3</ele>
        <time>1970-01-01T01:16:16.000Z</time>
      </trkpt>
      <trkpt lat="43.57341" lon="5.50301">
        <ele>366.3</ele>
        <time>1970-01-01T01:16:18.000Z</time>
      </trkpt>
      <trkpt lat="43.57334" lon="5.50292">
        <ele>366.5</ele>
        <time>1970-01-01T01:16:20.000Z</time>
      </trkpt>
      <trkpt lat="43.57329" lon="5.50284">
        <ele>366.6</ele>
        <time>1970-01-01T01:16:22.000Z</time>
      </trkpt>
      <trkpt lat="43.57326" lon="5.50281">
        <ele>366.7</ele>
        <time>1970-01-01T01:16:23.000Z</time>
      </trkpt>
      <trkpt lat="43.57322" lon="5.50274">
        <ele>366.8</ele>
        <time>1970-01-01T01:16:26.000Z</time>
      </trkpt>
      <trkpt lat="43.57317" lon="5.50269">
        <ele>366.9</ele>
        <time>1970-01-01T01:16:27.000Z</time>
      </trkpt>
      <trkpt lat="43.57311" lon="5.50263">
        <ele>367</ele>
        <time>1970-01-01T01:16:30.000Z</time>
      </trkpt>
      <trkpt lat="43.57306" lon="5.50258">
        <ele>367.2</ele>
        <time>1970-01-01T01:16:31.000Z</time>
      </trkpt>
      <trkpt lat="43.57302" lon="5.50251">
        <ele>367.3</ele>
        <time>1970-01-01T01:16:34.000Z</time>
      </trkpt>
      <trkpt lat="43.57297" lon="5.50244">
        <ele>367.5</ele>
        <time>1970-01-01T01:16:35.000Z</time>
      </trkpt>
      <trkpt lat="43.57292" lon="5.50238">
        <ele>367.7</ele>
        <time>1970-01-01T01:16:38.000Z</time>
      </trkpt>
      <trkpt lat="43.57287" lon="5.50229">
        <ele>367.9</ele>
        <time>1970-01-01T01:16:40.000Z</time>
      </trkpt>
      <trkpt lat="43.57285" lon="5.50226">
        <ele>368</ele>
        <time>1970-01-01T01:16:42.000Z</time>
      </trkpt>
      <trkpt lat="43.57281" lon="5.50218">
        <ele>368.3</ele>
        <time>1970-01-01T01:16:44.000Z</time>
      </trkpt>
      <trkpt lat="43.57275" lon="5.50207">
        <ele>368.7</ele>
        <time>1970-01-01T01:16:46.000Z</time>
      </trkpt>
      <trkpt lat="43.57273" lon="5.50206">
        <ele>368.7</ele>
        <time>1970-01-01T01:16:48.000Z</time>
      </trkpt>
      <trkpt lat="43.5727" lon="5.50204">
        <ele>368.8</ele>
        <time>1970-01-01T01:16:50.000Z</time>
      </trkpt>
      <trkpt lat="43.57269" lon="5.50202">
        <ele>368.9</ele>
        <time>1970-01-01T01:16:51.000Z</time>
      </trkpt>
      <trkpt lat="43.57265" lon="5.50199">
        <ele>369</ele>
        <time>1970-01-01T01:16:54.000Z</time>
      </trkpt>
      <trkpt lat="43.57262" lon="5.50195">
        <ele>369.1</ele>
        <time>1970-01-01T01:16:55.000Z</time>
      </trkpt>
      <trkpt lat="43.57259" lon="5.50193">
        <ele>369.1</ele>
        <time>1970-01-01T01:16:56.000Z</time>
      </trkpt>
      <trkpt lat="43.57254" lon="5.50189">
        <ele>369.2</ele>
        <time>1970-01-01T01:16:58.000Z</time>
      </trkpt>
      <trkpt lat="43.57248" lon="5.50185">
        <ele>369.3</ele>
        <time>1970-01-01T01:17:00.000Z</time>
      </trkpt>
      <trkpt lat="43.57243" lon="5.50181">
        <ele>369.3</ele>
        <time>1970-01-01T01:17:02.000Z</time>
      </trkpt>
      <trkpt lat="43.5724" lon="5.50176">
        <ele>369.4</ele>
        <time>1970-01-01T01:17:04.000Z</time>
      </trkpt>
      <trkpt lat="43.57237" lon="5.5017">
        <ele>369.4</ele>
        <time>1970-01-01T01:17:06.000Z</time>
      </trkpt>
      <trkpt lat="43.57233" lon="5.50164">
        <ele>369.4</ele>
        <time>1970-01-01T01:17:08.000Z</time>
      </trkpt>
      <trkpt lat="43.57227" lon="5.50156">
        <ele>369.4</ele>
        <time>1970-01-01T01:17:10.000Z</time>
      </trkpt>
      <trkpt lat="43.5722" lon="5.50151">
        <ele>369.4</ele>
        <time>1970-01-01T01:17:12.000Z</time>
      </trkpt>
      <trkpt lat="43.57217" lon="5.50148">
        <ele>369.4</ele>
        <time>1970-01-01T01:17:14.000Z</time>
      </trkpt>
      <trkpt lat="43.57212" lon="5.50139">
        <ele>369.5</ele>
        <time>1970-01-01T01:17:15.000Z</time>
      </trkpt>
      <trkpt lat="43.57209" lon="5.50135">
        <ele>369.5</ele>
        <time>1970-01-01T01:17:16.000Z</time>
      </trkpt>
      <trkpt lat="43.57207" lon="5.50133">
        <ele>369.5</ele>
        <time>1970-01-01T01:17:18.000Z</time>
      </trkpt>
      <trkpt lat="43.57204" lon="5.50131">
        <ele>369.6</ele>
        <time>1970-01-01T01:17:19.000Z</time>
      </trkpt>
      <trkpt lat="43.57199" lon="5.50124">
        <ele>369.7</ele>
        <time>1970-01-01T01:17:20.000Z</time>
      </trkpt>
      <trkpt lat="43.57194" lon="5.50116">
        <ele>369.7</ele>
        <time>1970-01-01T01:17:22.000Z</time>
      </trkpt>
      <trkpt lat="43.57188" lon="5.50109">
        <ele>369.8</ele>
        <time>1970-01-01T01:17:24.000Z</time>
      </trkpt>
      <trkpt lat="43.57183" lon="5.50104">
        <ele>369.9</ele>
        <time>1970-01-01T01:17:26.000Z</time>
      </trkpt>
      <trkpt lat="43.57178" lon="5.50099">
        <ele>370</ele>
        <time>1970-01-01T01:17:28.000Z</time>
      </trkpt>
      <trkpt lat="43.57172" lon="5.50092">
        <ele>370.1</ele>
        <time>1970-01-01T01:17:30.000Z</time>
      </trkpt>
      <trkpt lat="43.57166" lon="5.50084">
        <ele>370.2</ele>
        <time>1970-01-01T01:17:32.000Z</time>
      </trkpt>
      <trkpt lat="43.57162" lon="5.50077">
        <ele>370.3</ele>
        <time>1970-01-01T01:17:34.000Z</time>
      </trkpt>
      <trkpt lat="43.57156" lon="5.50069">
        <ele>370.5</ele>
        <time>1970-01-01T01:17:36.000Z</time>
      </trkpt>
      <trkpt lat="43.57151" lon="5.50063">
        <ele>370.6</ele>
        <time>1970-01-01T01:17:38.000Z</time>
      </trkpt>
      <trkpt lat="43.57147" lon="5.50056">
        <ele>370.8</ele>
        <time>1970-01-01T01:17:40.000Z</time>
      </trkpt>
      <trkpt lat="43.57142" lon="5.5005">
        <ele>371</ele>
        <time>1970-01-01T01:17:42.000Z</time>
      </trkpt>
      <trkpt lat="43.57138" lon="5.50043">
        <ele>371.2</ele>
        <time>1970-01-01T01:17:44.000Z</time>
      </trkpt>
      <trkpt lat="43.57137" lon="5.50034">
        <ele>371.4</ele>
        <time>1970-01-01T01:17:46.000Z</time>
      </trkpt>
      <trkpt lat="43.57138" lon="5.5003">
        <ele>371.5</ele>
        <time>1970-01-01T01:17:48.000Z</time>
      </trkpt>
      <trkpt lat="43.5713" lon="5.50022">
        <ele>372</ele>
        <time>1970-01-01T01:17:50.000Z</time>
      </trkpt>
      <trkpt lat="43.57128" lon="5.50014">
        <ele>372.3</ele>
        <time>1970-01-01T01:17:51.000Z</time>
      </trkpt>
      <trkpt lat="43.57126" lon="5.50011">
        <ele>372.4</ele>
        <time>1970-01-01T01:17:52.000Z</time>
      </trkpt>
      <trkpt lat="43.57122" lon="5.50006">
        <ele>372.6</ele>
        <time>1970-01-01T01:17:54.000Z</time>
      </trkpt>
      <trkpt lat="43.57122" lon="5.50002">
        <ele>372.7</ele>
        <time>1970-01-01T01:17:55.000Z</time>
      </trkpt>
      <trkpt lat="43.57122" lon="5.49998">
        <ele>372.9</ele>
        <time>1970-01-01T01:17:58.000Z</time>
      </trkpt>
      <trkpt lat="43.57121" lon="5.49992">
        <ele>373</ele>
        <time>1970-01-01T01:17:59.000Z</time>
      </trkpt>
      <trkpt lat="43.57118" lon="5.49989">
        <ele>373.1</ele>
        <time>1970-01-01T01:18:02.000Z</time>
      </trkpt>
      <trkpt lat="43.57116" lon="5.49988">
        <ele>373.2</ele>
        <time>1970-01-01T01:18:03.000Z</time>
      </trkpt>
      <trkpt lat="43.57113" lon="5.49982">
        <ele>373.3</ele>
        <time>1970-01-01T01:18:05.000Z</time>
      </trkpt>
      <trkpt lat="43.57112" lon="5.49978">
        <ele>373.4</ele>
        <time>1970-01-01T01:18:06.000Z</time>
      </trkpt>
      <trkpt lat="43.5711" lon="5.49972">
        <ele>373.7</ele>
        <time>1970-01-01T01:18:07.000Z</time>
      </trkpt>
      <trkpt lat="43.57108" lon="5.49969">
        <ele>373.8</ele>
        <time>1970-01-01T01:18:08.000Z</time>
      </trkpt>
      <trkpt lat="43.57107" lon="5.49965">
        <ele>373.8</ele>
        <time>1970-01-01T01:18:10.000Z</time>
      </trkpt>
      <trkpt lat="43.57104" lon="5.49958">
        <ele>374</ele>
        <time>1970-01-01T01:18:12.000Z</time>
      </trkpt>
      <trkpt lat="43.57101" lon="5.49951">
        <ele>374.2</ele>
        <time>1970-01-01T01:18:14.000Z</time>
      </trkpt>
      <trkpt lat="43.571" lon="5.49943">
        <ele>374.3</ele>
        <time>1970-01-01T01:18:15.000Z</time>
      </trkpt>
      <trkpt lat="43.571" lon="5.4994">
        <ele>374.4</ele>
        <time>1970-01-01T01:18:16.000Z</time>
      </trkpt>
      <trkpt lat="43.57098" lon="5.49936">
        <ele>374.4</ele>
        <time>1970-01-01T01:18:18.000Z</time>
      </trkpt>
      <trkpt lat="43.57095" lon="5.49934">
        <ele>374.4</ele>
        <time>1970-01-01T01:18:20.000Z</time>
      </trkpt>
      <trkpt lat="43.57093" lon="5.49929">
        <ele>374.4</ele>
        <time>1970-01-01T01:18:22.000Z</time>
      </trkpt>
      <trkpt lat="43.57092" lon="5.49927">
        <ele>374.5</ele>
        <time>1970-01-01T01:18:23.000Z</time>
      </trkpt>
      <trkpt lat="43.57091" lon="5.49917">
        <ele>374.8</ele>
        <time>1970-01-01T01:18:26.000Z</time>
      </trkpt>
      <trkpt lat="43.57091" lon="5.49911">
        <ele>374.9</ele>
        <time>1970-01-01T01:18:27.000Z</time>
      </trkpt>
      <trkpt lat="43.5709" lon="5.49908">
        <ele>374.9</ele>
        <time>1970-01-01T01:18:28.000Z</time>
      </trkpt>
      <trkpt lat="43.57088" lon="5.499">
        <ele>375</ele>
        <time>1970-01-01T01:18:30.000Z</time>
      </trkpt>
      <trkpt lat="43.57088" lon="5.49897">
        <ele>375.2</ele>
        <time>1970-01-01T01:18:31.000Z</time>
      </trkpt>
      <trkpt lat="43.57087" lon="5.49891">
        <ele>375.2</ele>
        <time>1970-01-01T01:18:34.000Z</time>
      </trkpt>
      <trkpt lat="43.57087" lon="5.49882">
        <ele>375.3</ele>
        <time>1970-01-01T01:18:35.000Z</time>
      </trkpt>
      <trkpt lat="43.57088" lon="5.49877">
        <ele>375.4</ele>
        <time>1970-01-01T01:18:36.000Z</time>
      </trkpt>
      <trkpt lat="43.57087" lon="5.4987">
        <ele>375.5</ele>
        <time>1970-01-01T01:18:38.000Z</time>
      </trkpt>
      <trkpt lat="43.57086" lon="5.49867">
        <ele>375.6</ele>
        <time>1970-01-01T01:18:39.000Z</time>
      </trkpt>
      <trkpt lat="43.57085" lon="5.49863">
        <ele>375.7</ele>
        <time>1970-01-01T01:18:40.000Z</time>
      </trkpt>
      <trkpt lat="43.57085" lon="5.49855">
        <ele>375.8</ele>
        <time>1970-01-01T01:18:42.000Z</time>
      </trkpt>
      <trkpt lat="43.57084" lon="5.49851">
        <ele>375.7</ele>
        <time>1970-01-01T01:18:43.000Z</time>
      </trkpt>
      <trkpt lat="43.57084" lon="5.49849">
        <ele>375.7</ele>
        <time>1970-01-01T01:18:44.000Z</time>
      </trkpt>
      <trkpt lat="43.57084" lon="5.49844">
        <ele>375.9</ele>
        <time>1970-01-01T01:18:46.000Z</time>
      </trkpt>
      <trkpt lat="43.57084" lon="5.49841">
        <ele>375.9</ele>
        <time>1970-01-01T01:18:47.000Z</time>
      </trkpt>
      <trkpt lat="43.57083" lon="5.49836">
        <ele>376</ele>
        <time>1970-01-01T01:18:50.000Z</time>
      </trkpt>
      <trkpt lat="43.57082" lon="5.49834">
        <ele>376.1</ele>
        <time>1970-01-01T01:18:51.000Z</time>
      </trkpt>
      <trkpt lat="43.5708" lon="5.49828">
        <ele>375.9</ele>
        <time>1970-01-01T01:18:53.000Z</time>
      </trkpt>
      <trkpt lat="43.57079" lon="5.4982">
        <ele>376</ele>
        <time>1970-01-01T01:18:55.000Z</time>
      </trkpt>
      <trkpt lat="43.57079" lon="5.49817">
        <ele>376.1</ele>
        <time>1970-01-01T01:18:56.000Z</time>
      </trkpt>
      <trkpt lat="43.57078" lon="5.4981">
        <ele>375.9</ele>
        <time>1970-01-01T01:18:57.000Z</time>
      </trkpt>
      <trkpt lat="43.57077" lon="5.49807">
        <ele>376</ele>
        <time>1970-01-01T01:18:58.000Z</time>
      </trkpt>
      <trkpt lat="43.57074" lon="5.49801">
        <ele>375.9</ele>
        <time>1970-01-01T01:19:00.000Z</time>
      </trkpt>
      <trkpt lat="43.57073" lon="5.49799">
        <ele>375.9</ele>
        <time>1970-01-01T01:19:01.000Z</time>
      </trkpt>
      <trkpt lat="43.57072" lon="5.49796">
        <ele>375.9</ele>
        <time>1970-01-01T01:19:02.000Z</time>
      </trkpt>
      <trkpt lat="43.57071" lon="5.49794">
        <ele>376</ele>
        <time>1970-01-01T01:19:04.000Z</time>
      </trkpt>
      <trkpt lat="43.57069" lon="5.49789">
        <ele>376</ele>
        <time>1970-01-01T01:19:06.000Z</time>
      </trkpt>
      <trkpt lat="43.57067" lon="5.49786">
        <ele>376.1</ele>
        <time>1970-01-01T01:19:08.000Z</time>
      </trkpt>
      <trkpt lat="43.57065" lon="5.49783">
        <ele>376.2</ele>
        <time>1970-01-01T01:19:10.000Z</time>
      </trkpt>
      <trkpt lat="43.57064" lon="5.49782">
        <ele>376.2</ele>
        <time>1970-01-01T01:19:11.000Z</time>
      </trkpt>
      <trkpt lat="43.57061" lon="5.49779">
        <ele>376.4</ele>
        <time>1970-01-01T01:19:14.000Z</time>
      </trkpt>
      <trkpt lat="43.57058" lon="5.49776">
        <ele>376.5</ele>
        <time>1970-01-01T01:19:15.000Z</time>
      </trkpt>
      <trkpt lat="43.57052" lon="5.4977">
        <ele>377</ele>
        <time>1970-01-01T01:19:18.000Z</time>
      </trkpt>
      <trkpt lat="43.5705" lon="5.49768">
        <ele>377.3</ele>
        <time>1970-01-01T01:19:19.000Z</time>
      </trkpt>
      <trkpt lat="43.57048" lon="5.49766">
        <ele>377.4</ele>
        <time>1970-01-01T01:19:20.000Z</time>
      </trkpt>
      <trkpt lat="43.57046" lon="5.49762">
        <ele>377.7</ele>
        <time>1970-01-01T01:19:22.000Z</time>
      </trkpt>
      <trkpt lat="43.57043" lon="5.49758">
        <ele>378.1</ele>
        <time>1970-01-01T01:19:24.000Z</time>
      </trkpt>
      <trkpt lat="43.5704" lon="5.49755">
        <ele>378.3</ele>
        <time>1970-01-01T01:19:26.000Z</time>
      </trkpt>
      <trkpt lat="43.57038" lon="5.49755">
        <ele>378.6</ele>
        <time>1970-01-01T01:19:27.000Z</time>
      </trkpt>
      <trkpt lat="43.57035" lon="5.49752">
        <ele>378.8</ele>
        <time>1970-01-01T01:19:30.000Z</time>
      </trkpt>
      <trkpt lat="43.57032" lon="5.49748">
        <ele>379.2</ele>
        <time>1970-01-01T01:19:32.000Z</time>
      </trkpt>
      <trkpt lat="43.57031" lon="5.49747">
        <ele>379.5</ele>
        <time>1970-01-01T01:19:33.000Z</time>
      </trkpt>
      <trkpt lat="43.5703" lon="5.49745">
        <ele>379.6</ele>
        <time>1970-01-01T01:19:34.000Z</time>
      </trkpt>
      <trkpt lat="43.57028" lon="5.49742">
        <ele>380</ele>
        <time>1970-01-01T01:19:35.000Z</time>
      </trkpt>
      <trkpt lat="43.57027" lon="5.49741">
        <ele>380.1</ele>
        <time>1970-01-01T01:19:36.000Z</time>
      </trkpt>
      <trkpt lat="43.57027" lon="5.4974">
        <ele>380.2</ele>
        <time>1970-01-01T01:19:38.000Z</time>
      </trkpt>
      <trkpt lat="43.57027" lon="5.49738">
        <ele>380.3</ele>
        <time>1970-01-01T01:19:40.000Z</time>
      </trkpt>
      <trkpt lat="43.57025" lon="5.49734">
        <ele>380.4</ele>
        <time>1970-01-01T01:19:42.000Z</time>
      </trkpt>
      <trkpt lat="43.57024" lon="5.49731">
        <ele>380.4</ele>
        <time>1970-01-01T01:19:43.000Z</time>
      </trkpt>
      <trkpt lat="43.57023" lon="5.49729">
        <ele>380.5</ele>
        <time>1970-01-01T01:19:44.000Z</time>
      </trkpt>
      <trkpt lat="43.57021" lon="5.49724">
        <ele>380.6</ele>
        <time>1970-01-01T01:19:46.000Z</time>
      </trkpt>
      <trkpt lat="43.5702" lon="5.49722">
        <ele>380.7</ele>
        <time>1970-01-01T01:19:47.000Z</time>
      </trkpt>
      <trkpt lat="43.57019" lon="5.4972">
        <ele>380.7</ele>
        <time>1970-01-01T01:19:48.000Z</time>
      </trkpt>
      <trkpt lat="43.57017" lon="5.49716">
        <ele>380.8</ele>
        <time>1970-01-01T01:19:50.000Z</time>
      </trkpt>
      <trkpt lat="43.57016" lon="5.49714">
        <ele>380.9</ele>
        <time>1970-01-01T01:19:51.000Z</time>
      </trkpt>
      <trkpt lat="43.57015" lon="5.49712">
        <ele>380.9</ele>
        <time>1970-01-01T01:19:52.000Z</time>
      </trkpt>
      <trkpt lat="43.57014" lon="5.49709">
        <ele>381</ele>
        <time>1970-01-01T01:19:54.000Z</time>
      </trkpt>
      <trkpt lat="43.57012" lon="5.49705">
        <ele>381.1</ele>
        <time>1970-01-01T01:19:56.000Z</time>
      </trkpt>
      <trkpt lat="43.5701" lon="5.49704">
        <ele>381.2</ele>
        <time>1970-01-01T01:19:58.000Z</time>
      </trkpt>
      <trkpt lat="43.57009" lon="5.49702">
        <ele>381.2</ele>
        <time>1970-01-01T01:19:59.000Z</time>
      </trkpt>
      <trkpt lat="43.57008" lon="5.497">
        <ele>381.3</ele>
        <time>1970-01-01T01:20:00.000Z</time>
      </trkpt>
      <trkpt lat="43.57008" lon="5.49695">
        <ele>381.4</ele>
        <time>1970-01-01T01:20:02.000Z</time>
      </trkpt>
      <trkpt lat="43.57005" lon="5.49692">
        <ele>381.5</ele>
        <time>1970-01-01T01:20:04.000Z</time>
      </trkpt>
      <trkpt lat="43.57003" lon="5.4969">
        <ele>381.6</ele>
        <time>1970-01-01T01:20:06.000Z</time>
      </trkpt>
      <trkpt lat="43.57001" lon="5.49688">
        <ele>381.7</ele>
        <time>1970-01-01T01:20:08.000Z</time>
      </trkpt>
      <trkpt lat="43.56998" lon="5.49684">
        <ele>381.8</ele>
        <time>1970-01-01T01:20:11.000Z</time>
      </trkpt>
      <trkpt lat="43.56999" lon="5.49682">
        <ele>381.9</ele>
        <time>1970-01-01T01:20:13.000Z</time>
      </trkpt>
      <trkpt lat="43.56999" lon="5.49679">
        <ele>381.9</ele>
        <time>1970-01-01T01:20:15.000Z</time>
      </trkpt>
      <trkpt lat="43.56999" lon="5.49677">
        <ele>382</ele>
        <time>1970-01-01T01:20:16.000Z</time>
      </trkpt>
      <trkpt lat="43.56999" lon="5.49675">
        <ele>382</ele>
        <time>1970-01-01T01:20:18.000Z</time>
      </trkpt>
      <trkpt lat="43.56999" lon="5.49673">
        <ele>382.1</ele>
        <time>1970-01-01T01:20:19.000Z</time>
      </trkpt>
      <trkpt lat="43.57" lon="5.49671">
        <ele>382.1</ele>
        <time>1970-01-01T01:20:20.000Z</time>
      </trkpt>
      <trkpt lat="43.57003" lon="5.49668">
        <ele>382.3</ele>
        <time>1970-01-01T01:20:22.000Z</time>
      </trkpt>
      <trkpt lat="43.57004" lon="5.49667">
        <ele>382.3</ele>
        <time>1970-01-01T01:20:23.000Z</time>
      </trkpt>
      <trkpt lat="43.57005" lon="5.49664">
        <ele>382.4</ele>
        <time>1970-01-01T01:20:24.000Z</time>
      </trkpt>
      <trkpt lat="43.57006" lon="5.49659">
        <ele>382.5</ele>
        <time>1970-01-01T01:20:26.000Z</time>
      </trkpt>
      <trkpt lat="43.57008" lon="5.49654">
        <ele>382.6</ele>
        <time>1970-01-01T01:20:28.000Z</time>
      </trkpt>
      <trkpt lat="43.57009" lon="5.49653">
        <ele>382.7</ele>
        <time>1970-01-01T01:20:29.000Z</time>
      </trkpt>
      <trkpt lat="43.57012" lon="5.49648">
        <ele>382.8</ele>
        <time>1970-01-01T01:20:32.000Z</time>
      </trkpt>
      <trkpt lat="43.57013" lon="5.49646">
        <ele>382.8</ele>
        <time>1970-01-01T01:20:33.000Z</time>
      </trkpt>
      <trkpt lat="43.57015" lon="5.49642">
        <ele>382.9</ele>
        <time>1970-01-01T01:20:35.000Z</time>
      </trkpt>
      <trkpt lat="43.57015" lon="5.49639">
        <ele>383</ele>
        <time>1970-01-01T01:20:37.000Z</time>
      </trkpt>
      <trkpt lat="43.57017" lon="5.49632">
        <ele>383.2</ele>
        <time>1970-01-01T01:20:40.000Z</time>
      </trkpt>
      <trkpt lat="43.57017" lon="5.49629">
        <ele>383.3</ele>
        <time>1970-01-01T01:20:41.000Z</time>
      </trkpt>
      <trkpt lat="43.57018" lon="5.49625">
        <ele>383.4</ele>
        <time>1970-01-01T01:20:43.000Z</time>
      </trkpt>
      <trkpt lat="43.57021" lon="5.49621">
        <ele>383.6</ele>
        <time>1970-01-01T01:20:45.000Z</time>
      </trkpt>
      <trkpt lat="43.57024" lon="5.49618">
        <ele>383.7</ele>
        <time>1970-01-01T01:20:47.000Z</time>
      </trkpt>
      <trkpt lat="43.57025" lon="5.49615">
        <ele>383.8</ele>
        <time>1970-01-01T01:20:49.000Z</time>
      </trkpt>
      <trkpt lat="43.57026" lon="5.49613">
        <ele>383.9</ele>
        <time>1970-01-01T01:20:51.000Z</time>
      </trkpt>
      <trkpt lat="43.57027" lon="5.4961">
        <ele>384.1</ele>
        <time>1970-01-01T01:20:52.000Z</time>
      </trkpt>
      <trkpt lat="43.57028" lon="5.49608">
        <ele>384.1</ele>
        <time>1970-01-01T01:20:53.000Z</time>
      </trkpt>
      <trkpt lat="43.57029" lon="5.49605">
        <ele>384.3</ele>
        <time>1970-01-01T01:20:55.000Z</time>
      </trkpt>
      <trkpt lat="43.57029" lon="5.496">
        <ele>384.5</ele>
        <time>1970-01-01T01:20:57.000Z</time>
      </trkpt>
      <trkpt lat="43.57029" lon="5.49599">
        <ele>384.5</ele>
        <time>1970-01-01T01:20:58.000Z</time>
      </trkpt>
      <trkpt lat="43.5703" lon="5.49599">
        <ele>384.5</ele>
        <time>1970-01-01T01:20:59.000Z</time>
      </trkpt>
      <trkpt lat="43.57031" lon="5.49597">
        <ele>384.6</ele>
        <time>1970-01-01T01:21:01.000Z</time>
      </trkpt>
      <trkpt lat="43.57031" lon="5.49595">
        <ele>384.7</ele>
        <time>1970-01-01T01:21:03.000Z</time>
      </trkpt>
      <trkpt lat="43.57031" lon="5.49593">
        <ele>384.9</ele>
        <time>1970-01-01T01:21:05.000Z</time>
      </trkpt>
      <trkpt lat="43.57029" lon="5.49592">
        <ele>385.1</ele>
        <time>1970-01-01T01:21:06.000Z</time>
      </trkpt>
      <trkpt lat="43.57025" lon="5.49592">
        <ele>385.5</ele>
        <time>1970-01-01T01:21:07.000Z</time>
      </trkpt>
      <trkpt lat="43.57021" lon="5.49591">
        <ele>386</ele>
        <time>1970-01-01T01:21:09.000Z</time>
      </trkpt>
      <trkpt lat="43.57017" lon="5.49591">
        <ele>386.4</ele>
        <time>1970-01-01T01:21:10.000Z</time>
      </trkpt>
      <trkpt lat="43.57013" lon="5.49586">
        <ele>386.9</ele>
        <time>1970-01-01T01:21:12.000Z</time>
      </trkpt>
      <trkpt lat="43.5701" lon="5.49584">
        <ele>387.2</ele>
        <time>1970-01-01T01:21:13.000Z</time>
      </trkpt>
      <trkpt lat="43.57008" lon="5.4958">
        <ele>387.6</ele>
        <time>1970-01-01T01:21:15.000Z</time>
      </trkpt>
      <trkpt lat="43.57007" lon="5.49577">
        <ele>387.8</ele>
        <time>1970-01-01T01:21:17.000Z</time>
      </trkpt>
      <trkpt lat="43.57005" lon="5.49571">
        <ele>388.2</ele>
        <time>1970-01-01T01:21:19.000Z</time>
      </trkpt>
      <trkpt lat="43.57002" lon="5.4957">
        <ele>388.4</ele>
        <time>1970-01-01T01:21:21.000Z</time>
      </trkpt>
      <trkpt lat="43.56999" lon="5.49565">
        <ele>388.9</ele>
        <time>1970-01-01T01:21:23.000Z</time>
      </trkpt>
      <trkpt lat="43.56997" lon="5.49559">
        <ele>389.3</ele>
        <time>1970-01-01T01:21:25.000Z</time>
      </trkpt>
      <trkpt lat="43.56994" lon="5.49554">
        <ele>389.7</ele>
        <time>1970-01-01T01:21:27.000Z</time>
      </trkpt>
      <trkpt lat="43.56992" lon="5.49549">
        <ele>390.1</ele>
        <time>1970-01-01T01:21:29.000Z</time>
      </trkpt>
      <trkpt lat="43.5699" lon="5.49548">
        <ele>390.2</ele>
        <time>1970-01-01T01:21:30.000Z</time>
      </trkpt>
      <trkpt lat="43.56989" lon="5.49547">
        <ele>390.4</ele>
        <time>1970-01-01T01:21:31.000Z</time>
      </trkpt>
      <trkpt lat="43.56986" lon="5.49545">
        <ele>390.7</ele>
        <time>1970-01-01T01:21:32.000Z</time>
      </trkpt>
      <trkpt lat="43.56985" lon="5.49544">
        <ele>390.8</ele>
        <time>1970-01-01T01:21:33.000Z</time>
      </trkpt>
      <trkpt lat="43.56981" lon="5.49541">
        <ele>391.2</ele>
        <time>1970-01-01T01:21:35.000Z</time>
      </trkpt>
      <trkpt lat="43.56976" lon="5.4954">
        <ele>391.2</ele>
        <time>1970-01-01T01:21:37.000Z</time>
      </trkpt>
      <trkpt lat="43.56973" lon="5.49539">
        <ele>391.4</ele>
        <time>1970-01-01T01:21:38.000Z</time>
      </trkpt>
      <trkpt lat="43.56972" lon="5.49538">
        <ele>391.5</ele>
        <time>1970-01-01T01:21:39.000Z</time>
      </trkpt>
      <trkpt lat="43.5697" lon="5.49535">
        <ele>391.5</ele>
        <time>1970-01-01T01:21:41.000Z</time>
      </trkpt>
      <trkpt lat="43.56966" lon="5.49531">
        <ele>391.8</ele>
        <time>1970-01-01T01:21:43.000Z</time>
      </trkpt>
      <trkpt lat="43.56963" lon="5.49529">
        <ele>392.1</ele>
        <time>1970-01-01T01:21:45.000Z</time>
      </trkpt>
      <trkpt lat="43.56961" lon="5.49527">
        <ele>392.1</ele>
        <time>1970-01-01T01:21:46.000Z</time>
      </trkpt>
      <trkpt lat="43.56957" lon="5.49525">
        <ele>392.5</ele>
        <time>1970-01-01T01:21:48.000Z</time>
      </trkpt>
      <trkpt lat="43.56954" lon="5.49522">
        <ele>392.8</ele>
        <time>1970-01-01T01:21:49.000Z</time>
      </trkpt>
      <trkpt lat="43.56953" lon="5.49521">
        <ele>392.8</ele>
        <time>1970-01-01T01:21:50.000Z</time>
      </trkpt>
      <trkpt lat="43.56949" lon="5.49518">
        <ele>392.9</ele>
        <time>1970-01-01T01:21:52.000Z</time>
      </trkpt>
      <trkpt lat="43.56945" lon="5.49515">
        <ele>393.4</ele>
        <time>1970-01-01T01:21:54.000Z</time>
      </trkpt>
      <trkpt lat="43.56941" lon="5.49513">
        <ele>393.9</ele>
        <time>1970-01-01T01:21:55.000Z</time>
      </trkpt>
      <trkpt lat="43.5694" lon="5.49512">
        <ele>393.9</ele>
        <time>1970-01-01T01:21:56.000Z</time>
      </trkpt>
      <trkpt lat="43.56938" lon="5.49511">
        <ele>394</ele>
        <time>1970-01-01T01:21:57.000Z</time>
      </trkpt>
      <trkpt lat="43.56935" lon="5.49507">
        <ele>394.5</ele>
        <time>1970-01-01T01:21:59.000Z</time>
      </trkpt>
      <trkpt lat="43.56932" lon="5.49504">
        <ele>394.9</ele>
        <time>1970-01-01T01:22:01.000Z</time>
      </trkpt>
      <trkpt lat="43.56931" lon="5.49504">
        <ele>394.9</ele>
        <time>1970-01-01T01:22:02.000Z</time>
      </trkpt>
      <trkpt lat="43.56927" lon="5.49504">
        <ele>395</ele>
        <time>1970-01-01T01:22:04.000Z</time>
      </trkpt>
      <trkpt lat="43.56925" lon="5.49504">
        <ele>395.1</ele>
        <time>1970-01-01T01:22:05.000Z</time>
      </trkpt>
      <trkpt lat="43.56924" lon="5.49504">
        <ele>395.2</ele>
        <time>1970-01-01T01:22:06.000Z</time>
      </trkpt>
      <trkpt lat="43.56922" lon="5.49504">
        <ele>395.3</ele>
        <time>1970-01-01T01:22:07.000Z</time>
      </trkpt>
      <trkpt lat="43.56916" lon="5.49505">
        <ele>395.6</ele>
        <time>1970-01-01T01:22:09.000Z</time>
      </trkpt>
      <trkpt lat="43.56911" lon="5.49505">
        <ele>395.8</ele>
        <time>1970-01-01T01:22:11.000Z</time>
      </trkpt>
      <trkpt lat="43.56908" lon="5.49505">
        <ele>395.7</ele>
        <time>1970-01-01T01:22:12.000Z</time>
      </trkpt>
      <trkpt lat="43.56907" lon="5.49505">
        <ele>395.9</ele>
        <time>1970-01-01T01:22:13.000Z</time>
      </trkpt>
      <trkpt lat="43.569" lon="5.49506">
        <ele>396.3</ele>
        <time>1970-01-01T01:22:14.000Z</time>
      </trkpt>
      <trkpt lat="43.56899" lon="5.49506">
        <ele>396.3</ele>
        <time>1970-01-01T01:22:15.000Z</time>
      </trkpt>
      <trkpt lat="43.56897" lon="5.49507">
        <ele>396.6</ele>
        <time>1970-01-01T01:22:16.000Z</time>
      </trkpt>
      <trkpt lat="43.56892" lon="5.49509">
        <ele>396.9</ele>
        <time>1970-01-01T01:22:18.000Z</time>
      </trkpt>
      <trkpt lat="43.56888" lon="5.49507">
        <ele>397.4</ele>
        <time>1970-01-01T01:22:19.000Z</time>
      </trkpt>
      <trkpt lat="43.56882" lon="5.49503">
        <ele>398.1</ele>
        <time>1970-01-01T01:22:21.000Z</time>
      </trkpt>
      <trkpt lat="43.56876" lon="5.49498">
        <ele>398.8</ele>
        <time>1970-01-01T01:22:23.000Z</time>
      </trkpt>
      <trkpt lat="43.56871" lon="5.49494">
        <ele>399.2</ele>
        <time>1970-01-01T01:22:25.000Z</time>
      </trkpt>
      <trkpt lat="43.56868" lon="5.49491">
        <ele>399.5</ele>
        <time>1970-01-01T01:22:26.000Z</time>
      </trkpt>
      <trkpt lat="43.56867" lon="5.4949">
        <ele>399.7</ele>
        <time>1970-01-01T01:22:27.000Z</time>
      </trkpt>
      <trkpt lat="43.5686" lon="5.49489">
        <ele>400.1</ele>
        <time>1970-01-01T01:22:29.000Z</time>
      </trkpt>
      <trkpt lat="43.56856" lon="5.49489">
        <ele>400.3</ele>
        <time>1970-01-01T01:22:31.000Z</time>
      </trkpt>
      <trkpt lat="43.56852" lon="5.49488">
        <ele>400.5</ele>
        <time>1970-01-01T01:22:33.000Z</time>
      </trkpt>
      <trkpt lat="43.56848" lon="5.49487">
        <ele>400.8</ele>
        <time>1970-01-01T01:22:35.000Z</time>
      </trkpt>
      <trkpt lat="43.56847" lon="5.49487">
        <ele>401</ele>
        <time>1970-01-01T01:22:36.000Z</time>
      </trkpt>
      <trkpt lat="43.56841" lon="5.49486">
        <ele>401.2</ele>
        <time>1970-01-01T01:22:38.000Z</time>
      </trkpt>
      <trkpt lat="43.56836" lon="5.49487">
        <ele>401.4</ele>
        <time>1970-01-01T01:22:40.000Z</time>
      </trkpt>
      <trkpt lat="43.56833" lon="5.49486">
        <ele>401.8</ele>
        <time>1970-01-01T01:22:42.000Z</time>
      </trkpt>
      <trkpt lat="43.56831" lon="5.49486">
        <ele>401.8</ele>
        <time>1970-01-01T01:22:43.000Z</time>
      </trkpt>
      <trkpt lat="43.56828" lon="5.49487">
        <ele>402</ele>
        <time>1970-01-01T01:22:45.000Z</time>
      </trkpt>
      <trkpt lat="43.56824" lon="5.49489">
        <ele>402</ele>
        <time>1970-01-01T01:22:47.000Z</time>
      </trkpt>
      <trkpt lat="43.5682" lon="5.49489">
        <ele>402.4</ele>
        <time>1970-01-01T01:22:48.000Z</time>
      </trkpt>
      <trkpt lat="43.56817" lon="5.49488">
        <ele>402.6</ele>
        <time>1970-01-01T01:22:49.000Z</time>
      </trkpt>
      <trkpt lat="43.56813" lon="5.49486">
        <ele>402.8</ele>
        <time>1970-01-01T01:22:51.000Z</time>
      </trkpt>
      <trkpt lat="43.56809" lon="5.49484">
        <ele>403.1</ele>
        <time>1970-01-01T01:22:53.000Z</time>
      </trkpt>
      <trkpt lat="43.56806" lon="5.49482">
        <ele>403.4</ele>
        <time>1970-01-01T01:22:54.000Z</time>
      </trkpt>
      <trkpt lat="43.56805" lon="5.49482">
        <ele>403.4</ele>
        <time>1970-01-01T01:22:55.000Z</time>
      </trkpt>
      <trkpt lat="43.56802" lon="5.49479">
        <ele>403.8</ele>
        <time>1970-01-01T01:22:57.000Z</time>
      </trkpt>
      <trkpt lat="43.56802" lon="5.49469">
        <ele>404.1</ele>
        <time>1970-01-01T01:22:59.000Z</time>
      </trkpt>
      <trkpt lat="43.56799" lon="5.49465">
        <ele>404.6</ele>
        <time>1970-01-01T01:23:01.000Z</time>
      </trkpt>
      <trkpt lat="43.56798" lon="5.49464">
        <ele>404.7</ele>
        <time>1970-01-01T01:23:02.000Z</time>
      </trkpt>
      <trkpt lat="43.56797" lon="5.49464">
        <ele>404.7</ele>
        <time>1970-01-01T01:23:03.000Z</time>
      </trkpt>
      <trkpt lat="43.56795" lon="5.49463">
        <ele>404.9</ele>
        <time>1970-01-01T01:23:04.000Z</time>
      </trkpt>
      <trkpt lat="43.56794" lon="5.49462">
        <ele>405.1</ele>
        <time>1970-01-01T01:23:05.000Z</time>
      </trkpt>
      <trkpt lat="43.56789" lon="5.49462">
        <ele>405.4</ele>
        <time>1970-01-01T01:23:07.000Z</time>
      </trkpt>
      <trkpt lat="43.56787" lon="5.49461">
        <ele>405.4</ele>
        <time>1970-01-01T01:23:08.000Z</time>
      </trkpt>
      <trkpt lat="43.56784" lon="5.49459">
        <ele>405.6</ele>
        <time>1970-01-01T01:23:10.000Z</time>
      </trkpt>
      <trkpt lat="43.56784" lon="5.49458">
        <ele>405.8</ele>
        <time>1970-01-01T01:23:11.000Z</time>
      </trkpt>
      <trkpt lat="43.5678" lon="5.49455">
        <ele>405.9</ele>
        <time>1970-01-01T01:23:13.000Z</time>
      </trkpt>
      <trkpt lat="43.56777" lon="5.49454">
        <ele>406</ele>
        <time>1970-01-01T01:23:14.000Z</time>
      </trkpt>
      <trkpt lat="43.56774" lon="5.49451">
        <ele>406.3</ele>
        <time>1970-01-01T01:23:16.000Z</time>
      </trkpt>
      <trkpt lat="43.56772" lon="5.49449">
        <ele>406.6</ele>
        <time>1970-01-01T01:23:17.000Z</time>
      </trkpt>
      <trkpt lat="43.56768" lon="5.49448">
        <ele>406.7</ele>
        <time>1970-01-01T01:23:19.000Z</time>
      </trkpt>
      <trkpt lat="43.56766" lon="5.49448">
        <ele>406.8</ele>
        <time>1970-01-01T01:23:20.000Z</time>
      </trkpt>
      <trkpt lat="43.56765" lon="5.49446">
        <ele>406.8</ele>
        <time>1970-01-01T01:23:22.000Z</time>
      </trkpt>
      <trkpt lat="43.56762" lon="5.49444">
        <ele>407</ele>
        <time>1970-01-01T01:23:24.000Z</time>
      </trkpt>
      <trkpt lat="43.56761" lon="5.49444">
        <ele>407.1</ele>
        <time>1970-01-01T01:23:25.000Z</time>
      </trkpt>
      <trkpt lat="43.56759" lon="5.49442">
        <ele>407.1</ele>
        <time>1970-01-01T01:23:26.000Z</time>
      </trkpt>
      <trkpt lat="43.56757" lon="5.49441">
        <ele>407.2</ele>
        <time>1970-01-01T01:23:28.000Z</time>
      </trkpt>
      <trkpt lat="43.56754" lon="5.49441">
        <ele>407.3</ele>
        <time>1970-01-01T01:23:30.000Z</time>
      </trkpt>
      <trkpt lat="43.56753" lon="5.49441">
        <ele>407.3</ele>
        <time>1970-01-01T01:23:31.000Z</time>
      </trkpt>
      <trkpt lat="43.5675" lon="5.4944">
        <ele>407.5</ele>
        <time>1970-01-01T01:23:33.000Z</time>
      </trkpt>
      <trkpt lat="43.56749" lon="5.4944">
        <ele>407.5</ele>
        <time>1970-01-01T01:23:34.000Z</time>
      </trkpt>
      <trkpt lat="43.56749" lon="5.4944">
        <ele>407.5</ele>
        <time>1970-01-01T01:23:35.000Z</time>
      </trkpt>
      <trkpt lat="43.56748" lon="5.4944">
        <ele>407.4</ele>
        <time>1970-01-01T01:23:36.000Z</time>
      </trkpt>
      <trkpt lat="43.56748" lon="5.49439">
        <ele>407.4</ele>
        <time>1970-01-01T01:23:37.000Z</time>
      </trkpt>
      <trkpt lat="43.56744" lon="5.49439">
        <ele>407.2</ele>
        <time>1970-01-01T01:23:39.000Z</time>
      </trkpt>
      <trkpt lat="43.56742" lon="5.49439">
        <ele>407.1</ele>
        <time>1970-01-01T01:23:40.000Z</time>
      </trkpt>
      <trkpt lat="43.56739" lon="5.4944">
        <ele>407</ele>
        <time>1970-01-01T01:23:42.000Z</time>
      </trkpt>
      <trkpt lat="43.56736" lon="5.49443">
        <ele>407.1</ele>
        <time>1970-01-01T01:23:44.000Z</time>
      </trkpt>
      <trkpt lat="43.56734" lon="5.49443">
        <ele>407.1</ele>
        <time>1970-01-01T01:23:45.000Z</time>
      </trkpt>
      <trkpt lat="43.56733" lon="5.49443">
        <ele>407.1</ele>
        <time>1970-01-01T01:23:46.000Z</time>
      </trkpt>
      <trkpt lat="43.5673" lon="5.4944">
        <ele>407.1</ele>
        <time>1970-01-01T01:23:48.000Z</time>
      </trkpt>
      <trkpt lat="43.56728" lon="5.49437">
        <ele>407</ele>
        <time>1970-01-01T01:23:50.000Z</time>
      </trkpt>
      <trkpt lat="43.56726" lon="5.49433">
        <ele>406.9</ele>
        <time>1970-01-01T01:23:52.000Z</time>
      </trkpt>
      <trkpt lat="43.56725" lon="5.49432">
        <ele>406.9</ele>
        <time>1970-01-01T01:23:53.000Z</time>
      </trkpt>
      <trkpt lat="43.56721" lon="5.49431">
        <ele>406.8</ele>
        <time>1970-01-01T01:23:55.000Z</time>
      </trkpt>
      <trkpt lat="43.56719" lon="5.4943">
        <ele>406.7</ele>
        <time>1970-01-01T01:23:56.000Z</time>
      </trkpt>
      <trkpt lat="43.56714" lon="5.4943">
        <ele>406.6</ele>
        <time>1970-01-01T01:23:58.000Z</time>
      </trkpt>
      <trkpt lat="43.56713" lon="5.49429">
        <ele>406.5</ele>
        <time>1970-01-01T01:23:59.000Z</time>
      </trkpt>
      <trkpt lat="43.56711" lon="5.49428">
        <ele>406.5</ele>
        <time>1970-01-01T01:24:00.000Z</time>
      </trkpt>
      <trkpt lat="43.56706" lon="5.49425">
        <ele>406.3</ele>
        <time>1970-01-01T01:24:02.000Z</time>
      </trkpt>
      <trkpt lat="43.56701" lon="5.49423">
        <ele>406.1</ele>
        <time>1970-01-01T01:24:04.000Z</time>
      </trkpt>
      <trkpt lat="43.56698" lon="5.49422">
        <ele>406</ele>
        <time>1970-01-01T01:24:06.000Z</time>
      </trkpt>
      <trkpt lat="43.56696" lon="5.49421">
        <ele>406</ele>
        <time>1970-01-01T01:24:07.000Z</time>
      </trkpt>
      <trkpt lat="43.56693" lon="5.49419">
        <ele>405.9</ele>
        <time>1970-01-01T01:24:08.000Z</time>
      </trkpt>
      <trkpt lat="43.5669" lon="5.49417">
        <ele>405.8</ele>
        <time>1970-01-01T01:24:09.000Z</time>
      </trkpt>
      <trkpt lat="43.56688" lon="5.49414">
        <ele>405.7</ele>
        <time>1970-01-01T01:24:10.000Z</time>
      </trkpt>
      <trkpt lat="43.56688" lon="5.49413">
        <ele>405.7</ele>
        <time>1970-01-01T01:24:11.000Z</time>
      </trkpt>
      <trkpt lat="43.56685" lon="5.49409">
        <ele>405.6</ele>
        <time>1970-01-01T01:24:12.000Z</time>
      </trkpt>
      <trkpt lat="43.56684" lon="5.49409">
        <ele>405.6</ele>
        <time>1970-01-01T01:24:13.000Z</time>
      </trkpt>
      <trkpt lat="43.56681" lon="5.49407">
        <ele>405.5</ele>
        <time>1970-01-01T01:24:14.000Z</time>
      </trkpt>
      <trkpt lat="43.5668" lon="5.49407">
        <ele>405.5</ele>
        <time>1970-01-01T01:24:15.000Z</time>
      </trkpt>
      <trkpt lat="43.56678" lon="5.49403">
        <ele>405.5</ele>
        <time>1970-01-01T01:24:17.000Z</time>
      </trkpt>
      <trkpt lat="43.56677" lon="5.49402">
        <ele>405.4</ele>
        <time>1970-01-01T01:24:18.000Z</time>
      </trkpt>
      <trkpt lat="43.56675" lon="5.494">
        <ele>405.4</ele>
        <time>1970-01-01T01:24:19.000Z</time>
      </trkpt>
      <trkpt lat="43.56671" lon="5.49397">
        <ele>405.4</ele>
        <time>1970-01-01T01:24:21.000Z</time>
      </trkpt>
      <trkpt lat="43.5667" lon="5.49396">
        <ele>405.4</ele>
        <time>1970-01-01T01:24:22.000Z</time>
      </trkpt>
      <trkpt lat="43.56667" lon="5.49395">
        <ele>405.4</ele>
        <time>1970-01-01T01:24:24.000Z</time>
      </trkpt>
      <trkpt lat="43.56664" lon="5.49392">
        <ele>405.5</ele>
        <time>1970-01-01T01:24:26.000Z</time>
      </trkpt>
      <trkpt lat="43.56663" lon="5.49391">
        <ele>405.5</ele>
        <time>1970-01-01T01:24:27.000Z</time>
      </trkpt>
      <trkpt lat="43.5666" lon="5.49387">
        <ele>405.6</ele>
        <time>1970-01-01T01:24:29.000Z</time>
      </trkpt>
      <trkpt lat="43.56658" lon="5.49385">
        <ele>405.7</ele>
        <time>1970-01-01T01:24:31.000Z</time>
      </trkpt>
      <trkpt lat="43.56657" lon="5.49384">
        <ele>405.8</ele>
        <time>1970-01-01T01:24:32.000Z</time>
      </trkpt>
      <trkpt lat="43.56655" lon="5.4938">
        <ele>405.9</ele>
        <time>1970-01-01T01:24:34.000Z</time>
      </trkpt>
      <trkpt lat="43.56655" lon="5.49378">
        <ele>405.9</ele>
        <time>1970-01-01T01:24:35.000Z</time>
      </trkpt>
      <trkpt lat="43.56653" lon="5.49376">
        <ele>406</ele>
        <time>1970-01-01T01:24:37.000Z</time>
      </trkpt>
      <trkpt lat="43.56652" lon="5.49375">
        <ele>406.1</ele>
        <time>1970-01-01T01:24:38.000Z</time>
      </trkpt>
      <trkpt lat="43.56651" lon="5.49374">
        <ele>406.1</ele>
        <time>1970-01-01T01:24:39.000Z</time>
      </trkpt>
      <trkpt lat="43.5665" lon="5.49373">
        <ele>406.2</ele>
        <time>1970-01-01T01:24:40.000Z</time>
      </trkpt>
      <trkpt lat="43.56649" lon="5.49373">
        <ele>406.2</ele>
        <time>1970-01-01T01:24:41.000Z</time>
      </trkpt>
      <trkpt lat="43.56647" lon="5.49372">
        <ele>406.3</ele>
        <time>1970-01-01T01:24:43.000Z</time>
      </trkpt>
      <trkpt lat="43.56646" lon="5.49369">
        <ele>406.4</ele>
        <time>1970-01-01T01:24:45.000Z</time>
      </trkpt>
      <trkpt lat="43.56645" lon="5.49368">
        <ele>406.5</ele>
        <time>1970-01-01T01:24:47.000Z</time>
      </trkpt>
      <trkpt lat="43.56644" lon="5.49367">
        <ele>406.6</ele>
        <time>1970-01-01T01:24:48.000Z</time>
      </trkpt>
      <trkpt lat="43.56643" lon="5.49365">
        <ele>406.7</ele>
        <time>1970-01-01T01:24:49.000Z</time>
      </trkpt>
      <trkpt lat="43.56641" lon="5.49363">
        <ele>406.8</ele>
        <time>1970-01-01T01:24:51.000Z</time>
      </trkpt>
      <trkpt lat="43.5664" lon="5.49363">
        <ele>406.8</ele>
        <time>1970-01-01T01:24:52.000Z</time>
      </trkpt>
      <trkpt lat="43.56639" lon="5.4936">
        <ele>406.9</ele>
        <time>1970-01-01T01:24:54.000Z</time>
      </trkpt>
      <trkpt lat="43.56638" lon="5.49358">
        <ele>407.4</ele>
        <time>1970-01-01T01:24:56.000Z</time>
      </trkpt>
      <trkpt lat="43.56637" lon="5.49356">
        <ele>407.5</ele>
        <time>1970-01-01T01:24:57.000Z</time>
      </trkpt>
      <trkpt lat="43.56636" lon="5.49355">
        <ele>407.5</ele>
        <time>1970-01-01T01:24:58.000Z</time>
      </trkpt>
      <trkpt lat="43.56634" lon="5.49354">
        <ele>407.6</ele>
        <time>1970-01-01T01:25:00.000Z</time>
      </trkpt>
      <trkpt lat="43.56632" lon="5.49353">
        <ele>407.7</ele>
        <time>1970-01-01T01:25:02.000Z</time>
      </trkpt>
      <trkpt lat="43.56631" lon="5.49352">
        <ele>407.8</ele>
        <time>1970-01-01T01:25:04.000Z</time>
      </trkpt>
      <trkpt lat="43.5663" lon="5.49355">
        <ele>407.9</ele>
        <time>1970-01-01T01:25:06.000Z</time>
      </trkpt>
      <trkpt lat="43.5663" lon="5.49359">
        <ele>408</ele>
        <time>1970-01-01T01:25:08.000Z</time>
      </trkpt>
      <trkpt lat="43.5663" lon="5.4936">
        <ele>408.1</ele>
        <time>1970-01-01T01:25:09.000Z</time>
      </trkpt>
      <trkpt lat="43.5663" lon="5.49361">
        <ele>408.1</ele>
        <time>1970-01-01T01:25:10.000Z</time>
      </trkpt>
      <trkpt lat="43.56631" lon="5.49362">
        <ele>408.1</ele>
        <time>1970-01-01T01:25:12.000Z</time>
      </trkpt>
      <trkpt lat="43.56632" lon="5.49363">
        <ele>408.2</ele>
        <time>1970-01-01T01:25:13.000Z</time>
      </trkpt>
      <trkpt lat="43.56631" lon="5.49363">
        <ele>408.2</ele>
        <time>1970-01-01T01:25:14.000Z</time>
      </trkpt>
      <trkpt lat="43.56627" lon="5.49365">
        <ele>408.4</ele>
        <time>1970-01-01T01:25:16.000Z</time>
      </trkpt>
      <trkpt lat="43.56622" lon="5.49367">
        <ele>408.6</ele>
        <time>1970-01-01T01:25:18.000Z</time>
      </trkpt>
      <trkpt lat="43.56619" lon="5.49369">
        <ele>408.7</ele>
        <time>1970-01-01T01:25:19.000Z</time>
      </trkpt>
      <trkpt lat="43.56618" lon="5.4937">
        <ele>408.8</ele>
        <time>1970-01-01T01:25:20.000Z</time>
      </trkpt>
      <trkpt lat="43.56617" lon="5.49372">
        <ele>408.8</ele>
        <time>1970-01-01T01:25:21.000Z</time>
      </trkpt>
      <trkpt lat="43.56619" lon="5.49377">
        <ele>409</ele>
        <time>1970-01-01T01:25:23.000Z</time>
      </trkpt>
      <trkpt lat="43.56619" lon="5.49379">
        <ele>409</ele>
        <time>1970-01-01T01:25:24.000Z</time>
      </trkpt>
      <trkpt lat="43.56621" lon="5.49383">
        <ele>409.1</ele>
        <time>1970-01-01T01:25:26.000Z</time>
      </trkpt>
      <trkpt lat="43.56621" lon="5.49386">
        <ele>409.2</ele>
        <time>1970-01-01T01:25:28.000Z</time>
      </trkpt>
      <trkpt lat="43.5662" lon="5.49387">
        <ele>409.2</ele>
        <time>1970-01-01T01:25:29.000Z</time>
      </trkpt>
      <trkpt lat="43.5662" lon="5.49388">
        <ele>409.3</ele>
        <time>1970-01-01T01:25:30.000Z</time>
      </trkpt>
      <trkpt lat="43.56619" lon="5.49393">
        <ele>409.4</ele>
        <time>1970-01-01T01:25:31.000Z</time>
      </trkpt>
      <trkpt lat="43.56619" lon="5.49395">
        <ele>409.4</ele>
        <time>1970-01-01T01:25:32.000Z</time>
      </trkpt>
      <trkpt lat="43.56619" lon="5.49398">
        <ele>409.5</ele>
        <time>1970-01-01T01:25:33.000Z</time>
      </trkpt>
      <trkpt lat="43.56618" lon="5.49402">
        <ele>409.6</ele>
        <time>1970-01-01T01:25:35.000Z</time>
      </trkpt>
      <trkpt lat="43.56619" lon="5.49408">
        <ele>409.8</ele>
        <time>1970-01-01T01:25:37.000Z</time>
      </trkpt>
      <trkpt lat="43.56619" lon="5.4941">
        <ele>409.8</ele>
        <time>1970-01-01T01:25:38.000Z</time>
      </trkpt>
      <trkpt lat="43.56621" lon="5.49415">
        <ele>410</ele>
        <time>1970-01-01T01:25:40.000Z</time>
      </trkpt>
      <trkpt lat="43.56621" lon="5.49417">
        <ele>410</ele>
        <time>1970-01-01T01:25:41.000Z</time>
      </trkpt>
      <trkpt lat="43.56621" lon="5.49419">
        <ele>410.1</ele>
        <time>1970-01-01T01:25:42.000Z</time>
      </trkpt>
      <trkpt lat="43.56623" lon="5.49424">
        <ele>410.2</ele>
        <time>1970-01-01T01:25:44.000Z</time>
      </trkpt>
      <trkpt lat="43.56622" lon="5.49429">
        <ele>410.4</ele>
        <time>1970-01-01T01:25:46.000Z</time>
      </trkpt>
      <trkpt lat="43.56621" lon="5.49431">
        <ele>410.4</ele>
        <time>1970-01-01T01:25:47.000Z</time>
      </trkpt>
      <trkpt lat="43.5662" lon="5.49435">
        <ele>410.6</ele>
        <time>1970-01-01T01:25:48.000Z</time>
      </trkpt>
      <trkpt lat="43.56619" lon="5.49436">
        <ele>410.6</ele>
        <time>1970-01-01T01:25:49.000Z</time>
      </trkpt>
      <trkpt lat="43.56617" lon="5.49439">
        <ele>410.7</ele>
        <time>1970-01-01T01:25:51.000Z</time>
      </trkpt>
      <trkpt lat="43.56615" lon="5.49442">
        <ele>410.9</ele>
        <time>1970-01-01T01:25:52.000Z</time>
      </trkpt>
      <trkpt lat="43.56613" lon="5.49445">
        <ele>411</ele>
        <time>1970-01-01T01:25:53.000Z</time>
      </trkpt>
      <trkpt lat="43.56612" lon="5.49446">
        <ele>411.1</ele>
        <time>1970-01-01T01:25:54.000Z</time>
      </trkpt>
      <trkpt lat="43.5661" lon="5.4945">
        <ele>411.2</ele>
        <time>1970-01-01T01:25:56.000Z</time>
      </trkpt>
      <trkpt lat="43.56611" lon="5.49456">
        <ele>411.4</ele>
        <time>1970-01-01T01:25:58.000Z</time>
      </trkpt>
      <trkpt lat="43.56609" lon="5.49459">
        <ele>411.6</ele>
        <time>1970-01-01T01:26:00.000Z</time>
      </trkpt>
      <trkpt lat="43.56608" lon="5.49461">
        <ele>411.7</ele>
        <time>1970-01-01T01:26:01.000Z</time>
      </trkpt>
      <trkpt lat="43.56607" lon="5.49463">
        <ele>411.8</ele>
        <time>1970-01-01T01:26:02.000Z</time>
      </trkpt>
      <trkpt lat="43.56606" lon="5.49465">
        <ele>411.9</ele>
        <time>1970-01-01T01:26:03.000Z</time>
      </trkpt>
      <trkpt lat="43.56605" lon="5.49466">
        <ele>412</ele>
        <time>1970-01-01T01:26:04.000Z</time>
      </trkpt>
      <trkpt lat="43.56604" lon="5.49467">
        <ele>412</ele>
        <time>1970-01-01T01:26:05.000Z</time>
      </trkpt>
      <trkpt lat="43.56603" lon="5.49474">
        <ele>412.4</ele>
        <time>1970-01-01T01:26:07.000Z</time>
      </trkpt>
      <trkpt lat="43.56603" lon="5.49476">
        <ele>412.5</ele>
        <time>1970-01-01T01:26:08.000Z</time>
      </trkpt>
      <trkpt lat="43.56601" lon="5.4948">
        <ele>412.7</ele>
        <time>1970-01-01T01:26:10.000Z</time>
      </trkpt>
      <trkpt lat="43.566" lon="5.49482">
        <ele>412.8</ele>
        <time>1970-01-01T01:26:11.000Z</time>
      </trkpt>
      <trkpt lat="43.56598" lon="5.49484">
        <ele>412.9</ele>
        <time>1970-01-01T01:26:12.000Z</time>
      </trkpt>
      <trkpt lat="43.56594" lon="5.49488">
        <ele>413.3</ele>
        <time>1970-01-01T01:26:14.000Z</time>
      </trkpt>
      <trkpt lat="43.56593" lon="5.49489">
        <ele>413.4</ele>
        <time>1970-01-01T01:26:15.000Z</time>
      </trkpt>
      <trkpt lat="43.56592" lon="5.4949">
        <ele>413.5</ele>
        <time>1970-01-01T01:26:16.000Z</time>
      </trkpt>
      <trkpt lat="43.56589" lon="5.49493">
        <ele>413.7</ele>
        <time>1970-01-01T01:26:17.000Z</time>
      </trkpt>
      <trkpt lat="43.56588" lon="5.49494">
        <ele>413.8</ele>
        <time>1970-01-01T01:26:18.000Z</time>
      </trkpt>
      <trkpt lat="43.56586" lon="5.49497">
        <ele>414.1</ele>
        <time>1970-01-01T01:26:20.000Z</time>
      </trkpt>
      <trkpt lat="43.56586" lon="5.49498">
        <ele>414.1</ele>
        <time>1970-01-01T01:26:21.000Z</time>
      </trkpt>
      <trkpt lat="43.56587" lon="5.49501">
        <ele>414.3</ele>
        <time>1970-01-01T01:26:23.000Z</time>
      </trkpt>
      <trkpt lat="43.56585" lon="5.49503">
        <ele>414.5</ele>
        <time>1970-01-01T01:26:25.000Z</time>
      </trkpt>
      <trkpt lat="43.56581" lon="5.49506">
        <ele>414.8</ele>
        <time>1970-01-01T01:26:27.000Z</time>
      </trkpt>
      <trkpt lat="43.56577" lon="5.49508">
        <ele>415.1</ele>
        <time>1970-01-01T01:26:28.000Z</time>
      </trkpt>
      <trkpt lat="43.56574" lon="5.49511">
        <ele>415.4</ele>
        <time>1970-01-01T01:26:30.000Z</time>
      </trkpt>
      <trkpt lat="43.56573" lon="5.49514">
        <ele>415.6</ele>
        <time>1970-01-01T01:26:31.000Z</time>
      </trkpt>
      <trkpt lat="43.56571" lon="5.49519">
        <ele>415.9</ele>
        <time>1970-01-01T01:26:33.000Z</time>
      </trkpt>
      <trkpt lat="43.56569" lon="5.49523">
        <ele>416.1</ele>
        <time>1970-01-01T01:26:34.000Z</time>
      </trkpt>
      <trkpt lat="43.56569" lon="5.49524">
        <ele>416.2</ele>
        <time>1970-01-01T01:26:35.000Z</time>
      </trkpt>
      <trkpt lat="43.56568" lon="5.49526">
        <ele>416.3</ele>
        <time>1970-01-01T01:26:36.000Z</time>
      </trkpt>
      <trkpt lat="43.56567" lon="5.49528">
        <ele>416.5</ele>
        <time>1970-01-01T01:26:38.000Z</time>
      </trkpt>
      <trkpt lat="43.56567" lon="5.49531">
        <ele>416.6</ele>
        <time>1970-01-01T01:26:40.000Z</time>
      </trkpt>
      <trkpt lat="43.56567" lon="5.49532">
        <ele>416.7</ele>
        <time>1970-01-01T01:26:41.000Z</time>
      </trkpt>
      <trkpt lat="43.56565" lon="5.49534">
        <ele>416.9</ele>
        <time>1970-01-01T01:26:42.000Z</time>
      </trkpt>
      <trkpt lat="43.56565" lon="5.49535">
        <ele>416.9</ele>
        <time>1970-01-01T01:26:43.000Z</time>
      </trkpt>
      <trkpt lat="43.56564" lon="5.49536">
        <ele>417</ele>
        <time>1970-01-01T01:26:44.000Z</time>
      </trkpt>
      <trkpt lat="43.56561" lon="5.4954">
        <ele>417.5</ele>
        <time>1970-01-01T01:26:46.000Z</time>
      </trkpt>
      <trkpt lat="43.5656" lon="5.49542">
        <ele>417.6</ele>
        <time>1970-01-01T01:26:48.000Z</time>
      </trkpt>
      <trkpt lat="43.56559" lon="5.49544">
        <ele>417.8</ele>
        <time>1970-01-01T01:26:49.000Z</time>
      </trkpt>
      <trkpt lat="43.56559" lon="5.49545">
        <ele>417.9</ele>
        <time>1970-01-01T01:26:50.000Z</time>
      </trkpt>
      <trkpt lat="43.56558" lon="5.49547">
        <ele>418</ele>
        <time>1970-01-01T01:26:51.000Z</time>
      </trkpt>
      <trkpt lat="43.56558" lon="5.4955">
        <ele>418.3</ele>
        <time>1970-01-01T01:26:53.000Z</time>
      </trkpt>
      <trkpt lat="43.56557" lon="5.49553">
        <ele>418.5</ele>
        <time>1970-01-01T01:26:55.000Z</time>
      </trkpt>
      <trkpt lat="43.56554" lon="5.49556">
        <ele>418.9</ele>
        <time>1970-01-01T01:26:57.000Z</time>
      </trkpt>
      <trkpt lat="43.56553" lon="5.49558">
        <ele>419.1</ele>
        <time>1970-01-01T01:26:59.000Z</time>
      </trkpt>
      <trkpt lat="43.56553" lon="5.49559">
        <ele>419.2</ele>
        <time>1970-01-01T01:27:00.000Z</time>
      </trkpt>
      <trkpt lat="43.56551" lon="5.4956">
        <ele>419.4</ele>
        <time>1970-01-01T01:27:01.000Z</time>
      </trkpt>
      <trkpt lat="43.5655" lon="5.49561">
        <ele>419.6</ele>
        <time>1970-01-01T01:27:02.000Z</time>
      </trkpt>
      <trkpt lat="43.56547" lon="5.49562">
        <ele>419.9</ele>
        <time>1970-01-01T01:27:04.000Z</time>
      </trkpt>
      <trkpt lat="43.56546" lon="5.49562">
        <ele>420</ele>
        <time>1970-01-01T01:27:05.000Z</time>
      </trkpt>
      <trkpt lat="43.56544" lon="5.49564">
        <ele>420.3</ele>
        <time>1970-01-01T01:27:06.000Z</time>
      </trkpt>
      <trkpt lat="43.56541" lon="5.49565">
        <ele>420.5</ele>
        <time>1970-01-01T01:27:08.000Z</time>
      </trkpt>
      <trkpt lat="43.56537" lon="5.49566">
        <ele>421.6</ele>
        <time>1970-01-01T01:27:10.000Z</time>
      </trkpt>
      <trkpt lat="43.56536" lon="5.49567">
        <ele>421.7</ele>
        <time>1970-01-01T01:27:11.000Z</time>
      </trkpt>
      <trkpt lat="43.56535" lon="5.49567">
        <ele>421.8</ele>
        <time>1970-01-01T01:27:12.000Z</time>
      </trkpt>
      <trkpt lat="43.56533" lon="5.49568">
        <ele>421.9</ele>
        <time>1970-01-01T01:27:14.000Z</time>
      </trkpt>
      <trkpt lat="43.56532" lon="5.49568">
        <ele>422</ele>
        <time>1970-01-01T01:27:16.000Z</time>
      </trkpt>
      <trkpt lat="43.56531" lon="5.49569">
        <ele>422.1</ele>
        <time>1970-01-01T01:27:17.000Z</time>
      </trkpt>
      <trkpt lat="43.5653" lon="5.49569">
        <ele>422.2</ele>
        <time>1970-01-01T01:27:18.000Z</time>
      </trkpt>
      <trkpt lat="43.56527" lon="5.4957">
        <ele>422.4</ele>
        <time>1970-01-01T01:27:19.000Z</time>
      </trkpt>
      <trkpt lat="43.56524" lon="5.49569">
        <ele>422.6</ele>
        <time>1970-01-01T01:27:21.000Z</time>
      </trkpt>
      <trkpt lat="43.56523" lon="5.49568">
        <ele>422.7</ele>
        <time>1970-01-01T01:27:23.000Z</time>
      </trkpt>
      <trkpt lat="43.5652" lon="5.49567">
        <ele>422.9</ele>
        <time>1970-01-01T01:27:24.000Z</time>
      </trkpt>
      <trkpt lat="43.56516" lon="5.49563">
        <ele>423.3</ele>
        <time>1970-01-01T01:27:26.000Z</time>
      </trkpt>
      <trkpt lat="43.56515" lon="5.49562">
        <ele>423.4</ele>
        <time>1970-01-01T01:27:27.000Z</time>
      </trkpt>
      <trkpt lat="43.56513" lon="5.49559">
        <ele>423.6</ele>
        <time>1970-01-01T01:27:29.000Z</time>
      </trkpt>
      <trkpt lat="43.5651" lon="5.49558">
        <ele>423.8</ele>
        <time>1970-01-01T01:27:31.000Z</time>
      </trkpt>
      <trkpt lat="43.56509" lon="5.49558">
        <ele>423.9</ele>
        <time>1970-01-01T01:27:32.000Z</time>
      </trkpt>
      <trkpt lat="43.56507" lon="5.49558">
        <ele>424</ele>
        <time>1970-01-01T01:27:33.000Z</time>
      </trkpt>
      <trkpt lat="43.56505" lon="5.49558">
        <ele>424.1</ele>
        <time>1970-01-01T01:27:34.000Z</time>
      </trkpt>
      <trkpt lat="43.56505" lon="5.49558">
        <ele>424.2</ele>
        <time>1970-01-01T01:27:35.000Z</time>
      </trkpt>
      <trkpt lat="43.56503" lon="5.49557">
        <ele>424.3</ele>
        <time>1970-01-01T01:27:36.000Z</time>
      </trkpt>
      <trkpt lat="43.56497" lon="5.49556">
        <ele>424.6</ele>
        <time>1970-01-01T01:27:39.000Z</time>
      </trkpt>
      <trkpt lat="43.56496" lon="5.49555">
        <ele>424.7</ele>
        <time>1970-01-01T01:27:41.000Z</time>
      </trkpt>
      <trkpt lat="43.56495" lon="5.4955">
        <ele>424.9</ele>
        <time>1970-01-01T01:27:43.000Z</time>
      </trkpt>
      <trkpt lat="43.56494" lon="5.4955">
        <ele>424.9</ele>
        <time>1970-01-01T01:27:44.000Z</time>
      </trkpt>
      <trkpt lat="43.56493" lon="5.4955">
        <ele>424.9</ele>
        <time>1970-01-01T01:27:46.000Z</time>
      </trkpt>
      <trkpt lat="43.56492" lon="5.49551">
        <ele>425</ele>
        <time>1970-01-01T01:27:48.000Z</time>
      </trkpt>
      <trkpt lat="43.56488" lon="5.49555">
        <ele>425.2</ele>
        <time>1970-01-01T01:27:50.000Z</time>
      </trkpt>
      <trkpt lat="43.56484" lon="5.49558">
        <ele>425.3</ele>
        <time>1970-01-01T01:27:51.000Z</time>
      </trkpt>
      <trkpt lat="43.56483" lon="5.49559">
        <ele>425.3</ele>
        <time>1970-01-01T01:27:52.000Z</time>
      </trkpt>
      <trkpt lat="43.56474" lon="5.49562">
        <ele>425.4</ele>
        <time>1970-01-01T01:27:54.000Z</time>
      </trkpt>
      <trkpt lat="43.56474" lon="5.49562">
        <ele>425.4</ele>
        <time>1970-01-01T01:27:55.000Z</time>
      </trkpt>
      <trkpt lat="43.56474" lon="5.49561">
        <ele>425.3</ele>
        <time>1970-01-01T01:27:57.000Z</time>
      </trkpt>
      <trkpt lat="43.56472" lon="5.49561">
        <ele>425.3</ele>
        <time>1970-01-01T01:27:59.000Z</time>
      </trkpt>
      <trkpt lat="43.56471" lon="5.49561">
        <ele>425.3</ele>
        <time>1970-01-01T01:28:00.000Z</time>
      </trkpt>
      <trkpt lat="43.56468" lon="5.49561">
        <ele>425.2</ele>
        <time>1970-01-01T01:28:01.000Z</time>
      </trkpt>
      <trkpt lat="43.56462" lon="5.4956">
        <ele>425.1</ele>
        <time>1970-01-01T01:28:03.000Z</time>
      </trkpt>
      <trkpt lat="43.56459" lon="5.49561">
        <ele>425</ele>
        <time>1970-01-01T01:28:04.000Z</time>
      </trkpt>
      <trkpt lat="43.56456" lon="5.49562">
        <ele>424.9</ele>
        <time>1970-01-01T01:28:06.000Z</time>
      </trkpt>
      <trkpt lat="43.56454" lon="5.49562">
        <ele>424.9</ele>
        <time>1970-01-01T01:28:07.000Z</time>
      </trkpt>
      <trkpt lat="43.5645" lon="5.49562">
        <ele>424.7</ele>
        <time>1970-01-01T01:28:09.000Z</time>
      </trkpt>
      <trkpt lat="43.56446" lon="5.49563">
        <ele>424.6</ele>
        <time>1970-01-01T01:28:10.000Z</time>
      </trkpt>
      <trkpt lat="43.56444" lon="5.49564">
        <ele>424.5</ele>
        <time>1970-01-01T01:28:11.000Z</time>
      </trkpt>
      <trkpt lat="43.56437" lon="5.49565">
        <ele>424.3</ele>
        <time>1970-01-01T01:28:13.000Z</time>
      </trkpt>
      <trkpt lat="43.5643" lon="5.49568">
        <ele>424.1</ele>
        <time>1970-01-01T01:28:15.000Z</time>
      </trkpt>
      <trkpt lat="43.56427" lon="5.49569">
        <ele>424</ele>
        <time>1970-01-01T01:28:16.000Z</time>
      </trkpt>
      <trkpt lat="43.56423" lon="5.4957">
        <ele>423.9</ele>
        <time>1970-01-01T01:28:17.000Z</time>
      </trkpt>
      <trkpt lat="43.56422" lon="5.49571">
        <ele>423.9</ele>
        <time>1970-01-01T01:28:18.000Z</time>
      </trkpt>
      <trkpt lat="43.56414" lon="5.49573">
        <ele>423.7</ele>
        <time>1970-01-01T01:28:20.000Z</time>
      </trkpt>
      <trkpt lat="43.56406" lon="5.49575">
        <ele>423.5</ele>
        <time>1970-01-01T01:28:22.000Z</time>
      </trkpt>
      <trkpt lat="43.56403" lon="5.49576">
        <ele>423.5</ele>
        <time>1970-01-01T01:28:23.000Z</time>
      </trkpt>
      <trkpt lat="43.56398" lon="5.49578">
        <ele>423.4</ele>
        <time>1970-01-01T01:28:25.000Z</time>
      </trkpt>
      <trkpt lat="43.56395" lon="5.49581">
        <ele>423.4</ele>
        <time>1970-01-01T01:28:26.000Z</time>
      </trkpt>
      <trkpt lat="43.56393" lon="5.49582">
        <ele>423.4</ele>
        <time>1970-01-01T01:28:27.000Z</time>
      </trkpt>
      <trkpt lat="43.56389" lon="5.49585">
        <ele>423.4</ele>
        <time>1970-01-01T01:28:29.000Z</time>
      </trkpt>
      <trkpt lat="43.56386" lon="5.49588">
        <ele>423.4</ele>
        <time>1970-01-01T01:28:30.000Z</time>
      </trkpt>
      <trkpt lat="43.56381" lon="5.4959">
        <ele>423.4</ele>
        <time>1970-01-01T01:28:31.000Z</time>
      </trkpt>
      <trkpt lat="43.56373" lon="5.49593">
        <ele>423.5</ele>
        <time>1970-01-01T01:28:33.000Z</time>
      </trkpt>
      <trkpt lat="43.56369" lon="5.49593">
        <ele>423.6</ele>
        <time>1970-01-01T01:28:34.000Z</time>
      </trkpt>
      <trkpt lat="43.56364" lon="5.49593">
        <ele>423.6</ele>
        <time>1970-01-01T01:28:36.000Z</time>
      </trkpt>
      <trkpt lat="43.5636" lon="5.49595">
        <ele>423.7</ele>
        <time>1970-01-01T01:28:38.000Z</time>
      </trkpt>
      <trkpt lat="43.56356" lon="5.49596">
        <ele>423.7</ele>
        <time>1970-01-01T01:28:39.000Z</time>
      </trkpt>
      <trkpt lat="43.56351" lon="5.49597">
        <ele>423.8</ele>
        <time>1970-01-01T01:28:40.000Z</time>
      </trkpt>
      <trkpt lat="43.56343" lon="5.496">
        <ele>423.8</ele>
        <time>1970-01-01T01:28:42.000Z</time>
      </trkpt>
      <trkpt lat="43.56333" lon="5.49602">
        <ele>423.8</ele>
        <time>1970-01-01T01:28:44.000Z</time>
      </trkpt>
      <trkpt lat="43.56329" lon="5.49605">
        <ele>423.9</ele>
        <time>1970-01-01T01:28:45.000Z</time>
      </trkpt>
      <trkpt lat="43.5632" lon="5.49607">
        <ele>424</ele>
        <time>1970-01-01T01:28:47.000Z</time>
      </trkpt>
      <trkpt lat="43.56315" lon="5.49608">
        <ele>424</ele>
        <time>1970-01-01T01:28:48.000Z</time>
      </trkpt>
      <trkpt lat="43.56303" lon="5.49613">
        <ele>424.3</ele>
        <time>1970-01-01T01:28:50.000Z</time>
      </trkpt>
      <trkpt lat="43.56299" lon="5.49618">
        <ele>424.4</ele>
        <time>1970-01-01T01:28:51.000Z</time>
      </trkpt>
      <trkpt lat="43.56297" lon="5.49622">
        <ele>424.5</ele>
        <time>1970-01-01T01:28:52.000Z</time>
      </trkpt>
      <trkpt lat="43.56296" lon="5.49625">
        <ele>424.6</ele>
        <time>1970-01-01T01:28:53.000Z</time>
      </trkpt>
      <trkpt lat="43.56293" lon="5.49632">
        <ele>424.8</ele>
        <time>1970-01-01T01:28:55.000Z</time>
      </trkpt>
      <trkpt lat="43.56292" lon="5.49639">
        <ele>424.9</ele>
        <time>1970-01-01T01:28:57.000Z</time>
      </trkpt>
      <trkpt lat="43.56291" lon="5.49643">
        <ele>425.1</ele>
        <time>1970-01-01T01:28:58.000Z</time>
      </trkpt>
      <trkpt lat="43.5629" lon="5.49648">
        <ele>425.2</ele>
        <time>1970-01-01T01:29:00.000Z</time>
      </trkpt>
      <trkpt lat="43.5629" lon="5.49651">
        <ele>425.3</ele>
        <time>1970-01-01T01:29:01.000Z</time>
      </trkpt>
      <trkpt lat="43.56288" lon="5.49656">
        <ele>425.4</ele>
        <time>1970-01-01T01:29:03.000Z</time>
      </trkpt>
      <trkpt lat="43.56288" lon="5.49658">
        <ele>425.5</ele>
        <time>1970-01-01T01:29:04.000Z</time>
      </trkpt>
      <trkpt lat="43.56286" lon="5.49662">
        <ele>425.6</ele>
        <time>1970-01-01T01:29:06.000Z</time>
      </trkpt>
      <trkpt lat="43.56284" lon="5.49665">
        <ele>425.7</ele>
        <time>1970-01-01T01:29:07.000Z</time>
      </trkpt>
      <trkpt lat="43.56283" lon="5.49666">
        <ele>425.7</ele>
        <time>1970-01-01T01:29:08.000Z</time>
      </trkpt>
      <trkpt lat="43.5628" lon="5.49671">
        <ele>425.9</ele>
        <time>1970-01-01T01:29:10.000Z</time>
      </trkpt>
      <trkpt lat="43.5628" lon="5.49672">
        <ele>425.9</ele>
        <time>1970-01-01T01:29:11.000Z</time>
      </trkpt>
      <trkpt lat="43.56279" lon="5.49674">
        <ele>426</ele>
        <time>1970-01-01T01:29:12.000Z</time>
      </trkpt>
      <trkpt lat="43.56277" lon="5.4968">
        <ele>426.2</ele>
        <time>1970-01-01T01:29:14.000Z</time>
      </trkpt>
      <trkpt lat="43.56275" lon="5.49684">
        <ele>426.3</ele>
        <time>1970-01-01T01:29:15.000Z</time>
      </trkpt>
      <trkpt lat="43.56272" lon="5.4969">
        <ele>426.6</ele>
        <time>1970-01-01T01:29:17.000Z</time>
      </trkpt>
      <trkpt lat="43.56269" lon="5.49696">
        <ele>426.8</ele>
        <time>1970-01-01T01:29:19.000Z</time>
      </trkpt>
      <trkpt lat="43.56268" lon="5.497">
        <ele>426.9</ele>
        <time>1970-01-01T01:29:20.000Z</time>
      </trkpt>
      <trkpt lat="43.56267" lon="5.49706">
        <ele>427.1</ele>
        <time>1970-01-01T01:29:22.000Z</time>
      </trkpt>
      <trkpt lat="43.56266" lon="5.49708">
        <ele>427.2</ele>
        <time>1970-01-01T01:29:23.000Z</time>
      </trkpt>
      <trkpt lat="43.56263" lon="5.49713">
        <ele>427.4</ele>
        <time>1970-01-01T01:29:25.000Z</time>
      </trkpt>
      <trkpt lat="43.56261" lon="5.49717">
        <ele>427.5</ele>
        <time>1970-01-01T01:29:26.000Z</time>
      </trkpt>
      <trkpt lat="43.5626" lon="5.49719">
        <ele>427.5</ele>
        <time>1970-01-01T01:29:27.000Z</time>
      </trkpt>
      <trkpt lat="43.56258" lon="5.49724">
        <ele>427.6</ele>
        <time>1970-01-01T01:29:29.000Z</time>
      </trkpt>
      <trkpt lat="43.56254" lon="5.49731">
        <ele>427.8</ele>
        <time>1970-01-01T01:29:31.000Z</time>
      </trkpt>
      <trkpt lat="43.56251" lon="5.49737">
        <ele>427.9</ele>
        <time>1970-01-01T01:29:33.000Z</time>
      </trkpt>
      <trkpt lat="43.56248" lon="5.49742">
        <ele>428</ele>
        <time>1970-01-01T01:29:35.000Z</time>
      </trkpt>
      <trkpt lat="43.56246" lon="5.49748">
        <ele>427.9</ele>
        <time>1970-01-01T01:29:37.000Z</time>
      </trkpt>
      <trkpt lat="43.56246" lon="5.49752">
        <ele>427.9</ele>
        <time>1970-01-01T01:29:38.000Z</time>
      </trkpt>
      <trkpt lat="43.56245" lon="5.49759">
        <ele>427.8</ele>
        <time>1970-01-01T01:29:40.000Z</time>
      </trkpt>
      <trkpt lat="43.56243" lon="5.49762">
        <ele>427.8</ele>
        <time>1970-01-01T01:29:41.000Z</time>
      </trkpt>
      <trkpt lat="43.56241" lon="5.49769">
        <ele>427.6</ele>
        <time>1970-01-01T01:29:43.000Z</time>
      </trkpt>
      <trkpt lat="43.56239" lon="5.49778">
        <ele>427.4</ele>
        <time>1970-01-01T01:29:45.000Z</time>
      </trkpt>
      <trkpt lat="43.56237" lon="5.49788">
        <ele>427.1</ele>
        <time>1970-01-01T01:29:47.000Z</time>
      </trkpt>
      <trkpt lat="43.56236" lon="5.49797">
        <ele>426.8</ele>
        <time>1970-01-01T01:29:49.000Z</time>
      </trkpt>
      <trkpt lat="43.56234" lon="5.49802">
        <ele>426.7</ele>
        <time>1970-01-01T01:29:50.000Z</time>
      </trkpt>
      <trkpt lat="43.56227" lon="5.49812">
        <ele>426.2</ele>
        <time>1970-01-01T01:29:52.000Z</time>
      </trkpt>
      <trkpt lat="43.56223" lon="5.49816">
        <ele>425.9</ele>
        <time>1970-01-01T01:29:53.000Z</time>
      </trkpt>
      <trkpt lat="43.56215" lon="5.49825">
        <ele>425.5</ele>
        <time>1970-01-01T01:29:55.000Z</time>
      </trkpt>
      <trkpt lat="43.56211" lon="5.49829">
        <ele>425.3</ele>
        <time>1970-01-01T01:29:56.000Z</time>
      </trkpt>
      <trkpt lat="43.56207" lon="5.49833">
        <ele>425.2</ele>
        <time>1970-01-01T01:29:57.000Z</time>
      </trkpt>
      <trkpt lat="43.56199" lon="5.4984">
        <ele>425</ele>
        <time>1970-01-01T01:29:59.000Z</time>
      </trkpt>
      <trkpt lat="43.56196" lon="5.49843">
        <ele>424.9</ele>
        <time>1970-01-01T01:30:00.000Z</time>
      </trkpt>
      <trkpt lat="43.56188" lon="5.4985">
        <ele>424.7</ele>
        <time>1970-01-01T01:30:02.000Z</time>
      </trkpt>
      <trkpt lat="43.56184" lon="5.49853">
        <ele>424.7</ele>
        <time>1970-01-01T01:30:03.000Z</time>
      </trkpt>
      <trkpt lat="43.5618" lon="5.49856">
        <ele>424.7</ele>
        <time>1970-01-01T01:30:04.000Z</time>
      </trkpt>
      <trkpt lat="43.56175" lon="5.49858">
        <ele>424.7</ele>
        <time>1970-01-01T01:30:05.000Z</time>
      </trkpt>
      <trkpt lat="43.56169" lon="5.49862">
        <ele>424.8</ele>
        <time>1970-01-01T01:30:07.000Z</time>
      </trkpt>
      <trkpt lat="43.56164" lon="5.49864">
        <ele>424.8</ele>
        <time>1970-01-01T01:30:09.000Z</time>
      </trkpt>
      <trkpt lat="43.56158" lon="5.49867">
        <ele>424.9</ele>
        <time>1970-01-01T01:30:11.000Z</time>
      </trkpt>
      <trkpt lat="43.56154" lon="5.49871">
        <ele>425</ele>
        <time>1970-01-01T01:30:12.000Z</time>
      </trkpt>
      <trkpt lat="43.56153" lon="5.49872">
        <ele>425.1</ele>
        <time>1970-01-01T01:30:13.000Z</time>
      </trkpt>
      <trkpt lat="43.5615" lon="5.49875">
        <ele>425.1</ele>
        <time>1970-01-01T01:30:14.000Z</time>
      </trkpt>
      <trkpt lat="43.56144" lon="5.49881">
        <ele>425.3</ele>
        <time>1970-01-01T01:30:16.000Z</time>
      </trkpt>
      <trkpt lat="43.56141" lon="5.49883">
        <ele>425.3</ele>
        <time>1970-01-01T01:30:17.000Z</time>
      </trkpt>
      <trkpt lat="43.56136" lon="5.49888">
        <ele>425.4</ele>
        <time>1970-01-01T01:30:19.000Z</time>
      </trkpt>
      <trkpt lat="43.56129" lon="5.49894">
        <ele>425.6</ele>
        <time>1970-01-01T01:30:21.000Z</time>
      </trkpt>
      <trkpt lat="43.56123" lon="5.49896">
        <ele>425.7</ele>
        <time>1970-01-01T01:30:23.000Z</time>
      </trkpt>
      <trkpt lat="43.56121" lon="5.49898">
        <ele>425.7</ele>
        <time>1970-01-01T01:30:24.000Z</time>
      </trkpt>
      <trkpt lat="43.56117" lon="5.49904">
        <ele>425.9</ele>
        <time>1970-01-01T01:30:26.000Z</time>
      </trkpt>
      <trkpt lat="43.56112" lon="5.49909">
        <ele>426</ele>
        <time>1970-01-01T01:30:28.000Z</time>
      </trkpt>
      <trkpt lat="43.56109" lon="5.49912">
        <ele>426.1</ele>
        <time>1970-01-01T01:30:29.000Z</time>
      </trkpt>
      <trkpt lat="43.56105" lon="5.49915">
        <ele>426.3</ele>
        <time>1970-01-01T01:30:31.000Z</time>
      </trkpt>
      <trkpt lat="43.56098" lon="5.4992">
        <ele>426.4</ele>
        <time>1970-01-01T01:30:33.000Z</time>
      </trkpt>
      <trkpt lat="43.56092" lon="5.49924">
        <ele>426.6</ele>
        <time>1970-01-01T01:30:35.000Z</time>
      </trkpt>
      <trkpt lat="43.56089" lon="5.49925">
        <ele>426.7</ele>
        <time>1970-01-01T01:30:36.000Z</time>
      </trkpt>
      <trkpt lat="43.56086" lon="5.49926">
        <ele>426.7</ele>
        <time>1970-01-01T01:30:37.000Z</time>
      </trkpt>
      <trkpt lat="43.56079" lon="5.49929">
        <ele>427</ele>
        <time>1970-01-01T01:30:39.000Z</time>
      </trkpt>
      <trkpt lat="43.56077" lon="5.4993">
        <ele>427.1</ele>
        <time>1970-01-01T01:30:40.000Z</time>
      </trkpt>
      <trkpt lat="43.5607" lon="5.49932">
        <ele>427.3</ele>
        <time>1970-01-01T01:30:42.000Z</time>
      </trkpt>
      <trkpt lat="43.56066" lon="5.49933">
        <ele>427.5</ele>
        <time>1970-01-01T01:30:44.000Z</time>
      </trkpt>
      <trkpt lat="43.5606" lon="5.49933">
        <ele>427.7</ele>
        <time>1970-01-01T01:30:46.000Z</time>
      </trkpt>
      <trkpt lat="43.56057" lon="5.49932">
        <ele>427.8</ele>
        <time>1970-01-01T01:30:47.000Z</time>
      </trkpt>
      <trkpt lat="43.56052" lon="5.49932">
        <ele>428</ele>
        <time>1970-01-01T01:30:49.000Z</time>
      </trkpt>
      <trkpt lat="43.56048" lon="5.49932">
        <ele>428.1</ele>
        <time>1970-01-01T01:30:50.000Z</time>
      </trkpt>
      <trkpt lat="43.56044" lon="5.49932">
        <ele>428.2</ele>
        <time>1970-01-01T01:30:51.000Z</time>
      </trkpt>
      <trkpt lat="43.56042" lon="5.49932">
        <ele>428.3</ele>
        <time>1970-01-01T01:30:52.000Z</time>
      </trkpt>
      <trkpt lat="43.56036" lon="5.49931">
        <ele>428.4</ele>
        <time>1970-01-01T01:30:54.000Z</time>
      </trkpt>
      <trkpt lat="43.56033" lon="5.49931">
        <ele>428.5</ele>
        <time>1970-01-01T01:30:55.000Z</time>
      </trkpt>
      <trkpt lat="43.56028" lon="5.49933">
        <ele>428.6</ele>
        <time>1970-01-01T01:30:57.000Z</time>
      </trkpt>
      <trkpt lat="43.56021" lon="5.49936">
        <ele>428.6</ele>
        <time>1970-01-01T01:30:59.000Z</time>
      </trkpt>
      <trkpt lat="43.56014" lon="5.49938">
        <ele>428.6</ele>
        <time>1970-01-01T01:31:01.000Z</time>
      </trkpt>
      <trkpt lat="43.56006" lon="5.4994">
        <ele>428.6</ele>
        <time>1970-01-01T01:31:03.000Z</time>
      </trkpt>
      <trkpt lat="43.56003" lon="5.4994">
        <ele>428.6</ele>
        <time>1970-01-01T01:31:04.000Z</time>
      </trkpt>
      <trkpt lat="43.56" lon="5.4994">
        <ele>428.6</ele>
        <time>1970-01-01T01:31:05.000Z</time>
      </trkpt>
      <trkpt lat="43.55996" lon="5.4994">
        <ele>428.6</ele>
        <time>1970-01-01T01:31:06.000Z</time>
      </trkpt>
      <trkpt lat="43.55992" lon="5.49942">
        <ele>428.6</ele>
        <time>1970-01-01T01:31:07.000Z</time>
      </trkpt>
      <trkpt lat="43.55986" lon="5.49942">
        <ele>428.6</ele>
        <time>1970-01-01T01:31:09.000Z</time>
      </trkpt>
      <trkpt lat="43.55981" lon="5.49941">
        <ele>428.6</ele>
        <time>1970-01-01T01:31:10.000Z</time>
      </trkpt>
      <trkpt lat="43.55976" lon="5.49941">
        <ele>428.5</ele>
        <time>1970-01-01T01:31:11.000Z</time>
      </trkpt>
      <trkpt lat="43.55971" lon="5.4994">
        <ele>428.5</ele>
        <time>1970-01-01T01:31:12.000Z</time>
      </trkpt>
      <trkpt lat="43.55967" lon="5.49938">
        <ele>428.4</ele>
        <time>1970-01-01T01:31:13.000Z</time>
      </trkpt>
      <trkpt lat="43.55964" lon="5.49937">
        <ele>428.4</ele>
        <time>1970-01-01T01:31:14.000Z</time>
      </trkpt>
      <trkpt lat="43.55957" lon="5.49936">
        <ele>428.2</ele>
        <time>1970-01-01T01:31:16.000Z</time>
      </trkpt>
      <trkpt lat="43.55953" lon="5.49936">
        <ele>428.1</ele>
        <time>1970-01-01T01:31:17.000Z</time>
      </trkpt>
      <trkpt lat="43.55945" lon="5.49934">
        <ele>427.9</ele>
        <time>1970-01-01T01:31:19.000Z</time>
      </trkpt>
      <trkpt lat="43.55941" lon="5.49934">
        <ele>427.8</ele>
        <time>1970-01-01T01:31:20.000Z</time>
      </trkpt>
      <trkpt lat="43.55933" lon="5.49933">
        <ele>427.6</ele>
        <time>1970-01-01T01:31:22.000Z</time>
      </trkpt>
      <trkpt lat="43.55927" lon="5.49931">
        <ele>427.5</ele>
        <time>1970-01-01T01:31:24.000Z</time>
      </trkpt>
      <trkpt lat="43.55923" lon="5.49931">
        <ele>427.4</ele>
        <time>1970-01-01T01:31:25.000Z</time>
      </trkpt>
      <trkpt lat="43.5592" lon="5.4993">
        <ele>427.3</ele>
        <time>1970-01-01T01:31:26.000Z</time>
      </trkpt>
      <trkpt lat="43.55913" lon="5.49927">
        <ele>427.2</ele>
        <time>1970-01-01T01:31:28.000Z</time>
      </trkpt>
      <trkpt lat="43.5591" lon="5.49925">
        <ele>427.1</ele>
        <time>1970-01-01T01:31:29.000Z</time>
      </trkpt>
      <trkpt lat="43.55906" lon="5.49922">
        <ele>427</ele>
        <time>1970-01-01T01:31:30.000Z</time>
      </trkpt>
      <trkpt lat="43.559" lon="5.49916">
        <ele>426.8</ele>
        <time>1970-01-01T01:31:32.000Z</time>
      </trkpt>
      <trkpt lat="43.55896" lon="5.49913">
        <ele>426.7</ele>
        <time>1970-01-01T01:31:33.000Z</time>
      </trkpt>
      <trkpt lat="43.55892" lon="5.49911">
        <ele>426.6</ele>
        <time>1970-01-01T01:31:34.000Z</time>
      </trkpt>
      <trkpt lat="43.55889" lon="5.49911">
        <ele>426.5</ele>
        <time>1970-01-01T01:31:35.000Z</time>
      </trkpt>
      <trkpt lat="43.55884" lon="5.49911">
        <ele>426.4</ele>
        <time>1970-01-01T01:31:36.000Z</time>
      </trkpt>
      <trkpt lat="43.55875" lon="5.49912">
        <ele>426.1</ele>
        <time>1970-01-01T01:31:38.000Z</time>
      </trkpt>
      <trkpt lat="43.55865" lon="5.49914">
        <ele>425.8</ele>
        <time>1970-01-01T01:31:40.000Z</time>
      </trkpt>
      <trkpt lat="43.55857" lon="5.49915">
        <ele>425.6</ele>
        <time>1970-01-01T01:31:42.000Z</time>
      </trkpt>
      <trkpt lat="43.55853" lon="5.49916">
        <ele>425.5</ele>
        <time>1970-01-01T01:31:43.000Z</time>
      </trkpt>
      <trkpt lat="43.55848" lon="5.49916">
        <ele>425.3</ele>
        <time>1970-01-01T01:31:44.000Z</time>
      </trkpt>
      <trkpt lat="43.55837" lon="5.49916">
        <ele>425.1</ele>
        <time>1970-01-01T01:31:46.000Z</time>
      </trkpt>
      <trkpt lat="43.55828" lon="5.49916">
        <ele>424.9</ele>
        <time>1970-01-01T01:31:48.000Z</time>
      </trkpt>
      <trkpt lat="43.55825" lon="5.49918">
        <ele>424.8</ele>
        <time>1970-01-01T01:31:49.000Z</time>
      </trkpt>
      <trkpt lat="43.55815" lon="5.49922">
        <ele>424.6</ele>
        <time>1970-01-01T01:31:51.000Z</time>
      </trkpt>
      <trkpt lat="43.5581" lon="5.49924">
        <ele>424.5</ele>
        <time>1970-01-01T01:31:52.000Z</time>
      </trkpt>
      <trkpt lat="43.55803" lon="5.49932">
        <ele>424.3</ele>
        <time>1970-01-01T01:31:54.000Z</time>
      </trkpt>
      <trkpt lat="43.55795" lon="5.49938">
        <ele>424.1</ele>
        <time>1970-01-01T01:31:56.000Z</time>
      </trkpt>
      <trkpt lat="43.55791" lon="5.49941">
        <ele>423.9</ele>
        <time>1970-01-01T01:31:57.000Z</time>
      </trkpt>
      <trkpt lat="43.55788" lon="5.49943">
        <ele>423.8</ele>
        <time>1970-01-01T01:31:58.000Z</time>
      </trkpt>
      <trkpt lat="43.55783" lon="5.49946">
        <ele>423.6</ele>
        <time>1970-01-01T01:31:59.000Z</time>
      </trkpt>
      <trkpt lat="43.55779" lon="5.49948">
        <ele>423.5</ele>
        <time>1970-01-01T01:32:00.000Z</time>
      </trkpt>
      <trkpt lat="43.55775" lon="5.4995">
        <ele>423.3</ele>
        <time>1970-01-01T01:32:01.000Z</time>
      </trkpt>
      <trkpt lat="43.55766" lon="5.49953">
        <ele>423</ele>
        <time>1970-01-01T01:32:03.000Z</time>
      </trkpt>
      <trkpt lat="43.55762" lon="5.49955">
        <ele>422.9</ele>
        <time>1970-01-01T01:32:04.000Z</time>
      </trkpt>
      <trkpt lat="43.55757" lon="5.49958">
        <ele>422.8</ele>
        <time>1970-01-01T01:32:05.000Z</time>
      </trkpt>
      <trkpt lat="43.5575" lon="5.49965">
        <ele>422.6</ele>
        <time>1970-01-01T01:32:07.000Z</time>
      </trkpt>
      <trkpt lat="43.55747" lon="5.49971">
        <ele>422.6</ele>
        <time>1970-01-01T01:32:08.000Z</time>
      </trkpt>
      <trkpt lat="43.55742" lon="5.49982">
        <ele>422.6</ele>
        <time>1970-01-01T01:32:10.000Z</time>
      </trkpt>
      <trkpt lat="43.5574" lon="5.49988">
        <ele>422.7</ele>
        <time>1970-01-01T01:32:11.000Z</time>
      </trkpt>
      <trkpt lat="43.55737" lon="5.49999">
        <ele>422.8</ele>
        <time>1970-01-01T01:32:13.000Z</time>
      </trkpt>
      <trkpt lat="43.55736" lon="5.50004">
        <ele>422.8</ele>
        <time>1970-01-01T01:32:14.000Z</time>
      </trkpt>
      <trkpt lat="43.55732" lon="5.50015">
        <ele>422.9</ele>
        <time>1970-01-01T01:32:16.000Z</time>
      </trkpt>
      <trkpt lat="43.55728" lon="5.50024">
        <ele>423</ele>
        <time>1970-01-01T01:32:18.000Z</time>
      </trkpt>
      <trkpt lat="43.55726" lon="5.5003">
        <ele>423</ele>
        <time>1970-01-01T01:32:19.000Z</time>
      </trkpt>
      <trkpt lat="43.55721" lon="5.50038">
        <ele>422.9</ele>
        <time>1970-01-01T01:32:21.000Z</time>
      </trkpt>
      <trkpt lat="43.55715" lon="5.50047">
        <ele>422.9</ele>
        <time>1970-01-01T01:32:23.000Z</time>
      </trkpt>
      <trkpt lat="43.55709" lon="5.50054">
        <ele>422.8</ele>
        <time>1970-01-01T01:32:25.000Z</time>
      </trkpt>
      <trkpt lat="43.55706" lon="5.50058">
        <ele>422.8</ele>
        <time>1970-01-01T01:32:26.000Z</time>
      </trkpt>
      <trkpt lat="43.55703" lon="5.50061">
        <ele>422.8</ele>
        <time>1970-01-01T01:32:27.000Z</time>
      </trkpt>
      <trkpt lat="43.55696" lon="5.50068">
        <ele>422.9</ele>
        <time>1970-01-01T01:32:29.000Z</time>
      </trkpt>
      <trkpt lat="43.5569" lon="5.50076">
        <ele>422.9</ele>
        <time>1970-01-01T01:32:31.000Z</time>
      </trkpt>
      <trkpt lat="43.55685" lon="5.50086">
        <ele>423</ele>
        <time>1970-01-01T01:32:33.000Z</time>
      </trkpt>
      <trkpt lat="43.55682" lon="5.50098">
        <ele>423.1</ele>
        <time>1970-01-01T01:32:35.000Z</time>
      </trkpt>
      <trkpt lat="43.55681" lon="5.50103">
        <ele>423.2</ele>
        <time>1970-01-01T01:32:36.000Z</time>
      </trkpt>
      <trkpt lat="43.55679" lon="5.50114">
        <ele>423.3</ele>
        <time>1970-01-01T01:32:38.000Z</time>
      </trkpt>
      <trkpt lat="43.55677" lon="5.50119">
        <ele>423.4</ele>
        <time>1970-01-01T01:32:39.000Z</time>
      </trkpt>
      <trkpt lat="43.55676" lon="5.50123">
        <ele>423.5</ele>
        <time>1970-01-01T01:32:40.000Z</time>
      </trkpt>
      <trkpt lat="43.55672" lon="5.50132">
        <ele>423.6</ele>
        <time>1970-01-01T01:32:42.000Z</time>
      </trkpt>
      <trkpt lat="43.5567" lon="5.50137">
        <ele>423.7</ele>
        <time>1970-01-01T01:32:43.000Z</time>
      </trkpt>
      <trkpt lat="43.55668" lon="5.50142">
        <ele>423.8</ele>
        <time>1970-01-01T01:32:44.000Z</time>
      </trkpt>
      <trkpt lat="43.55665" lon="5.50152">
        <ele>423.9</ele>
        <time>1970-01-01T01:32:46.000Z</time>
      </trkpt>
      <trkpt lat="43.55661" lon="5.5016">
        <ele>424.1</ele>
        <time>1970-01-01T01:32:48.000Z</time>
      </trkpt>
      <trkpt lat="43.55657" lon="5.5017">
        <ele>424.3</ele>
        <time>1970-01-01T01:32:50.000Z</time>
      </trkpt>
      <trkpt lat="43.55655" lon="5.50178">
        <ele>424.5</ele>
        <time>1970-01-01T01:32:52.000Z</time>
      </trkpt>
      <trkpt lat="43.55653" lon="5.50184">
        <ele>424.6</ele>
        <time>1970-01-01T01:32:53.000Z</time>
      </trkpt>
      <trkpt lat="43.5565" lon="5.50193">
        <ele>424.7</ele>
        <time>1970-01-01T01:32:55.000Z</time>
      </trkpt>
      <trkpt lat="43.55649" lon="5.50199">
        <ele>424.9</ele>
        <time>1970-01-01T01:32:56.000Z</time>
      </trkpt>
      <trkpt lat="43.55646" lon="5.50209">
        <ele>425.1</ele>
        <time>1970-01-01T01:32:58.000Z</time>
      </trkpt>
      <trkpt lat="43.55642" lon="5.50218">
        <ele>425.3</ele>
        <time>1970-01-01T01:33:00.000Z</time>
      </trkpt>
      <trkpt lat="43.55641" lon="5.50224">
        <ele>425.4</ele>
        <time>1970-01-01T01:33:01.000Z</time>
      </trkpt>
      <trkpt lat="43.5564" lon="5.50234">
        <ele>425.5</ele>
        <time>1970-01-01T01:33:03.000Z</time>
      </trkpt>
      <trkpt lat="43.5564" lon="5.5024">
        <ele>425.6</ele>
        <time>1970-01-01T01:33:04.000Z</time>
      </trkpt>
      <trkpt lat="43.5564" lon="5.50245">
        <ele>425.7</ele>
        <time>1970-01-01T01:33:05.000Z</time>
      </trkpt>
      <trkpt lat="43.55641" lon="5.50253">
        <ele>425.8</ele>
        <time>1970-01-01T01:33:07.000Z</time>
      </trkpt>
      <trkpt lat="43.55642" lon="5.50263">
        <ele>426</ele>
        <time>1970-01-01T01:33:09.000Z</time>
      </trkpt>
      <trkpt lat="43.55643" lon="5.50267">
        <ele>426.1</ele>
        <time>1970-01-01T01:33:10.000Z</time>
      </trkpt>
      <trkpt lat="43.55644" lon="5.50271">
        <ele>426.1</ele>
        <time>1970-01-01T01:33:11.000Z</time>
      </trkpt>
      <trkpt lat="43.55645" lon="5.5028">
        <ele>426.3</ele>
        <time>1970-01-01T01:33:13.000Z</time>
      </trkpt>
      <trkpt lat="43.55646" lon="5.5029">
        <ele>426.4</ele>
        <time>1970-01-01T01:33:15.000Z</time>
      </trkpt>
      <trkpt lat="43.55647" lon="5.50299">
        <ele>426.6</ele>
        <time>1970-01-01T01:33:17.000Z</time>
      </trkpt>
      <trkpt lat="43.55647" lon="5.50304">
        <ele>426.6</ele>
        <time>1970-01-01T01:33:18.000Z</time>
      </trkpt>
      <trkpt lat="43.55647" lon="5.50309">
        <ele>426.7</ele>
        <time>1970-01-01T01:33:19.000Z</time>
      </trkpt>
      <trkpt lat="43.55644" lon="5.50318">
        <ele>426.9</ele>
        <time>1970-01-01T01:33:21.000Z</time>
      </trkpt>
      <trkpt lat="43.55642" lon="5.50322">
        <ele>427</ele>
        <time>1970-01-01T01:33:22.000Z</time>
      </trkpt>
      <trkpt lat="43.55638" lon="5.5033">
        <ele>427.1</ele>
        <time>1970-01-01T01:33:24.000Z</time>
      </trkpt>
      <trkpt lat="43.55636" lon="5.50333">
        <ele>427.2</ele>
        <time>1970-01-01T01:33:25.000Z</time>
      </trkpt>
      <trkpt lat="43.55634" lon="5.50337">
        <ele>427.3</ele>
        <time>1970-01-01T01:33:26.000Z</time>
      </trkpt>
      <trkpt lat="43.55629" lon="5.50345">
        <ele>427.4</ele>
        <time>1970-01-01T01:33:28.000Z</time>
      </trkpt>
      <trkpt lat="43.55627" lon="5.50349">
        <ele>427.4</ele>
        <time>1970-01-01T01:33:29.000Z</time>
      </trkpt>
      <trkpt lat="43.55625" lon="5.50353">
        <ele>427.5</ele>
        <time>1970-01-01T01:33:30.000Z</time>
      </trkpt>
      <trkpt lat="43.55621" lon="5.50363">
        <ele>427.6</ele>
        <time>1970-01-01T01:33:32.000Z</time>
      </trkpt>
      <trkpt lat="43.55619" lon="5.50368">
        <ele>427.7</ele>
        <time>1970-01-01T01:33:33.000Z</time>
      </trkpt>
      <trkpt lat="43.55616" lon="5.50374">
        <ele>427.7</ele>
        <time>1970-01-01T01:33:35.000Z</time>
      </trkpt>
      <trkpt lat="43.55612" lon="5.50382">
        <ele>427.8</ele>
        <time>1970-01-01T01:33:37.000Z</time>
      </trkpt>
      <trkpt lat="43.55611" lon="5.50386">
        <ele>427.9</ele>
        <time>1970-01-01T01:33:38.000Z</time>
      </trkpt>
      <trkpt lat="43.55607" lon="5.50393">
        <ele>428</ele>
        <time>1970-01-01T01:33:40.000Z</time>
      </trkpt>
      <trkpt lat="43.55603" lon="5.504">
        <ele>428.1</ele>
        <time>1970-01-01T01:33:42.000Z</time>
      </trkpt>
      <trkpt lat="43.55601" lon="5.50402">
        <ele>428.2</ele>
        <time>1970-01-01T01:33:43.000Z</time>
      </trkpt>
      <trkpt lat="43.55596" lon="5.50408">
        <ele>428.3</ele>
        <time>1970-01-01T01:33:45.000Z</time>
      </trkpt>
      <trkpt lat="43.55593" lon="5.50416">
        <ele>428.3</ele>
        <time>1970-01-01T01:33:47.000Z</time>
      </trkpt>
      <trkpt lat="43.5559" lon="5.50422">
        <ele>428.4</ele>
        <time>1970-01-01T01:33:49.000Z</time>
      </trkpt>
      <trkpt lat="43.55588" lon="5.50426">
        <ele>428.4</ele>
        <time>1970-01-01T01:33:50.000Z</time>
      </trkpt>
      <trkpt lat="43.55584" lon="5.50434">
        <ele>428.4</ele>
        <time>1970-01-01T01:33:52.000Z</time>
      </trkpt>
      <trkpt lat="43.5558" lon="5.50443">
        <ele>428.4</ele>
        <time>1970-01-01T01:33:54.000Z</time>
      </trkpt>
      <trkpt lat="43.55578" lon="5.50448">
        <ele>428.4</ele>
        <time>1970-01-01T01:33:55.000Z</time>
      </trkpt>
      <trkpt lat="43.55576" lon="5.50453">
        <ele>428.4</ele>
        <time>1970-01-01T01:33:56.000Z</time>
      </trkpt>
      <trkpt lat="43.55572" lon="5.50463">
        <ele>428.3</ele>
        <time>1970-01-01T01:33:58.000Z</time>
      </trkpt>
      <trkpt lat="43.55568" lon="5.50472">
        <ele>428.3</ele>
        <time>1970-01-01T01:34:00.000Z</time>
      </trkpt>
      <trkpt lat="43.55564" lon="5.50476">
        <ele>428.2</ele>
        <time>1970-01-01T01:34:01.000Z</time>
      </trkpt>
      <trkpt lat="43.5556" lon="5.5048">
        <ele>428.2</ele>
        <time>1970-01-01T01:34:02.000Z</time>
      </trkpt>
      <trkpt lat="43.55552" lon="5.50487">
        <ele>428.1</ele>
        <time>1970-01-01T01:34:04.000Z</time>
      </trkpt>
      <trkpt lat="43.55543" lon="5.50491">
        <ele>427.9</ele>
        <time>1970-01-01T01:34:06.000Z</time>
      </trkpt>
      <trkpt lat="43.55532" lon="5.50492">
        <ele>427.6</ele>
        <time>1970-01-01T01:34:08.000Z</time>
      </trkpt>
      <trkpt lat="43.55521" lon="5.50492">
        <ele>427.2</ele>
        <time>1970-01-01T01:34:10.000Z</time>
      </trkpt>
      <trkpt lat="43.55511" lon="5.50494">
        <ele>426.8</ele>
        <time>1970-01-01T01:34:12.000Z</time>
      </trkpt>
      <trkpt lat="43.55507" lon="5.50497">
        <ele>426.5</ele>
        <time>1970-01-01T01:34:13.000Z</time>
      </trkpt>
      <trkpt lat="43.55501" lon="5.50501">
        <ele>426.1</ele>
        <time>1970-01-01T01:34:14.000Z</time>
      </trkpt>
      <trkpt lat="43.55489" lon="5.50511">
        <ele>425.4</ele>
        <time>1970-01-01T01:34:16.000Z</time>
      </trkpt>
      <trkpt lat="43.55478" lon="5.50522">
        <ele>424.8</ele>
        <time>1970-01-01T01:34:18.000Z</time>
      </trkpt>
      <trkpt lat="43.55473" lon="5.50527">
        <ele>424.6</ele>
        <time>1970-01-01T01:34:19.000Z</time>
      </trkpt>
      <trkpt lat="43.55464" lon="5.50539">
        <ele>424.3</ele>
        <time>1970-01-01T01:34:21.000Z</time>
      </trkpt>
      <trkpt lat="43.5546" lon="5.50545">
        <ele>424.3</ele>
        <time>1970-01-01T01:34:22.000Z</time>
      </trkpt>
      <trkpt lat="43.55456" lon="5.5055">
        <ele>424.2</ele>
        <time>1970-01-01T01:34:23.000Z</time>
      </trkpt>
      <trkpt lat="43.55448" lon="5.5056">
        <ele>424.2</ele>
        <time>1970-01-01T01:34:25.000Z</time>
      </trkpt>
      <trkpt lat="43.55442" lon="5.5057">
        <ele>424.2</ele>
        <time>1970-01-01T01:34:27.000Z</time>
      </trkpt>
      <trkpt lat="43.55438" lon="5.50575">
        <ele>424.2</ele>
        <time>1970-01-01T01:34:28.000Z</time>
      </trkpt>
      <trkpt lat="43.5543" lon="5.50586">
        <ele>424.3</ele>
        <time>1970-01-01T01:34:30.000Z</time>
      </trkpt>
      <trkpt lat="43.55424" lon="5.50596">
        <ele>424.4</ele>
        <time>1970-01-01T01:34:32.000Z</time>
      </trkpt>
      <trkpt lat="43.55421" lon="5.50602">
        <ele>424.4</ele>
        <time>1970-01-01T01:34:33.000Z</time>
      </trkpt>
      <trkpt lat="43.55417" lon="5.50613">
        <ele>424.7</ele>
        <time>1970-01-01T01:34:35.000Z</time>
      </trkpt>
      <trkpt lat="43.55415" lon="5.50623">
        <ele>424.9</ele>
        <time>1970-01-01T01:34:37.000Z</time>
      </trkpt>
      <trkpt lat="43.55414" lon="5.50628">
        <ele>425</ele>
        <time>1970-01-01T01:34:38.000Z</time>
      </trkpt>
      <trkpt lat="43.55412" lon="5.50636">
        <ele>425.2</ele>
        <time>1970-01-01T01:34:40.000Z</time>
      </trkpt>
      <trkpt lat="43.55412" lon="5.50641">
        <ele>425.3</ele>
        <time>1970-01-01T01:34:41.000Z</time>
      </trkpt>
      <trkpt lat="43.55412" lon="5.50649">
        <ele>425.5</ele>
        <time>1970-01-01T01:34:43.000Z</time>
      </trkpt>
      <trkpt lat="43.5541" lon="5.50657">
        <ele>425.7</ele>
        <time>1970-01-01T01:34:45.000Z</time>
      </trkpt>
      <trkpt lat="43.55408" lon="5.50663">
        <ele>425.8</ele>
        <time>1970-01-01T01:34:47.000Z</time>
      </trkpt>
      <trkpt lat="43.55406" lon="5.50669">
        <ele>426</ele>
        <time>1970-01-01T01:34:49.000Z</time>
      </trkpt>
      <trkpt lat="43.55404" lon="5.50675">
        <ele>426.2</ele>
        <time>1970-01-01T01:34:51.000Z</time>
      </trkpt>
      <trkpt lat="43.55402" lon="5.5068">
        <ele>426.3</ele>
        <time>1970-01-01T01:34:52.000Z</time>
      </trkpt>
      <trkpt lat="43.55402" lon="5.50682">
        <ele>426.3</ele>
        <time>1970-01-01T01:34:53.000Z</time>
      </trkpt>
      <trkpt lat="43.55401" lon="5.50685">
        <ele>426.4</ele>
        <time>1970-01-01T01:34:54.000Z</time>
      </trkpt>
      <trkpt lat="43.55399" lon="5.50693">
        <ele>426.6</ele>
        <time>1970-01-01T01:34:56.000Z</time>
      </trkpt>
      <trkpt lat="43.55397" lon="5.50699">
        <ele>426.8</ele>
        <time>1970-01-01T01:34:58.000Z</time>
      </trkpt>
      <trkpt lat="43.55395" lon="5.50704">
        <ele>427</ele>
        <time>1970-01-01T01:35:00.000Z</time>
      </trkpt>
      <trkpt lat="43.55394" lon="5.50707">
        <ele>427.1</ele>
        <time>1970-01-01T01:35:01.000Z</time>
      </trkpt>
      <trkpt lat="43.55392" lon="5.50713">
        <ele>427.2</ele>
        <time>1970-01-01T01:35:03.000Z</time>
      </trkpt>
      <trkpt lat="43.55391" lon="5.50716">
        <ele>427.3</ele>
        <time>1970-01-01T01:35:04.000Z</time>
      </trkpt>
      <trkpt lat="43.55388" lon="5.50723">
        <ele>427.5</ele>
        <time>1970-01-01T01:35:06.000Z</time>
      </trkpt>
      <trkpt lat="43.55387" lon="5.50726">
        <ele>427.6</ele>
        <time>1970-01-01T01:35:07.000Z</time>
      </trkpt>
      <trkpt lat="43.55384" lon="5.50731">
        <ele>427.8</ele>
        <time>1970-01-01T01:35:09.000Z</time>
      </trkpt>
      <trkpt lat="43.55382" lon="5.50736">
        <ele>427.9</ele>
        <time>1970-01-01T01:35:10.000Z</time>
      </trkpt>
      <trkpt lat="43.55381" lon="5.50737">
        <ele>428</ele>
        <time>1970-01-01T01:35:11.000Z</time>
      </trkpt>
      <trkpt lat="43.55378" lon="5.50744">
        <ele>428.2</ele>
        <time>1970-01-01T01:35:13.000Z</time>
      </trkpt>
      <trkpt lat="43.55376" lon="5.5075">
        <ele>428.3</ele>
        <time>1970-01-01T01:35:15.000Z</time>
      </trkpt>
      <trkpt lat="43.55375" lon="5.50754">
        <ele>428.4</ele>
        <time>1970-01-01T01:35:16.000Z</time>
      </trkpt>
      <trkpt lat="43.55373" lon="5.50759">
        <ele>428.6</ele>
        <time>1970-01-01T01:35:18.000Z</time>
      </trkpt>
      <trkpt lat="43.55372" lon="5.50764">
        <ele>428.7</ele>
        <time>1970-01-01T01:35:19.000Z</time>
      </trkpt>
      <trkpt lat="43.55371" lon="5.50765">
        <ele>428.7</ele>
        <time>1970-01-01T01:35:20.000Z</time>
      </trkpt>
      <trkpt lat="43.55369" lon="5.5077">
        <ele>428.9</ele>
        <time>1970-01-01T01:35:22.000Z</time>
      </trkpt>
      <trkpt lat="43.55367" lon="5.50773">
        <ele>429</ele>
        <time>1970-01-01T01:35:23.000Z</time>
      </trkpt>
      <trkpt lat="43.55365" lon="5.50781">
        <ele>429.2</ele>
        <time>1970-01-01T01:35:25.000Z</time>
      </trkpt>
      <trkpt lat="43.55363" lon="5.50784">
        <ele>429.3</ele>
        <time>1970-01-01T01:35:26.000Z</time>
      </trkpt>
      <trkpt lat="43.55361" lon="5.50791">
        <ele>429.5</ele>
        <time>1970-01-01T01:35:28.000Z</time>
      </trkpt>
      <trkpt lat="43.5536" lon="5.50798">
        <ele>429.7</ele>
        <time>1970-01-01T01:35:30.000Z</time>
      </trkpt>
      <trkpt lat="43.55357" lon="5.50804">
        <ele>429.8</ele>
        <time>1970-01-01T01:35:32.000Z</time>
      </trkpt>
      <trkpt lat="43.55354" lon="5.5081">
        <ele>430</ele>
        <time>1970-01-01T01:35:34.000Z</time>
      </trkpt>
      <trkpt lat="43.55352" lon="5.50813">
        <ele>430.1</ele>
        <time>1970-01-01T01:35:35.000Z</time>
      </trkpt>
      <trkpt lat="43.55349" lon="5.50819">
        <ele>430.3</ele>
        <time>1970-01-01T01:35:37.000Z</time>
      </trkpt>
      <trkpt lat="43.55347" lon="5.50823">
        <ele>430.5</ele>
        <time>1970-01-01T01:35:38.000Z</time>
      </trkpt>
      <trkpt lat="43.55346" lon="5.50825">
        <ele>430.5</ele>
        <time>1970-01-01T01:35:39.000Z</time>
      </trkpt>
      <trkpt lat="43.55343" lon="5.50828">
        <ele>430.7</ele>
        <time>1970-01-01T01:35:41.000Z</time>
      </trkpt>
      <trkpt lat="43.55337" lon="5.50833">
        <ele>430.9</ele>
        <time>1970-01-01T01:35:43.000Z</time>
      </trkpt>
      <trkpt lat="43.55335" lon="5.50835">
        <ele>431</ele>
        <time>1970-01-01T01:35:44.000Z</time>
      </trkpt>
      <trkpt lat="43.55328" lon="5.50838">
        <ele>431.2</ele>
        <time>1970-01-01T01:35:46.000Z</time>
      </trkpt>
      <trkpt lat="43.55326" lon="5.5084">
        <ele>431.3</ele>
        <time>1970-01-01T01:35:47.000Z</time>
      </trkpt>
      <trkpt lat="43.55321" lon="5.50845">
        <ele>431.5</ele>
        <time>1970-01-01T01:35:49.000Z</time>
      </trkpt>
      <trkpt lat="43.5532" lon="5.50846">
        <ele>431.6</ele>
        <time>1970-01-01T01:35:50.000Z</time>
      </trkpt>
      <trkpt lat="43.55314" lon="5.50848">
        <ele>431.8</ele>
        <time>1970-01-01T01:35:52.000Z</time>
      </trkpt>
      <trkpt lat="43.5531" lon="5.50846">
        <ele>431.9</ele>
        <time>1970-01-01T01:35:53.000Z</time>
      </trkpt>
      <trkpt lat="43.55307" lon="5.50843">
        <ele>431.9</ele>
        <time>1970-01-01T01:35:54.000Z</time>
      </trkpt>
      <trkpt lat="43.55302" lon="5.50836">
        <ele>431.7</ele>
        <time>1970-01-01T01:35:56.000Z</time>
      </trkpt>
      <trkpt lat="43.55299" lon="5.50833">
        <ele>431.6</ele>
        <time>1970-01-01T01:35:57.000Z</time>
      </trkpt>
      <trkpt lat="43.55296" lon="5.5083">
        <ele>431.6</ele>
        <time>1970-01-01T01:35:58.000Z</time>
      </trkpt>
      <trkpt lat="43.55294" lon="5.50827">
        <ele>431.5</ele>
        <time>1970-01-01T01:35:59.000Z</time>
      </trkpt>
      <trkpt lat="43.55291" lon="5.50824">
        <ele>431.4</ele>
        <time>1970-01-01T01:36:00.000Z</time>
      </trkpt>
      <trkpt lat="43.55288" lon="5.50821">
        <ele>431.4</ele>
        <time>1970-01-01T01:36:01.000Z</time>
      </trkpt>
      <trkpt lat="43.55283" lon="5.50813">
        <ele>431.2</ele>
        <time>1970-01-01T01:36:03.000Z</time>
      </trkpt>
      <trkpt lat="43.55282" lon="5.50809">
        <ele>431.1</ele>
        <time>1970-01-01T01:36:04.000Z</time>
      </trkpt>
      <trkpt lat="43.55279" lon="5.508">
        <ele>431</ele>
        <time>1970-01-01T01:36:06.000Z</time>
      </trkpt>
      <trkpt lat="43.55277" lon="5.50794">
        <ele>430.9</ele>
        <time>1970-01-01T01:36:07.000Z</time>
      </trkpt>
      <trkpt lat="43.55275" lon="5.50789">
        <ele>430.8</ele>
        <time>1970-01-01T01:36:08.000Z</time>
      </trkpt>
      <trkpt lat="43.55273" lon="5.50783">
        <ele>430.7</ele>
        <time>1970-01-01T01:36:09.000Z</time>
      </trkpt>
      <trkpt lat="43.5527" lon="5.50771">
        <ele>430.5</ele>
        <time>1970-01-01T01:36:11.000Z</time>
      </trkpt>
      <trkpt lat="43.55266" lon="5.50757">
        <ele>430.2</ele>
        <time>1970-01-01T01:36:13.000Z</time>
      </trkpt>
      <trkpt lat="43.55265" lon="5.5075">
        <ele>430.1</ele>
        <time>1970-01-01T01:36:14.000Z</time>
      </trkpt>
      <trkpt lat="43.55263" lon="5.50743">
        <ele>430</ele>
        <time>1970-01-01T01:36:15.000Z</time>
      </trkpt>
      <trkpt lat="43.55259" lon="5.50731">
        <ele>429.8</ele>
        <time>1970-01-01T01:36:17.000Z</time>
      </trkpt>
      <trkpt lat="43.55257" lon="5.50725">
        <ele>429.7</ele>
        <time>1970-01-01T01:36:18.000Z</time>
      </trkpt>
      <trkpt lat="43.55254" lon="5.5072">
        <ele>429.5</ele>
        <time>1970-01-01T01:36:19.000Z</time>
      </trkpt>
      <trkpt lat="43.55248" lon="5.5071">
        <ele>429.3</ele>
        <time>1970-01-01T01:36:21.000Z</time>
      </trkpt>
      <trkpt lat="43.55242" lon="5.507">
        <ele>429</ele>
        <time>1970-01-01T01:36:23.000Z</time>
      </trkpt>
      <trkpt lat="43.55235" lon="5.50691">
        <ele>428.7</ele>
        <time>1970-01-01T01:36:25.000Z</time>
      </trkpt>
      <trkpt lat="43.55232" lon="5.50687">
        <ele>428.5</ele>
        <time>1970-01-01T01:36:26.000Z</time>
      </trkpt>
      <trkpt lat="43.5523" lon="5.50681">
        <ele>428.4</ele>
        <time>1970-01-01T01:36:27.000Z</time>
      </trkpt>
      <trkpt lat="43.55226" lon="5.5067">
        <ele>428.1</ele>
        <time>1970-01-01T01:36:29.000Z</time>
      </trkpt>
      <trkpt lat="43.55222" lon="5.5066">
        <ele>427.7</ele>
        <time>1970-01-01T01:36:31.000Z</time>
      </trkpt>
      <trkpt lat="43.55219" lon="5.50655">
        <ele>427.5</ele>
        <time>1970-01-01T01:36:32.000Z</time>
      </trkpt>
      <trkpt lat="43.55216" lon="5.50642">
        <ele>427.1</ele>
        <time>1970-01-01T01:36:34.000Z</time>
      </trkpt>
      <trkpt lat="43.55214" lon="5.50635">
        <ele>426.9</ele>
        <time>1970-01-01T01:36:35.000Z</time>
      </trkpt>
      <trkpt lat="43.55211" lon="5.50622">
        <ele>426.4</ele>
        <time>1970-01-01T01:36:37.000Z</time>
      </trkpt>
      <trkpt lat="43.55208" lon="5.50616">
        <ele>426.2</ele>
        <time>1970-01-01T01:36:38.000Z</time>
      </trkpt>
      <trkpt lat="43.55206" lon="5.5061">
        <ele>426</ele>
        <time>1970-01-01T01:36:39.000Z</time>
      </trkpt>
      <trkpt lat="43.55198" lon="5.50599">
        <ele>425.5</ele>
        <time>1970-01-01T01:36:41.000Z</time>
      </trkpt>
      <trkpt lat="43.5519" lon="5.50591">
        <ele>425</ele>
        <time>1970-01-01T01:36:43.000Z</time>
      </trkpt>
      <trkpt lat="43.55187" lon="5.50586">
        <ele>424.8</ele>
        <time>1970-01-01T01:36:44.000Z</time>
      </trkpt>
      <trkpt lat="43.55183" lon="5.50582">
        <ele>424.6</ele>
        <time>1970-01-01T01:36:45.000Z</time>
      </trkpt>
      <trkpt lat="43.55176" lon="5.50574">
        <ele>424.1</ele>
        <time>1970-01-01T01:36:47.000Z</time>
      </trkpt>
      <trkpt lat="43.55171" lon="5.5057">
        <ele>423.8</ele>
        <time>1970-01-01T01:36:48.000Z</time>
      </trkpt>
      <trkpt lat="43.55163" lon="5.50562">
        <ele>423.4</ele>
        <time>1970-01-01T01:36:50.000Z</time>
      </trkpt>
      <trkpt lat="43.55154" lon="5.50554">
        <ele>423</ele>
        <time>1970-01-01T01:36:52.000Z</time>
      </trkpt>
      <trkpt lat="43.55151" lon="5.5055">
        <ele>422.8</ele>
        <time>1970-01-01T01:36:53.000Z</time>
      </trkpt>
      <trkpt lat="43.55147" lon="5.50545">
        <ele>422.6</ele>
        <time>1970-01-01T01:36:54.000Z</time>
      </trkpt>
      <trkpt lat="43.55143" lon="5.50534">
        <ele>422.3</ele>
        <time>1970-01-01T01:36:56.000Z</time>
      </trkpt>
      <trkpt lat="43.5514" lon="5.50521">
        <ele>421.9</ele>
        <time>1970-01-01T01:36:58.000Z</time>
      </trkpt>
      <trkpt lat="43.55138" lon="5.50508">
        <ele>421.6</ele>
        <time>1970-01-01T01:37:00.000Z</time>
      </trkpt>
      <trkpt lat="43.55137" lon="5.50494">
        <ele>421.3</ele>
        <time>1970-01-01T01:37:02.000Z</time>
      </trkpt>
      <trkpt lat="43.55135" lon="5.50479">
        <ele>421</ele>
        <time>1970-01-01T01:37:04.000Z</time>
      </trkpt>
      <trkpt lat="43.55133" lon="5.50464">
        <ele>420.8</ele>
        <time>1970-01-01T01:37:06.000Z</time>
      </trkpt>
      <trkpt lat="43.55131" lon="5.50449">
        <ele>420.7</ele>
        <time>1970-01-01T01:37:08.000Z</time>
      </trkpt>
      <trkpt lat="43.55131" lon="5.50442">
        <ele>420.6</ele>
        <time>1970-01-01T01:37:09.000Z</time>
      </trkpt>
      <trkpt lat="43.5513" lon="5.50434">
        <ele>420.6</ele>
        <time>1970-01-01T01:37:10.000Z</time>
      </trkpt>
      <trkpt lat="43.55126" lon="5.50418">
        <ele>420.5</ele>
        <time>1970-01-01T01:37:12.000Z</time>
      </trkpt>
      <trkpt lat="43.55122" lon="5.50401">
        <ele>420.4</ele>
        <time>1970-01-01T01:37:14.000Z</time>
      </trkpt>
      <trkpt lat="43.5512" lon="5.50388">
        <ele>420.4</ele>
        <time>1970-01-01T01:37:16.000Z</time>
      </trkpt>
      <trkpt lat="43.55117" lon="5.50373">
        <ele>420.4</ele>
        <time>1970-01-01T01:37:18.000Z</time>
      </trkpt>
      <trkpt lat="43.55116" lon="5.50366">
        <ele>420.3</ele>
        <time>1970-01-01T01:37:19.000Z</time>
      </trkpt>
      <trkpt lat="43.55112" lon="5.5035">
        <ele>420.3</ele>
        <time>1970-01-01T01:37:21.000Z</time>
      </trkpt>
      <trkpt lat="43.5511" lon="5.50342">
        <ele>420.3</ele>
        <time>1970-01-01T01:37:22.000Z</time>
      </trkpt>
      <trkpt lat="43.55108" lon="5.5033">
        <ele>420.3</ele>
        <time>1970-01-01T01:37:24.000Z</time>
      </trkpt>
      <trkpt lat="43.55102" lon="5.50317">
        <ele>420.2</ele>
        <time>1970-01-01T01:37:26.000Z</time>
      </trkpt>
      <trkpt lat="43.55095" lon="5.50307">
        <ele>420</ele>
        <time>1970-01-01T01:37:28.000Z</time>
      </trkpt>
      <trkpt lat="43.55093" lon="5.50301">
        <ele>419.9</ele>
        <time>1970-01-01T01:37:29.000Z</time>
      </trkpt>
      <trkpt lat="43.55089" lon="5.50295">
        <ele>419.8</ele>
        <time>1970-01-01T01:37:30.000Z</time>
      </trkpt>
      <trkpt lat="43.55081" lon="5.50283">
        <ele>419.5</ele>
        <time>1970-01-01T01:37:32.000Z</time>
      </trkpt>
      <trkpt lat="43.55078" lon="5.50276">
        <ele>419.3</ele>
        <time>1970-01-01T01:37:33.000Z</time>
      </trkpt>
      <trkpt lat="43.55074" lon="5.50262">
        <ele>418.9</ele>
        <time>1970-01-01T01:37:35.000Z</time>
      </trkpt>
      <trkpt lat="43.55071" lon="5.50248">
        <ele>418.5</ele>
        <time>1970-01-01T01:37:37.000Z</time>
      </trkpt>
      <trkpt lat="43.55068" lon="5.50235">
        <ele>418.1</ele>
        <time>1970-01-01T01:37:39.000Z</time>
      </trkpt>
      <trkpt lat="43.55064" lon="5.50221">
        <ele>417.6</ele>
        <time>1970-01-01T01:37:41.000Z</time>
      </trkpt>
      <trkpt lat="43.55062" lon="5.50213">
        <ele>417.4</ele>
        <time>1970-01-01T01:37:42.000Z</time>
      </trkpt>
      <trkpt lat="43.5506" lon="5.50205">
        <ele>417.3</ele>
        <time>1970-01-01T01:37:43.000Z</time>
      </trkpt>
      <trkpt lat="43.55057" lon="5.50189">
        <ele>417</ele>
        <time>1970-01-01T01:37:45.000Z</time>
      </trkpt>
      <trkpt lat="43.55055" lon="5.50182">
        <ele>416.9</ele>
        <time>1970-01-01T01:37:46.000Z</time>
      </trkpt>
      <trkpt lat="43.55053" lon="5.50174">
        <ele>416.9</ele>
        <time>1970-01-01T01:37:47.000Z</time>
      </trkpt>
      <trkpt lat="43.55052" lon="5.50166">
        <ele>416.8</ele>
        <time>1970-01-01T01:37:48.000Z</time>
      </trkpt>
      <trkpt lat="43.55048" lon="5.50153">
        <ele>416.8</ele>
        <time>1970-01-01T01:37:50.000Z</time>
      </trkpt>
      <trkpt lat="43.55046" lon="5.50146">
        <ele>416.8</ele>
        <time>1970-01-01T01:37:51.000Z</time>
      </trkpt>
      <trkpt lat="43.55043" lon="5.50135">
        <ele>416.8</ele>
        <time>1970-01-01T01:37:53.000Z</time>
      </trkpt>
      <trkpt lat="43.55041" lon="5.50128">
        <ele>416.9</ele>
        <time>1970-01-01T01:37:54.000Z</time>
      </trkpt>
      <trkpt lat="43.5504" lon="5.50122">
        <ele>416.9</ele>
        <time>1970-01-01T01:37:55.000Z</time>
      </trkpt>
      <trkpt lat="43.55036" lon="5.5011">
        <ele>417.1</ele>
        <time>1970-01-01T01:37:57.000Z</time>
      </trkpt>
      <trkpt lat="43.55032" lon="5.50099">
        <ele>417.2</ele>
        <time>1970-01-01T01:37:59.000Z</time>
      </trkpt>
      <trkpt lat="43.55028" lon="5.50087">
        <ele>417.4</ele>
        <time>1970-01-01T01:38:01.000Z</time>
      </trkpt>
      <trkpt lat="43.55026" lon="5.5008">
        <ele>417.5</ele>
        <time>1970-01-01T01:38:02.000Z</time>
      </trkpt>
      <trkpt lat="43.55023" lon="5.5007">
        <ele>417.7</ele>
        <time>1970-01-01T01:38:04.000Z</time>
      </trkpt>
      <trkpt lat="43.55022" lon="5.50064">
        <ele>417.8</ele>
        <time>1970-01-01T01:38:05.000Z</time>
      </trkpt>
      <trkpt lat="43.5502" lon="5.50054">
        <ele>418.1</ele>
        <time>1970-01-01T01:38:07.000Z</time>
      </trkpt>
      <trkpt lat="43.55016" lon="5.50044">
        <ele>418.3</ele>
        <time>1970-01-01T01:38:09.000Z</time>
      </trkpt>
      <trkpt lat="43.55014" lon="5.5004">
        <ele>418.4</ele>
        <time>1970-01-01T01:38:10.000Z</time>
      </trkpt>
      <trkpt lat="43.55011" lon="5.50033">
        <ele>418.6</ele>
        <time>1970-01-01T01:38:12.000Z</time>
      </trkpt>
      <trkpt lat="43.55008" lon="5.50029">
        <ele>418.6</ele>
        <time>1970-01-01T01:38:13.000Z</time>
      </trkpt>
      <trkpt lat="43.55005" lon="5.50022">
        <ele>418.7</ele>
        <time>1970-01-01T01:38:15.000Z</time>
      </trkpt>
      <trkpt lat="43.55001" lon="5.50014">
        <ele>418.8</ele>
        <time>1970-01-01T01:38:17.000Z</time>
      </trkpt>
      <trkpt lat="43.54996" lon="5.50007">
        <ele>418.9</ele>
        <time>1970-01-01T01:38:19.000Z</time>
      </trkpt>
      <trkpt lat="43.54991" lon="5.49999">
        <ele>418.9</ele>
        <time>1970-01-01T01:38:21.000Z</time>
      </trkpt>
      <trkpt lat="43.5499" lon="5.49994">
        <ele>419</ele>
        <time>1970-01-01T01:38:22.000Z</time>
      </trkpt>
      <trkpt lat="43.54988" lon="5.4999">
        <ele>419</ele>
        <time>1970-01-01T01:38:23.000Z</time>
      </trkpt>
      <trkpt lat="43.54986" lon="5.49982">
        <ele>419</ele>
        <time>1970-01-01T01:38:25.000Z</time>
      </trkpt>
      <trkpt lat="43.54985" lon="5.49978">
        <ele>419.1</ele>
        <time>1970-01-01T01:38:26.000Z</time>
      </trkpt>
      <trkpt lat="43.54983" lon="5.49966">
        <ele>419.1</ele>
        <time>1970-01-01T01:38:28.000Z</time>
      </trkpt>
      <trkpt lat="43.54982" lon="5.49962">
        <ele>419.2</ele>
        <time>1970-01-01T01:38:29.000Z</time>
      </trkpt>
      <trkpt lat="43.54981" lon="5.49957">
        <ele>419.2</ele>
        <time>1970-01-01T01:38:30.000Z</time>
      </trkpt>
      <trkpt lat="43.5498" lon="5.49952">
        <ele>419.3</ele>
        <time>1970-01-01T01:38:31.000Z</time>
      </trkpt>
      <trkpt lat="43.54979" lon="5.49941">
        <ele>419.4</ele>
        <time>1970-01-01T01:38:33.000Z</time>
      </trkpt>
      <trkpt lat="43.54978" lon="5.49931">
        <ele>419.6</ele>
        <time>1970-01-01T01:38:35.000Z</time>
      </trkpt>
      <trkpt lat="43.54977" lon="5.49926">
        <ele>419.7</ele>
        <time>1970-01-01T01:38:36.000Z</time>
      </trkpt>
      <trkpt lat="43.54975" lon="5.49917">
        <ele>419.9</ele>
        <time>1970-01-01T01:38:38.000Z</time>
      </trkpt>
      <trkpt lat="43.54974" lon="5.49912">
        <ele>420.1</ele>
        <time>1970-01-01T01:38:39.000Z</time>
      </trkpt>
      <trkpt lat="43.5497" lon="5.49906">
        <ele>420.3</ele>
        <time>1970-01-01T01:38:41.000Z</time>
      </trkpt>
      <trkpt lat="43.54964" lon="5.49901">
        <ele>420.6</ele>
        <time>1970-01-01T01:38:43.000Z</time>
      </trkpt>
      <trkpt lat="43.54959" lon="5.49896">
        <ele>420.8</ele>
        <time>1970-01-01T01:38:45.000Z</time>
      </trkpt>
      <trkpt lat="43.54956" lon="5.49894">
        <ele>421</ele>
        <time>1970-01-01T01:38:46.000Z</time>
      </trkpt>
      <trkpt lat="43.54954" lon="5.49891">
        <ele>421.1</ele>
        <time>1970-01-01T01:38:47.000Z</time>
      </trkpt>
      <trkpt lat="43.5495" lon="5.49885">
        <ele>421.2</ele>
        <time>1970-01-01T01:38:49.000Z</time>
      </trkpt>
      <trkpt lat="43.54949" lon="5.49881">
        <ele>421.3</ele>
        <time>1970-01-01T01:38:50.000Z</time>
      </trkpt>
      <trkpt lat="43.54949" lon="5.49874">
        <ele>421.5</ele>
        <time>1970-01-01T01:38:52.000Z</time>
      </trkpt>
      <trkpt lat="43.54949" lon="5.4987">
        <ele>421.6</ele>
        <time>1970-01-01T01:38:53.000Z</time>
      </trkpt>
      <trkpt lat="43.54949" lon="5.49866">
        <ele>421.7</ele>
        <time>1970-01-01T01:38:54.000Z</time>
      </trkpt>
      <trkpt lat="43.54948" lon="5.49861">
        <ele>421.7</ele>
        <time>1970-01-01T01:38:55.000Z</time>
      </trkpt>
      <trkpt lat="43.54947" lon="5.49859">
        <ele>421.8</ele>
        <time>1970-01-01T01:38:56.000Z</time>
      </trkpt>
      <trkpt lat="43.54946" lon="5.49853">
        <ele>421.9</ele>
        <time>1970-01-01T01:38:58.000Z</time>
      </trkpt>
      <trkpt lat="43.54945" lon="5.49849">
        <ele>421.9</ele>
        <time>1970-01-01T01:38:59.000Z</time>
      </trkpt>
      <trkpt lat="43.54944" lon="5.49842">
        <ele>422</ele>
        <time>1970-01-01T01:39:01.000Z</time>
      </trkpt>
      <trkpt lat="43.54943" lon="5.49838">
        <ele>422</ele>
        <time>1970-01-01T01:39:02.000Z</time>
      </trkpt>
      <trkpt lat="43.54942" lon="5.49832">
        <ele>422</ele>
        <time>1970-01-01T01:39:03.000Z</time>
      </trkpt>
      <trkpt lat="43.54942" lon="5.4983">
        <ele>422</ele>
        <time>1970-01-01T01:39:04.000Z</time>
      </trkpt>
      <trkpt lat="43.54942" lon="5.49825">
        <ele>422</ele>
        <time>1970-01-01T01:39:05.000Z</time>
      </trkpt>
      <trkpt lat="43.54942" lon="5.49817">
        <ele>422</ele>
        <time>1970-01-01T01:39:07.000Z</time>
      </trkpt>
      <trkpt lat="43.54941" lon="5.49808">
        <ele>422</ele>
        <time>1970-01-01T01:39:09.000Z</time>
      </trkpt>
      <trkpt lat="43.54941" lon="5.49803">
        <ele>422</ele>
        <time>1970-01-01T01:39:10.000Z</time>
      </trkpt>
      <trkpt lat="43.54941" lon="5.49799">
        <ele>421.9</ele>
        <time>1970-01-01T01:39:11.000Z</time>
      </trkpt>
      <trkpt lat="43.54941" lon="5.49794">
        <ele>421.9</ele>
        <time>1970-01-01T01:39:12.000Z</time>
      </trkpt>
      <trkpt lat="43.54939" lon="5.49785">
        <ele>421.8</ele>
        <time>1970-01-01T01:39:14.000Z</time>
      </trkpt>
      <trkpt lat="43.54939" lon="5.4978">
        <ele>421.7</ele>
        <time>1970-01-01T01:39:15.000Z</time>
      </trkpt>
      <trkpt lat="43.54938" lon="5.49771">
        <ele>421.6</ele>
        <time>1970-01-01T01:39:17.000Z</time>
      </trkpt>
      <trkpt lat="43.54936" lon="5.49762">
        <ele>421.5</ele>
        <time>1970-01-01T01:39:19.000Z</time>
      </trkpt>
      <trkpt lat="43.54932" lon="5.49752">
        <ele>421.3</ele>
        <time>1970-01-01T01:39:21.000Z</time>
      </trkpt>
      <trkpt lat="43.54931" lon="5.49747">
        <ele>421.3</ele>
        <time>1970-01-01T01:39:22.000Z</time>
      </trkpt>
      <trkpt lat="43.54928" lon="5.49736">
        <ele>421</ele>
        <time>1970-01-01T01:39:24.000Z</time>
      </trkpt>
      <trkpt lat="43.54925" lon="5.49724">
        <ele>420.7</ele>
        <time>1970-01-01T01:39:26.000Z</time>
      </trkpt>
      <trkpt lat="43.54924" lon="5.49718">
        <ele>420.5</ele>
        <time>1970-01-01T01:39:27.000Z</time>
      </trkpt>
      <trkpt lat="43.5492" lon="5.49705">
        <ele>420.1</ele>
        <time>1970-01-01T01:39:29.000Z</time>
      </trkpt>
      <trkpt lat="43.54915" lon="5.49694">
        <ele>419.8</ele>
        <time>1970-01-01T01:39:31.000Z</time>
      </trkpt>
      <trkpt lat="43.54912" lon="5.49687">
        <ele>419.6</ele>
        <time>1970-01-01T01:39:32.000Z</time>
      </trkpt>
      <trkpt lat="43.54911" lon="5.49681">
        <ele>419.4</ele>
        <time>1970-01-01T01:39:33.000Z</time>
      </trkpt>
      <trkpt lat="43.54911" lon="5.4967">
        <ele>419.1</ele>
        <time>1970-01-01T01:39:35.000Z</time>
      </trkpt>
      <trkpt lat="43.54908" lon="5.49661">
        <ele>418.8</ele>
        <time>1970-01-01T01:39:37.000Z</time>
      </trkpt>
      <trkpt lat="43.54904" lon="5.4965">
        <ele>418.5</ele>
        <time>1970-01-01T01:39:39.000Z</time>
      </trkpt>
      <trkpt lat="43.549" lon="5.4964">
        <ele>418.2</ele>
        <time>1970-01-01T01:39:41.000Z</time>
      </trkpt>
      <trkpt lat="43.54898" lon="5.49636">
        <ele>418</ele>
        <time>1970-01-01T01:39:42.000Z</time>
      </trkpt>
      <trkpt lat="43.54896" lon="5.49631">
        <ele>417.9</ele>
        <time>1970-01-01T01:39:43.000Z</time>
      </trkpt>
      <trkpt lat="43.54894" lon="5.49621">
        <ele>417.6</ele>
        <time>1970-01-01T01:39:45.000Z</time>
      </trkpt>
      <trkpt lat="43.54897" lon="5.49611">
        <ele>417.3</ele>
        <time>1970-01-01T01:39:47.000Z</time>
      </trkpt>
      <trkpt lat="43.54901" lon="5.49602">
        <ele>417.1</ele>
        <time>1970-01-01T01:39:49.000Z</time>
      </trkpt>
      <trkpt lat="43.54901" lon="5.49591">
        <ele>416.9</ele>
        <time>1970-01-01T01:39:51.000Z</time>
      </trkpt>
      <trkpt lat="43.54901" lon="5.49579">
        <ele>416.7</ele>
        <time>1970-01-01T01:39:53.000Z</time>
      </trkpt>
      <trkpt lat="43.54901" lon="5.49571">
        <ele>416.7</ele>
        <time>1970-01-01T01:39:54.000Z</time>
      </trkpt>
      <trkpt lat="43.549" lon="5.49564">
        <ele>416.6</ele>
        <time>1970-01-01T01:39:55.000Z</time>
      </trkpt>
      <trkpt lat="43.549" lon="5.49548">
        <ele>416.5</ele>
        <time>1970-01-01T01:39:57.000Z</time>
      </trkpt>
      <trkpt lat="43.549" lon="5.49541">
        <ele>416.5</ele>
        <time>1970-01-01T01:39:58.000Z</time>
      </trkpt>
      <trkpt lat="43.54898" lon="5.49527">
        <ele>416.5</ele>
        <time>1970-01-01T01:40:00.000Z</time>
      </trkpt>
      <trkpt lat="43.54898" lon="5.49513">
        <ele>416.6</ele>
        <time>1970-01-01T01:40:02.000Z</time>
      </trkpt>
      <trkpt lat="43.54899" lon="5.495">
        <ele>416.7</ele>
        <time>1970-01-01T01:40:04.000Z</time>
      </trkpt>
      <trkpt lat="43.549" lon="5.49494">
        <ele>416.7</ele>
        <time>1970-01-01T01:40:05.000Z</time>
      </trkpt>
      <trkpt lat="43.549" lon="5.49488">
        <ele>416.8</ele>
        <time>1970-01-01T01:40:06.000Z</time>
      </trkpt>
      <trkpt lat="43.54901" lon="5.49478">
        <ele>417</ele>
        <time>1970-01-01T01:40:08.000Z</time>
      </trkpt>
      <trkpt lat="43.54901" lon="5.49473">
        <ele>417.1</ele>
        <time>1970-01-01T01:40:09.000Z</time>
      </trkpt>
      <trkpt lat="43.549" lon="5.49464">
        <ele>417.3</ele>
        <time>1970-01-01T01:40:11.000Z</time>
      </trkpt>
      <trkpt lat="43.54898" lon="5.49459">
        <ele>417.4</ele>
        <time>1970-01-01T01:40:13.000Z</time>
      </trkpt>
      <trkpt lat="43.54898" lon="5.49453">
        <ele>417.5</ele>
        <time>1970-01-01T01:40:14.000Z</time>
      </trkpt>
      <trkpt lat="43.54897" lon="5.49451">
        <ele>417.6</ele>
        <time>1970-01-01T01:40:15.000Z</time>
      </trkpt>
      <trkpt lat="43.54896" lon="5.49447">
        <ele>417.7</ele>
        <time>1970-01-01T01:40:16.000Z</time>
      </trkpt>
      <trkpt lat="43.54894" lon="5.49444">
        <ele>417.8</ele>
        <time>1970-01-01T01:40:17.000Z</time>
      </trkpt>
      <trkpt lat="43.54899" lon="5.49434">
        <ele>418</ele>
        <time>1970-01-01T01:40:19.000Z</time>
      </trkpt>
      <trkpt lat="43.54899" lon="5.49427">
        <ele>418.2</ele>
        <time>1970-01-01T01:40:21.000Z</time>
      </trkpt>
      <trkpt lat="43.54899" lon="5.49424">
        <ele>418.3</ele>
        <time>1970-01-01T01:40:22.000Z</time>
      </trkpt>
      <trkpt lat="43.54899" lon="5.49415">
        <ele>418.5</ele>
        <time>1970-01-01T01:40:24.000Z</time>
      </trkpt>
      <trkpt lat="43.54899" lon="5.49412">
        <ele>418.5</ele>
        <time>1970-01-01T01:40:25.000Z</time>
      </trkpt>
      <trkpt lat="43.54897" lon="5.49405">
        <ele>418.7</ele>
        <time>1970-01-01T01:40:27.000Z</time>
      </trkpt>
      <trkpt lat="43.54896" lon="5.494">
        <ele>418.8</ele>
        <time>1970-01-01T01:40:28.000Z</time>
      </trkpt>
      <trkpt lat="43.54896" lon="5.49396">
        <ele>418.9</ele>
        <time>1970-01-01T01:40:29.000Z</time>
      </trkpt>
      <trkpt lat="43.54896" lon="5.49392">
        <ele>418.9</ele>
        <time>1970-01-01T01:40:30.000Z</time>
      </trkpt>
      <trkpt lat="43.54896" lon="5.49389">
        <ele>419</ele>
        <time>1970-01-01T01:40:31.000Z</time>
      </trkpt>
      <trkpt lat="43.54894" lon="5.4938">
        <ele>419.2</ele>
        <time>1970-01-01T01:40:33.000Z</time>
      </trkpt>
      <trkpt lat="43.54893" lon="5.49376">
        <ele>419.2</ele>
        <time>1970-01-01T01:40:34.000Z</time>
      </trkpt>
      <trkpt lat="43.54892" lon="5.49372">
        <ele>419.3</ele>
        <time>1970-01-01T01:40:35.000Z</time>
      </trkpt>
      <trkpt lat="43.54891" lon="5.49365">
        <ele>419.4</ele>
        <time>1970-01-01T01:40:37.000Z</time>
      </trkpt>
      <trkpt lat="43.54891" lon="5.49362">
        <ele>419.5</ele>
        <time>1970-01-01T01:40:38.000Z</time>
      </trkpt>
      <trkpt lat="43.54891" lon="5.49355">
        <ele>419.6</ele>
        <time>1970-01-01T01:40:40.000Z</time>
      </trkpt>
      <trkpt lat="43.5489" lon="5.49346">
        <ele>419.7</ele>
        <time>1970-01-01T01:40:42.000Z</time>
      </trkpt>
      <trkpt lat="43.54889" lon="5.49337">
        <ele>419.8</ele>
        <time>1970-01-01T01:40:44.000Z</time>
      </trkpt>
      <trkpt lat="43.54888" lon="5.49331">
        <ele>419.8</ele>
        <time>1970-01-01T01:40:46.000Z</time>
      </trkpt>
      <trkpt lat="43.54887" lon="5.49327">
        <ele>419.9</ele>
        <time>1970-01-01T01:40:47.000Z</time>
      </trkpt>
      <trkpt lat="43.54887" lon="5.49324">
        <ele>419.9</ele>
        <time>1970-01-01T01:40:48.000Z</time>
      </trkpt>
      <trkpt lat="43.54886" lon="5.49316">
        <ele>419.9</ele>
        <time>1970-01-01T01:40:50.000Z</time>
      </trkpt>
      <trkpt lat="43.54886" lon="5.49309">
        <ele>420</ele>
        <time>1970-01-01T01:40:52.000Z</time>
      </trkpt>
      <trkpt lat="43.54886" lon="5.49302">
        <ele>420</ele>
        <time>1970-01-01T01:40:54.000Z</time>
      </trkpt>
      <trkpt lat="43.54885" lon="5.49297">
        <ele>420</ele>
        <time>1970-01-01T01:40:55.000Z</time>
      </trkpt>
      <trkpt lat="43.54885" lon="5.49291">
        <ele>420</ele>
        <time>1970-01-01T01:40:57.000Z</time>
      </trkpt>
      <trkpt lat="43.54889" lon="5.49282">
        <ele>420.1</ele>
        <time>1970-01-01T01:40:59.000Z</time>
      </trkpt>
      <trkpt lat="43.54891" lon="5.49278">
        <ele>420.1</ele>
        <time>1970-01-01T01:41:00.000Z</time>
      </trkpt>
      <trkpt lat="43.54894" lon="5.49268">
        <ele>420.1</ele>
        <time>1970-01-01T01:41:02.000Z</time>
      </trkpt>
      <trkpt lat="43.54896" lon="5.49259">
        <ele>420.2</ele>
        <time>1970-01-01T01:41:04.000Z</time>
      </trkpt>
      <trkpt lat="43.54895" lon="5.49255">
        <ele>420.2</ele>
        <time>1970-01-01T01:41:06.000Z</time>
      </trkpt>
      <trkpt lat="43.54894" lon="5.4925">
        <ele>420.2</ele>
        <time>1970-01-01T01:41:07.000Z</time>
      </trkpt>
      <trkpt lat="43.54894" lon="5.49246">
        <ele>420.3</ele>
        <time>1970-01-01T01:41:08.000Z</time>
      </trkpt>
      <trkpt lat="43.54894" lon="5.49242">
        <ele>420.3</ele>
        <time>1970-01-01T01:41:09.000Z</time>
      </trkpt>
      <trkpt lat="43.54893" lon="5.49231">
        <ele>420.4</ele>
        <time>1970-01-01T01:41:11.000Z</time>
      </trkpt>
      <trkpt lat="43.54893" lon="5.49226">
        <ele>420.4</ele>
        <time>1970-01-01T01:41:12.000Z</time>
      </trkpt>
      <trkpt lat="43.54892" lon="5.49221">
        <ele>420.5</ele>
        <time>1970-01-01T01:41:13.000Z</time>
      </trkpt>
      <trkpt lat="43.54891" lon="5.49217">
        <ele>420.5</ele>
        <time>1970-01-01T01:41:14.000Z</time>
      </trkpt>
      <trkpt lat="43.5489" lon="5.49216">
        <ele>420.5</ele>
        <time>1970-01-01T01:41:15.000Z</time>
      </trkpt>
      <trkpt lat="43.54888" lon="5.49211">
        <ele>420.6</ele>
        <time>1970-01-01T01:41:17.000Z</time>
      </trkpt>
      <trkpt lat="43.54887" lon="5.49209">
        <ele>420.6</ele>
        <time>1970-01-01T01:41:18.000Z</time>
      </trkpt>
      <trkpt lat="43.54885" lon="5.49203">
        <ele>420.7</ele>
        <time>1970-01-01T01:41:20.000Z</time>
      </trkpt>
      <trkpt lat="43.54885" lon="5.49198">
        <ele>420.7</ele>
        <time>1970-01-01T01:41:21.000Z</time>
      </trkpt>
      <trkpt lat="43.54886" lon="5.49193">
        <ele>420.8</ele>
        <time>1970-01-01T01:41:22.000Z</time>
      </trkpt>
      <trkpt lat="43.54888" lon="5.49182">
        <ele>420.9</ele>
        <time>1970-01-01T01:41:24.000Z</time>
      </trkpt>
      <trkpt lat="43.54889" lon="5.49172">
        <ele>421</ele>
        <time>1970-01-01T01:41:26.000Z</time>
      </trkpt>
      <trkpt lat="43.54888" lon="5.49163">
        <ele>421</ele>
        <time>1970-01-01T01:41:28.000Z</time>
      </trkpt>
      <trkpt lat="43.54887" lon="5.49158">
        <ele>421.1</ele>
        <time>1970-01-01T01:41:29.000Z</time>
      </trkpt>
      <trkpt lat="43.54886" lon="5.49154">
        <ele>421.1</ele>
        <time>1970-01-01T01:41:30.000Z</time>
      </trkpt>
      <trkpt lat="43.54885" lon="5.49142">
        <ele>421.3</ele>
        <time>1970-01-01T01:41:32.000Z</time>
      </trkpt>
      <trkpt lat="43.54885" lon="5.49137">
        <ele>421.3</ele>
        <time>1970-01-01T01:41:33.000Z</time>
      </trkpt>
      <trkpt lat="43.54885" lon="5.4913">
        <ele>421.4</ele>
        <time>1970-01-01T01:41:35.000Z</time>
      </trkpt>
      <trkpt lat="43.54884" lon="5.49124">
        <ele>421.6</ele>
        <time>1970-01-01T01:41:37.000Z</time>
      </trkpt>
      <trkpt lat="43.54884" lon="5.4912">
        <ele>421.7</ele>
        <time>1970-01-01T01:41:38.000Z</time>
      </trkpt>
      <trkpt lat="43.54884" lon="5.49115">
        <ele>421.8</ele>
        <time>1970-01-01T01:41:39.000Z</time>
      </trkpt>
      <trkpt lat="43.54881" lon="5.49109">
        <ele>421.9</ele>
        <time>1970-01-01T01:41:41.000Z</time>
      </trkpt>
      <trkpt lat="43.54879" lon="5.49105">
        <ele>422.1</ele>
        <time>1970-01-01T01:41:42.000Z</time>
      </trkpt>
      <trkpt lat="43.54878" lon="5.491">
        <ele>422.2</ele>
        <time>1970-01-01T01:41:43.000Z</time>
      </trkpt>
      <trkpt lat="43.54878" lon="5.49095">
        <ele>422.3</ele>
        <time>1970-01-01T01:41:44.000Z</time>
      </trkpt>
      <trkpt lat="43.54878" lon="5.49094">
        <ele>422.3</ele>
        <time>1970-01-01T01:41:45.000Z</time>
      </trkpt>
      <trkpt lat="43.54877" lon="5.49085">
        <ele>422.6</ele>
        <time>1970-01-01T01:41:47.000Z</time>
      </trkpt>
      <trkpt lat="43.54877" lon="5.49081">
        <ele>422.7</ele>
        <time>1970-01-01T01:41:48.000Z</time>
      </trkpt>
      <trkpt lat="43.54877" lon="5.49076">
        <ele>422.9</ele>
        <time>1970-01-01T01:41:49.000Z</time>
      </trkpt>
      <trkpt lat="43.54877" lon="5.49073">
        <ele>423</ele>
        <time>1970-01-01T01:41:50.000Z</time>
      </trkpt>
      <trkpt lat="43.54876" lon="5.49069">
        <ele>423.1</ele>
        <time>1970-01-01T01:41:51.000Z</time>
      </trkpt>
      <trkpt lat="43.54875" lon="5.49064">
        <ele>423.3</ele>
        <time>1970-01-01T01:41:53.000Z</time>
      </trkpt>
      <trkpt lat="43.54874" lon="5.49061">
        <ele>423.4</ele>
        <time>1970-01-01T01:41:54.000Z</time>
      </trkpt>
      <trkpt lat="43.54872" lon="5.49058">
        <ele>423.5</ele>
        <time>1970-01-01T01:41:56.000Z</time>
      </trkpt>
      <trkpt lat="43.54871" lon="5.49055">
        <ele>423.6</ele>
        <time>1970-01-01T01:41:57.000Z</time>
      </trkpt>
      <trkpt lat="43.54868" lon="5.49049">
        <ele>423.9</ele>
        <time>1970-01-01T01:41:59.000Z</time>
      </trkpt>
      <trkpt lat="43.54867" lon="5.49047">
        <ele>424</ele>
        <time>1970-01-01T01:42:00.000Z</time>
      </trkpt>
      <trkpt lat="43.54864" lon="5.49042">
        <ele>424.2</ele>
        <time>1970-01-01T01:42:02.000Z</time>
      </trkpt>
      <trkpt lat="43.54864" lon="5.4904">
        <ele>424.3</ele>
        <time>1970-01-01T01:42:03.000Z</time>
      </trkpt>
      <trkpt lat="43.54862" lon="5.49038">
        <ele>424.4</ele>
        <time>1970-01-01T01:42:04.000Z</time>
      </trkpt>
      <trkpt lat="43.54861" lon="5.49036">
        <ele>424.5</ele>
        <time>1970-01-01T01:42:05.000Z</time>
      </trkpt>
      <trkpt lat="43.5486" lon="5.49033">
        <ele>424.6</ele>
        <time>1970-01-01T01:42:07.000Z</time>
      </trkpt>
      <trkpt lat="43.54858" lon="5.49027">
        <ele>424.9</ele>
        <time>1970-01-01T01:42:09.000Z</time>
      </trkpt>
      <trkpt lat="43.54857" lon="5.49023">
        <ele>425.1</ele>
        <time>1970-01-01T01:42:10.000Z</time>
      </trkpt>
      <trkpt lat="43.54855" lon="5.49017">
        <ele>425.3</ele>
        <time>1970-01-01T01:42:12.000Z</time>
      </trkpt>
      <trkpt lat="43.54853" lon="5.49013">
        <ele>425.5</ele>
        <time>1970-01-01T01:42:13.000Z</time>
      </trkpt>
      <trkpt lat="43.54852" lon="5.4901">
        <ele>425.7</ele>
        <time>1970-01-01T01:42:14.000Z</time>
      </trkpt>
      <trkpt lat="43.54851" lon="5.49006">
        <ele>425.8</ele>
        <time>1970-01-01T01:42:15.000Z</time>
      </trkpt>
      <trkpt lat="43.54848" lon="5.48998">
        <ele>426.1</ele>
        <time>1970-01-01T01:42:17.000Z</time>
      </trkpt>
      <trkpt lat="43.54847" lon="5.48995">
        <ele>426.2</ele>
        <time>1970-01-01T01:42:18.000Z</time>
      </trkpt>
      <trkpt lat="43.54846" lon="5.48987">
        <ele>426.4</ele>
        <time>1970-01-01T01:42:20.000Z</time>
      </trkpt>
      <trkpt lat="43.54845" lon="5.48983">
        <ele>426.4</ele>
        <time>1970-01-01T01:42:21.000Z</time>
      </trkpt>
      <trkpt lat="43.54842" lon="5.48973">
        <ele>426.5</ele>
        <time>1970-01-01T01:42:23.000Z</time>
      </trkpt>
      <trkpt lat="43.5484" lon="5.48966">
        <ele>426.6</ele>
        <time>1970-01-01T01:42:25.000Z</time>
      </trkpt>
      <trkpt lat="43.5484" lon="5.48964">
        <ele>426.6</ele>
        <time>1970-01-01T01:42:26.000Z</time>
      </trkpt>
      <trkpt lat="43.54839" lon="5.48962">
        <ele>426.7</ele>
        <time>1970-01-01T01:42:27.000Z</time>
      </trkpt>
      <trkpt lat="43.54838" lon="5.48959">
        <ele>426.7</ele>
        <time>1970-01-01T01:42:28.000Z</time>
      </trkpt>
      <trkpt lat="43.54835" lon="5.48955">
        <ele>426.8</ele>
        <time>1970-01-01T01:42:29.000Z</time>
      </trkpt>
      <trkpt lat="43.54832" lon="5.48952">
        <ele>426.9</ele>
        <time>1970-01-01T01:42:30.000Z</time>
      </trkpt>
      <trkpt lat="43.5483" lon="5.48948">
        <ele>427</ele>
        <time>1970-01-01T01:42:31.000Z</time>
      </trkpt>
      <trkpt lat="43.54824" lon="5.4894">
        <ele>427.1</ele>
        <time>1970-01-01T01:42:33.000Z</time>
      </trkpt>
      <trkpt lat="43.54821" lon="5.48936">
        <ele>427.2</ele>
        <time>1970-01-01T01:42:34.000Z</time>
      </trkpt>
      <trkpt lat="43.54815" lon="5.48928">
        <ele>427.3</ele>
        <time>1970-01-01T01:42:36.000Z</time>
      </trkpt>
      <trkpt lat="43.54813" lon="5.48924">
        <ele>427.4</ele>
        <time>1970-01-01T01:42:37.000Z</time>
      </trkpt>
      <trkpt lat="43.54807" lon="5.48922">
        <ele>427.4</ele>
        <time>1970-01-01T01:42:39.000Z</time>
      </trkpt>
      <trkpt lat="43.54801" lon="5.48919">
        <ele>427.5</ele>
        <time>1970-01-01T01:42:41.000Z</time>
      </trkpt>
      <trkpt lat="43.54797" lon="5.48917">
        <ele>427.5</ele>
        <time>1970-01-01T01:42:42.000Z</time>
      </trkpt>
      <trkpt lat="43.5479" lon="5.48909">
        <ele>427.6</ele>
        <time>1970-01-01T01:42:44.000Z</time>
      </trkpt>
      <trkpt lat="43.54782" lon="5.48904">
        <ele>427.6</ele>
        <time>1970-01-01T01:42:46.000Z</time>
      </trkpt>
      <trkpt lat="43.54774" lon="5.48901">
        <ele>427.8</ele>
        <time>1970-01-01T01:42:48.000Z</time>
      </trkpt>
      <trkpt lat="43.5477" lon="5.48901">
        <ele>427.8</ele>
        <time>1970-01-01T01:42:49.000Z</time>
      </trkpt>
      <trkpt lat="43.54763" lon="5.489">
        <ele>427.9</ele>
        <time>1970-01-01T01:42:51.000Z</time>
      </trkpt>
      <trkpt lat="43.5476" lon="5.48898">
        <ele>428</ele>
        <time>1970-01-01T01:42:52.000Z</time>
      </trkpt>
      <trkpt lat="43.54757" lon="5.48891">
        <ele>428</ele>
        <time>1970-01-01T01:42:54.000Z</time>
      </trkpt>
      <trkpt lat="43.54755" lon="5.48883">
        <ele>428</ele>
        <time>1970-01-01T01:42:56.000Z</time>
      </trkpt>
      <trkpt lat="43.54751" lon="5.48877">
        <ele>428.1</ele>
        <time>1970-01-01T01:42:58.000Z</time>
      </trkpt>
      <trkpt lat="43.54747" lon="5.48871">
        <ele>428.1</ele>
        <time>1970-01-01T01:43:00.000Z</time>
      </trkpt>
      <trkpt lat="43.54746" lon="5.48868">
        <ele>428.1</ele>
        <time>1970-01-01T01:43:01.000Z</time>
      </trkpt>
      <trkpt lat="43.54743" lon="5.4886">
        <ele>428</ele>
        <time>1970-01-01T01:43:03.000Z</time>
      </trkpt>
      <trkpt lat="43.54742" lon="5.48857">
        <ele>428</ele>
        <time>1970-01-01T01:43:04.000Z</time>
      </trkpt>
      <trkpt lat="43.5474" lon="5.48852">
        <ele>427.9</ele>
        <time>1970-01-01T01:43:06.000Z</time>
      </trkpt>
      <trkpt lat="43.54737" lon="5.48844">
        <ele>427.7</ele>
        <time>1970-01-01T01:43:08.000Z</time>
      </trkpt>
      <trkpt lat="43.54738" lon="5.48831">
        <ele>426.4</ele>
        <time>1970-01-01T01:43:10.000Z</time>
      </trkpt>
      <trkpt lat="43.5474" lon="5.48815">
        <ele>424.7</ele>
        <time>1970-01-01T01:43:12.000Z</time>
      </trkpt>
      <trkpt lat="43.5474" lon="5.48795">
        <ele>422.4</ele>
        <time>1970-01-01T01:43:14.000Z</time>
      </trkpt>
      <trkpt lat="43.5474" lon="5.48771">
        <ele>419.6</ele>
        <time>1970-01-01T01:43:16.000Z</time>
      </trkpt>
      <trkpt lat="43.54738" lon="5.48746">
        <ele>417</ele>
        <time>1970-01-01T01:43:18.000Z</time>
      </trkpt>
      <trkpt lat="43.54738" lon="5.48733">
        <ele>415.7</ele>
        <time>1970-01-01T01:43:19.000Z</time>
      </trkpt>
      <trkpt lat="43.54736" lon="5.48707">
        <ele>413.3</ele>
        <time>1970-01-01T01:43:21.000Z</time>
      </trkpt>
      <trkpt lat="43.54736" lon="5.48681">
        <ele>410.8</ele>
        <time>1970-01-01T01:43:23.000Z</time>
      </trkpt>
      <trkpt lat="43.54735" lon="5.48668">
        <ele>409.5</ele>
        <time>1970-01-01T01:43:24.000Z</time>
      </trkpt>
      <trkpt lat="43.54734" lon="5.48643">
        <ele>407</ele>
        <time>1970-01-01T01:43:26.000Z</time>
      </trkpt>
      <trkpt lat="43.54733" lon="5.4863">
        <ele>405.8</ele>
        <time>1970-01-01T01:43:27.000Z</time>
      </trkpt>
      <trkpt lat="43.54733" lon="5.48602">
        <ele>403.3</ele>
        <time>1970-01-01T01:43:29.000Z</time>
      </trkpt>
      <trkpt lat="43.54732" lon="5.48574">
        <ele>400.9</ele>
        <time>1970-01-01T01:43:31.000Z</time>
      </trkpt>
      <trkpt lat="43.54733" lon="5.48545">
        <ele>398.5</ele>
        <time>1970-01-01T01:43:33.000Z</time>
      </trkpt>
      <trkpt lat="43.54733" lon="5.48532">
        <ele>397.5</ele>
        <time>1970-01-01T01:43:34.000Z</time>
      </trkpt>
      <trkpt lat="43.54735" lon="5.48503">
        <ele>395.8</ele>
        <time>1970-01-01T01:43:36.000Z</time>
      </trkpt>
      <trkpt lat="43.54739" lon="5.48475">
        <ele>394.2</ele>
        <time>1970-01-01T01:43:38.000Z</time>
      </trkpt>
      <trkpt lat="43.54747" lon="5.4845">
        <ele>392</ele>
        <time>1970-01-01T01:43:40.000Z</time>
      </trkpt>
      <trkpt lat="43.54758" lon="5.48424">
        <ele>389.4</ele>
        <time>1970-01-01T01:43:42.000Z</time>
      </trkpt>
      <trkpt lat="43.54762" lon="5.4841">
        <ele>388.1</ele>
        <time>1970-01-01T01:43:43.000Z</time>
      </trkpt>
      <trkpt lat="43.5477" lon="5.48389">
        <ele>386.1</ele>
        <time>1970-01-01T01:43:45.000Z</time>
      </trkpt>
      <trkpt lat="43.54776" lon="5.48379">
        <ele>385.1</ele>
        <time>1970-01-01T01:43:46.000Z</time>
      </trkpt>
      <trkpt lat="43.54781" lon="5.48369">
        <ele>384.1</ele>
        <time>1970-01-01T01:43:47.000Z</time>
      </trkpt>
      <trkpt lat="43.54789" lon="5.48345">
        <ele>382.1</ele>
        <time>1970-01-01T01:43:49.000Z</time>
      </trkpt>
      <trkpt lat="43.54798" lon="5.48322">
        <ele>380</ele>
        <time>1970-01-01T01:43:51.000Z</time>
      </trkpt>
      <trkpt lat="43.54803" lon="5.48309">
        <ele>379.1</ele>
        <time>1970-01-01T01:43:52.000Z</time>
      </trkpt>
      <trkpt lat="43.5481" lon="5.48286">
        <ele>377.6</ele>
        <time>1970-01-01T01:43:54.000Z</time>
      </trkpt>
      <trkpt lat="43.54814" lon="5.48276">
        <ele>377</ele>
        <time>1970-01-01T01:43:55.000Z</time>
      </trkpt>
      <trkpt lat="43.54821" lon="5.48254">
        <ele>375.7</ele>
        <time>1970-01-01T01:43:57.000Z</time>
      </trkpt>
      <trkpt lat="43.54829" lon="5.4823">
        <ele>374.3</ele>
        <time>1970-01-01T01:43:59.000Z</time>
      </trkpt>
      <trkpt lat="43.54831" lon="5.48221">
        <ele>373.9</ele>
        <time>1970-01-01T01:44:00.000Z</time>
      </trkpt>
      <trkpt lat="43.54831" lon="5.48204">
        <ele>373.2</ele>
        <time>1970-01-01T01:44:02.000Z</time>
      </trkpt>
      <trkpt lat="43.5483" lon="5.48195">
        <ele>372.9</ele>
        <time>1970-01-01T01:44:03.000Z</time>
      </trkpt>
      <trkpt lat="43.54828" lon="5.48185">
        <ele>372.5</ele>
        <time>1970-01-01T01:44:04.000Z</time>
      </trkpt>
      <trkpt lat="43.54826" lon="5.48166">
        <ele>371.9</ele>
        <time>1970-01-01T01:44:06.000Z</time>
      </trkpt>
      <trkpt lat="43.54826" lon="5.48146">
        <ele>371.3</ele>
        <time>1970-01-01T01:44:08.000Z</time>
      </trkpt>
      <trkpt lat="43.54826" lon="5.48136">
        <ele>371</ele>
        <time>1970-01-01T01:44:09.000Z</time>
      </trkpt>
      <trkpt lat="43.54825" lon="5.48126">
        <ele>370.6</ele>
        <time>1970-01-01T01:44:10.000Z</time>
      </trkpt>
      <trkpt lat="43.54825" lon="5.48106">
        <ele>370</ele>
        <time>1970-01-01T01:44:12.000Z</time>
      </trkpt>
      <trkpt lat="43.54824" lon="5.48089">
        <ele>369.6</ele>
        <time>1970-01-01T01:44:14.000Z</time>
      </trkpt>
      <trkpt lat="43.54822" lon="5.48079">
        <ele>369.3</ele>
        <time>1970-01-01T01:44:15.000Z</time>
      </trkpt>
      <trkpt lat="43.5482" lon="5.4807">
        <ele>369.2</ele>
        <time>1970-01-01T01:44:16.000Z</time>
      </trkpt>
      <trkpt lat="43.54818" lon="5.48062">
        <ele>369</ele>
        <time>1970-01-01T01:44:17.000Z</time>
      </trkpt>
      <trkpt lat="43.54813" lon="5.48047">
        <ele>368.6</ele>
        <time>1970-01-01T01:44:19.000Z</time>
      </trkpt>
      <trkpt lat="43.54814" lon="5.48039">
        <ele>368.4</ele>
        <time>1970-01-01T01:44:20.000Z</time>
      </trkpt>
      <trkpt lat="43.54814" lon="5.4803">
        <ele>368.1</ele>
        <time>1970-01-01T01:44:21.000Z</time>
      </trkpt>
      <trkpt lat="43.54813" lon="5.4802">
        <ele>367.8</ele>
        <time>1970-01-01T01:44:22.000Z</time>
      </trkpt>
      <trkpt lat="43.54809" lon="5.48004">
        <ele>367.3</ele>
        <time>1970-01-01T01:44:24.000Z</time>
      </trkpt>
      <trkpt lat="43.54804" lon="5.47988">
        <ele>366.9</ele>
        <time>1970-01-01T01:44:26.000Z</time>
      </trkpt>
      <trkpt lat="43.54802" lon="5.47983">
        <ele>366.7</ele>
        <time>1970-01-01T01:44:27.000Z</time>
      </trkpt>
      <trkpt lat="43.54798" lon="5.47976">
        <ele>366.6</ele>
        <time>1970-01-01T01:44:28.000Z</time>
      </trkpt>
      <trkpt lat="43.54793" lon="5.47964">
        <ele>366.5</ele>
        <time>1970-01-01T01:44:30.000Z</time>
      </trkpt>
      <trkpt lat="43.54786" lon="5.47951">
        <ele>366.3</ele>
        <time>1970-01-01T01:44:32.000Z</time>
      </trkpt>
      <trkpt lat="43.54778" lon="5.47942">
        <ele>366.1</ele>
        <time>1970-01-01T01:44:34.000Z</time>
      </trkpt>
      <trkpt lat="43.54772" lon="5.47933">
        <ele>366</ele>
        <time>1970-01-01T01:44:36.000Z</time>
      </trkpt>
      <trkpt lat="43.54764" lon="5.47924">
        <ele>365.9</ele>
        <time>1970-01-01T01:44:38.000Z</time>
      </trkpt>
      <trkpt lat="43.5476" lon="5.47919">
        <ele>365.8</ele>
        <time>1970-01-01T01:44:39.000Z</time>
      </trkpt>
      <trkpt lat="43.54756" lon="5.47913">
        <ele>365.8</ele>
        <time>1970-01-01T01:44:40.000Z</time>
      </trkpt>
      <trkpt lat="43.54749" lon="5.47906">
        <ele>365.7</ele>
        <time>1970-01-01T01:44:42.000Z</time>
      </trkpt>
      <trkpt lat="43.54745" lon="5.47902">
        <ele>365.6</ele>
        <time>1970-01-01T01:44:43.000Z</time>
      </trkpt>
      <trkpt lat="43.54742" lon="5.47896">
        <ele>365.6</ele>
        <time>1970-01-01T01:44:44.000Z</time>
      </trkpt>
      <trkpt lat="43.54737" lon="5.47886">
        <ele>365.4</ele>
        <time>1970-01-01T01:44:46.000Z</time>
      </trkpt>
      <trkpt lat="43.54735" lon="5.4788">
        <ele>365.4</ele>
        <time>1970-01-01T01:44:47.000Z</time>
      </trkpt>
      <trkpt lat="43.54731" lon="5.47873">
        <ele>365.3</ele>
        <time>1970-01-01T01:44:48.000Z</time>
      </trkpt>
      <trkpt lat="43.54731" lon="5.47866">
        <ele>365.3</ele>
        <time>1970-01-01T01:44:49.000Z</time>
      </trkpt>
      <trkpt lat="43.54736" lon="5.47851">
        <ele>365.3</ele>
        <time>1970-01-01T01:44:51.000Z</time>
      </trkpt>
      <trkpt lat="43.54742" lon="5.4784">
        <ele>365.3</ele>
        <time>1970-01-01T01:44:53.000Z</time>
      </trkpt>
      <trkpt lat="43.54744" lon="5.47834">
        <ele>365.4</ele>
        <time>1970-01-01T01:44:54.000Z</time>
      </trkpt>
      <trkpt lat="43.54748" lon="5.47825">
        <ele>365.4</ele>
        <time>1970-01-01T01:44:56.000Z</time>
      </trkpt>
      <trkpt lat="43.54749" lon="5.4782">
        <ele>365.5</ele>
        <time>1970-01-01T01:44:57.000Z</time>
      </trkpt>
      <trkpt lat="43.54751" lon="5.47814">
        <ele>365.5</ele>
        <time>1970-01-01T01:44:58.000Z</time>
      </trkpt>
      <trkpt lat="43.54754" lon="5.47804">
        <ele>365.7</ele>
        <time>1970-01-01T01:45:00.000Z</time>
      </trkpt>
      <trkpt lat="43.54754" lon="5.47798">
        <ele>365.8</ele>
        <time>1970-01-01T01:45:01.000Z</time>
      </trkpt>
      <trkpt lat="43.54755" lon="5.47792">
        <ele>365.8</ele>
        <time>1970-01-01T01:45:02.000Z</time>
      </trkpt>
      <trkpt lat="43.54755" lon="5.4778">
        <ele>366</ele>
        <time>1970-01-01T01:45:04.000Z</time>
      </trkpt>
      <trkpt lat="43.54755" lon="5.47775">
        <ele>366.1</ele>
        <time>1970-01-01T01:45:05.000Z</time>
      </trkpt>
      <trkpt lat="43.54755" lon="5.47773">
        <ele>366.1</ele>
        <time>1970-01-01T01:45:06.000Z</time>
      </trkpt>
      <trkpt lat="43.54757" lon="5.47762">
        <ele>366.3</ele>
        <time>1970-01-01T01:45:08.000Z</time>
      </trkpt>
      <trkpt lat="43.54757" lon="5.47756">
        <ele>366.4</ele>
        <time>1970-01-01T01:45:09.000Z</time>
      </trkpt>
      <trkpt lat="43.54757" lon="5.47751">
        <ele>366.5</ele>
        <time>1970-01-01T01:45:10.000Z</time>
      </trkpt>
      <trkpt lat="43.54756" lon="5.47746">
        <ele>366.6</ele>
        <time>1970-01-01T01:45:11.000Z</time>
      </trkpt>
      <trkpt lat="43.54756" lon="5.47744">
        <ele>366.6</ele>
        <time>1970-01-01T01:45:12.000Z</time>
      </trkpt>
      <trkpt lat="43.54753" lon="5.47743">
        <ele>366.7</ele>
        <time>1970-01-01T01:45:14.000Z</time>
      </trkpt>
      <trkpt lat="43.54752" lon="5.47742">
        <ele>366.8</ele>
        <time>1970-01-01T01:45:15.000Z</time>
      </trkpt>
      <trkpt lat="43.54751" lon="5.47734">
        <ele>367</ele>
        <time>1970-01-01T01:45:17.000Z</time>
      </trkpt>
      <trkpt lat="43.54749" lon="5.4773">
        <ele>367.1</ele>
        <time>1970-01-01T01:45:18.000Z</time>
      </trkpt>
      <trkpt lat="43.54748" lon="5.47721">
        <ele>367.3</ele>
        <time>1970-01-01T01:45:20.000Z</time>
      </trkpt>
      <trkpt lat="43.54749" lon="5.47714">
        <ele>367.5</ele>
        <time>1970-01-01T01:45:22.000Z</time>
      </trkpt>
      <trkpt lat="43.5475" lon="5.47707">
        <ele>367.6</ele>
        <time>1970-01-01T01:45:24.000Z</time>
      </trkpt>
      <trkpt lat="43.5475" lon="5.47699">
        <ele>367.8</ele>
        <time>1970-01-01T01:45:26.000Z</time>
      </trkpt>
      <trkpt lat="43.5475" lon="5.47694">
        <ele>368</ele>
        <time>1970-01-01T01:45:27.000Z</time>
      </trkpt>
      <trkpt lat="43.54746" lon="5.47685">
        <ele>368.2</ele>
        <time>1970-01-01T01:45:29.000Z</time>
      </trkpt>
      <trkpt lat="43.54745" lon="5.4768">
        <ele>368.4</ele>
        <time>1970-01-01T01:45:30.000Z</time>
      </trkpt>
      <trkpt lat="43.54743" lon="5.4767">
        <ele>368.7</ele>
        <time>1970-01-01T01:45:31.000Z</time>
      </trkpt>
      <trkpt lat="43.54742" lon="5.47665">
        <ele>368.8</ele>
        <time>1970-01-01T01:45:32.000Z</time>
      </trkpt>
      <trkpt lat="43.54742" lon="5.4766">
        <ele>368.9</ele>
        <time>1970-01-01T01:45:34.000Z</time>
      </trkpt>
      <trkpt lat="43.54742" lon="5.47655">
        <ele>369</ele>
        <time>1970-01-01T01:45:35.000Z</time>
      </trkpt>
      <trkpt lat="43.54742" lon="5.47646">
        <ele>369.2</ele>
        <time>1970-01-01T01:45:37.000Z</time>
      </trkpt>
      <trkpt lat="43.54741" lon="5.47636">
        <ele>369.3</ele>
        <time>1970-01-01T01:45:39.000Z</time>
      </trkpt>
      <trkpt lat="43.54741" lon="5.47625">
        <ele>369.4</ele>
        <time>1970-01-01T01:45:40.000Z</time>
      </trkpt>
      <trkpt lat="43.54742" lon="5.47615">
        <ele>369.5</ele>
        <time>1970-01-01T01:45:42.000Z</time>
      </trkpt>
      <trkpt lat="43.54742" lon="5.47611">
        <ele>369.6</ele>
        <time>1970-01-01T01:45:43.000Z</time>
      </trkpt>
      <trkpt lat="43.54743" lon="5.47605">
        <ele>369.6</ele>
        <time>1970-01-01T01:45:46.000Z</time>
      </trkpt>
      <trkpt lat="43.54745" lon="5.47599">
        <ele>369.7</ele>
        <time>1970-01-01T01:45:47.000Z</time>
      </trkpt>
      <trkpt lat="43.54749" lon="5.47589">
        <ele>369.7</ele>
        <time>1970-01-01T01:45:49.000Z</time>
      </trkpt>
      <trkpt lat="43.5475" lon="5.47584">
        <ele>369.6</ele>
        <time>1970-01-01T01:45:51.000Z</time>
      </trkpt>
      <trkpt lat="43.54756" lon="5.47571">
        <ele>369.6</ele>
        <time>1970-01-01T01:45:53.000Z</time>
      </trkpt>
      <trkpt lat="43.54759" lon="5.47562">
        <ele>369.5</ele>
        <time>1970-01-01T01:45:55.000Z</time>
      </trkpt>
      <trkpt lat="43.54764" lon="5.47551">
        <ele>369.3</ele>
        <time>1970-01-01T01:45:56.000Z</time>
      </trkpt>
      <trkpt lat="43.54766" lon="5.47544">
        <ele>369.1</ele>
        <time>1970-01-01T01:45:58.000Z</time>
      </trkpt>
      <trkpt lat="43.5477" lon="5.47531">
        <ele>368.7</ele>
        <time>1970-01-01T01:45:59.000Z</time>
      </trkpt>
      <trkpt lat="43.54773" lon="5.4752">
        <ele>368.4</ele>
        <time>1970-01-01T01:46:01.000Z</time>
      </trkpt>
      <trkpt lat="43.54774" lon="5.47513">
        <ele>368.2</ele>
        <time>1970-01-01T01:46:02.000Z</time>
      </trkpt>
      <trkpt lat="43.54776" lon="5.47507">
        <ele>368</ele>
        <time>1970-01-01T01:46:03.000Z</time>
      </trkpt>
      <trkpt lat="43.54776" lon="5.47501">
        <ele>367.8</ele>
        <time>1970-01-01T01:46:05.000Z</time>
      </trkpt>
      <trkpt lat="43.5478" lon="5.47484">
        <ele>367.3</ele>
        <time>1970-01-01T01:46:07.000Z</time>
      </trkpt>
      <trkpt lat="43.54787" lon="5.47464">
        <ele>366.6</ele>
        <time>1970-01-01T01:46:10.000Z</time>
      </trkpt>
      <trkpt lat="43.54789" lon="5.47456">
        <ele>366.4</ele>
        <time>1970-01-01T01:46:11.000Z</time>
      </trkpt>
      <trkpt lat="43.54792" lon="5.47442">
        <ele>366.1</ele>
        <time>1970-01-01T01:46:13.000Z</time>
      </trkpt>
      <trkpt lat="43.54792" lon="5.47436">
        <ele>366</ele>
        <time>1970-01-01T01:46:15.000Z</time>
      </trkpt>
      <trkpt lat="43.54793" lon="5.47428">
        <ele>365.9</ele>
        <time>1970-01-01T01:46:16.000Z</time>
      </trkpt>
      <trkpt lat="43.54791" lon="5.47421">
        <ele>365.9</ele>
        <time>1970-01-01T01:46:18.000Z</time>
      </trkpt>
      <trkpt lat="43.54789" lon="5.47413">
        <ele>365.8</ele>
        <time>1970-01-01T01:46:19.000Z</time>
      </trkpt>
      <trkpt lat="43.54789" lon="5.47409">
        <ele>365.8</ele>
        <time>1970-01-01T01:46:21.000Z</time>
      </trkpt>
      <trkpt lat="43.54789" lon="5.47398">
        <ele>366.4</ele>
        <time>1970-01-01T01:46:23.000Z</time>
      </trkpt>
      <trkpt lat="43.54789" lon="5.47389">
        <ele>366.9</ele>
        <time>1970-01-01T01:46:24.000Z</time>
      </trkpt>
      <trkpt lat="43.54788" lon="5.47385">
        <ele>367.1</ele>
        <time>1970-01-01T01:46:26.000Z</time>
      </trkpt>
      <trkpt lat="43.54788" lon="5.4738">
        <ele>367.5</ele>
        <time>1970-01-01T01:46:27.000Z</time>
      </trkpt>
      <trkpt lat="43.54787" lon="5.47376">
        <ele>367.7</ele>
        <time>1970-01-01T01:46:29.000Z</time>
      </trkpt>
      <trkpt lat="43.54786" lon="5.47373">
        <ele>367.9</ele>
        <time>1970-01-01T01:46:31.000Z</time>
      </trkpt>
      <trkpt lat="43.54784" lon="5.47368">
        <ele>368.3</ele>
        <time>1970-01-01T01:46:33.000Z</time>
      </trkpt>
      <trkpt lat="43.54782" lon="5.47362">
        <ele>368.7</ele>
        <time>1970-01-01T01:46:36.000Z</time>
      </trkpt>
      <trkpt lat="43.54782" lon="5.47359">
        <ele>368.9</ele>
        <time>1970-01-01T01:46:37.000Z</time>
      </trkpt>
      <trkpt lat="43.5478" lon="5.47355">
        <ele>369.2</ele>
        <time>1970-01-01T01:46:39.000Z</time>
      </trkpt>
      <trkpt lat="43.54775" lon="5.47349">
        <ele>369.6</ele>
        <time>1970-01-01T01:46:40.000Z</time>
      </trkpt>
      <trkpt lat="43.54774" lon="5.47347">
        <ele>369.8</ele>
        <time>1970-01-01T01:46:41.000Z</time>
      </trkpt>
      <trkpt lat="43.54771" lon="5.4734">
        <ele>370.1</ele>
        <time>1970-01-01T01:46:43.000Z</time>
      </trkpt>
      <trkpt lat="43.54771" lon="5.47337">
        <ele>370.3</ele>
        <time>1970-01-01T01:46:45.000Z</time>
      </trkpt>
      <trkpt lat="43.54771" lon="5.47334">
        <ele>370.4</ele>
        <time>1970-01-01T01:46:46.000Z</time>
      </trkpt>
      <trkpt lat="43.5477" lon="5.4733">
        <ele>370.6</ele>
        <time>1970-01-01T01:46:48.000Z</time>
      </trkpt>
      <trkpt lat="43.54767" lon="5.47325">
        <ele>370.8</ele>
        <time>1970-01-01T01:46:49.000Z</time>
      </trkpt>
      <trkpt lat="43.54764" lon="5.47319">
        <ele>370.9</ele>
        <time>1970-01-01T01:46:51.000Z</time>
      </trkpt>
      <trkpt lat="43.54763" lon="5.47315">
        <ele>370.9</ele>
        <time>1970-01-01T01:46:52.000Z</time>
      </trkpt>
      <trkpt lat="43.54761" lon="5.47312">
        <ele>370.9</ele>
        <time>1970-01-01T01:46:53.000Z</time>
      </trkpt>
      <trkpt lat="43.54758" lon="5.47304">
        <ele>370.9</ele>
        <time>1970-01-01T01:46:55.000Z</time>
      </trkpt>
      <trkpt lat="43.54756" lon="5.47299">
        <ele>370.9</ele>
        <time>1970-01-01T01:46:56.000Z</time>
      </trkpt>
      <trkpt lat="43.54753" lon="5.47289">
        <ele>370.9</ele>
        <time>1970-01-01T01:46:58.000Z</time>
      </trkpt>
      <trkpt lat="43.5475" lon="5.47279">
        <ele>370.8</ele>
        <time>1970-01-01T01:47:00.000Z</time>
      </trkpt>
      <trkpt lat="43.54746" lon="5.47266">
        <ele>370.7</ele>
        <time>1970-01-01T01:47:02.000Z</time>
      </trkpt>
      <trkpt lat="43.54742" lon="5.47255">
        <ele>370.5</ele>
        <time>1970-01-01T01:47:05.000Z</time>
      </trkpt>
      <trkpt lat="43.54737" lon="5.47244">
        <ele>370.4</ele>
        <time>1970-01-01T01:47:06.000Z</time>
      </trkpt>
      <trkpt lat="43.54734" lon="5.47234">
        <ele>370.2</ele>
        <time>1970-01-01T01:47:08.000Z</time>
      </trkpt>
      <trkpt lat="43.54733" lon="5.47229">
        <ele>370.1</ele>
        <time>1970-01-01T01:47:09.000Z</time>
      </trkpt>
      <trkpt lat="43.54729" lon="5.4722">
        <ele>369.9</ele>
        <time>1970-01-01T01:47:11.000Z</time>
      </trkpt>
      <trkpt lat="43.54727" lon="5.47212">
        <ele>369.7</ele>
        <time>1970-01-01T01:47:13.000Z</time>
      </trkpt>
      <trkpt lat="43.54726" lon="5.47201">
        <ele>369.5</ele>
        <time>1970-01-01T01:47:15.000Z</time>
      </trkpt>
      <trkpt lat="43.54723" lon="5.47191">
        <ele>369.4</ele>
        <time>1970-01-01T01:47:17.000Z</time>
      </trkpt>
      <trkpt lat="43.54722" lon="5.47185">
        <ele>369.3</ele>
        <time>1970-01-01T01:47:18.000Z</time>
      </trkpt>
      <trkpt lat="43.5472" lon="5.4718">
        <ele>369.2</ele>
        <time>1970-01-01T01:47:20.000Z</time>
      </trkpt>
      <trkpt lat="43.54717" lon="5.4717">
        <ele>369</ele>
        <time>1970-01-01T01:47:21.000Z</time>
      </trkpt>
      <trkpt lat="43.54715" lon="5.47162">
        <ele>368.9</ele>
        <time>1970-01-01T01:47:23.000Z</time>
      </trkpt>
      <trkpt lat="43.54714" lon="5.47149">
        <ele>368.7</ele>
        <time>1970-01-01T01:47:25.000Z</time>
      </trkpt>
      <trkpt lat="43.5471" lon="5.47138">
        <ele>368.6</ele>
        <time>1970-01-01T01:47:27.000Z</time>
      </trkpt>
      <trkpt lat="43.54707" lon="5.47135">
        <ele>368.5</ele>
        <time>1970-01-01T01:47:28.000Z</time>
      </trkpt>
      <trkpt lat="43.54704" lon="5.47133">
        <ele>368.4</ele>
        <time>1970-01-01T01:47:29.000Z</time>
      </trkpt>
      <trkpt lat="43.54701" lon="5.4712">
        <ele>368.3</ele>
        <time>1970-01-01T01:47:31.000Z</time>
      </trkpt>
      <trkpt lat="43.54699" lon="5.47114">
        <ele>368.2</ele>
        <time>1970-01-01T01:47:32.000Z</time>
      </trkpt>
      <trkpt lat="43.54696" lon="5.47101">
        <ele>368.1</ele>
        <time>1970-01-01T01:47:34.000Z</time>
      </trkpt>
      <trkpt lat="43.54696" lon="5.47095">
        <ele>368</ele>
        <time>1970-01-01T01:47:35.000Z</time>
      </trkpt>
      <trkpt lat="43.54694" lon="5.47086">
        <ele>367.9</ele>
        <time>1970-01-01T01:47:37.000Z</time>
      </trkpt>
      <trkpt lat="43.54694" lon="5.47082">
        <ele>367.8</ele>
        <time>1970-01-01T01:47:38.000Z</time>
      </trkpt>
      <trkpt lat="43.54691" lon="5.47077">
        <ele>367.7</ele>
        <time>1970-01-01T01:47:40.000Z</time>
      </trkpt>
      <trkpt lat="43.54687" lon="5.47068">
        <ele>367.4</ele>
        <time>1970-01-01T01:47:41.000Z</time>
      </trkpt>
      <trkpt lat="43.5468" lon="5.47066">
        <ele>366.3</ele>
        <time>1970-01-01T01:47:43.000Z</time>
      </trkpt>
      <trkpt lat="43.54675" lon="5.47065">
        <ele>365.9</ele>
        <time>1970-01-01T01:47:44.000Z</time>
      </trkpt>
      <trkpt lat="43.54666" lon="5.47066">
        <ele>365.2</ele>
        <time>1970-01-01T01:47:46.000Z</time>
      </trkpt>
      <trkpt lat="43.54655" lon="5.47066">
        <ele>364.2</ele>
        <time>1970-01-01T01:47:48.000Z</time>
      </trkpt>
      <trkpt lat="43.54649" lon="5.47064">
        <ele>363.7</ele>
        <time>1970-01-01T01:47:49.000Z</time>
      </trkpt>
      <trkpt lat="43.54643" lon="5.47062">
        <ele>363.1</ele>
        <time>1970-01-01T01:47:50.000Z</time>
      </trkpt>
      <trkpt lat="43.54631" lon="5.47051">
        <ele>361.6</ele>
        <time>1970-01-01T01:47:52.000Z</time>
      </trkpt>
      <trkpt lat="43.54625" lon="5.47046">
        <ele>360.7</ele>
        <time>1970-01-01T01:47:53.000Z</time>
      </trkpt>
      <trkpt lat="43.54613" lon="5.47036">
        <ele>358.9</ele>
        <time>1970-01-01T01:47:55.000Z</time>
      </trkpt>
      <trkpt lat="43.54608" lon="5.47031">
        <ele>358</ele>
        <time>1970-01-01T01:47:56.000Z</time>
      </trkpt>
      <trkpt lat="43.54605" lon="5.47028">
        <ele>357.4</ele>
        <time>1970-01-01T01:47:57.000Z</time>
      </trkpt>
      <trkpt lat="43.54601" lon="5.47023">
        <ele>356.6</ele>
        <time>1970-01-01T01:47:59.000Z</time>
      </trkpt>
      <trkpt lat="43.54593" lon="5.47013">
        <ele>354.7</ele>
        <time>1970-01-01T01:48:01.000Z</time>
      </trkpt>
      <trkpt lat="43.54587" lon="5.47002">
        <ele>352.6</ele>
        <time>1970-01-01T01:48:03.000Z</time>
      </trkpt>
      <trkpt lat="43.54584" lon="5.46997">
        <ele>351.7</ele>
        <time>1970-01-01T01:48:04.000Z</time>
      </trkpt>
      <trkpt lat="43.5458" lon="5.46987">
        <ele>350.2</ele>
        <time>1970-01-01T01:48:06.000Z</time>
      </trkpt>
      <trkpt lat="43.54575" lon="5.46977">
        <ele>348.8</ele>
        <time>1970-01-01T01:48:08.000Z</time>
      </trkpt>
      <trkpt lat="43.54575" lon="5.46969">
        <ele>347.9</ele>
        <time>1970-01-01T01:48:09.000Z</time>
      </trkpt>
      <trkpt lat="43.54575" lon="5.46965">
        <ele>347.3</ele>
        <time>1970-01-01T01:48:10.000Z</time>
      </trkpt>
      <trkpt lat="43.54571" lon="5.4696">
        <ele>346.6</ele>
        <time>1970-01-01T01:48:12.000Z</time>
      </trkpt>
      <trkpt lat="43.54569" lon="5.46959">
        <ele>346.2</ele>
        <time>1970-01-01T01:48:13.000Z</time>
      </trkpt>
      <trkpt lat="43.54567" lon="5.4696">
        <ele>345.9</ele>
        <time>1970-01-01T01:48:14.000Z</time>
      </trkpt>
      <trkpt lat="43.54558" lon="5.46961">
        <ele>344.5</ele>
        <time>1970-01-01T01:48:16.000Z</time>
      </trkpt>
      <trkpt lat="43.54551" lon="5.4696">
        <ele>343.3</ele>
        <time>1970-01-01T01:48:18.000Z</time>
      </trkpt>
      <trkpt lat="43.5454" lon="5.46959">
        <ele>341.6</ele>
        <time>1970-01-01T01:48:20.000Z</time>
      </trkpt>
      <trkpt lat="43.54533" lon="5.46957">
        <ele>340.5</ele>
        <time>1970-01-01T01:48:21.000Z</time>
      </trkpt>
      <trkpt lat="43.54527" lon="5.46956">
        <ele>339.7</ele>
        <time>1970-01-01T01:48:22.000Z</time>
      </trkpt>
      <trkpt lat="43.54518" lon="5.46951">
        <ele>338.4</ele>
        <time>1970-01-01T01:48:25.000Z</time>
      </trkpt>
      <trkpt lat="43.54511" lon="5.46945">
        <ele>337</ele>
        <time>1970-01-01T01:48:27.000Z</time>
      </trkpt>
      <trkpt lat="43.545" lon="5.4694">
        <ele>335</ele>
        <time>1970-01-01T01:48:29.000Z</time>
      </trkpt>
      <trkpt lat="43.54495" lon="5.46938">
        <ele>334.1</ele>
        <time>1970-01-01T01:48:30.000Z</time>
      </trkpt>
      <trkpt lat="43.54486" lon="5.46933">
        <ele>332.4</ele>
        <time>1970-01-01T01:48:32.000Z</time>
      </trkpt>
      <trkpt lat="43.54474" lon="5.46927">
        <ele>330.5</ele>
        <time>1970-01-01T01:48:34.000Z</time>
      </trkpt>
      <trkpt lat="43.54465" lon="5.46918">
        <ele>328.9</ele>
        <time>1970-01-01T01:48:36.000Z</time>
      </trkpt>
      <trkpt lat="43.54453" lon="5.4691">
        <ele>327.1</ele>
        <time>1970-01-01T01:48:38.000Z</time>
      </trkpt>
      <trkpt lat="43.54442" lon="5.46899">
        <ele>325.2</ele>
        <time>1970-01-01T01:48:40.000Z</time>
      </trkpt>
      <trkpt lat="43.54434" lon="5.46896">
        <ele>324</ele>
        <time>1970-01-01T01:48:41.000Z</time>
      </trkpt>
      <trkpt lat="43.54426" lon="5.4689">
        <ele>322.6</ele>
        <time>1970-01-01T01:48:42.000Z</time>
      </trkpt>
      <trkpt lat="43.54413" lon="5.46881">
        <ele>320.3</ele>
        <time>1970-01-01T01:48:44.000Z</time>
      </trkpt>
      <trkpt lat="43.54398" lon="5.46883">
        <ele>318.3</ele>
        <time>1970-01-01T01:48:46.000Z</time>
      </trkpt>
      <trkpt lat="43.54379" lon="5.46888">
        <ele>316</ele>
        <time>1970-01-01T01:48:48.000Z</time>
      </trkpt>
      <trkpt lat="43.54362" lon="5.4689">
        <ele>313.4</ele>
        <time>1970-01-01T01:48:50.000Z</time>
      </trkpt>
      <trkpt lat="43.54345" lon="5.46889">
        <ele>310.7</ele>
        <time>1970-01-01T01:48:52.000Z</time>
      </trkpt>
      <trkpt lat="43.54336" lon="5.46892">
        <ele>309.5</ele>
        <time>1970-01-01T01:48:53.000Z</time>
      </trkpt>
      <trkpt lat="43.54318" lon="5.46898">
        <ele>306.7</ele>
        <time>1970-01-01T01:48:55.000Z</time>
      </trkpt>
      <trkpt lat="43.54308" lon="5.469">
        <ele>305.3</ele>
        <time>1970-01-01T01:48:56.000Z</time>
      </trkpt>
      <trkpt lat="43.54288" lon="5.46898">
        <ele>302.4</ele>
        <time>1970-01-01T01:48:58.000Z</time>
      </trkpt>
      <trkpt lat="43.54279" lon="5.46893">
        <ele>300.9</ele>
        <time>1970-01-01T01:48:59.000Z</time>
      </trkpt>
      <trkpt lat="43.54269" lon="5.46889">
        <ele>299.4</ele>
        <time>1970-01-01T01:49:00.000Z</time>
      </trkpt>
      <trkpt lat="43.54259" lon="5.46885">
        <ele>298</ele>
        <time>1970-01-01T01:49:01.000Z</time>
      </trkpt>
      <trkpt lat="43.5425" lon="5.46887">
        <ele>296.9</ele>
        <time>1970-01-01T01:49:02.000Z</time>
      </trkpt>
      <trkpt lat="43.5424" lon="5.46889">
        <ele>295.9</ele>
        <time>1970-01-01T01:49:03.000Z</time>
      </trkpt>
      <trkpt lat="43.5422" lon="5.46897">
        <ele>294.1</ele>
        <time>1970-01-01T01:49:05.000Z</time>
      </trkpt>
      <trkpt lat="43.5421" lon="5.469">
        <ele>293.5</ele>
        <time>1970-01-01T01:49:06.000Z</time>
      </trkpt>
      <trkpt lat="43.54191" lon="5.46904">
        <ele>292.2</ele>
        <time>1970-01-01T01:49:08.000Z</time>
      </trkpt>
      <trkpt lat="43.54182" lon="5.46905">
        <ele>291.7</ele>
        <time>1970-01-01T01:49:09.000Z</time>
      </trkpt>
      <trkpt lat="43.54172" lon="5.46908">
        <ele>291.1</ele>
        <time>1970-01-01T01:49:10.000Z</time>
      </trkpt>
      <trkpt lat="43.54154" lon="5.46918">
        <ele>289.1</ele>
        <time>1970-01-01T01:49:12.000Z</time>
      </trkpt>
      <trkpt lat="43.54146" lon="5.46926">
        <ele>288</ele>
        <time>1970-01-01T01:49:13.000Z</time>
      </trkpt>
      <trkpt lat="43.54132" lon="5.46941">
        <ele>286</ele>
        <time>1970-01-01T01:49:15.000Z</time>
      </trkpt>
      <trkpt lat="43.5412" lon="5.46944">
        <ele>284.6</ele>
        <time>1970-01-01T01:49:17.000Z</time>
      </trkpt>
      <trkpt lat="43.54115" lon="5.46938">
        <ele>283.8</ele>
        <time>1970-01-01T01:49:18.000Z</time>
      </trkpt>
      <trkpt lat="43.54103" lon="5.46925">
        <ele>282.1</ele>
        <time>1970-01-01T01:49:20.000Z</time>
      </trkpt>
      <trkpt lat="43.54096" lon="5.4692">
        <ele>281.8</ele>
        <time>1970-01-01T01:49:21.000Z</time>
      </trkpt>
      <trkpt lat="43.5409" lon="5.46916">
        <ele>281.6</ele>
        <time>1970-01-01T01:49:22.000Z</time>
      </trkpt>
      <trkpt lat="43.54078" lon="5.46924">
        <ele>281.2</ele>
        <time>1970-01-01T01:49:24.000Z</time>
      </trkpt>
      <trkpt lat="43.54067" lon="5.46938">
        <ele>280.2</ele>
        <time>1970-01-01T01:49:26.000Z</time>
      </trkpt>
      <trkpt lat="43.54058" lon="5.46956">
        <ele>278.8</ele>
        <time>1970-01-01T01:49:28.000Z</time>
      </trkpt>
      <trkpt lat="43.54056" lon="5.46978">
        <ele>277.4</ele>
        <time>1970-01-01T01:49:30.000Z</time>
      </trkpt>
      <trkpt lat="43.54053" lon="5.46989">
        <ele>276.7</ele>
        <time>1970-01-01T01:49:31.000Z</time>
      </trkpt>
      <trkpt lat="43.54049" lon="5.46998">
        <ele>275.9</ele>
        <time>1970-01-01T01:49:32.000Z</time>
      </trkpt>
      <trkpt lat="43.54043" lon="5.47007">
        <ele>275.1</ele>
        <time>1970-01-01T01:49:33.000Z</time>
      </trkpt>
      <trkpt lat="43.54026" lon="5.47017">
        <ele>273.6</ele>
        <time>1970-01-01T01:49:35.000Z</time>
      </trkpt>
      <trkpt lat="43.54008" lon="5.47013">
        <ele>272.2</ele>
        <time>1970-01-01T01:49:37.000Z</time>
      </trkpt>
      <trkpt lat="43.54" lon="5.47008">
        <ele>271.4</ele>
        <time>1970-01-01T01:49:39.000Z</time>
      </trkpt>
      <trkpt lat="43.53992" lon="5.46998">
        <ele>270.6</ele>
        <time>1970-01-01T01:49:40.000Z</time>
      </trkpt>
      <trkpt lat="43.53978" lon="5.46981">
        <ele>269.2</ele>
        <time>1970-01-01T01:49:42.000Z</time>
      </trkpt>
      <trkpt lat="43.53967" lon="5.46963">
        <ele>267.8</ele>
        <time>1970-01-01T01:49:43.000Z</time>
      </trkpt>
      <trkpt lat="43.53964" lon="5.46952">
        <ele>267.1</ele>
        <time>1970-01-01T01:49:44.000Z</time>
      </trkpt>
      <trkpt lat="43.53959" lon="5.46927">
        <ele>265.6</ele>
        <time>1970-01-01T01:49:46.000Z</time>
      </trkpt>
      <trkpt lat="43.53958" lon="5.46915">
        <ele>264.8</ele>
        <time>1970-01-01T01:49:47.000Z</time>
      </trkpt>
      <trkpt lat="43.53961" lon="5.46895">
        <ele>263.5</ele>
        <time>1970-01-01T01:49:49.000Z</time>
      </trkpt>
      <trkpt lat="43.53959" lon="5.46886">
        <ele>262.9</ele>
        <time>1970-01-01T01:49:50.000Z</time>
      </trkpt>
      <trkpt lat="43.53955" lon="5.46867">
        <ele>261.3</ele>
        <time>1970-01-01T01:49:52.000Z</time>
      </trkpt>
      <trkpt lat="43.53951" lon="5.46858">
        <ele>260.6</ele>
        <time>1970-01-01T01:49:54.000Z</time>
      </trkpt>
      <trkpt lat="43.53943" lon="5.46854">
        <ele>259.6</ele>
        <time>1970-01-01T01:49:55.000Z</time>
      </trkpt>
      <trkpt lat="43.53937" lon="5.46857">
        <ele>258.9</ele>
        <time>1970-01-01T01:49:56.000Z</time>
      </trkpt>
      <trkpt lat="43.53921" lon="5.46882">
        <ele>256.5</ele>
        <time>1970-01-01T01:49:58.000Z</time>
      </trkpt>
      <trkpt lat="43.53913" lon="5.46891">
        <ele>255.4</ele>
        <time>1970-01-01T01:50:00.000Z</time>
      </trkpt>
      <trkpt lat="43.53895" lon="5.46899">
        <ele>253.9</ele>
        <time>1970-01-01T01:50:01.000Z</time>
      </trkpt>
      <trkpt lat="43.53877" lon="5.46892">
        <ele>252.3</ele>
        <time>1970-01-01T01:50:03.000Z</time>
      </trkpt>
      <trkpt lat="43.53862" lon="5.46879">
        <ele>251</ele>
        <time>1970-01-01T01:50:05.000Z</time>
      </trkpt>
      <trkpt lat="43.53855" lon="5.46874">
        <ele>250.4</ele>
        <time>1970-01-01T01:50:06.000Z</time>
      </trkpt>
      <trkpt lat="43.53848" lon="5.46872">
        <ele>249.8</ele>
        <time>1970-01-01T01:50:07.000Z</time>
      </trkpt>
      <trkpt lat="43.53834" lon="5.46876">
        <ele>250.6</ele>
        <time>1970-01-01T01:50:09.000Z</time>
      </trkpt>
      <trkpt lat="43.53831" lon="5.46884">
        <ele>251.3</ele>
        <time>1970-01-01T01:50:10.000Z</time>
      </trkpt>
      <trkpt lat="43.53829" lon="5.46892">
        <ele>252</ele>
        <time>1970-01-01T01:50:12.000Z</time>
      </trkpt>
      <trkpt lat="43.53827" lon="5.46897">
        <ele>252.5</ele>
        <time>1970-01-01T01:50:14.000Z</time>
      </trkpt>
      <trkpt lat="43.53825" lon="5.469">
        <ele>252.8</ele>
        <time>1970-01-01T01:50:15.000Z</time>
      </trkpt>
      <trkpt lat="43.53824" lon="5.46905">
        <ele>253.1</ele>
        <time>1970-01-01T01:50:17.000Z</time>
      </trkpt>
      <trkpt lat="43.53824" lon="5.46905">
        <ele>253.2</ele>
        <time>1970-01-01T01:50:18.000Z</time>
      </trkpt>
      <trkpt lat="43.53821" lon="5.4691">
        <ele>253.6</ele>
        <time>1970-01-01T01:50:20.000Z</time>
      </trkpt>
      <trkpt lat="43.53818" lon="5.46916">
        <ele>253.9</ele>
        <time>1970-01-01T01:50:22.000Z</time>
      </trkpt>
      <trkpt lat="43.53817" lon="5.46919">
        <ele>254.1</ele>
        <time>1970-01-01T01:50:24.000Z</time>
      </trkpt>
      <trkpt lat="43.53816" lon="5.46921">
        <ele>254.2</ele>
        <time>1970-01-01T01:50:25.000Z</time>
      </trkpt>
      <trkpt lat="43.53815" lon="5.46924">
        <ele>254.4</ele>
        <time>1970-01-01T01:50:26.000Z</time>
      </trkpt>
      <trkpt lat="43.53814" lon="5.46929">
        <ele>254.6</ele>
        <time>1970-01-01T01:50:28.000Z</time>
      </trkpt>
      <trkpt lat="43.53813" lon="5.46933">
        <ele>254.7</ele>
        <time>1970-01-01T01:50:30.000Z</time>
      </trkpt>
      <trkpt lat="43.53812" lon="5.46935">
        <ele>254.7</ele>
        <time>1970-01-01T01:50:31.000Z</time>
      </trkpt>
      <trkpt lat="43.5381" lon="5.46941">
        <ele>254.8</ele>
        <time>1970-01-01T01:50:33.000Z</time>
      </trkpt>
      <trkpt lat="43.53809" lon="5.46943">
        <ele>254.8</ele>
        <time>1970-01-01T01:50:34.000Z</time>
      </trkpt>
      <trkpt lat="43.53806" lon="5.46948">
        <ele>254.8</ele>
        <time>1970-01-01T01:50:36.000Z</time>
      </trkpt>
      <trkpt lat="43.53801" lon="5.46954">
        <ele>254.6</ele>
        <time>1970-01-01T01:50:38.000Z</time>
      </trkpt>
      <trkpt lat="43.53798" lon="5.46957">
        <ele>254.4</ele>
        <time>1970-01-01T01:50:39.000Z</time>
      </trkpt>
      <trkpt lat="43.53794" lon="5.4696">
        <ele>254.1</ele>
        <time>1970-01-01T01:50:40.000Z</time>
      </trkpt>
      <trkpt lat="43.5378" lon="5.46962">
        <ele>252.8</ele>
        <time>1970-01-01T01:50:42.000Z</time>
      </trkpt>
      <trkpt lat="43.53774" lon="5.46965">
        <ele>252.1</ele>
        <time>1970-01-01T01:50:43.000Z</time>
      </trkpt>
      <trkpt lat="43.53768" lon="5.46968">
        <ele>251.5</ele>
        <time>1970-01-01T01:50:44.000Z</time>
      </trkpt>
      <trkpt lat="43.53757" lon="5.46983">
        <ele>250.5</ele>
        <time>1970-01-01T01:50:46.000Z</time>
      </trkpt>
      <trkpt lat="43.53751" lon="5.46992">
        <ele>250.1</ele>
        <time>1970-01-01T01:50:47.000Z</time>
      </trkpt>
      <trkpt lat="43.53749" lon="5.47002">
        <ele>249.8</ele>
        <time>1970-01-01T01:50:48.000Z</time>
      </trkpt>
      <trkpt lat="43.53755" lon="5.47016">
        <ele>249.5</ele>
        <time>1970-01-01T01:50:49.000Z</time>
      </trkpt>
      <trkpt lat="43.53758" lon="5.47036">
        <ele>249.3</ele>
        <time>1970-01-01T01:50:51.000Z</time>
      </trkpt>
      <trkpt lat="43.53758" lon="5.47054">
        <ele>249.2</ele>
        <time>1970-01-01T01:50:53.000Z</time>
      </trkpt>
      <trkpt lat="43.5376" lon="5.47071">
        <ele>249.3</ele>
        <time>1970-01-01T01:50:55.000Z</time>
      </trkpt>
      <trkpt lat="43.5376" lon="5.47079">
        <ele>249.4</ele>
        <time>1970-01-01T01:50:56.000Z</time>
      </trkpt>
      <trkpt lat="43.5376" lon="5.47087">
        <ele>249.4</ele>
        <time>1970-01-01T01:50:57.000Z</time>
      </trkpt>
      <trkpt lat="43.53758" lon="5.47101">
        <ele>249.4</ele>
        <time>1970-01-01T01:50:59.000Z</time>
      </trkpt>
      <trkpt lat="43.53757" lon="5.47107">
        <ele>249.4</ele>
        <time>1970-01-01T01:51:00.000Z</time>
      </trkpt>
      <trkpt lat="43.53755" lon="5.47121">
        <ele>248.5</ele>
        <time>1970-01-01T01:51:02.000Z</time>
      </trkpt>
      <trkpt lat="43.53755" lon="5.47128">
        <ele>248</ele>
        <time>1970-01-01T01:51:03.000Z</time>
      </trkpt>
      <trkpt lat="43.53754" lon="5.47136">
        <ele>247.7</ele>
        <time>1970-01-01T01:51:04.000Z</time>
      </trkpt>
      <trkpt lat="43.53754" lon="5.47144">
        <ele>247.6</ele>
        <time>1970-01-01T01:51:05.000Z</time>
      </trkpt>
      <trkpt lat="43.53755" lon="5.47153">
        <ele>247.7</ele>
        <time>1970-01-01T01:51:07.000Z</time>
      </trkpt>
      <trkpt lat="43.53754" lon="5.47168">
        <ele>247.8</ele>
        <time>1970-01-01T01:51:08.000Z</time>
      </trkpt>
      <trkpt lat="43.53743" lon="5.47172">
        <ele>247.8</ele>
        <time>1970-01-01T01:51:11.000Z</time>
      </trkpt>
      <trkpt lat="43.53734" lon="5.47171">
        <ele>247.9</ele>
        <time>1970-01-01T01:51:13.000Z</time>
      </trkpt>
      <trkpt lat="43.53727" lon="5.47176">
        <ele>248</ele>
        <time>1970-01-01T01:51:14.000Z</time>
      </trkpt>
      <trkpt lat="43.53723" lon="5.47177">
        <ele>248</ele>
        <time>1970-01-01T01:51:15.000Z</time>
      </trkpt>
      <trkpt lat="43.53718" lon="5.4718">
        <ele>248</ele>
        <time>1970-01-01T01:51:17.000Z</time>
      </trkpt>
      <trkpt lat="43.53723" lon="5.47191">
        <ele>248.1</ele>
        <time>1970-01-01T01:51:19.000Z</time>
      </trkpt>
      <trkpt lat="43.53723" lon="5.47194">
        <ele>248.1</ele>
        <time>1970-01-01T01:51:20.000Z</time>
      </trkpt>
      <trkpt lat="43.53722" lon="5.47196">
        <ele>248.1</ele>
        <time>1970-01-01T01:51:21.000Z</time>
      </trkpt>
      <trkpt lat="43.53722" lon="5.47197">
        <ele>248.1</ele>
        <time>1970-01-01T01:51:23.000Z</time>
      </trkpt>
      <trkpt lat="43.53722" lon="5.47196">
        <ele>248.1</ele>
        <time>1970-01-01T01:51:24.000Z</time>
      </trkpt>
      <trkpt lat="43.53722" lon="5.47196">
        <ele>248.2</ele>
        <time>1970-01-01T01:51:25.000Z</time>
      </trkpt>
      <trkpt lat="43.53723" lon="5.47196">
        <ele>248.2</ele>
        <time>1970-01-01T01:51:27.000Z</time>
      </trkpt>
      <trkpt lat="43.53723" lon="5.47196">
        <ele>248.2</ele>
        <time>1970-01-01T01:51:29.000Z</time>
      </trkpt>
      <trkpt lat="43.53724" lon="5.47197">
        <ele>248.2</ele>
        <time>1970-01-01T01:51:31.000Z</time>
      </trkpt>
      <trkpt lat="43.53726" lon="5.47198">
        <ele>248.2</ele>
        <time>1970-01-01T01:51:33.000Z</time>
      </trkpt>
      <trkpt lat="43.53728" lon="5.47199">
        <ele>248.2</ele>
        <time>1970-01-01T01:51:35.000Z</time>
      </trkpt>
      <trkpt lat="43.53729" lon="5.47199">
        <ele>248.2</ele>
        <time>1970-01-01T01:51:37.000Z</time>
      </trkpt>
      <trkpt lat="43.5373" lon="5.47199">
        <ele>248.2</ele>
        <time>1970-01-01T01:51:39.000Z</time>
      </trkpt>
      <trkpt lat="43.5373" lon="5.472">
        <ele>248.2</ele>
        <time>1970-01-01T01:51:40.000Z</time>
      </trkpt>
      <trkpt lat="43.53731" lon="5.472">
        <ele>248.2</ele>
        <time>1970-01-01T01:51:41.000Z</time>
      </trkpt>
      <trkpt lat="43.53732" lon="5.472">
        <ele>248.2</ele>
        <time>1970-01-01T01:51:43.000Z</time>
      </trkpt>
      <trkpt lat="43.53733" lon="5.47201">
        <ele>248.2</ele>
        <time>1970-01-01T01:51:45.000Z</time>
      </trkpt>
      <trkpt lat="43.53733" lon="5.47201">
        <ele>248.2</ele>
        <time>1970-01-01T01:51:46.000Z</time>
      </trkpt>
      <trkpt lat="43.53734" lon="5.47201">
        <ele>248.3</ele>
        <time>1970-01-01T01:51:48.000Z</time>
      </trkpt>
      <trkpt lat="43.53735" lon="5.47202">
        <ele>248.3</ele>
        <time>1970-01-01T01:51:50.000Z</time>
      </trkpt>
      <trkpt lat="43.53736" lon="5.47202">
        <ele>248.3</ele>
        <time>1970-01-01T01:51:51.000Z</time>
      </trkpt>
      <trkpt lat="43.53736" lon="5.47203">
        <ele>248.3</ele>
        <time>1970-01-01T01:51:53.000Z</time>
      </trkpt>
      <trkpt lat="43.53737" lon="5.47203">
        <ele>248.3</ele>
        <time>1970-01-01T01:51:55.000Z</time>
      </trkpt>
      <trkpt lat="43.53738" lon="5.47204">
        <ele>248.3</ele>
        <time>1970-01-01T01:51:56.000Z</time>
      </trkpt>
      <trkpt lat="43.53738" lon="5.47204">
        <ele>248.3</ele>
        <time>1970-01-01T01:51:57.000Z</time>
      </trkpt>
      <trkpt lat="43.53738" lon="5.47204">
        <ele>248.3</ele>
        <time>1970-01-01T01:51:58.000Z</time>
      </trkpt>
      <trkpt lat="43.53739" lon="5.47204">
        <ele>248.3</ele>
        <time>1970-01-01T01:52:00.000Z</time>
      </trkpt>
      <trkpt lat="43.53739" lon="5.47204">
        <ele>248.3</ele>
        <time>1970-01-01T01:52:02.000Z</time>
      </trkpt>
      <trkpt lat="43.53739" lon="5.47204">
        <ele>248.3</ele>
        <time>1970-01-01T01:52:03.000Z</time>
      </trkpt>
      <trkpt lat="43.53739" lon="5.47205">
        <ele>248.3</ele>
        <time>1970-01-01T01:52:05.000Z</time>
      </trkpt>
      <trkpt lat="43.53739" lon="5.47205">
        <ele>248.3</ele>
        <time>1970-01-01T01:52:06.000Z</time>
      </trkpt>
      <trkpt lat="43.53739" lon="5.47205">
        <ele>248.3</ele>
        <time>1970-01-01T01:52:07.000Z</time>
      </trkpt>
      <trkpt lat="43.53738" lon="5.47205">
        <ele>248.3</ele>
        <time>1970-01-01T01:52:10.000Z</time>
      </trkpt>
      <trkpt lat="43.53737" lon="5.47201">
        <ele>248.3</ele>
        <time>1970-01-01T01:53:36.000Z</time>
      </trkpt>
      <trkpt lat="43.53738" lon="5.472">
        <ele>248.3</ele>
        <time>1970-01-01T01:53:37.000Z</time>
      </trkpt>
      <trkpt lat="43.53737" lon="5.47199">
        <ele>248.3</ele>
        <time>1970-01-01T01:53:39.000Z</time>
      </trkpt>
      <trkpt lat="43.53737" lon="5.472">
        <ele>248.4</ele>
        <time>1970-01-01T01:53:40.000Z</time>
      </trkpt>
      <trkpt lat="43.53737" lon="5.47202">
        <ele>248.4</ele>
        <time>1970-01-01T01:53:41.000Z</time>
      </trkpt>
      <trkpt lat="43.53738" lon="5.47207">
        <ele>248.4</ele>
        <time>1970-01-01T01:53:43.000Z</time>
      </trkpt>
      <trkpt lat="43.53737" lon="5.4721">
        <ele>248.4</ele>
        <time>1970-01-01T01:53:44.000Z</time>
      </trkpt>
      <trkpt lat="43.53737" lon="5.47209">
        <ele>248.4</ele>
        <time>1970-01-01T01:53:46.000Z</time>
      </trkpt>
      <trkpt lat="43.53736" lon="5.47206">
        <ele>248.4</ele>
        <time>1970-01-01T01:53:47.000Z</time>
      </trkpt>
      <trkpt lat="43.53734" lon="5.47197">
        <ele>248.5</ele>
        <time>1970-01-01T01:53:49.000Z</time>
      </trkpt>
      <trkpt lat="43.53734" lon="5.47194">
        <ele>248.5</ele>
        <time>1970-01-01T01:53:50.000Z</time>
      </trkpt>
      <trkpt lat="43.53734" lon="5.47193">
        <ele>248.5</ele>
        <time>1970-01-01T01:53:51.000Z</time>
      </trkpt>
      <trkpt lat="43.53734" lon="5.47192">
        <ele>248.5</ele>
        <time>1970-01-01T01:53:52.000Z</time>
      </trkpt>
      <trkpt lat="43.53734" lon="5.47192">
        <ele>248.5</ele>
        <time>1970-01-01T01:53:53.000Z</time>
      </trkpt>
      <trkpt lat="43.53734" lon="5.47192">
        <ele>248.5</ele>
        <time>1970-01-01T01:53:55.000Z</time>
      </trkpt>
      <trkpt lat="43.53735" lon="5.47192">
        <ele>248.5</ele>
        <time>1970-01-01T01:53:57.000Z</time>
      </trkpt>
      <trkpt lat="43.53735" lon="5.47192">
        <ele>248.5</ele>
        <time>1970-01-01T01:53:59.000Z</time>
      </trkpt>
      <trkpt lat="43.53735" lon="5.47192">
        <ele>248.5</ele>
        <time>1970-01-01T01:54:00.000Z</time>
      </trkpt>
      <trkpt lat="43.53735" lon="5.47192">
        <ele>248.5</ele>
        <time>1970-01-01T01:54:01.000Z</time>
      </trkpt>
      <trkpt lat="43.53735" lon="5.47192">
        <ele>248.5</ele>
        <time>1970-01-01T01:54:02.000Z</time>
      </trkpt>
      <trkpt lat="43.53735" lon="5.47192">
        <ele>248.5</ele>
        <time>1970-01-01T01:54:03.000Z</time>
      </trkpt>
      <trkpt lat="43.53735" lon="5.47192">
        <ele>248.5</ele>
        <time>1970-01-01T01:54:05.000Z</time>
      </trkpt>
      <trkpt lat="43.53731" lon="5.47191">
        <ele>248.6</ele>
        <time>1970-01-01T01:54:29.000Z</time>
      </trkpt>
      <trkpt lat="43.5373" lon="5.47191">
        <ele>248.6</ele>
        <time>1970-01-01T01:54:30.000Z</time>
      </trkpt>
      <trkpt lat="43.53729" lon="5.47191">
        <ele>248.6</ele>
        <time>1970-01-01T01:54:32.000Z</time>
      </trkpt>
      <trkpt lat="43.53728" lon="5.47191">
        <ele>248.6</ele>
        <time>1970-01-01T01:54:33.000Z</time>
      </trkpt>
      <trkpt lat="43.53728" lon="5.47191">
        <ele>248.6</ele>
        <time>1970-01-01T01:54:34.000Z</time>
      </trkpt>
      <trkpt lat="43.53728" lon="5.47191">
        <ele>248.6</ele>
        <time>1970-01-01T01:54:36.000Z</time>
      </trkpt>
      <trkpt lat="43.53728" lon="5.47192">
        <ele>248.6</ele>
        <time>1970-01-01T01:54:38.000Z</time>
      </trkpt>
      <trkpt lat="43.53728" lon="5.47192">
        <ele>248.6</ele>
        <time>1970-01-01T01:54:39.000Z</time>
      </trkpt>
      <trkpt lat="43.53728" lon="5.47192">
        <ele>248.6</ele>
        <time>1970-01-01T01:54:40.000Z</time>
      </trkpt>
      <trkpt lat="43.53728" lon="5.47192">
        <ele>248.6</ele>
        <time>1970-01-01T01:54:41.000Z</time>
      </trkpt>
      <trkpt lat="43.53728" lon="5.47192">
        <ele>248.6</ele>
        <time>1970-01-01T01:54:42.000Z</time>
      </trkpt>
      <trkpt lat="43.53728" lon="5.47192">
        <ele>248.6</ele>
        <time>1970-01-01T01:54:43.000Z</time>
      </trkpt>
      <trkpt lat="43.53728" lon="5.47192">
        <ele>248.6</ele>
        <time>1970-01-01T01:54:45.000Z</time>
      </trkpt>
    </trkseg>
  </trk>
</gpx>